<?xml version="1.0" encoding="UTF-8" standalone="no" ?>
<gpx xmlns="http://www.topografix.com/GPX/1/1" xmlns:xsi="http://www.w3.org/2001/XMLSchema-instance" xsi:schemaLocation="http://www.topografix.com/GPX/1/1 http://www.topografix.com/GPX/1/1/gpx.xsd" version="1.1" creator="VisuGPX - https://www.visugpx.com">
  <metadata>
    <name>VTT - La Milliacoise 2013</name>
    <desc><![CDATA[Avec Lita, Fetra et David]]></desc>
  </metadata>
  <trk>
    <name><![CDATA[VTT - La Milliacoise 2013]]></name>
    <desc><![CDATA[17 nov. 2013  7:55 am]]></desc>
    <trkseg>
      <trkpt lat="48.42215" lon="2.46488">
        <ele>120.974</ele>
        <time>2013-11-17T06:55:51.252Z</time>
      </trkpt>
      <trkpt lat="48.42215" lon="2.46488">
        <ele>97.056</ele>
        <time>2013-11-17T06:55:52.301Z</time>
      </trkpt>
      <trkpt lat="48.42215" lon="2.46488">
        <ele>72.378</ele>
        <time>2013-11-17T06:55:53.266Z</time>
      </trkpt>
      <trkpt lat="48.42215" lon="2.46488">
        <ele>61.784</ele>
        <time>2013-11-17T06:58:58.699Z</time>
      </trkpt>
      <trkpt lat="48.42198" lon="2.46501">
        <ele>63.134</ele>
        <time>2013-11-17T06:59:17.910Z</time>
      </trkpt>
      <trkpt lat="48.4219" lon="2.46508">
        <ele>67.001</ele>
        <time>2013-11-17T06:59:21.976Z</time>
      </trkpt>
      <trkpt lat="48.42179" lon="2.46509">
        <ele>66.929</ele>
        <time>2013-11-17T06:59:26.154Z</time>
      </trkpt>
      <trkpt lat="48.42169" lon="2.4651">
        <ele>64.422</ele>
        <time>2013-11-17T06:59:29.176Z</time>
      </trkpt>
      <trkpt lat="48.42158" lon="2.4651">
        <ele>62.658</ele>
        <time>2013-11-17T06:59:32.259Z</time>
      </trkpt>
      <trkpt lat="48.42158" lon="2.4651">
        <ele>62.111</ele>
        <time>2013-11-17T06:59:32.259Z</time>
      </trkpt>
      <trkpt lat="48.42158" lon="2.4651">
        <ele>62.21</ele>
        <time>2013-11-17T06:59:32.359Z</time>
      </trkpt>
      <trkpt lat="48.42145" lon="2.46513">
        <ele>62.438</ele>
        <time>2013-11-17T06:59:39.400Z</time>
      </trkpt>
      <trkpt lat="48.42135" lon="2.46513">
        <ele>62.507</ele>
        <time>2013-11-17T06:59:42.793Z</time>
      </trkpt>
      <trkpt lat="48.42124" lon="2.46513">
        <ele>63.083</ele>
        <time>2013-11-17T06:59:46.264Z</time>
      </trkpt>
      <trkpt lat="48.42114" lon="2.46512">
        <ele>64.772</ele>
        <time>2013-11-17T06:59:49.111Z</time>
      </trkpt>
      <trkpt lat="48.42104" lon="2.46512">
        <ele>66.608</ele>
        <time>2013-11-17T06:59:51.853Z</time>
      </trkpt>
      <trkpt lat="48.42092" lon="2.46514">
        <ele>66.686</ele>
        <time>2013-11-17T06:59:54.828Z</time>
      </trkpt>
      <trkpt lat="48.4208" lon="2.46514">
        <ele>64.642</ele>
        <time>2013-11-17T06:59:57.834Z</time>
      </trkpt>
      <trkpt lat="48.42068" lon="2.46512">
        <ele>62.213</ele>
        <time>2013-11-17T07:00:00.772Z</time>
      </trkpt>
      <trkpt lat="48.42056" lon="2.46507">
        <ele>60.96</ele>
        <time>2013-11-17T07:00:03.883Z</time>
      </trkpt>
      <trkpt lat="48.42045" lon="2.46502">
        <ele>60.55</ele>
        <time>2013-11-17T07:00:07.036Z</time>
      </trkpt>
      <trkpt lat="48.42035" lon="2.46502">
        <ele>60.331</ele>
        <time>2013-11-17T07:00:10.182Z</time>
      </trkpt>
      <trkpt lat="48.42026" lon="2.46502">
        <ele>60.168</ele>
        <time>2013-11-17T07:00:13.262Z</time>
      </trkpt>
      <trkpt lat="48.42026" lon="2.46502">
        <ele>60.104</ele>
        <time>2013-11-17T07:00:17.255Z</time>
      </trkpt>
      <trkpt lat="48.42026" lon="2.46502">
        <ele>60.098</ele>
        <time>2013-11-17T07:00:17.355Z</time>
      </trkpt>
      <trkpt lat="48.4201" lon="2.46525">
        <ele>60.102</ele>
        <time>2013-11-17T07:00:32.671Z</time>
      </trkpt>
      <trkpt lat="48.42" lon="2.46525">
        <ele>60.12</ele>
        <time>2013-11-17T07:00:38.654Z</time>
      </trkpt>
      <trkpt lat="48.41992" lon="2.46533">
        <ele>60.93</ele>
        <time>2013-11-17T07:00:44.651Z</time>
      </trkpt>
      <trkpt lat="48.41984" lon="2.4654">
        <ele>62.965</ele>
        <time>2013-11-17T07:00:51.235Z</time>
      </trkpt>
      <trkpt lat="48.41973" lon="2.4654">
        <ele>65.027</ele>
        <time>2013-11-17T07:00:57.121Z</time>
      </trkpt>
      <trkpt lat="48.41962" lon="2.46538">
        <ele>65.824</ele>
        <time>2013-11-17T07:01:01.661Z</time>
      </trkpt>
      <trkpt lat="48.41952" lon="2.46538">
        <ele>65.359</ele>
        <time>2013-11-17T07:01:04.801Z</time>
      </trkpt>
      <trkpt lat="48.41941" lon="2.46539">
        <ele>64.077</ele>
        <time>2013-11-17T07:01:07.636Z</time>
      </trkpt>
      <trkpt lat="48.41928" lon="2.4654">
        <ele>62.641</ele>
        <time>2013-11-17T07:01:10.588Z</time>
      </trkpt>
      <trkpt lat="48.41917" lon="2.46542">
        <ele>62.228</ele>
        <time>2013-11-17T07:01:13.114Z</time>
      </trkpt>
      <trkpt lat="48.41905" lon="2.46544">
        <ele>63.336</ele>
        <time>2013-11-17T07:01:15.604Z</time>
      </trkpt>
      <trkpt lat="48.41894" lon="2.46545">
        <ele>64.93</ele>
        <time>2013-11-17T07:01:18.084Z</time>
      </trkpt>
      <trkpt lat="48.41885" lon="2.46546">
        <ele>65.976</ele>
        <time>2013-11-17T07:01:20.136Z</time>
      </trkpt>
      <trkpt lat="48.41875" lon="2.46547">
        <ele>66.371</ele>
        <time>2013-11-17T07:01:22.312Z</time>
      </trkpt>
      <trkpt lat="48.41868" lon="2.46554">
        <ele>66.101</ele>
        <time>2013-11-17T07:01:24.645Z</time>
      </trkpt>
      <trkpt lat="48.41861" lon="2.46568">
        <ele>65.049</ele>
        <time>2013-11-17T07:01:27.711Z</time>
      </trkpt>
      <trkpt lat="48.41855" lon="2.46581">
        <ele>63.403</ele>
        <time>2013-11-17T07:01:30.390Z</time>
      </trkpt>
      <trkpt lat="48.4185" lon="2.46594">
        <ele>61.867</ele>
        <time>2013-11-17T07:01:33.016Z</time>
      </trkpt>
      <trkpt lat="48.4185" lon="2.4661">
        <ele>61.004</ele>
        <time>2013-11-17T07:01:36.167Z</time>
      </trkpt>
      <trkpt lat="48.41859" lon="2.46616">
        <ele>60.803</ele>
        <time>2013-11-17T07:01:39.171Z</time>
      </trkpt>
      <trkpt lat="48.4187" lon="2.46622">
        <ele>60.905</ele>
        <time>2013-11-17T07:01:42.625Z</time>
      </trkpt>
      <trkpt lat="48.4188" lon="2.46623">
        <ele>60.86</ele>
        <time>2013-11-17T07:01:45.404Z</time>
      </trkpt>
      <trkpt lat="48.4189" lon="2.46627">
        <ele>60.368</ele>
        <time>2013-11-17T07:01:48.259Z</time>
      </trkpt>
      <trkpt lat="48.4189" lon="2.46627">
        <ele>59.655</ele>
        <time>2013-11-17T07:01:53.251Z</time>
      </trkpt>
      <trkpt lat="48.4189" lon="2.46627">
        <ele>59.226</ele>
        <time>2013-11-17T07:01:53.351Z</time>
      </trkpt>
      <trkpt lat="48.41914" lon="2.46645">
        <ele>59.229</ele>
        <time>2013-11-17T07:02:12.917Z</time>
      </trkpt>
      <trkpt lat="48.41924" lon="2.46651">
        <ele>59.409</ele>
        <time>2013-11-17T07:02:17.135Z</time>
      </trkpt>
      <trkpt lat="48.41934" lon="2.46657">
        <ele>59.397</ele>
        <time>2013-11-17T07:02:20.566Z</time>
      </trkpt>
      <trkpt lat="48.41942" lon="2.46665">
        <ele>59.095</ele>
        <time>2013-11-17T07:02:23.220Z</time>
      </trkpt>
      <trkpt lat="48.4195" lon="2.46674">
        <ele>58.985</ele>
        <time>2013-11-17T07:02:25.622Z</time>
      </trkpt>
      <trkpt lat="48.4196" lon="2.46684">
        <ele>59.629</ele>
        <time>2013-11-17T07:02:28.552Z</time>
      </trkpt>
      <trkpt lat="48.41972" lon="2.4669">
        <ele>60.555</ele>
        <time>2013-11-17T07:02:31.314Z</time>
      </trkpt>
      <trkpt lat="48.41985" lon="2.46696">
        <ele>60.799</ele>
        <time>2013-11-17T07:02:34.085Z</time>
      </trkpt>
      <trkpt lat="48.42" lon="2.46704">
        <ele>59.657</ele>
        <time>2013-11-17T07:02:37.009Z</time>
      </trkpt>
      <trkpt lat="48.4201" lon="2.46711">
        <ele>57.261</ele>
        <time>2013-11-17T07:02:39.000Z</time>
      </trkpt>
      <trkpt lat="48.42026" lon="2.4672">
        <ele>54.902</ele>
        <time>2013-11-17T07:02:41.802Z</time>
      </trkpt>
      <trkpt lat="48.42041" lon="2.4673">
        <ele>54.027</ele>
        <time>2013-11-17T07:02:44.521Z</time>
      </trkpt>
      <trkpt lat="48.42052" lon="2.46737">
        <ele>54.984</ele>
        <time>2013-11-17T07:02:46.432Z</time>
      </trkpt>
      <trkpt lat="48.42067" lon="2.46746">
        <ele>56.909</ele>
        <time>2013-11-17T07:02:49.000Z</time>
      </trkpt>
      <trkpt lat="48.42076" lon="2.46751">
        <ele>58.23</ele>
        <time>2013-11-17T07:02:50.588Z</time>
      </trkpt>
      <trkpt lat="48.42085" lon="2.46757">
        <ele>58.288</ele>
        <time>2013-11-17T07:02:52.260Z</time>
      </trkpt>
      <trkpt lat="48.421" lon="2.46766">
        <ele>57.715</ele>
        <time>2013-11-17T07:02:54.929Z</time>
      </trkpt>
      <trkpt lat="48.42109" lon="2.46773">
        <ele>57.583</ele>
        <time>2013-11-17T07:02:56.678Z</time>
      </trkpt>
      <trkpt lat="48.42124" lon="2.46781">
        <ele>58.452</ele>
        <time>2013-11-17T07:02:59.272Z</time>
      </trkpt>
      <trkpt lat="48.42134" lon="2.46786">
        <ele>60.26</ele>
        <time>2013-11-17T07:03:01.018Z</time>
      </trkpt>
      <trkpt lat="48.42147" lon="2.46794">
        <ele>62.381</ele>
        <time>2013-11-17T07:03:03.496Z</time>
      </trkpt>
      <trkpt lat="48.42161" lon="2.468">
        <ele>63.423</ele>
        <time>2013-11-17T07:03:06.081Z</time>
      </trkpt>
      <trkpt lat="48.4217" lon="2.46805">
        <ele>62.699</ele>
        <time>2013-11-17T07:03:07.754Z</time>
      </trkpt>
      <trkpt lat="48.4218" lon="2.46808">
        <ele>61.392</ele>
        <time>2013-11-17T07:03:09.456Z</time>
      </trkpt>
      <trkpt lat="48.4219" lon="2.4681">
        <ele>60.656</ele>
        <time>2013-11-17T07:03:11.288Z</time>
      </trkpt>
      <trkpt lat="48.42204" lon="2.46814">
        <ele>60.496</ele>
        <time>2013-11-17T07:03:13.970Z</time>
      </trkpt>
      <trkpt lat="48.42216" lon="2.46817">
        <ele>60.667</ele>
        <time>2013-11-17T07:03:16.264Z</time>
      </trkpt>
      <trkpt lat="48.42216" lon="2.46817">
        <ele>60.989</ele>
        <time>2013-11-17T07:03:18.257Z</time>
      </trkpt>
      <trkpt lat="48.42216" lon="2.46817">
        <ele>61.206</ele>
        <time>2013-11-17T07:03:18.357Z</time>
      </trkpt>
      <trkpt lat="48.42242" lon="2.46824">
        <ele>61.172</ele>
        <time>2013-11-17T07:03:26.229Z</time>
      </trkpt>
      <trkpt lat="48.42256" lon="2.46828">
        <ele>61.429</ele>
        <time>2013-11-17T07:03:29.223Z</time>
      </trkpt>
      <trkpt lat="48.42268" lon="2.46831">
        <ele>62.76</ele>
        <time>2013-11-17T07:03:31.986Z</time>
      </trkpt>
      <trkpt lat="48.4228" lon="2.46835">
        <ele>64.464</ele>
        <time>2013-11-17T07:03:34.797Z</time>
      </trkpt>
      <trkpt lat="48.42293" lon="2.46839">
        <ele>65.129</ele>
        <time>2013-11-17T07:03:37.896Z</time>
      </trkpt>
      <trkpt lat="48.42306" lon="2.46843">
        <ele>64.807</ele>
        <time>2013-11-17T07:03:40.819Z</time>
      </trkpt>
      <trkpt lat="48.42317" lon="2.46844">
        <ele>64.411</ele>
        <time>2013-11-17T07:03:43.638Z</time>
      </trkpt>
      <trkpt lat="48.42326" lon="2.46848">
        <ele>64.27</ele>
        <time>2013-11-17T07:03:46.244Z</time>
      </trkpt>
      <trkpt lat="48.42335" lon="2.46862">
        <ele>63.843</ele>
        <time>2013-11-17T07:03:49.606Z</time>
      </trkpt>
      <trkpt lat="48.42342" lon="2.46873">
        <ele>62.417</ele>
        <time>2013-11-17T07:03:52.149Z</time>
      </trkpt>
      <trkpt lat="48.42349" lon="2.46891">
        <ele>60.609</ele>
        <time>2013-11-17T07:03:55.486Z</time>
      </trkpt>
      <trkpt lat="48.42353" lon="2.46906">
        <ele>59.321</ele>
        <time>2013-11-17T07:03:58.254Z</time>
      </trkpt>
      <trkpt lat="48.42356" lon="2.46919">
        <ele>58.459</ele>
        <time>2013-11-17T07:04:00.738Z</time>
      </trkpt>
      <trkpt lat="48.42363" lon="2.46933">
        <ele>57.785</ele>
        <time>2013-11-17T07:04:04.028Z</time>
      </trkpt>
      <trkpt lat="48.42369" lon="2.46944">
        <ele>56.309</ele>
        <time>2013-11-17T07:04:06.685Z</time>
      </trkpt>
      <trkpt lat="48.42377" lon="2.46956">
        <ele>52.743</ele>
        <time>2013-11-17T07:04:09.870Z</time>
      </trkpt>
      <trkpt lat="48.42382" lon="2.46968">
        <ele>47.543</ele>
        <time>2013-11-17T07:04:12.567Z</time>
      </trkpt>
      <trkpt lat="48.42387" lon="2.46982">
        <ele>42.491</ele>
        <time>2013-11-17T07:04:15.626Z</time>
      </trkpt>
      <trkpt lat="48.42393" lon="2.46994">
        <ele>38.661</ele>
        <time>2013-11-17T07:04:18.522Z</time>
      </trkpt>
      <trkpt lat="48.42401" lon="2.47003">
        <ele>35.427</ele>
        <time>2013-11-17T07:04:21.485Z</time>
      </trkpt>
      <trkpt lat="48.42407" lon="2.47018">
        <ele>31.943</ele>
        <time>2013-11-17T07:04:25.118Z</time>
      </trkpt>
      <trkpt lat="48.42409" lon="2.47035">
        <ele>27.509</ele>
        <time>2013-11-17T07:04:28.746Z</time>
      </trkpt>
      <trkpt lat="48.42414" lon="2.47048">
        <ele>21.807</ele>
        <time>2013-11-17T07:04:32.060Z</time>
      </trkpt>
      <trkpt lat="48.42423" lon="2.4706">
        <ele>16.624</ele>
        <time>2013-11-17T07:04:35.926Z</time>
      </trkpt>
      <trkpt lat="48.42428" lon="2.47077">
        <ele>14.469</ele>
        <time>2013-11-17T07:04:39.317Z</time>
      </trkpt>
      <trkpt lat="48.42433" lon="2.47093">
        <ele>15.227</ele>
        <time>2013-11-17T07:04:42.310Z</time>
      </trkpt>
      <trkpt lat="48.42442" lon="2.4711">
        <ele>16.241</ele>
        <time>2013-11-17T07:04:45.491Z</time>
      </trkpt>
      <trkpt lat="48.42446" lon="2.47127">
        <ele>15.056</ele>
        <time>2013-11-17T07:04:48.151Z</time>
      </trkpt>
      <trkpt lat="48.42449" lon="2.47142">
        <ele>12.27</ele>
        <time>2013-11-17T07:04:50.568Z</time>
      </trkpt>
      <trkpt lat="48.42456" lon="2.47157">
        <ele>10.001</ele>
        <time>2013-11-17T07:04:53.301Z</time>
      </trkpt>
      <trkpt lat="48.42461" lon="2.4717">
        <ele>9.095</ele>
        <time>2013-11-17T07:04:55.749Z</time>
      </trkpt>
      <trkpt lat="48.42465" lon="2.47185">
        <ele>9.755</ele>
        <time>2013-11-17T07:04:58.463Z</time>
      </trkpt>
      <trkpt lat="48.42468" lon="2.472">
        <ele>12.332</ele>
        <time>2013-11-17T07:05:01.218Z</time>
      </trkpt>
      <trkpt lat="48.42473" lon="2.47214">
        <ele>16.771</ele>
        <time>2013-11-17T07:05:03.837Z</time>
      </trkpt>
      <trkpt lat="48.4248" lon="2.47229">
        <ele>21.975</ele>
        <time>2013-11-17T07:05:07.085Z</time>
      </trkpt>
      <trkpt lat="48.42487" lon="2.47244">
        <ele>26.814</ele>
        <time>2013-11-17T07:05:10.270Z</time>
      </trkpt>
      <trkpt lat="48.42487" lon="2.47244">
        <ele>30.661</ele>
        <time>2013-11-17T07:05:12.268Z</time>
      </trkpt>
      <trkpt lat="48.42487" lon="2.47244">
        <ele>32.649</ele>
        <time>2013-11-17T07:05:12.368Z</time>
      </trkpt>
      <trkpt lat="48.425" lon="2.47277">
        <ele>32.456</ele>
        <time>2013-11-17T07:05:22.807Z</time>
      </trkpt>
      <trkpt lat="48.42505" lon="2.47297">
        <ele>31.426</ele>
        <time>2013-11-17T07:05:26.808Z</time>
      </trkpt>
      <trkpt lat="48.4251" lon="2.47326">
        <ele>31.134</ele>
        <time>2013-11-17T07:05:31.540Z</time>
      </trkpt>
      <trkpt lat="48.42513" lon="2.47346">
        <ele>33.331</ele>
        <time>2013-11-17T07:05:34.509Z</time>
      </trkpt>
      <trkpt lat="48.42515" lon="2.47362">
        <ele>38.265</ele>
        <time>2013-11-17T07:05:36.714Z</time>
      </trkpt>
      <trkpt lat="48.42518" lon="2.47384">
        <ele>43.255</ele>
        <time>2013-11-17T07:05:39.552Z</time>
      </trkpt>
      <trkpt lat="48.42519" lon="2.47412">
        <ele>46.349</ele>
        <time>2013-11-17T07:05:42.952Z</time>
      </trkpt>
      <trkpt lat="48.42519" lon="2.47448">
        <ele>50.022</ele>
        <time>2013-11-17T07:05:47.276Z</time>
      </trkpt>
      <trkpt lat="48.42518" lon="2.47478">
        <ele>55.987</ele>
        <time>2013-11-17T07:05:50.829Z</time>
      </trkpt>
      <trkpt lat="48.42517" lon="2.47508">
        <ele>60.132</ele>
        <time>2013-11-17T07:05:54.446Z</time>
      </trkpt>
      <trkpt lat="48.42517" lon="2.47524">
        <ele>57.283</ele>
        <time>2013-11-17T07:05:56.524Z</time>
      </trkpt>
      <trkpt lat="48.42522" lon="2.47552">
        <ele>54.827</ele>
        <time>2013-11-17T07:06:00.407Z</time>
      </trkpt>
      <trkpt lat="48.42528" lon="2.47583">
        <ele>53.728</ele>
        <time>2013-11-17T07:06:04.638Z</time>
      </trkpt>
      <trkpt lat="48.42534" lon="2.47608">
        <ele>53.874</ele>
        <time>2013-11-17T07:06:08.085Z</time>
      </trkpt>
      <trkpt lat="48.42537" lon="2.47623">
        <ele>55.076</ele>
        <time>2013-11-17T07:06:10.213Z</time>
      </trkpt>
      <trkpt lat="48.42536" lon="2.47638">
        <ele>56.983</ele>
        <time>2013-11-17T07:06:12.321Z</time>
      </trkpt>
      <trkpt lat="48.42532" lon="2.4767">
        <ele>58.979</ele>
        <time>2013-11-17T07:06:16.911Z</time>
      </trkpt>
      <trkpt lat="48.42531" lon="2.47689">
        <ele>60.711</ele>
        <time>2013-11-17T07:06:19.329Z</time>
      </trkpt>
      <trkpt lat="48.42531" lon="2.47709">
        <ele>61.948</ele>
        <time>2013-11-17T07:06:21.794Z</time>
      </trkpt>
      <trkpt lat="48.42533" lon="2.47735">
        <ele>62.307</ele>
        <time>2013-11-17T07:06:24.848Z</time>
      </trkpt>
      <trkpt lat="48.42534" lon="2.4775">
        <ele>61.864</ele>
        <time>2013-11-17T07:06:26.591Z</time>
      </trkpt>
      <trkpt lat="48.42535" lon="2.47777">
        <ele>61.165</ele>
        <time>2013-11-17T07:06:29.638Z</time>
      </trkpt>
      <trkpt lat="48.42536" lon="2.47805">
        <ele>60.713</ele>
        <time>2013-11-17T07:06:32.930Z</time>
      </trkpt>
      <trkpt lat="48.42538" lon="2.47827">
        <ele>60.152</ele>
        <time>2013-11-17T07:06:35.511Z</time>
      </trkpt>
      <trkpt lat="48.4254" lon="2.47858">
        <ele>59.082</ele>
        <time>2013-11-17T07:06:39.038Z</time>
      </trkpt>
      <trkpt lat="48.42541" lon="2.47885">
        <ele>58.913</ele>
        <time>2013-11-17T07:06:42.135Z</time>
      </trkpt>
      <trkpt lat="48.42541" lon="2.47913">
        <ele>60.751</ele>
        <time>2013-11-17T07:06:45.283Z</time>
      </trkpt>
      <trkpt lat="48.42542" lon="2.4793">
        <ele>62.653</ele>
        <time>2013-11-17T07:06:47.313Z</time>
      </trkpt>
      <trkpt lat="48.42545" lon="2.47947">
        <ele>62.448</ele>
        <time>2013-11-17T07:06:49.320Z</time>
      </trkpt>
      <trkpt lat="48.42547" lon="2.47973">
        <ele>60.722</ele>
        <time>2013-11-17T07:06:52.292Z</time>
      </trkpt>
      <trkpt lat="48.42548" lon="2.47997">
        <ele>59.335</ele>
        <time>2013-11-17T07:06:54.980Z</time>
      </trkpt>
      <trkpt lat="48.42548" lon="2.48013">
        <ele>60.505</ele>
        <time>2013-11-17T07:06:56.812Z</time>
      </trkpt>
      <trkpt lat="48.42549" lon="2.48028">
        <ele>64.532</ele>
        <time>2013-11-17T07:06:58.458Z</time>
      </trkpt>
      <trkpt lat="48.42551" lon="2.48051">
        <ele>68.529</ele>
        <time>2013-11-17T07:07:01.102Z</time>
      </trkpt>
      <trkpt lat="48.42552" lon="2.48068">
        <ele>69.142</ele>
        <time>2013-11-17T07:07:03.105Z</time>
      </trkpt>
      <trkpt lat="48.42553" lon="2.48083">
        <ele>66.37</ele>
        <time>2013-11-17T07:07:04.799Z</time>
      </trkpt>
      <trkpt lat="48.42552" lon="2.48104">
        <ele>63.666</ele>
        <time>2013-11-17T07:07:07.314Z</time>
      </trkpt>
      <trkpt lat="48.42551" lon="2.4813">
        <ele>63.991</ele>
        <time>2013-11-17T07:07:10.451Z</time>
      </trkpt>
      <trkpt lat="48.42551" lon="2.48146">
        <ele>66.359</ele>
        <time>2013-11-17T07:07:12.487Z</time>
      </trkpt>
      <trkpt lat="48.42549" lon="2.48171">
        <ele>68.528</ele>
        <time>2013-11-17T07:07:15.554Z</time>
      </trkpt>
      <trkpt lat="48.42549" lon="2.4819">
        <ele>69.624</ele>
        <time>2013-11-17T07:07:17.923Z</time>
      </trkpt>
      <trkpt lat="48.42545" lon="2.48211">
        <ele>69.479</ele>
        <time>2013-11-17T07:07:20.563Z</time>
      </trkpt>
      <trkpt lat="48.42542" lon="2.48232">
        <ele>68.889</ele>
        <time>2013-11-17T07:07:23.240Z</time>
      </trkpt>
      <trkpt lat="48.4254" lon="2.48252">
        <ele>67.804</ele>
        <time>2013-11-17T07:07:25.675Z</time>
      </trkpt>
      <trkpt lat="48.4254" lon="2.48276">
        <ele>66.812</ele>
        <time>2013-11-17T07:07:28.428Z</time>
      </trkpt>
      <trkpt lat="48.42542" lon="2.48302">
        <ele>65.748</ele>
        <time>2013-11-17T07:07:31.287Z</time>
      </trkpt>
      <trkpt lat="48.42543" lon="2.48333">
        <ele>64.322</ele>
        <time>2013-11-17T07:07:34.555Z</time>
      </trkpt>
      <trkpt lat="48.42543" lon="2.48357">
        <ele>63.157</ele>
        <time>2013-11-17T07:07:37.208Z</time>
      </trkpt>
      <trkpt lat="48.42545" lon="2.48372">
        <ele>63.495</ele>
        <time>2013-11-17T07:07:38.917Z</time>
      </trkpt>
      <trkpt lat="48.42549" lon="2.48411">
        <ele>65.486</ele>
        <time>2013-11-17T07:07:43.069Z</time>
      </trkpt>
      <trkpt lat="48.42554" lon="2.48448">
        <ele>66.648</ele>
        <time>2013-11-17T07:07:47.073Z</time>
      </trkpt>
      <trkpt lat="48.42558" lon="2.48469">
        <ele>64.421</ele>
        <time>2013-11-17T07:07:49.438Z</time>
      </trkpt>
      <trkpt lat="48.42562" lon="2.48489">
        <ele>60.096</ele>
        <time>2013-11-17T07:07:51.617Z</time>
      </trkpt>
      <trkpt lat="48.42563" lon="2.48509">
        <ele>56.753</ele>
        <time>2013-11-17T07:07:53.715Z</time>
      </trkpt>
      <trkpt lat="48.42569" lon="2.48537">
        <ele>55.516</ele>
        <time>2013-11-17T07:07:56.891Z</time>
      </trkpt>
      <trkpt lat="48.42576" lon="2.48563">
        <ele>56.876</ele>
        <time>2013-11-17T07:07:59.970Z</time>
      </trkpt>
      <trkpt lat="48.42579" lon="2.48588">
        <ele>60.666</ele>
        <time>2013-11-17T07:08:02.737Z</time>
      </trkpt>
      <trkpt lat="48.42584" lon="2.4861">
        <ele>64.424</ele>
        <time>2013-11-17T07:08:05.446Z</time>
      </trkpt>
      <trkpt lat="48.42586" lon="2.48626">
        <ele>65.511</ele>
        <time>2013-11-17T07:08:07.372Z</time>
      </trkpt>
      <trkpt lat="48.42584" lon="2.48653">
        <ele>64.066</ele>
        <time>2013-11-17T07:08:10.441Z</time>
      </trkpt>
      <trkpt lat="48.42582" lon="2.48669">
        <ele>62.274</ele>
        <time>2013-11-17T07:08:12.287Z</time>
      </trkpt>
      <trkpt lat="48.4258" lon="2.48684">
        <ele>61.751</ele>
        <time>2013-11-17T07:08:14.040Z</time>
      </trkpt>
      <trkpt lat="48.42577" lon="2.48708">
        <ele>61.87</ele>
        <time>2013-11-17T07:08:16.884Z</time>
      </trkpt>
      <trkpt lat="48.42576" lon="2.4873">
        <ele>61.534</ele>
        <time>2013-11-17T07:08:20.837Z</time>
      </trkpt>
      <trkpt lat="48.42575" lon="2.48754">
        <ele>60.423</ele>
        <time>2013-11-17T07:08:28.737Z</time>
      </trkpt>
      <trkpt lat="48.42575" lon="2.48769">
        <ele>58.962</ele>
        <time>2013-11-17T07:08:32.397Z</time>
      </trkpt>
      <trkpt lat="48.42575" lon="2.48797">
        <ele>57.536</ele>
        <time>2013-11-17T07:08:37.281Z</time>
      </trkpt>
      <trkpt lat="48.42575" lon="2.48821">
        <ele>55.986</ele>
        <time>2013-11-17T07:08:40.706Z</time>
      </trkpt>
      <trkpt lat="48.42574" lon="2.48845">
        <ele>54.373</ele>
        <time>2013-11-17T07:08:43.959Z</time>
      </trkpt>
      <trkpt lat="48.42574" lon="2.48865">
        <ele>52.918</ele>
        <time>2013-11-17T07:08:46.491Z</time>
      </trkpt>
      <trkpt lat="48.42575" lon="2.48879">
        <ele>50.821</ele>
        <time>2013-11-17T07:08:48.308Z</time>
      </trkpt>
      <trkpt lat="48.42576" lon="2.48895">
        <ele>47.894</ele>
        <time>2013-11-17T07:08:50.430Z</time>
      </trkpt>
      <trkpt lat="48.42573" lon="2.48911">
        <ele>46.548</ele>
        <time>2013-11-17T07:08:52.512Z</time>
      </trkpt>
      <trkpt lat="48.42569" lon="2.48927">
        <ele>48.997</ele>
        <time>2013-11-17T07:08:54.912Z</time>
      </trkpt>
      <trkpt lat="48.42557" lon="2.48948">
        <ele>51.863</ele>
        <time>2013-11-17T07:08:58.928Z</time>
      </trkpt>
      <trkpt lat="48.42548" lon="2.48963">
        <ele>54.812</ele>
        <time>2013-11-17T07:09:02.348Z</time>
      </trkpt>
      <trkpt lat="48.42536" lon="2.48982">
        <ele>57.457</ele>
        <time>2013-11-17T07:09:07.236Z</time>
      </trkpt>
      <trkpt lat="48.42528" lon="2.48991">
        <ele>60.12</ele>
        <time>2013-11-17T07:09:10.500Z</time>
      </trkpt>
      <trkpt lat="48.42511" lon="2.49006">
        <ele>63.617</ele>
        <time>2013-11-17T07:09:18.064Z</time>
      </trkpt>
      <trkpt lat="48.42495" lon="2.4902">
        <ele>67.306</ele>
        <time>2013-11-17T07:09:25.720Z</time>
      </trkpt>
      <trkpt lat="48.42485" lon="2.49027">
        <ele>70.09</ele>
        <time>2013-11-17T07:09:29.692Z</time>
      </trkpt>
      <trkpt lat="48.42474" lon="2.49035">
        <ele>71.431</ele>
        <time>2013-11-17T07:09:33.617Z</time>
      </trkpt>
      <trkpt lat="48.42461" lon="2.49045">
        <ele>71.311</ele>
        <time>2013-11-17T07:09:38.376Z</time>
      </trkpt>
      <trkpt lat="48.42449" lon="2.49051">
        <ele>71.339</ele>
        <time>2013-11-17T07:09:41.933Z</time>
      </trkpt>
      <trkpt lat="48.42437" lon="2.49056">
        <ele>72.656</ele>
        <time>2013-11-17T07:09:45.042Z</time>
      </trkpt>
      <trkpt lat="48.42427" lon="2.4906">
        <ele>74.038</ele>
        <time>2013-11-17T07:09:47.612Z</time>
      </trkpt>
      <trkpt lat="48.42418" lon="2.49069">
        <ele>74.177</ele>
        <time>2013-11-17T07:09:50.153Z</time>
      </trkpt>
      <trkpt lat="48.4241" lon="2.49078">
        <ele>73.653</ele>
        <time>2013-11-17T07:09:52.606Z</time>
      </trkpt>
      <trkpt lat="48.424" lon="2.4909">
        <ele>73.35</ele>
        <time>2013-11-17T07:09:55.663Z</time>
      </trkpt>
      <trkpt lat="48.42392" lon="2.49099">
        <ele>73.4</ele>
        <time>2013-11-17T07:09:58.229Z</time>
      </trkpt>
      <trkpt lat="48.42382" lon="2.49112">
        <ele>73.251</ele>
        <time>2013-11-17T07:10:01.468Z</time>
      </trkpt>
      <trkpt lat="48.42375" lon="2.49125">
        <ele>72.008</ele>
        <time>2013-11-17T07:10:04.244Z</time>
      </trkpt>
      <trkpt lat="48.42366" lon="2.49135">
        <ele>69.823</ele>
        <time>2013-11-17T07:10:07.094Z</time>
      </trkpt>
      <trkpt lat="48.42356" lon="2.49143">
        <ele>68.435</ele>
        <time>2013-11-17T07:10:09.967Z</time>
      </trkpt>
      <trkpt lat="48.42346" lon="2.49148">
        <ele>68.859</ele>
        <time>2013-11-17T07:10:12.566Z</time>
      </trkpt>
      <trkpt lat="48.42336" lon="2.49155">
        <ele>70.372</ele>
        <time>2013-11-17T07:10:15.274Z</time>
      </trkpt>
      <trkpt lat="48.42326" lon="2.4916">
        <ele>72.067</ele>
        <time>2013-11-17T07:10:17.945Z</time>
      </trkpt>
      <trkpt lat="48.42314" lon="2.49161">
        <ele>73.395</ele>
        <time>2013-11-17T07:10:20.969Z</time>
      </trkpt>
      <trkpt lat="48.42305" lon="2.4916">
        <ele>74.021</ele>
        <time>2013-11-17T07:10:23.336Z</time>
      </trkpt>
      <trkpt lat="48.42295" lon="2.49162">
        <ele>74.344</ele>
        <time>2013-11-17T07:10:25.823Z</time>
      </trkpt>
      <trkpt lat="48.42284" lon="2.49168">
        <ele>74.88</ele>
        <time>2013-11-17T07:10:28.725Z</time>
      </trkpt>
      <trkpt lat="48.42274" lon="2.49173">
        <ele>75.51</ele>
        <time>2013-11-17T07:10:31.542Z</time>
      </trkpt>
      <trkpt lat="48.42265" lon="2.49178">
        <ele>75.897</ele>
        <time>2013-11-17T07:10:34.378Z</time>
      </trkpt>
      <trkpt lat="48.42255" lon="2.49185">
        <ele>76.218</ele>
        <time>2013-11-17T07:10:38.013Z</time>
      </trkpt>
      <trkpt lat="48.42245" lon="2.49195">
        <ele>76.765</ele>
        <time>2013-11-17T07:10:42.143Z</time>
      </trkpt>
      <trkpt lat="48.42237" lon="2.49208">
        <ele>77.39</ele>
        <time>2013-11-17T07:10:46.647Z</time>
      </trkpt>
      <trkpt lat="48.42231" lon="2.4922">
        <ele>77.524</ele>
        <time>2013-11-17T07:10:50.232Z</time>
      </trkpt>
      <trkpt lat="48.42224" lon="2.49233">
        <ele>76.966</ele>
        <time>2013-11-17T07:10:53.804Z</time>
      </trkpt>
      <trkpt lat="48.42217" lon="2.49246">
        <ele>76.243</ele>
        <time>2013-11-17T07:10:57.676Z</time>
      </trkpt>
      <trkpt lat="48.42212" lon="2.49258">
        <ele>75.999</ele>
        <time>2013-11-17T07:11:01.294Z</time>
      </trkpt>
      <trkpt lat="48.42205" lon="2.49272">
        <ele>76.815</ele>
        <time>2013-11-17T07:11:06.865Z</time>
      </trkpt>
      <trkpt lat="48.42202" lon="2.49286">
        <ele>78.74</ele>
        <time>2013-11-17T07:11:12.243Z</time>
      </trkpt>
      <trkpt lat="48.42199" lon="2.49299">
        <ele>80.594</ele>
        <time>2013-11-17T07:11:17.917Z</time>
      </trkpt>
      <trkpt lat="48.422" lon="2.49314">
        <ele>81.466</ele>
        <time>2013-11-17T07:11:24.007Z</time>
      </trkpt>
      <trkpt lat="48.42198" lon="2.49329">
        <ele>82.184</ele>
        <time>2013-11-17T07:11:30.323Z</time>
      </trkpt>
      <trkpt lat="48.42197" lon="2.49346">
        <ele>83.481</ele>
        <time>2013-11-17T07:11:36.203Z</time>
      </trkpt>
      <trkpt lat="48.42196" lon="2.49361">
        <ele>84.254</ele>
        <time>2013-11-17T07:11:39.825Z</time>
      </trkpt>
      <trkpt lat="48.42198" lon="2.49376">
        <ele>83.587</ele>
        <time>2013-11-17T07:11:43.392Z</time>
      </trkpt>
      <trkpt lat="48.42201" lon="2.4939">
        <ele>82.826</ele>
        <time>2013-11-17T07:11:46.273Z</time>
      </trkpt>
      <trkpt lat="48.42202" lon="2.49405">
        <ele>83.388</ele>
        <time>2013-11-17T07:11:49.214Z</time>
      </trkpt>
      <trkpt lat="48.42203" lon="2.49418">
        <ele>85.059</ele>
        <time>2013-11-17T07:11:51.931Z</time>
      </trkpt>
      <trkpt lat="48.42205" lon="2.49436">
        <ele>87.162</ele>
        <time>2013-11-17T07:11:55.544Z</time>
      </trkpt>
      <trkpt lat="48.42207" lon="2.49453">
        <ele>90.034</ele>
        <time>2013-11-17T07:11:59.369Z</time>
      </trkpt>
      <trkpt lat="48.42208" lon="2.49468">
        <ele>90.075</ele>
        <time>2013-11-17T07:12:03.029Z</time>
      </trkpt>
      <trkpt lat="48.42209" lon="2.49486">
        <ele>89.743</ele>
        <time>2013-11-17T07:12:08.588Z</time>
      </trkpt>
      <trkpt lat="48.42208" lon="2.49502">
        <ele>89.389</ele>
        <time>2013-11-17T07:12:14.464Z</time>
      </trkpt>
      <trkpt lat="48.42208" lon="2.49517">
        <ele>89.183</ele>
        <time>2013-11-17T07:12:19.868Z</time>
      </trkpt>
      <trkpt lat="48.42206" lon="2.49532">
        <ele>88.666</ele>
        <time>2013-11-17T07:12:25.090Z</time>
      </trkpt>
      <trkpt lat="48.42203" lon="2.49546">
        <ele>89.405</ele>
        <time>2013-11-17T07:12:28.930Z</time>
      </trkpt>
      <trkpt lat="48.42204" lon="2.4956">
        <ele>93.823</ele>
        <time>2013-11-17T07:12:31.515Z</time>
      </trkpt>
      <trkpt lat="48.42199" lon="2.49573">
        <ele>100.946</ele>
        <time>2013-11-17T07:12:33.989Z</time>
      </trkpt>
      <trkpt lat="48.42194" lon="2.49588">
        <ele>107.145</ele>
        <time>2013-11-17T07:12:36.583Z</time>
      </trkpt>
      <trkpt lat="48.42186" lon="2.49602">
        <ele>110.282</ele>
        <time>2013-11-17T07:12:39.649Z</time>
      </trkpt>
      <trkpt lat="48.42181" lon="2.49622">
        <ele>110.909</ele>
        <time>2013-11-17T07:12:44.535Z</time>
      </trkpt>
      <trkpt lat="48.42176" lon="2.49636">
        <ele>110.732</ele>
        <time>2013-11-17T07:12:48.437Z</time>
      </trkpt>
      <trkpt lat="48.4217" lon="2.49653">
        <ele>111.035</ele>
        <time>2013-11-17T07:12:55.449Z</time>
      </trkpt>
      <trkpt lat="48.42164" lon="2.49666">
        <ele>111.965</ele>
        <time>2013-11-17T07:13:01.428Z</time>
      </trkpt>
      <trkpt lat="48.42157" lon="2.49678">
        <ele>112.952</ele>
        <time>2013-11-17T07:13:07.810Z</time>
      </trkpt>
      <trkpt lat="48.4215" lon="2.49688">
        <ele>113.24</ele>
        <time>2013-11-17T07:13:13.842Z</time>
      </trkpt>
      <trkpt lat="48.42144" lon="2.49698">
        <ele>112.479</ele>
        <time>2013-11-17T07:13:18.808Z</time>
      </trkpt>
      <trkpt lat="48.42139" lon="2.4971">
        <ele>109.853</ele>
        <time>2013-11-17T07:13:23.477Z</time>
      </trkpt>
      <trkpt lat="48.42135" lon="2.49724">
        <ele>109.726</ele>
        <time>2013-11-17T07:13:28.439Z</time>
      </trkpt>
      <trkpt lat="48.42133" lon="2.49739">
        <ele>110.343</ele>
        <time>2013-11-17T07:13:33.569Z</time>
      </trkpt>
      <trkpt lat="48.42131" lon="2.49753">
        <ele>110.511</ele>
        <time>2013-11-17T07:13:38.186Z</time>
      </trkpt>
      <trkpt lat="48.42126" lon="2.49764">
        <ele>110.842</ele>
        <time>2013-11-17T07:13:42.730Z</time>
      </trkpt>
      <trkpt lat="48.42116" lon="2.4976">
        <ele>111.434</ele>
        <time>2013-11-17T07:13:47.825Z</time>
      </trkpt>
      <trkpt lat="48.42109" lon="2.49751">
        <ele>112.115</ele>
        <time>2013-11-17T07:13:52.770Z</time>
      </trkpt>
      <trkpt lat="48.42101" lon="2.49742">
        <ele>112.601</ele>
        <time>2013-11-17T07:13:57.263Z</time>
      </trkpt>
      <trkpt lat="48.42101" lon="2.49742">
        <ele>112.784</ele>
        <time>2013-11-17T07:14:03.267Z</time>
      </trkpt>
      <trkpt lat="48.42101" lon="2.49742">
        <ele>112.776</ele>
        <time>2013-11-17T07:14:06.760Z</time>
      </trkpt>
      <trkpt lat="48.42087" lon="2.49743">
        <ele>112.709</ele>
        <time>2013-11-17T07:14:27.034Z</time>
      </trkpt>
      <trkpt lat="48.42075" lon="2.49741">
        <ele>112.854</ele>
        <time>2013-11-17T07:14:32.284Z</time>
      </trkpt>
      <trkpt lat="48.42064" lon="2.49739">
        <ele>113.682</ele>
        <time>2013-11-17T07:14:35.481Z</time>
      </trkpt>
      <trkpt lat="48.42052" lon="2.49738">
        <ele>115.233</ele>
        <time>2013-11-17T07:14:38.317Z</time>
      </trkpt>
      <trkpt lat="48.42038" lon="2.49735">
        <ele>117.24</ele>
        <time>2013-11-17T07:14:41.506Z</time>
      </trkpt>
      <trkpt lat="48.42026" lon="2.49735">
        <ele>119.326</ele>
        <time>2013-11-17T07:14:44.283Z</time>
      </trkpt>
      <trkpt lat="48.42013" lon="2.49742">
        <ele>120.343</ele>
        <time>2013-11-17T07:14:47.457Z</time>
      </trkpt>
      <trkpt lat="48.42005" lon="2.49755">
        <ele>119.582</ele>
        <time>2013-11-17T07:14:50.421Z</time>
      </trkpt>
      <trkpt lat="48.42002" lon="2.49773">
        <ele>118.089</ele>
        <time>2013-11-17T07:14:53.425Z</time>
      </trkpt>
      <trkpt lat="48.42001" lon="2.49788">
        <ele>117.081</ele>
        <time>2013-11-17T07:14:56.143Z</time>
      </trkpt>
      <trkpt lat="48.42001" lon="2.49806">
        <ele>116.804</ele>
        <time>2013-11-17T07:14:59.657Z</time>
      </trkpt>
      <trkpt lat="48.42001" lon="2.49823">
        <ele>116.992</ele>
        <time>2013-11-17T07:15:03.133Z</time>
      </trkpt>
      <trkpt lat="48.41997" lon="2.49835">
        <ele>116.96</ele>
        <time>2013-11-17T07:15:06.909Z</time>
      </trkpt>
      <trkpt lat="48.41994" lon="2.49852">
        <ele>116.304</ele>
        <time>2013-11-17T07:15:11.723Z</time>
      </trkpt>
      <trkpt lat="48.41993" lon="2.49866">
        <ele>115.236</ele>
        <time>2013-11-17T07:15:15.071Z</time>
      </trkpt>
      <trkpt lat="48.4199" lon="2.4988">
        <ele>114.022</ele>
        <time>2013-11-17T07:15:18.639Z</time>
      </trkpt>
      <trkpt lat="48.4199" lon="2.49894">
        <ele>112.968</ele>
        <time>2013-11-17T07:15:22.160Z</time>
      </trkpt>
      <trkpt lat="48.41985" lon="2.49908">
        <ele>112.676</ele>
        <time>2013-11-17T07:15:26.513Z</time>
      </trkpt>
      <trkpt lat="48.41985" lon="2.49921">
        <ele>113.215</ele>
        <time>2013-11-17T07:15:30.500Z</time>
      </trkpt>
      <trkpt lat="48.41984" lon="2.49937">
        <ele>114.219</ele>
        <time>2013-11-17T07:15:35.080Z</time>
      </trkpt>
      <trkpt lat="48.41983" lon="2.49953">
        <ele>115.258</ele>
        <time>2013-11-17T07:15:40.187Z</time>
      </trkpt>
      <trkpt lat="48.41979" lon="2.49968">
        <ele>115.97</ele>
        <time>2013-11-17T07:15:44.813Z</time>
      </trkpt>
      <trkpt lat="48.41977" lon="2.49983">
        <ele>116.383</ele>
        <time>2013-11-17T07:15:48.738Z</time>
      </trkpt>
      <trkpt lat="48.41973" lon="2.49998">
        <ele>116.778</ele>
        <time>2013-11-17T07:15:52.127Z</time>
      </trkpt>
      <trkpt lat="48.4197" lon="2.50015">
        <ele>116.849</ele>
        <time>2013-11-17T07:15:55.638Z</time>
      </trkpt>
      <trkpt lat="48.41967" lon="2.50031">
        <ele>116.236</ele>
        <time>2013-11-17T07:15:58.669Z</time>
      </trkpt>
      <trkpt lat="48.41961" lon="2.50048">
        <ele>114.683</ele>
        <time>2013-11-17T07:16:02.206Z</time>
      </trkpt>
      <trkpt lat="48.41956" lon="2.5006">
        <ele>112.169</ele>
        <time>2013-11-17T07:16:04.513Z</time>
      </trkpt>
      <trkpt lat="48.41952" lon="2.50072">
        <ele>109.617</ele>
        <time>2013-11-17T07:16:06.651Z</time>
      </trkpt>
      <trkpt lat="48.41943" lon="2.50089">
        <ele>108.63</ele>
        <time>2013-11-17T07:16:09.795Z</time>
      </trkpt>
      <trkpt lat="48.41936" lon="2.50099">
        <ele>109.583</ele>
        <time>2013-11-17T07:16:11.862Z</time>
      </trkpt>
      <trkpt lat="48.41923" lon="2.50107">
        <ele>111.358</ele>
        <time>2013-11-17T07:16:14.657Z</time>
      </trkpt>
      <trkpt lat="48.41909" lon="2.50115">
        <ele>112.901</ele>
        <time>2013-11-17T07:16:17.743Z</time>
      </trkpt>
      <trkpt lat="48.41897" lon="2.50123">
        <ele>113.976</ele>
        <time>2013-11-17T07:16:20.406Z</time>
      </trkpt>
      <trkpt lat="48.41888" lon="2.50137">
        <ele>114.927</ele>
        <time>2013-11-17T07:16:23.094Z</time>
      </trkpt>
      <trkpt lat="48.41882" lon="2.50148">
        <ele>115.706</ele>
        <time>2013-11-17T07:16:25.262Z</time>
      </trkpt>
      <trkpt lat="48.41874" lon="2.50166">
        <ele>116.077</ele>
        <time>2013-11-17T07:16:28.564Z</time>
      </trkpt>
      <trkpt lat="48.41868" lon="2.50181">
        <ele>116.507</ele>
        <time>2013-11-17T07:16:31.251Z</time>
      </trkpt>
      <trkpt lat="48.41859" lon="2.50196">
        <ele>117.821</ele>
        <time>2013-11-17T07:16:34.147Z</time>
      </trkpt>
      <trkpt lat="48.41849" lon="2.50203">
        <ele>120.088</ele>
        <time>2013-11-17T07:16:36.824Z</time>
      </trkpt>
      <trkpt lat="48.41838" lon="2.50207">
        <ele>122.537</ele>
        <time>2013-11-17T07:16:39.275Z</time>
      </trkpt>
      <trkpt lat="48.41821" lon="2.50212">
        <ele>124.043</ele>
        <time>2013-11-17T07:16:43.090Z</time>
      </trkpt>
      <trkpt lat="48.41807" lon="2.50217">
        <ele>123.83</ele>
        <time>2013-11-17T07:16:45.980Z</time>
      </trkpt>
      <trkpt lat="48.4179" lon="2.50216">
        <ele>122.124</ele>
        <time>2013-11-17T07:16:49.322Z</time>
      </trkpt>
      <trkpt lat="48.41779" lon="2.50211">
        <ele>120.375</ele>
        <time>2013-11-17T07:16:51.405Z</time>
      </trkpt>
      <trkpt lat="48.4177" lon="2.50206">
        <ele>118.891</ele>
        <time>2013-11-17T07:16:53.132Z</time>
      </trkpt>
      <trkpt lat="48.41759" lon="2.50197">
        <ele>116.325</ele>
        <time>2013-11-17T07:16:55.488Z</time>
      </trkpt>
      <trkpt lat="48.41753" lon="2.5018">
        <ele>112.378</ele>
        <time>2013-11-17T07:16:58.019Z</time>
      </trkpt>
      <trkpt lat="48.41752" lon="2.50164">
        <ele>108.364</ele>
        <time>2013-11-17T07:17:00.407Z</time>
      </trkpt>
      <trkpt lat="48.41755" lon="2.50143">
        <ele>105.75</ele>
        <time>2013-11-17T07:17:03.574Z</time>
      </trkpt>
      <trkpt lat="48.41756" lon="2.5013">
        <ele>104.825</ele>
        <time>2013-11-17T07:17:05.660Z</time>
      </trkpt>
      <trkpt lat="48.41756" lon="2.50115">
        <ele>103.761</ele>
        <time>2013-11-17T07:17:07.893Z</time>
      </trkpt>
      <trkpt lat="48.4175" lon="2.50091">
        <ele>101.244</ele>
        <time>2013-11-17T07:17:11.340Z</time>
      </trkpt>
      <trkpt lat="48.41743" lon="2.50072">
        <ele>98.645</ele>
        <time>2013-11-17T07:17:14.241Z</time>
      </trkpt>
      <trkpt lat="48.41738" lon="2.5006">
        <ele>96.89</ele>
        <time>2013-11-17T07:17:16.116Z</time>
      </trkpt>
      <trkpt lat="48.41732" lon="2.50048">
        <ele>95.41</ele>
        <time>2013-11-17T07:17:18.068Z</time>
      </trkpt>
      <trkpt lat="48.41723" lon="2.50031">
        <ele>94.055</ele>
        <time>2013-11-17T07:17:20.792Z</time>
      </trkpt>
      <trkpt lat="48.41716" lon="2.5002">
        <ele>92.098</ele>
        <time>2013-11-17T07:17:22.687Z</time>
      </trkpt>
      <trkpt lat="48.41706" lon="2.50002">
        <ele>88.945</ele>
        <time>2013-11-17T07:17:25.616Z</time>
      </trkpt>
      <trkpt lat="48.417" lon="2.49991">
        <ele>85.301</ele>
        <time>2013-11-17T07:17:27.420Z</time>
      </trkpt>
      <trkpt lat="48.4169" lon="2.4997">
        <ele>82.044</ele>
        <time>2013-11-17T07:17:30.665Z</time>
      </trkpt>
      <trkpt lat="48.41676" lon="2.49946">
        <ele>79.77</ele>
        <time>2013-11-17T07:17:34.485Z</time>
      </trkpt>
      <trkpt lat="48.41664" lon="2.4993">
        <ele>78.834</ele>
        <time>2013-11-17T07:17:37.241Z</time>
      </trkpt>
      <trkpt lat="48.41642" lon="2.49902">
        <ele>79.195</ele>
        <time>2013-11-17T07:17:41.569Z</time>
      </trkpt>
      <trkpt lat="48.41622" lon="2.49881">
        <ele>83.855</ele>
        <time>2013-11-17T07:17:45.351Z</time>
      </trkpt>
      <trkpt lat="48.4161" lon="2.4987">
        <ele>94.503</ele>
        <time>2013-11-17T07:17:47.897Z</time>
      </trkpt>
      <trkpt lat="48.41593" lon="2.49858">
        <ele>105.806</ele>
        <time>2013-11-17T07:17:51.228Z</time>
      </trkpt>
      <trkpt lat="48.41582" lon="2.49854">
        <ele>112.481</ele>
        <time>2013-11-17T07:17:53.495Z</time>
      </trkpt>
      <trkpt lat="48.41568" lon="2.49851">
        <ele>115.448</ele>
        <time>2013-11-17T07:17:56.223Z</time>
      </trkpt>
      <trkpt lat="48.41558" lon="2.4985">
        <ele>117.051</ele>
        <time>2013-11-17T07:17:58.272Z</time>
      </trkpt>
      <trkpt lat="48.41543" lon="2.49846">
        <ele>117.97</ele>
        <time>2013-11-17T07:18:01.178Z</time>
      </trkpt>
      <trkpt lat="48.41527" lon="2.49842">
        <ele>118.301</ele>
        <time>2013-11-17T07:18:04.609Z</time>
      </trkpt>
      <trkpt lat="48.41513" lon="2.49839">
        <ele>118.234</ele>
        <time>2013-11-17T07:18:07.358Z</time>
      </trkpt>
      <trkpt lat="48.41498" lon="2.4984">
        <ele>117.58</ele>
        <time>2013-11-17T07:18:10.622Z</time>
      </trkpt>
      <trkpt lat="48.41486" lon="2.49836">
        <ele>116.505</ele>
        <time>2013-11-17T07:18:13.348Z</time>
      </trkpt>
      <trkpt lat="48.41474" lon="2.49828">
        <ele>115.781</ele>
        <time>2013-11-17T07:18:16.414Z</time>
      </trkpt>
      <trkpt lat="48.41465" lon="2.49819">
        <ele>115.737</ele>
        <time>2013-11-17T07:18:19.029Z</time>
      </trkpt>
      <trkpt lat="48.41457" lon="2.49811">
        <ele>116.617</ele>
        <time>2013-11-17T07:18:21.815Z</time>
      </trkpt>
      <trkpt lat="48.41449" lon="2.49802">
        <ele>118.298</ele>
        <time>2013-11-17T07:18:24.346Z</time>
      </trkpt>
      <trkpt lat="48.41438" lon="2.49789">
        <ele>119.936</ele>
        <time>2013-11-17T07:18:27.417Z</time>
      </trkpt>
      <trkpt lat="48.41428" lon="2.4976">
        <ele>120.791</ele>
        <time>2013-11-17T07:18:30.690Z</time>
      </trkpt>
      <trkpt lat="48.41424" lon="2.49723">
        <ele>120.123</ele>
        <time>2013-11-17T07:18:33.995Z</time>
      </trkpt>
      <trkpt lat="48.41421" lon="2.49703">
        <ele>116.725</ele>
        <time>2013-11-17T07:18:35.841Z</time>
      </trkpt>
      <trkpt lat="48.41418" lon="2.49676">
        <ele>111.375</ele>
        <time>2013-11-17T07:18:38.285Z</time>
      </trkpt>
      <trkpt lat="48.41418" lon="2.49655">
        <ele>106.5</ele>
        <time>2013-11-17T07:18:40.033Z</time>
      </trkpt>
      <trkpt lat="48.41416" lon="2.49622">
        <ele>102.999</ele>
        <time>2013-11-17T07:18:42.705Z</time>
      </trkpt>
      <trkpt lat="48.41415" lon="2.49597">
        <ele>100.686</ele>
        <time>2013-11-17T07:18:44.653Z</time>
      </trkpt>
      <trkpt lat="48.41411" lon="2.49575">
        <ele>99.275</ele>
        <time>2013-11-17T07:18:46.388Z</time>
      </trkpt>
      <trkpt lat="48.41408" lon="2.49553">
        <ele>97.996</ele>
        <time>2013-11-17T07:18:48.109Z</time>
      </trkpt>
      <trkpt lat="48.41407" lon="2.49518">
        <ele>96.916</ele>
        <time>2013-11-17T07:18:50.729Z</time>
      </trkpt>
      <trkpt lat="48.41409" lon="2.49483">
        <ele>96.423</ele>
        <time>2013-11-17T07:18:53.338Z</time>
      </trkpt>
      <trkpt lat="48.41414" lon="2.49449">
        <ele>96.015</ele>
        <time>2013-11-17T07:18:56.003Z</time>
      </trkpt>
      <trkpt lat="48.41418" lon="2.49417">
        <ele>95.266</ele>
        <time>2013-11-17T07:18:58.611Z</time>
      </trkpt>
      <trkpt lat="48.41423" lon="2.49387">
        <ele>94.341</ele>
        <time>2013-11-17T07:19:01.256Z</time>
      </trkpt>
      <trkpt lat="48.41429" lon="2.49367">
        <ele>92.95</ele>
        <time>2013-11-17T07:19:03.323Z</time>
      </trkpt>
      <trkpt lat="48.41436" lon="2.49336">
        <ele>91.046</ele>
        <time>2013-11-17T07:19:06.364Z</time>
      </trkpt>
      <trkpt lat="48.4144" lon="2.49315">
        <ele>89.364</ele>
        <time>2013-11-17T07:19:08.261Z</time>
      </trkpt>
      <trkpt lat="48.41443" lon="2.49285">
        <ele>88.139</ele>
        <time>2013-11-17T07:19:10.909Z</time>
      </trkpt>
      <trkpt lat="48.41445" lon="2.49265">
        <ele>86.89</ele>
        <time>2013-11-17T07:19:12.742Z</time>
      </trkpt>
      <trkpt lat="48.41448" lon="2.49231">
        <ele>85.579</ele>
        <time>2013-11-17T07:19:15.798Z</time>
      </trkpt>
      <trkpt lat="48.4145" lon="2.49212">
        <ele>84.268</ele>
        <time>2013-11-17T07:19:17.495Z</time>
      </trkpt>
      <trkpt lat="48.41454" lon="2.49179">
        <ele>82.679</ele>
        <time>2013-11-17T07:19:20.486Z</time>
      </trkpt>
      <trkpt lat="48.41456" lon="2.49158">
        <ele>80.216</ele>
        <time>2013-11-17T07:19:22.442Z</time>
      </trkpt>
      <trkpt lat="48.41462" lon="2.49132">
        <ele>76.637</ele>
        <time>2013-11-17T07:19:24.961Z</time>
      </trkpt>
      <trkpt lat="48.41467" lon="2.49111">
        <ele>73.407</ele>
        <time>2013-11-17T07:19:27.054Z</time>
      </trkpt>
      <trkpt lat="48.41469" lon="2.49079">
        <ele>72.24</ele>
        <time>2013-11-17T07:19:30.016Z</time>
      </trkpt>
      <trkpt lat="48.41471" lon="2.4906">
        <ele>72.96</ele>
        <time>2013-11-17T07:19:31.889Z</time>
      </trkpt>
      <trkpt lat="48.41475" lon="2.49031">
        <ele>74.381</ele>
        <time>2013-11-17T07:19:34.866Z</time>
      </trkpt>
      <trkpt lat="48.41481" lon="2.49015">
        <ele>75.504</ele>
        <time>2013-11-17T07:19:36.707Z</time>
      </trkpt>
      <trkpt lat="48.41489" lon="2.48988">
        <ele>75.738</ele>
        <time>2013-11-17T07:19:39.786Z</time>
      </trkpt>
      <trkpt lat="48.41492" lon="2.4897">
        <ele>75.041</ele>
        <time>2013-11-17T07:19:41.682Z</time>
      </trkpt>
      <trkpt lat="48.41495" lon="2.48954">
        <ele>73.651</ele>
        <time>2013-11-17T07:19:43.467Z</time>
      </trkpt>
      <trkpt lat="48.41499" lon="2.48925">
        <ele>72.216</ele>
        <time>2013-11-17T07:19:46.590Z</time>
      </trkpt>
      <trkpt lat="48.41501" lon="2.48893">
        <ele>71.598</ele>
        <time>2013-11-17T07:19:49.683Z</time>
      </trkpt>
      <trkpt lat="48.41503" lon="2.48862">
        <ele>72.202</ele>
        <time>2013-11-17T07:19:52.550Z</time>
      </trkpt>
      <trkpt lat="48.41502" lon="2.48831">
        <ele>72.715</ele>
        <time>2013-11-17T07:19:55.451Z</time>
      </trkpt>
      <trkpt lat="48.41501" lon="2.48799">
        <ele>72.963</ele>
        <time>2013-11-17T07:19:58.532Z</time>
      </trkpt>
      <trkpt lat="48.41502" lon="2.48778">
        <ele>73.066</ele>
        <time>2013-11-17T07:20:00.405Z</time>
      </trkpt>
      <trkpt lat="48.41507" lon="2.48753">
        <ele>73.265</ele>
        <time>2013-11-17T07:20:02.832Z</time>
      </trkpt>
      <trkpt lat="48.41513" lon="2.48728">
        <ele>73.678</ele>
        <time>2013-11-17T07:20:05.426Z</time>
      </trkpt>
      <trkpt lat="48.41517" lon="2.48709">
        <ele>73.074</ele>
        <time>2013-11-17T07:20:07.599Z</time>
      </trkpt>
      <trkpt lat="48.41526" lon="2.48682">
        <ele>70.616</ele>
        <time>2013-11-17T07:20:10.609Z</time>
      </trkpt>
      <trkpt lat="48.41532" lon="2.48664">
        <ele>67.926</ele>
        <time>2013-11-17T07:20:12.673Z</time>
      </trkpt>
      <trkpt lat="48.41537" lon="2.48636">
        <ele>66.79</ele>
        <time>2013-11-17T07:20:15.627Z</time>
      </trkpt>
      <trkpt lat="48.41543" lon="2.4861">
        <ele>67.035</ele>
        <time>2013-11-17T07:20:18.479Z</time>
      </trkpt>
      <trkpt lat="48.41549" lon="2.48586">
        <ele>67.506</ele>
        <time>2013-11-17T07:20:21.437Z</time>
      </trkpt>
      <trkpt lat="48.41554" lon="2.48565">
        <ele>67.346</ele>
        <time>2013-11-17T07:20:24.276Z</time>
      </trkpt>
      <trkpt lat="48.41557" lon="2.4854">
        <ele>66.646</ele>
        <time>2013-11-17T07:20:27.673Z</time>
      </trkpt>
      <trkpt lat="48.4156" lon="2.48515">
        <ele>65.997</ele>
        <time>2013-11-17T07:20:30.912Z</time>
      </trkpt>
      <trkpt lat="48.41567" lon="2.48492">
        <ele>65.896</ele>
        <time>2013-11-17T07:20:34.061Z</time>
      </trkpt>
      <trkpt lat="48.41575" lon="2.48473">
        <ele>66.752</ele>
        <time>2013-11-17T07:20:36.908Z</time>
      </trkpt>
      <trkpt lat="48.4158" lon="2.48458">
        <ele>68.494</ele>
        <time>2013-11-17T07:20:39.035Z</time>
      </trkpt>
      <trkpt lat="48.41586" lon="2.48444">
        <ele>70.372</ele>
        <time>2013-11-17T07:20:41.087Z</time>
      </trkpt>
      <trkpt lat="48.41591" lon="2.48422">
        <ele>71.506</ele>
        <time>2013-11-17T07:20:43.965Z</time>
      </trkpt>
      <trkpt lat="48.41593" lon="2.48407">
        <ele>71.605</ele>
        <time>2013-11-17T07:20:45.835Z</time>
      </trkpt>
      <trkpt lat="48.41596" lon="2.48386">
        <ele>70.933</ele>
        <time>2013-11-17T07:20:48.424Z</time>
      </trkpt>
      <trkpt lat="48.41599" lon="2.48368">
        <ele>70.097</ele>
        <time>2013-11-17T07:20:50.620Z</time>
      </trkpt>
      <trkpt lat="48.41601" lon="2.48351">
        <ele>68.646</ele>
        <time>2013-11-17T07:20:52.880Z</time>
      </trkpt>
      <trkpt lat="48.41604" lon="2.48335">
        <ele>66.143</ele>
        <time>2013-11-17T07:20:54.945Z</time>
      </trkpt>
      <trkpt lat="48.41608" lon="2.48313">
        <ele>63.843</ele>
        <time>2013-11-17T07:20:57.670Z</time>
      </trkpt>
      <trkpt lat="48.41612" lon="2.48296">
        <ele>62.916</ele>
        <time>2013-11-17T07:20:59.890Z</time>
      </trkpt>
      <trkpt lat="48.41619" lon="2.48274">
        <ele>62.764</ele>
        <time>2013-11-17T07:21:03.223Z</time>
      </trkpt>
      <trkpt lat="48.41622" lon="2.48258">
        <ele>62.606</ele>
        <time>2013-11-17T07:21:05.650Z</time>
      </trkpt>
      <trkpt lat="48.41625" lon="2.48242">
        <ele>62.348</ele>
        <time>2013-11-17T07:21:08.561Z</time>
      </trkpt>
      <trkpt lat="48.41624" lon="2.48221">
        <ele>62.763</ele>
        <time>2013-11-17T07:21:14.954Z</time>
      </trkpt>
      <trkpt lat="48.41624" lon="2.48221">
        <ele>64.219</ele>
        <time>2013-11-17T07:21:15.955Z</time>
      </trkpt>
      <trkpt lat="48.41624" lon="2.48221">
        <ele>65.467</ele>
        <time>2013-11-17T07:21:16.055Z</time>
      </trkpt>
      <trkpt lat="48.41617" lon="2.48208">
        <ele>65.424</ele>
        <time>2013-11-17T07:21:21.027Z</time>
      </trkpt>
      <trkpt lat="48.41608" lon="2.48198">
        <ele>65.17</ele>
        <time>2013-11-17T07:21:22.579Z</time>
      </trkpt>
      <trkpt lat="48.416" lon="2.4819">
        <ele>65.808</ele>
        <time>2013-11-17T07:21:23.960Z</time>
      </trkpt>
      <trkpt lat="48.416" lon="2.4819">
        <ele>66.705</ele>
        <time>2013-11-17T07:21:25.971Z</time>
      </trkpt>
      <trkpt lat="48.416" lon="2.4819">
        <ele>67.02</ele>
        <time>2013-11-17T07:21:26.071Z</time>
      </trkpt>
      <trkpt lat="48.41586" lon="2.48182">
        <ele>66.903</ele>
        <time>2013-11-17T07:21:33.512Z</time>
      </trkpt>
      <trkpt lat="48.41578" lon="2.48176">
        <ele>67.775</ele>
        <time>2013-11-17T07:21:35.022Z</time>
      </trkpt>
      <trkpt lat="48.41567" lon="2.48166">
        <ele>70.412</ele>
        <time>2013-11-17T07:21:36.963Z</time>
      </trkpt>
      <trkpt lat="48.41567" lon="2.48166">
        <ele>72.659</ele>
        <time>2013-11-17T07:21:37.970Z</time>
      </trkpt>
      <trkpt lat="48.41567" lon="2.48166">
        <ele>72.598</ele>
        <time>2013-11-17T07:21:38.070Z</time>
      </trkpt>
      <trkpt lat="48.41552" lon="2.48158">
        <ele>71.373</ele>
        <time>2013-11-17T07:21:45.696Z</time>
      </trkpt>
      <trkpt lat="48.41544" lon="2.48149">
        <ele>67.648</ele>
        <time>2013-11-17T07:21:48.543Z</time>
      </trkpt>
      <trkpt lat="48.41536" lon="2.48133">
        <ele>58.611</ele>
        <time>2013-11-17T07:21:51.632Z</time>
      </trkpt>
      <trkpt lat="48.41531" lon="2.48114">
        <ele>46.955</ele>
        <time>2013-11-17T07:21:54.650Z</time>
      </trkpt>
      <trkpt lat="48.41523" lon="2.48095">
        <ele>38.327</ele>
        <time>2013-11-17T07:21:57.620Z</time>
      </trkpt>
      <trkpt lat="48.41509" lon="2.48065">
        <ele>35.866</ele>
        <time>2013-11-17T07:22:02.045Z</time>
      </trkpt>
      <trkpt lat="48.41494" lon="2.48036">
        <ele>38.857</ele>
        <time>2013-11-17T07:22:06.359Z</time>
      </trkpt>
      <trkpt lat="48.41486" lon="2.48018">
        <ele>42.957</ele>
        <time>2013-11-17T07:22:08.846Z</time>
      </trkpt>
      <trkpt lat="48.41477" lon="2.48004">
        <ele>44.359</ele>
        <time>2013-11-17T07:22:11.047Z</time>
      </trkpt>
      <trkpt lat="48.41465" lon="2.47982">
        <ele>42.519</ele>
        <time>2013-11-17T07:22:14.518Z</time>
      </trkpt>
      <trkpt lat="48.41455" lon="2.47966">
        <ele>39.192</ele>
        <time>2013-11-17T07:22:17.229Z</time>
      </trkpt>
      <trkpt lat="48.41437" lon="2.47936">
        <ele>38.448</ele>
        <time>2013-11-17T07:22:22.614Z</time>
      </trkpt>
      <trkpt lat="48.41428" lon="2.47924">
        <ele>43.827</ele>
        <time>2013-11-17T07:22:24.975Z</time>
      </trkpt>
      <trkpt lat="48.41417" lon="2.47909">
        <ele>53.43</ele>
        <time>2013-11-17T07:22:28.069Z</time>
      </trkpt>
      <trkpt lat="48.41406" lon="2.47894">
        <ele>61.544</ele>
        <time>2013-11-17T07:22:31.135Z</time>
      </trkpt>
      <trkpt lat="48.41396" lon="2.47882">
        <ele>65.23</ele>
        <time>2013-11-17T07:22:33.629Z</time>
      </trkpt>
      <trkpt lat="48.41389" lon="2.47872">
        <ele>65.595</ele>
        <time>2013-11-17T07:22:35.404Z</time>
      </trkpt>
      <trkpt lat="48.41379" lon="2.47863">
        <ele>65.057</ele>
        <time>2013-11-17T07:22:37.713Z</time>
      </trkpt>
      <trkpt lat="48.41368" lon="2.47851">
        <ele>65.358</ele>
        <time>2013-11-17T07:22:40.277Z</time>
      </trkpt>
      <trkpt lat="48.41359" lon="2.4784">
        <ele>66.536</ele>
        <time>2013-11-17T07:22:42.407Z</time>
      </trkpt>
      <trkpt lat="48.41347" lon="2.47825">
        <ele>67.551</ele>
        <time>2013-11-17T07:22:45.283Z</time>
      </trkpt>
      <trkpt lat="48.41337" lon="2.47811">
        <ele>67.867</ele>
        <time>2013-11-17T07:22:47.840Z</time>
      </trkpt>
      <trkpt lat="48.41326" lon="2.47798">
        <ele>67.963</ele>
        <time>2013-11-17T07:22:50.354Z</time>
      </trkpt>
      <trkpt lat="48.41317" lon="2.4779">
        <ele>68.555</ele>
        <time>2013-11-17T07:22:52.260Z</time>
      </trkpt>
      <trkpt lat="48.41307" lon="2.47781">
        <ele>69.601</ele>
        <time>2013-11-17T07:22:54.390Z</time>
      </trkpt>
      <trkpt lat="48.41298" lon="2.47772">
        <ele>70.396</ele>
        <time>2013-11-17T07:22:56.399Z</time>
      </trkpt>
      <trkpt lat="48.4129" lon="2.47765">
        <ele>70.604</ele>
        <time>2013-11-17T07:22:58.244Z</time>
      </trkpt>
      <trkpt lat="48.41278" lon="2.47753">
        <ele>70.484</ele>
        <time>2013-11-17T07:23:01.320Z</time>
      </trkpt>
      <trkpt lat="48.4127" lon="2.47745">
        <ele>70.304</ele>
        <time>2013-11-17T07:23:03.990Z</time>
      </trkpt>
      <trkpt lat="48.41259" lon="2.47733">
        <ele>70.149</ele>
        <time>2013-11-17T07:23:08.677Z</time>
      </trkpt>
      <trkpt lat="48.41249" lon="2.47722">
        <ele>70.053</ele>
        <time>2013-11-17T07:23:12.622Z</time>
      </trkpt>
      <trkpt lat="48.41237" lon="2.47715">
        <ele>69.741</ele>
        <time>2013-11-17T07:23:15.832Z</time>
      </trkpt>
      <trkpt lat="48.41236" lon="2.47729">
        <ele>69.004</ele>
        <time>2013-11-17T07:23:18.396Z</time>
      </trkpt>
      <trkpt lat="48.41239" lon="2.47744">
        <ele>68.254</ele>
        <time>2013-11-17T07:23:21.192Z</time>
      </trkpt>
      <trkpt lat="48.41244" lon="2.4776">
        <ele>67.669</ele>
        <time>2013-11-17T07:23:23.793Z</time>
      </trkpt>
      <trkpt lat="48.41248" lon="2.47772">
        <ele>67.015</ele>
        <time>2013-11-17T07:23:25.876Z</time>
      </trkpt>
      <trkpt lat="48.41253" lon="2.4779">
        <ele>66.883</ele>
        <time>2013-11-17T07:23:28.542Z</time>
      </trkpt>
      <trkpt lat="48.41256" lon="2.47803">
        <ele>67.773</ele>
        <time>2013-11-17T07:23:30.583Z</time>
      </trkpt>
      <trkpt lat="48.41261" lon="2.47822">
        <ele>68.941</ele>
        <time>2013-11-17T07:23:33.336Z</time>
      </trkpt>
      <trkpt lat="48.41265" lon="2.47839">
        <ele>69.629</ele>
        <time>2013-11-17T07:23:35.961Z</time>
      </trkpt>
      <trkpt lat="48.41267" lon="2.47852">
        <ele>69.878</ele>
        <time>2013-11-17T07:23:37.954Z</time>
      </trkpt>
      <trkpt lat="48.41271" lon="2.47871">
        <ele>69.898</ele>
        <time>2013-11-17T07:23:40.834Z</time>
      </trkpt>
      <trkpt lat="48.41275" lon="2.47892">
        <ele>69.788</ele>
        <time>2013-11-17T07:23:44.156Z</time>
      </trkpt>
      <trkpt lat="48.41276" lon="2.4791">
        <ele>69.631</ele>
        <time>2013-11-17T07:23:47.063Z</time>
      </trkpt>
      <trkpt lat="48.41278" lon="2.47923">
        <ele>69.502</ele>
        <time>2013-11-17T07:23:49.227Z</time>
      </trkpt>
      <trkpt lat="48.4128" lon="2.47941">
        <ele>69.392</ele>
        <time>2013-11-17T07:23:52.164Z</time>
      </trkpt>
      <trkpt lat="48.41282" lon="2.47959">
        <ele>69.146</ele>
        <time>2013-11-17T07:23:55.004Z</time>
      </trkpt>
      <trkpt lat="48.41283" lon="2.47977">
        <ele>68.715</ele>
        <time>2013-11-17T07:23:57.999Z</time>
      </trkpt>
      <trkpt lat="48.41284" lon="2.47994">
        <ele>68.707</ele>
        <time>2013-11-17T07:24:00.708Z</time>
      </trkpt>
      <trkpt lat="48.41285" lon="2.4801">
        <ele>69.684</ele>
        <time>2013-11-17T07:24:03.373Z</time>
      </trkpt>
      <trkpt lat="48.41285" lon="2.48028">
        <ele>71.049</ele>
        <time>2013-11-17T07:24:06.124Z</time>
      </trkpt>
      <trkpt lat="48.41285" lon="2.48045">
        <ele>71.908</ele>
        <time>2013-11-17T07:24:08.884Z</time>
      </trkpt>
      <trkpt lat="48.41285" lon="2.48064">
        <ele>71.999</ele>
        <time>2013-11-17T07:24:11.790Z</time>
      </trkpt>
      <trkpt lat="48.41285" lon="2.48083">
        <ele>71.437</ele>
        <time>2013-11-17T07:24:14.903Z</time>
      </trkpt>
      <trkpt lat="48.41285" lon="2.48101">
        <ele>70.643</ele>
        <time>2013-11-17T07:24:17.753Z</time>
      </trkpt>
      <trkpt lat="48.41284" lon="2.48119">
        <ele>70.778</ele>
        <time>2013-11-17T07:24:20.768Z</time>
      </trkpt>
      <trkpt lat="48.41281" lon="2.48135">
        <ele>72.376</ele>
        <time>2013-11-17T07:24:23.671Z</time>
      </trkpt>
      <trkpt lat="48.41279" lon="2.48153">
        <ele>73.704</ele>
        <time>2013-11-17T07:24:27.142Z</time>
      </trkpt>
      <trkpt lat="48.41278" lon="2.48169">
        <ele>73.281</ele>
        <time>2013-11-17T07:24:30.118Z</time>
      </trkpt>
      <trkpt lat="48.41278" lon="2.48186">
        <ele>72.077</ele>
        <time>2013-11-17T07:24:33.093Z</time>
      </trkpt>
      <trkpt lat="48.41278" lon="2.48203">
        <ele>71.315</ele>
        <time>2013-11-17T07:24:36.386Z</time>
      </trkpt>
      <trkpt lat="48.41277" lon="2.4822">
        <ele>70.684</ele>
        <time>2013-11-17T07:24:39.726Z</time>
      </trkpt>
      <trkpt lat="48.41278" lon="2.48234">
        <ele>69.662</ele>
        <time>2013-11-17T07:24:42.465Z</time>
      </trkpt>
      <trkpt lat="48.41278" lon="2.48249">
        <ele>68.588</ele>
        <time>2013-11-17T07:24:45.375Z</time>
      </trkpt>
      <trkpt lat="48.41279" lon="2.48264">
        <ele>68.166</ele>
        <time>2013-11-17T07:24:48.179Z</time>
      </trkpt>
      <trkpt lat="48.41278" lon="2.48283">
        <ele>68.384</ele>
        <time>2013-11-17T07:24:51.535Z</time>
      </trkpt>
      <trkpt lat="48.41278" lon="2.483">
        <ele>68.794</ele>
        <time>2013-11-17T07:24:54.712Z</time>
      </trkpt>
      <trkpt lat="48.41278" lon="2.48317">
        <ele>69.205</ele>
        <time>2013-11-17T07:24:57.992Z</time>
      </trkpt>
      <trkpt lat="48.41279" lon="2.48331">
        <ele>69.635</ele>
        <time>2013-11-17T07:25:00.793Z</time>
      </trkpt>
      <trkpt lat="48.41282" lon="2.48348">
        <ele>69.907</ele>
        <time>2013-11-17T07:25:04.661Z</time>
      </trkpt>
      <trkpt lat="48.41284" lon="2.48368">
        <ele>70.187</ele>
        <time>2013-11-17T07:25:09.669Z</time>
      </trkpt>
      <trkpt lat="48.41281" lon="2.48386">
        <ele>71.701</ele>
        <time>2013-11-17T07:25:14.165Z</time>
      </trkpt>
      <trkpt lat="48.41284" lon="2.484">
        <ele>75.114</ele>
        <time>2013-11-17T07:25:17.859Z</time>
      </trkpt>
      <trkpt lat="48.41287" lon="2.48415">
        <ele>79.008</ele>
        <time>2013-11-17T07:25:21.897Z</time>
      </trkpt>
      <trkpt lat="48.41288" lon="2.48431">
        <ele>81.718</ele>
        <time>2013-11-17T07:25:26.384Z</time>
      </trkpt>
      <trkpt lat="48.41289" lon="2.48445">
        <ele>82.974</ele>
        <time>2013-11-17T07:25:30.624Z</time>
      </trkpt>
      <trkpt lat="48.4129" lon="2.48459">
        <ele>83.49</ele>
        <time>2013-11-17T07:25:34.773Z</time>
      </trkpt>
      <trkpt lat="48.41291" lon="2.48474">
        <ele>84.187</ele>
        <time>2013-11-17T07:25:39.158Z</time>
      </trkpt>
      <trkpt lat="48.41289" lon="2.48489">
        <ele>85.137</ele>
        <time>2013-11-17T07:25:42.991Z</time>
      </trkpt>
      <trkpt lat="48.41284" lon="2.48508">
        <ele>83.351</ele>
        <time>2013-11-17T07:25:46.892Z</time>
      </trkpt>
      <trkpt lat="48.41279" lon="2.48524">
        <ele>79.305</ele>
        <time>2013-11-17T07:25:50.012Z</time>
      </trkpt>
      <trkpt lat="48.41276" lon="2.48537">
        <ele>76.304</ele>
        <time>2013-11-17T07:25:52.606Z</time>
      </trkpt>
      <trkpt lat="48.41269" lon="2.48552">
        <ele>77.818</ele>
        <time>2013-11-17T07:25:55.515Z</time>
      </trkpt>
      <trkpt lat="48.41255" lon="2.4858">
        <ele>85.376</ele>
        <time>2013-11-17T07:25:59.877Z</time>
      </trkpt>
      <trkpt lat="48.41243" lon="2.486">
        <ele>84.04</ele>
        <time>2013-11-17T07:26:03.087Z</time>
      </trkpt>
      <trkpt lat="48.41238" lon="2.48616">
        <ele>80.578</ele>
        <time>2013-11-17T07:26:05.284Z</time>
      </trkpt>
      <trkpt lat="48.41233" lon="2.48629">
        <ele>78.013</ele>
        <time>2013-11-17T07:26:07.380Z</time>
      </trkpt>
      <trkpt lat="48.41227" lon="2.48645">
        <ele>77.097</ele>
        <time>2013-11-17T07:26:10.151Z</time>
      </trkpt>
      <trkpt lat="48.41224" lon="2.48658">
        <ele>77.23</ele>
        <time>2013-11-17T07:26:12.423Z</time>
      </trkpt>
      <trkpt lat="48.41222" lon="2.48675">
        <ele>77.645</ele>
        <time>2013-11-17T07:26:15.366Z</time>
      </trkpt>
      <trkpt lat="48.4122" lon="2.48688">
        <ele>77.924</ele>
        <time>2013-11-17T07:26:17.904Z</time>
      </trkpt>
      <trkpt lat="48.41216" lon="2.48705">
        <ele>78.027</ele>
        <time>2013-11-17T07:26:21.275Z</time>
      </trkpt>
      <trkpt lat="48.41212" lon="2.48721">
        <ele>78.049</ele>
        <time>2013-11-17T07:26:24.818Z</time>
      </trkpt>
      <trkpt lat="48.41211" lon="2.48736">
        <ele>77.986</ele>
        <time>2013-11-17T07:26:28.071Z</time>
      </trkpt>
      <trkpt lat="48.41211" lon="2.48753">
        <ele>77.718</ele>
        <time>2013-11-17T07:26:31.506Z</time>
      </trkpt>
      <trkpt lat="48.41215" lon="2.48767">
        <ele>77.388</ele>
        <time>2013-11-17T07:26:34.544Z</time>
      </trkpt>
      <trkpt lat="48.41216" lon="2.48783">
        <ele>77.842</ele>
        <time>2013-11-17T07:26:37.705Z</time>
      </trkpt>
      <trkpt lat="48.41216" lon="2.48798">
        <ele>79.378</ele>
        <time>2013-11-17T07:26:40.868Z</time>
      </trkpt>
      <trkpt lat="48.41217" lon="2.48812">
        <ele>80.235</ele>
        <time>2013-11-17T07:26:43.905Z</time>
      </trkpt>
      <trkpt lat="48.41217" lon="2.48827">
        <ele>79.01</ele>
        <time>2013-11-17T07:26:46.821Z</time>
      </trkpt>
      <trkpt lat="48.41215" lon="2.48842">
        <ele>76.926</ele>
        <time>2013-11-17T07:26:49.652Z</time>
      </trkpt>
      <trkpt lat="48.41213" lon="2.4886">
        <ele>75.855</ele>
        <time>2013-11-17T07:26:53.150Z</time>
      </trkpt>
      <trkpt lat="48.41206" lon="2.48876">
        <ele>76.125</ele>
        <time>2013-11-17T07:26:56.680Z</time>
      </trkpt>
      <trkpt lat="48.41202" lon="2.4889">
        <ele>76.122</ele>
        <time>2013-11-17T07:26:59.389Z</time>
      </trkpt>
      <trkpt lat="48.41198" lon="2.48908">
        <ele>74.618</ele>
        <time>2013-11-17T07:27:02.771Z</time>
      </trkpt>
      <trkpt lat="48.41193" lon="2.48924">
        <ele>73.307</ele>
        <time>2013-11-17T07:27:05.861Z</time>
      </trkpt>
      <trkpt lat="48.41185" lon="2.48944">
        <ele>74.741</ele>
        <time>2013-11-17T07:27:09.620Z</time>
      </trkpt>
      <trkpt lat="48.4118" lon="2.48962">
        <ele>78.442</ele>
        <time>2013-11-17T07:27:12.445Z</time>
      </trkpt>
      <trkpt lat="48.41173" lon="2.48977">
        <ele>81.712</ele>
        <time>2013-11-17T07:27:15.075Z</time>
      </trkpt>
      <trkpt lat="48.41167" lon="2.48991">
        <ele>83.33</ele>
        <time>2013-11-17T07:27:17.598Z</time>
      </trkpt>
      <trkpt lat="48.41163" lon="2.49004">
        <ele>83.862</ele>
        <time>2013-11-17T07:27:19.927Z</time>
      </trkpt>
      <trkpt lat="48.4116" lon="2.49017">
        <ele>84.884</ele>
        <time>2013-11-17T07:27:22.223Z</time>
      </trkpt>
      <trkpt lat="48.41157" lon="2.49032">
        <ele>86.008</ele>
        <time>2013-11-17T07:27:25.119Z</time>
      </trkpt>
      <trkpt lat="48.41153" lon="2.49046">
        <ele>86.507</ele>
        <time>2013-11-17T07:27:28.224Z</time>
      </trkpt>
      <trkpt lat="48.41148" lon="2.49063">
        <ele>85.703</ele>
        <time>2013-11-17T07:27:32.059Z</time>
      </trkpt>
      <trkpt lat="48.41143" lon="2.49075">
        <ele>84.697</ele>
        <time>2013-11-17T07:27:35.149Z</time>
      </trkpt>
      <trkpt lat="48.41139" lon="2.49093">
        <ele>83.902</ele>
        <time>2013-11-17T07:27:38.986Z</time>
      </trkpt>
      <trkpt lat="48.41135" lon="2.49109">
        <ele>84.211</ele>
        <time>2013-11-17T07:27:42.306Z</time>
      </trkpt>
      <trkpt lat="48.41133" lon="2.49126">
        <ele>85.929</ele>
        <time>2013-11-17T07:27:45.857Z</time>
      </trkpt>
      <trkpt lat="48.41128" lon="2.49146">
        <ele>87.541</ele>
        <time>2013-11-17T07:27:49.898Z</time>
      </trkpt>
      <trkpt lat="48.41123" lon="2.49164">
        <ele>87.76</ele>
        <time>2013-11-17T07:27:53.247Z</time>
      </trkpt>
      <trkpt lat="48.41117" lon="2.49182">
        <ele>87.218</ele>
        <time>2013-11-17T07:27:56.167Z</time>
      </trkpt>
      <trkpt lat="48.41115" lon="2.49198">
        <ele>86.957</ele>
        <time>2013-11-17T07:27:58.647Z</time>
      </trkpt>
      <trkpt lat="48.41112" lon="2.49215">
        <ele>87.583</ele>
        <time>2013-11-17T07:28:01.467Z</time>
      </trkpt>
      <trkpt lat="48.4111" lon="2.49229">
        <ele>88.922</ele>
        <time>2013-11-17T07:28:04.039Z</time>
      </trkpt>
      <trkpt lat="48.41108" lon="2.49242">
        <ele>90.403</ele>
        <time>2013-11-17T07:28:06.802Z</time>
      </trkpt>
      <trkpt lat="48.41105" lon="2.49258">
        <ele>91.72</ele>
        <time>2013-11-17T07:28:10.313Z</time>
      </trkpt>
      <trkpt lat="48.41103" lon="2.49273">
        <ele>93.344</ele>
        <time>2013-11-17T07:28:13.746Z</time>
      </trkpt>
      <trkpt lat="48.411" lon="2.49289">
        <ele>95.691</ele>
        <time>2013-11-17T07:28:17.593Z</time>
      </trkpt>
      <trkpt lat="48.41097" lon="2.49304">
        <ele>97.994</ele>
        <time>2013-11-17T07:28:21.385Z</time>
      </trkpt>
      <trkpt lat="48.41094" lon="2.4932">
        <ele>98.339</ele>
        <time>2013-11-17T07:28:25.244Z</time>
      </trkpt>
      <trkpt lat="48.41091" lon="2.49334">
        <ele>96.206</ele>
        <time>2013-11-17T07:28:28.791Z</time>
      </trkpt>
      <trkpt lat="48.41088" lon="2.49352">
        <ele>93.396</ele>
        <time>2013-11-17T07:28:33.199Z</time>
      </trkpt>
      <trkpt lat="48.41084" lon="2.49368">
        <ele>91.76</ele>
        <time>2013-11-17T07:28:37.163Z</time>
      </trkpt>
      <trkpt lat="48.41079" lon="2.49383">
        <ele>91.402</ele>
        <time>2013-11-17T07:28:41.009Z</time>
      </trkpt>
      <trkpt lat="48.41074" lon="2.494">
        <ele>91.865</ele>
        <time>2013-11-17T07:28:44.817Z</time>
      </trkpt>
      <trkpt lat="48.41068" lon="2.49426">
        <ele>92.636</ele>
        <time>2013-11-17T07:28:49.757Z</time>
      </trkpt>
      <trkpt lat="48.41063" lon="2.49444">
        <ele>92.561</ele>
        <time>2013-11-17T07:28:52.967Z</time>
      </trkpt>
      <trkpt lat="48.41063" lon="2.49444">
        <ele>91.064</ele>
        <time>2013-11-17T07:28:52.967Z</time>
      </trkpt>
      <trkpt lat="48.41063" lon="2.49444">
        <ele>89.633</ele>
        <time>2013-11-17T07:28:53.067Z</time>
      </trkpt>
      <trkpt lat="48.41054" lon="2.49503">
        <ele>89.6</ele>
        <time>2013-11-17T07:29:00.247Z</time>
      </trkpt>
      <trkpt lat="48.4105" lon="2.49542">
        <ele>90.315</ele>
        <time>2013-11-17T07:29:03.050Z</time>
      </trkpt>
      <trkpt lat="48.41047" lon="2.49571">
        <ele>90.462</ele>
        <time>2013-11-17T07:29:04.969Z</time>
      </trkpt>
      <trkpt lat="48.41042" lon="2.4961">
        <ele>89.893</ele>
        <time>2013-11-17T07:29:07.770Z</time>
      </trkpt>
      <trkpt lat="48.41037" lon="2.4965">
        <ele>89.34</ele>
        <time>2013-11-17T07:29:10.713Z</time>
      </trkpt>
      <trkpt lat="48.41033" lon="2.49685">
        <ele>89.144</ele>
        <time>2013-11-17T07:29:13.464Z</time>
      </trkpt>
      <trkpt lat="48.4103" lon="2.4972">
        <ele>89.079</ele>
        <time>2013-11-17T07:29:16.253Z</time>
      </trkpt>
      <trkpt lat="48.41024" lon="2.49755">
        <ele>88.78</ele>
        <time>2013-11-17T07:29:19.081Z</time>
      </trkpt>
      <trkpt lat="48.41017" lon="2.49794">
        <ele>87.811</ele>
        <time>2013-11-17T07:29:22.203Z</time>
      </trkpt>
      <trkpt lat="48.41013" lon="2.49826">
        <ele>86.106</ele>
        <time>2013-11-17T07:29:25.016Z</time>
      </trkpt>
      <trkpt lat="48.41011" lon="2.49855">
        <ele>83.138</ele>
        <time>2013-11-17T07:29:27.785Z</time>
      </trkpt>
      <trkpt lat="48.4101" lon="2.49877">
        <ele>78.4</ele>
        <time>2013-11-17T07:29:30.316Z</time>
      </trkpt>
      <trkpt lat="48.41009" lon="2.49894">
        <ele>73.162</ele>
        <time>2013-11-17T07:29:32.489Z</time>
      </trkpt>
      <trkpt lat="48.41008" lon="2.49918">
        <ele>69.511</ele>
        <time>2013-11-17T07:29:35.980Z</time>
      </trkpt>
      <trkpt lat="48.41005" lon="2.49944">
        <ele>67.589</ele>
        <time>2013-11-17T07:29:39.601Z</time>
      </trkpt>
      <trkpt lat="48.41003" lon="2.49964">
        <ele>66.451</ele>
        <time>2013-11-17T07:29:42.445Z</time>
      </trkpt>
      <trkpt lat="48.41" lon="2.49988">
        <ele>65.885</ele>
        <time>2013-11-17T07:29:45.965Z</time>
      </trkpt>
      <trkpt lat="48.40994" lon="2.50013">
        <ele>66.264</ele>
        <time>2013-11-17T07:29:49.302Z</time>
      </trkpt>
      <trkpt lat="48.40986" lon="2.50039">
        <ele>68.356</ele>
        <time>2013-11-17T07:29:53.385Z</time>
      </trkpt>
      <trkpt lat="48.4098" lon="2.50064">
        <ele>71.873</ele>
        <time>2013-11-17T07:29:57.213Z</time>
      </trkpt>
      <trkpt lat="48.40981" lon="2.50083">
        <ele>74.032</ele>
        <time>2013-11-17T07:29:59.563Z</time>
      </trkpt>
      <trkpt lat="48.4098" lon="2.50102">
        <ele>73.075</ele>
        <time>2013-11-17T07:30:01.818Z</time>
      </trkpt>
      <trkpt lat="48.40979" lon="2.50121">
        <ele>70.396</ele>
        <time>2013-11-17T07:30:04.243Z</time>
      </trkpt>
      <trkpt lat="48.40979" lon="2.5015">
        <ele>68.251</ele>
        <time>2013-11-17T07:30:07.908Z</time>
      </trkpt>
      <trkpt lat="48.40981" lon="2.50165">
        <ele>68.13</ele>
        <time>2013-11-17T07:30:09.677Z</time>
      </trkpt>
      <trkpt lat="48.40983" lon="2.50194">
        <ele>70.02</ele>
        <time>2013-11-17T07:30:13.073Z</time>
      </trkpt>
      <trkpt lat="48.40984" lon="2.50211">
        <ele>72.307</ele>
        <time>2013-11-17T07:30:15.000Z</time>
      </trkpt>
      <trkpt lat="48.40984" lon="2.50237">
        <ele>73.287</ele>
        <time>2013-11-17T07:30:17.947Z</time>
      </trkpt>
      <trkpt lat="48.40985" lon="2.50263">
        <ele>72.134</ele>
        <time>2013-11-17T07:30:20.997Z</time>
      </trkpt>
      <trkpt lat="48.40984" lon="2.50282">
        <ele>69.429</ele>
        <time>2013-11-17T07:30:23.306Z</time>
      </trkpt>
      <trkpt lat="48.40979" lon="2.50314">
        <ele>65.821</ele>
        <time>2013-11-17T07:30:27.784Z</time>
      </trkpt>
      <trkpt lat="48.40975" lon="2.50335">
        <ele>61.768</ele>
        <time>2013-11-17T07:30:31.106Z</time>
      </trkpt>
      <trkpt lat="48.40971" lon="2.50362">
        <ele>57.681</ele>
        <time>2013-11-17T07:30:34.716Z</time>
      </trkpt>
      <trkpt lat="48.40971" lon="2.50387">
        <ele>53.931</ele>
        <time>2013-11-17T07:30:37.675Z</time>
      </trkpt>
      <trkpt lat="48.40968" lon="2.50405">
        <ele>52.522</ele>
        <time>2013-11-17T07:30:39.971Z</time>
      </trkpt>
      <trkpt lat="48.40961" lon="2.50443">
        <ele>55.03</ele>
        <time>2013-11-17T07:30:45.282Z</time>
      </trkpt>
      <trkpt lat="48.40956" lon="2.50479">
        <ele>59.594</ele>
        <time>2013-11-17T07:30:51.096Z</time>
      </trkpt>
      <trkpt lat="48.40953" lon="2.50497">
        <ele>63.589</ele>
        <time>2013-11-17T07:30:54.335Z</time>
      </trkpt>
      <trkpt lat="48.40952" lon="2.50523">
        <ele>65.468</ele>
        <time>2013-11-17T07:30:59.812Z</time>
      </trkpt>
      <trkpt lat="48.40952" lon="2.50544">
        <ele>64.937</ele>
        <time>2013-11-17T07:31:03.977Z</time>
      </trkpt>
      <trkpt lat="48.40952" lon="2.50559">
        <ele>63.514</ele>
        <time>2013-11-17T07:31:06.668Z</time>
      </trkpt>
      <trkpt lat="48.40953" lon="2.50579">
        <ele>62.726</ele>
        <time>2013-11-17T07:31:10.523Z</time>
      </trkpt>
      <trkpt lat="48.40953" lon="2.50597">
        <ele>63.002</ele>
        <time>2013-11-17T07:31:13.730Z</time>
      </trkpt>
      <trkpt lat="48.40953" lon="2.50614">
        <ele>64.079</ele>
        <time>2013-11-17T07:31:16.754Z</time>
      </trkpt>
      <trkpt lat="48.40953" lon="2.50634">
        <ele>65.18</ele>
        <time>2013-11-17T07:31:20.013Z</time>
      </trkpt>
      <trkpt lat="48.40954" lon="2.5065">
        <ele>65.698</ele>
        <time>2013-11-17T07:31:22.863Z</time>
      </trkpt>
      <trkpt lat="48.40954" lon="2.50666">
        <ele>65.81</ele>
        <time>2013-11-17T07:31:25.961Z</time>
      </trkpt>
      <trkpt lat="48.40955" lon="2.50682">
        <ele>66.647</ele>
        <time>2013-11-17T07:31:29.250Z</time>
      </trkpt>
      <trkpt lat="48.40956" lon="2.507">
        <ele>69.002</ele>
        <time>2013-11-17T07:31:32.532Z</time>
      </trkpt>
      <trkpt lat="48.40956" lon="2.50717">
        <ele>71.778</ele>
        <time>2013-11-17T07:31:35.220Z</time>
      </trkpt>
      <trkpt lat="48.40955" lon="2.50734">
        <ele>73.453</ele>
        <time>2013-11-17T07:31:37.842Z</time>
      </trkpt>
      <trkpt lat="48.40951" lon="2.50747">
        <ele>72.64</ele>
        <time>2013-11-17T07:31:39.954Z</time>
      </trkpt>
      <trkpt lat="48.40947" lon="2.50767">
        <ele>68.819</ele>
        <time>2013-11-17T07:31:43.279Z</time>
      </trkpt>
      <trkpt lat="48.40944" lon="2.50785">
        <ele>64.309</ele>
        <time>2013-11-17T07:31:46.650Z</time>
      </trkpt>
      <trkpt lat="48.40942" lon="2.50808">
        <ele>61.746</ele>
        <time>2013-11-17T07:31:50.799Z</time>
      </trkpt>
      <trkpt lat="48.40939" lon="2.50822">
        <ele>61.287</ele>
        <time>2013-11-17T07:31:53.544Z</time>
      </trkpt>
      <trkpt lat="48.40936" lon="2.5084">
        <ele>61.906</ele>
        <time>2013-11-17T07:31:56.896Z</time>
      </trkpt>
      <trkpt lat="48.40933" lon="2.50858">
        <ele>62.605</ele>
        <time>2013-11-17T07:31:59.674Z</time>
      </trkpt>
      <trkpt lat="48.40931" lon="2.50873">
        <ele>63.185</ele>
        <time>2013-11-17T07:32:01.729Z</time>
      </trkpt>
      <trkpt lat="48.40931" lon="2.5089">
        <ele>64.211</ele>
        <time>2013-11-17T07:32:03.980Z</time>
      </trkpt>
      <trkpt lat="48.40931" lon="2.50904">
        <ele>66.046</ele>
        <time>2013-11-17T07:32:05.784Z</time>
      </trkpt>
      <trkpt lat="48.40931" lon="2.50927">
        <ele>68.269</ele>
        <time>2013-11-17T07:32:08.799Z</time>
      </trkpt>
      <trkpt lat="48.40928" lon="2.50947">
        <ele>70.058</ele>
        <time>2013-11-17T07:32:11.489Z</time>
      </trkpt>
      <trkpt lat="48.40925" lon="2.50964">
        <ele>70.593</ele>
        <time>2013-11-17T07:32:13.922Z</time>
      </trkpt>
      <trkpt lat="48.40921" lon="2.50985">
        <ele>69.342</ele>
        <time>2013-11-17T07:32:17.002Z</time>
      </trkpt>
      <trkpt lat="48.40918" lon="2.51007">
        <ele>66.893</ele>
        <time>2013-11-17T07:32:20.583Z</time>
      </trkpt>
      <trkpt lat="48.40914" lon="2.51029">
        <ele>64.758</ele>
        <time>2013-11-17T07:32:24.349Z</time>
      </trkpt>
      <trkpt lat="48.40912" lon="2.51048">
        <ele>63.733</ele>
        <time>2013-11-17T07:32:27.484Z</time>
      </trkpt>
      <trkpt lat="48.40909" lon="2.51067">
        <ele>63.145</ele>
        <time>2013-11-17T07:32:30.434Z</time>
      </trkpt>
      <trkpt lat="48.4091" lon="2.51085">
        <ele>62.199</ele>
        <time>2013-11-17T07:32:33.019Z</time>
      </trkpt>
      <trkpt lat="48.40908" lon="2.51101">
        <ele>61.1</ele>
        <time>2013-11-17T07:32:35.131Z</time>
      </trkpt>
      <trkpt lat="48.40908" lon="2.51117">
        <ele>60.409</ele>
        <time>2013-11-17T07:32:37.099Z</time>
      </trkpt>
      <trkpt lat="48.40906" lon="2.51131">
        <ele>60.709</ele>
        <time>2013-11-17T07:32:38.942Z</time>
      </trkpt>
      <trkpt lat="48.40902" lon="2.51149">
        <ele>62.196</ele>
        <time>2013-11-17T07:32:41.247Z</time>
      </trkpt>
      <trkpt lat="48.40893" lon="2.51173">
        <ele>64.372</ele>
        <time>2013-11-17T07:32:44.512Z</time>
      </trkpt>
      <trkpt lat="48.40882" lon="2.51199">
        <ele>66.506</ele>
        <time>2013-11-17T07:32:48.243Z</time>
      </trkpt>
      <trkpt lat="48.40874" lon="2.51222">
        <ele>67.94</ele>
        <time>2013-11-17T07:32:51.695Z</time>
      </trkpt>
      <trkpt lat="48.40865" lon="2.51242">
        <ele>68.418</ele>
        <time>2013-11-17T07:32:54.746Z</time>
      </trkpt>
      <trkpt lat="48.40856" lon="2.51264">
        <ele>68.422</ele>
        <time>2013-11-17T07:32:58.316Z</time>
      </trkpt>
      <trkpt lat="48.40849" lon="2.51277">
        <ele>68.439</ele>
        <time>2013-11-17T07:33:00.519Z</time>
      </trkpt>
      <trkpt lat="48.40842" lon="2.51292">
        <ele>68.633</ele>
        <time>2013-11-17T07:33:03.110Z</time>
      </trkpt>
      <trkpt lat="48.40832" lon="2.51311">
        <ele>68.871</ele>
        <time>2013-11-17T07:33:06.731Z</time>
      </trkpt>
      <trkpt lat="48.40824" lon="2.51324">
        <ele>69.004</ele>
        <time>2013-11-17T07:33:09.304Z</time>
      </trkpt>
      <trkpt lat="48.40817" lon="2.51341">
        <ele>69.027</ele>
        <time>2013-11-17T07:33:12.194Z</time>
      </trkpt>
      <trkpt lat="48.40809" lon="2.51356">
        <ele>69</ele>
        <time>2013-11-17T07:33:15.080Z</time>
      </trkpt>
      <trkpt lat="48.40801" lon="2.51369">
        <ele>68.954</ele>
        <time>2013-11-17T07:33:17.810Z</time>
      </trkpt>
      <trkpt lat="48.40793" lon="2.51382">
        <ele>68.804</ele>
        <time>2013-11-17T07:33:20.732Z</time>
      </trkpt>
      <trkpt lat="48.40784" lon="2.51397">
        <ele>68.043</ele>
        <time>2013-11-17T07:33:24.116Z</time>
      </trkpt>
      <trkpt lat="48.40774" lon="2.5141">
        <ele>66.349</ele>
        <time>2013-11-17T07:33:27.486Z</time>
      </trkpt>
      <trkpt lat="48.40767" lon="2.5142">
        <ele>64.366</ele>
        <time>2013-11-17T07:33:30.018Z</time>
      </trkpt>
      <trkpt lat="48.40757" lon="2.51431">
        <ele>63.086</ele>
        <time>2013-11-17T07:33:33.477Z</time>
      </trkpt>
      <trkpt lat="48.40749" lon="2.51443">
        <ele>63.944</ele>
        <time>2013-11-17T07:33:36.354Z</time>
      </trkpt>
      <trkpt lat="48.40742" lon="2.51454">
        <ele>67.225</ele>
        <time>2013-11-17T07:33:38.893Z</time>
      </trkpt>
      <trkpt lat="48.40735" lon="2.51466">
        <ele>70.798</ele>
        <time>2013-11-17T07:33:41.276Z</time>
      </trkpt>
      <trkpt lat="48.40728" lon="2.51475">
        <ele>73.098</ele>
        <time>2013-11-17T07:33:43.268Z</time>
      </trkpt>
      <trkpt lat="48.40718" lon="2.51487">
        <ele>74.402</ele>
        <time>2013-11-17T07:33:45.772Z</time>
      </trkpt>
      <trkpt lat="48.40709" lon="2.515">
        <ele>74.521</ele>
        <time>2013-11-17T07:33:47.974Z</time>
      </trkpt>
      <trkpt lat="48.40703" lon="2.51511">
        <ele>73.417</ele>
        <time>2013-11-17T07:33:49.785Z</time>
      </trkpt>
      <trkpt lat="48.40694" lon="2.51531">
        <ele>71.829</ele>
        <time>2013-11-17T07:33:52.942Z</time>
      </trkpt>
      <trkpt lat="48.40687" lon="2.51546">
        <ele>70.464</ele>
        <time>2013-11-17T07:33:55.227Z</time>
      </trkpt>
      <trkpt lat="48.40677" lon="2.51568">
        <ele>69.639</ele>
        <time>2013-11-17T07:33:58.792Z</time>
      </trkpt>
      <trkpt lat="48.40671" lon="2.51579">
        <ele>68.973</ele>
        <time>2013-11-17T07:34:00.651Z</time>
      </trkpt>
      <trkpt lat="48.40664" lon="2.51595">
        <ele>67.91</ele>
        <time>2013-11-17T07:34:03.182Z</time>
      </trkpt>
      <trkpt lat="48.40661" lon="2.51609">
        <ele>67.09</ele>
        <time>2013-11-17T07:34:05.159Z</time>
      </trkpt>
      <trkpt lat="48.40657" lon="2.5163">
        <ele>67.231</ele>
        <time>2013-11-17T07:34:07.944Z</time>
      </trkpt>
      <trkpt lat="48.40655" lon="2.51647">
        <ele>67.902</ele>
        <time>2013-11-17T07:34:10.387Z</time>
      </trkpt>
      <trkpt lat="48.40653" lon="2.51661">
        <ele>68.456</ele>
        <time>2013-11-17T07:34:12.252Z</time>
      </trkpt>
      <trkpt lat="48.40649" lon="2.51676">
        <ele>67.852</ele>
        <time>2013-11-17T07:34:14.521Z</time>
      </trkpt>
      <trkpt lat="48.40646" lon="2.51696">
        <ele>65.665</ele>
        <time>2013-11-17T07:34:17.458Z</time>
      </trkpt>
      <trkpt lat="48.40642" lon="2.51715">
        <ele>63.665</ele>
        <time>2013-11-17T07:34:20.017Z</time>
      </trkpt>
      <trkpt lat="48.40641" lon="2.51733">
        <ele>63.48</ele>
        <time>2013-11-17T07:34:22.297Z</time>
      </trkpt>
      <trkpt lat="48.40637" lon="2.51753">
        <ele>64.414</ele>
        <time>2013-11-17T07:34:25.029Z</time>
      </trkpt>
      <trkpt lat="48.40633" lon="2.51778">
        <ele>64.338</ele>
        <time>2013-11-17T07:34:28.649Z</time>
      </trkpt>
      <trkpt lat="48.40632" lon="2.51795">
        <ele>62.052</ele>
        <time>2013-11-17T07:34:31.330Z</time>
      </trkpt>
      <trkpt lat="48.4063" lon="2.51816">
        <ele>58.943</ele>
        <time>2013-11-17T07:34:36.862Z</time>
      </trkpt>
      <trkpt lat="48.40628" lon="2.51836">
        <ele>56.987</ele>
        <time>2013-11-17T07:34:44.847Z</time>
      </trkpt>
      <trkpt lat="48.40632" lon="2.51848">
        <ele>57.593</ele>
        <time>2013-11-17T07:34:50.605Z</time>
      </trkpt>
      <trkpt lat="48.40641" lon="2.51844">
        <ele>60.824</ele>
        <time>2013-11-17T07:34:55.523Z</time>
      </trkpt>
      <trkpt lat="48.4065" lon="2.51853">
        <ele>64.489</ele>
        <time>2013-11-17T07:34:59.403Z</time>
      </trkpt>
      <trkpt lat="48.40657" lon="2.51864">
        <ele>66.711</ele>
        <time>2013-11-17T07:35:02.225Z</time>
      </trkpt>
      <trkpt lat="48.40664" lon="2.51875">
        <ele>68.25</ele>
        <time>2013-11-17T07:35:04.633Z</time>
      </trkpt>
      <trkpt lat="48.40667" lon="2.51894">
        <ele>70.106</ele>
        <time>2013-11-17T07:35:07.257Z</time>
      </trkpt>
      <trkpt lat="48.40669" lon="2.51908">
        <ele>71.486</ele>
        <time>2013-11-17T07:35:08.961Z</time>
      </trkpt>
      <trkpt lat="48.40674" lon="2.51925">
        <ele>70.216</ele>
        <time>2013-11-17T07:35:11.168Z</time>
      </trkpt>
      <trkpt lat="48.4068" lon="2.51941">
        <ele>66.137</ele>
        <time>2013-11-17T07:35:13.241Z</time>
      </trkpt>
      <trkpt lat="48.4068" lon="2.51965">
        <ele>61.914</ele>
        <time>2013-11-17T07:35:16.236Z</time>
      </trkpt>
      <trkpt lat="48.40679" lon="2.51981">
        <ele>59.662</ele>
        <time>2013-11-17T07:35:18.415Z</time>
      </trkpt>
      <trkpt lat="48.4068" lon="2.51997">
        <ele>59.386</ele>
        <time>2013-11-17T07:35:20.864Z</time>
      </trkpt>
      <trkpt lat="48.4068" lon="2.52013">
        <ele>60.424</ele>
        <time>2013-11-17T07:35:23.394Z</time>
      </trkpt>
      <trkpt lat="48.40682" lon="2.52027">
        <ele>62.048</ele>
        <time>2013-11-17T07:35:26.014Z</time>
      </trkpt>
      <trkpt lat="48.40686" lon="2.52044">
        <ele>63.697</ele>
        <time>2013-11-17T07:35:29.278Z</time>
      </trkpt>
      <trkpt lat="48.40685" lon="2.5206">
        <ele>63.902</ele>
        <time>2013-11-17T07:35:32.142Z</time>
      </trkpt>
      <trkpt lat="48.40684" lon="2.52076">
        <ele>61.47</ele>
        <time>2013-11-17T07:35:34.829Z</time>
      </trkpt>
      <trkpt lat="48.40681" lon="2.52093">
        <ele>57.998</ele>
        <time>2013-11-17T07:35:37.558Z</time>
      </trkpt>
      <trkpt lat="48.40679" lon="2.52114">
        <ele>55.73</ele>
        <time>2013-11-17T07:35:40.687Z</time>
      </trkpt>
      <trkpt lat="48.40675" lon="2.52127">
        <ele>55.437</ele>
        <time>2013-11-17T07:35:43.221Z</time>
      </trkpt>
      <trkpt lat="48.40673" lon="2.52144">
        <ele>57.246</ele>
        <time>2013-11-17T07:35:46.353Z</time>
      </trkpt>
      <trkpt lat="48.40675" lon="2.5216">
        <ele>61.004</ele>
        <time>2013-11-17T07:35:49.667Z</time>
      </trkpt>
      <trkpt lat="48.40675" lon="2.52174">
        <ele>65.967</ele>
        <time>2013-11-17T07:35:53.019Z</time>
      </trkpt>
      <trkpt lat="48.40675" lon="2.52189">
        <ele>70.852</ele>
        <time>2013-11-17T07:35:57.045Z</time>
      </trkpt>
      <trkpt lat="48.40671" lon="2.52201">
        <ele>75.249</ele>
        <time>2013-11-17T07:36:01.684Z</time>
      </trkpt>
      <trkpt lat="48.40661" lon="2.52207">
        <ele>79.207</ele>
        <time>2013-11-17T07:36:06.996Z</time>
      </trkpt>
      <trkpt lat="48.40652" lon="2.52201">
        <ele>81.465</ele>
        <time>2013-11-17T07:36:11.010Z</time>
      </trkpt>
      <trkpt lat="48.40639" lon="2.52195">
        <ele>80.966</ele>
        <time>2013-11-17T07:36:14.512Z</time>
      </trkpt>
      <trkpt lat="48.40626" lon="2.5219">
        <ele>78.498</ele>
        <time>2013-11-17T07:36:17.326Z</time>
      </trkpt>
      <trkpt lat="48.40612" lon="2.52186">
        <ele>75.696</ele>
        <time>2013-11-17T07:36:20.475Z</time>
      </trkpt>
      <trkpt lat="48.40603" lon="2.52181">
        <ele>73.859</ele>
        <time>2013-11-17T07:36:22.545Z</time>
      </trkpt>
      <trkpt lat="48.40591" lon="2.52177">
        <ele>73.195</ele>
        <time>2013-11-17T07:36:25.433Z</time>
      </trkpt>
      <trkpt lat="48.40578" lon="2.52173">
        <ele>72.308</ele>
        <time>2013-11-17T07:36:28.444Z</time>
      </trkpt>
      <trkpt lat="48.40566" lon="2.52168">
        <ele>68.968</ele>
        <time>2013-11-17T07:36:31.328Z</time>
      </trkpt>
      <trkpt lat="48.40557" lon="2.52163">
        <ele>63.462</ele>
        <time>2013-11-17T07:36:33.789Z</time>
      </trkpt>
      <trkpt lat="48.40548" lon="2.52157">
        <ele>58.417</ele>
        <time>2013-11-17T07:36:36.422Z</time>
      </trkpt>
      <trkpt lat="48.40537" lon="2.52151">
        <ele>55.09</ele>
        <time>2013-11-17T07:36:39.744Z</time>
      </trkpt>
      <trkpt lat="48.40527" lon="2.52147">
        <ele>53.295</ele>
        <time>2013-11-17T07:36:42.826Z</time>
      </trkpt>
      <trkpt lat="48.40518" lon="2.52146">
        <ele>52.631</ele>
        <time>2013-11-17T07:36:45.972Z</time>
      </trkpt>
      <trkpt lat="48.40518" lon="2.52146">
        <ele>52.429</ele>
        <time>2013-11-17T07:36:45.972Z</time>
      </trkpt>
      <trkpt lat="48.40518" lon="2.52146">
        <ele>52.377</ele>
        <time>2013-11-17T07:36:48.034Z</time>
      </trkpt>
      <trkpt lat="48.4051" lon="2.52164">
        <ele>52.414</ele>
        <time>2013-11-17T07:36:58.412Z</time>
      </trkpt>
      <trkpt lat="48.4051" lon="2.5218">
        <ele>55.042</ele>
        <time>2013-11-17T07:37:02.215Z</time>
      </trkpt>
      <trkpt lat="48.40509" lon="2.52197">
        <ele>61.783</ele>
        <time>2013-11-17T07:37:05.485Z</time>
      </trkpt>
      <trkpt lat="48.40507" lon="2.52214">
        <ele>68.215</ele>
        <time>2013-11-17T07:37:08.517Z</time>
      </trkpt>
      <trkpt lat="48.40507" lon="2.52228">
        <ele>70.298</ele>
        <time>2013-11-17T07:37:10.874Z</time>
      </trkpt>
      <trkpt lat="48.40506" lon="2.52245">
        <ele>69.582</ele>
        <time>2013-11-17T07:37:13.370Z</time>
      </trkpt>
      <trkpt lat="48.40503" lon="2.52272">
        <ele>69.094</ele>
        <time>2013-11-17T07:37:16.968Z</time>
      </trkpt>
      <trkpt lat="48.405" lon="2.52288">
        <ele>70.122</ele>
        <time>2013-11-17T07:37:18.991Z</time>
      </trkpt>
      <trkpt lat="48.40495" lon="2.52314">
        <ele>71.74</ele>
        <time>2013-11-17T07:37:22.127Z</time>
      </trkpt>
      <trkpt lat="48.40488" lon="2.52334">
        <ele>72.778</ele>
        <time>2013-11-17T07:37:24.762Z</time>
      </trkpt>
      <trkpt lat="48.40483" lon="2.52357">
        <ele>73.014</ele>
        <time>2013-11-17T07:37:27.492Z</time>
      </trkpt>
      <trkpt lat="48.40478" lon="2.52381">
        <ele>72.471</ele>
        <time>2013-11-17T07:37:30.346Z</time>
      </trkpt>
      <trkpt lat="48.40475" lon="2.52397">
        <ele>70.872</ele>
        <time>2013-11-17T07:37:32.175Z</time>
      </trkpt>
      <trkpt lat="48.4047" lon="2.5242">
        <ele>69.783</ele>
        <time>2013-11-17T07:37:34.852Z</time>
      </trkpt>
      <trkpt lat="48.40466" lon="2.52445">
        <ele>67.619</ele>
        <time>2013-11-17T07:37:37.708Z</time>
      </trkpt>
      <trkpt lat="48.40465" lon="2.5246">
        <ele>66.664</ele>
        <time>2013-11-17T07:37:39.373Z</time>
      </trkpt>
      <trkpt lat="48.4046" lon="2.52483">
        <ele>70.888</ele>
        <time>2013-11-17T07:37:42.155Z</time>
      </trkpt>
      <trkpt lat="48.40456" lon="2.52501">
        <ele>70.137</ele>
        <time>2013-11-17T07:37:44.247Z</time>
      </trkpt>
      <trkpt lat="48.4045" lon="2.52525">
        <ele>67.99</ele>
        <time>2013-11-17T07:37:47.080Z</time>
      </trkpt>
      <trkpt lat="48.40447" lon="2.52541">
        <ele>67</ele>
        <time>2013-11-17T07:37:48.891Z</time>
      </trkpt>
      <trkpt lat="48.40444" lon="2.52563">
        <ele>67.31</ele>
        <time>2013-11-17T07:37:51.489Z</time>
      </trkpt>
      <trkpt lat="48.40442" lon="2.52578">
        <ele>67.537</ele>
        <time>2013-11-17T07:37:53.269Z</time>
      </trkpt>
      <trkpt lat="48.4044" lon="2.526">
        <ele>67.201</ele>
        <time>2013-11-17T07:37:55.819Z</time>
      </trkpt>
      <trkpt lat="48.40439" lon="2.52615">
        <ele>67.118</ele>
        <time>2013-11-17T07:37:57.622Z</time>
      </trkpt>
      <trkpt lat="48.40438" lon="2.52639">
        <ele>67.582</ele>
        <time>2013-11-17T07:38:00.586Z</time>
      </trkpt>
      <trkpt lat="48.40429" lon="2.52655">
        <ele>68.118</ele>
        <time>2013-11-17T07:38:03.414Z</time>
      </trkpt>
      <trkpt lat="48.40418" lon="2.52649">
        <ele>68.036</ele>
        <time>2013-11-17T07:38:06.016Z</time>
      </trkpt>
      <trkpt lat="48.40402" lon="2.5264">
        <ele>67.562</ele>
        <time>2013-11-17T07:38:10.171Z</time>
      </trkpt>
      <trkpt lat="48.40392" lon="2.52633">
        <ele>67.636</ele>
        <time>2013-11-17T07:38:12.441Z</time>
      </trkpt>
      <trkpt lat="48.40383" lon="2.52628">
        <ele>68.451</ele>
        <time>2013-11-17T07:38:14.295Z</time>
      </trkpt>
      <trkpt lat="48.40368" lon="2.52617">
        <ele>69.28</ele>
        <time>2013-11-17T07:38:17.141Z</time>
      </trkpt>
      <trkpt lat="48.40358" lon="2.5261">
        <ele>69.583</ele>
        <time>2013-11-17T07:38:18.868Z</time>
      </trkpt>
      <trkpt lat="48.40344" lon="2.52597">
        <ele>69.054</ele>
        <time>2013-11-17T07:38:21.544Z</time>
      </trkpt>
      <trkpt lat="48.40335" lon="2.52588">
        <ele>67.229</ele>
        <time>2013-11-17T07:38:23.289Z</time>
      </trkpt>
      <trkpt lat="48.40325" lon="2.52571">
        <ele>64.514</ele>
        <time>2013-11-17T07:38:25.751Z</time>
      </trkpt>
      <trkpt lat="48.40314" lon="2.52555">
        <ele>62.354</ele>
        <time>2013-11-17T07:38:28.345Z</time>
      </trkpt>
      <trkpt lat="48.40302" lon="2.52541">
        <ele>61.138</ele>
        <time>2013-11-17T07:38:30.968Z</time>
      </trkpt>
      <trkpt lat="48.40302" lon="2.52541">
        <ele>60.161</ele>
        <time>2013-11-17T07:38:35.961Z</time>
      </trkpt>
      <trkpt lat="48.40302" lon="2.52541">
        <ele>59.521</ele>
        <time>2013-11-17T07:38:39.902Z</time>
      </trkpt>
      <trkpt lat="48.403" lon="2.52559">
        <ele>59.831</ele>
        <time>2013-11-17T07:38:48.421Z</time>
      </trkpt>
      <trkpt lat="48.40303" lon="2.52575">
        <ele>60.156</ele>
        <time>2013-11-17T07:38:52.287Z</time>
      </trkpt>
      <trkpt lat="48.40297" lon="2.52589">
        <ele>60.499</ele>
        <time>2013-11-17T07:38:55.870Z</time>
      </trkpt>
      <trkpt lat="48.40299" lon="2.52612">
        <ele>60.229</ele>
        <time>2013-11-17T07:39:00.329Z</time>
      </trkpt>
      <trkpt lat="48.40303" lon="2.52631">
        <ele>57.915</ele>
        <time>2013-11-17T07:39:03.535Z</time>
      </trkpt>
      <trkpt lat="48.40308" lon="2.52651">
        <ele>53.54</ele>
        <time>2013-11-17T07:39:06.779Z</time>
      </trkpt>
      <trkpt lat="48.40312" lon="2.52674">
        <ele>49.364</ele>
        <time>2013-11-17T07:39:10.268Z</time>
      </trkpt>
      <trkpt lat="48.40315" lon="2.52695">
        <ele>47.187</ele>
        <time>2013-11-17T07:39:13.295Z</time>
      </trkpt>
      <trkpt lat="48.40315" lon="2.52708">
        <ele>46.745</ele>
        <time>2013-11-17T07:39:15.280Z</time>
      </trkpt>
      <trkpt lat="48.40317" lon="2.52728">
        <ele>47.037</ele>
        <time>2013-11-17T07:39:18.237Z</time>
      </trkpt>
      <trkpt lat="48.40319" lon="2.52741">
        <ele>47.361</ele>
        <time>2013-11-17T07:39:20.412Z</time>
      </trkpt>
      <trkpt lat="48.40323" lon="2.52758">
        <ele>47.48</ele>
        <time>2013-11-17T07:39:23.185Z</time>
      </trkpt>
      <trkpt lat="48.40326" lon="2.52776">
        <ele>47.78</ele>
        <time>2013-11-17T07:39:26.333Z</time>
      </trkpt>
      <trkpt lat="48.40328" lon="2.52792">
        <ele>48.573</ele>
        <time>2013-11-17T07:39:28.957Z</time>
      </trkpt>
      <trkpt lat="48.40332" lon="2.52811">
        <ele>49.41</ele>
        <time>2013-11-17T07:39:32.201Z</time>
      </trkpt>
      <trkpt lat="48.40337" lon="2.52823">
        <ele>51.746</ele>
        <time>2013-11-17T07:39:34.419Z</time>
      </trkpt>
      <trkpt lat="48.40341" lon="2.5284">
        <ele>57.051</ele>
        <time>2013-11-17T07:39:37.076Z</time>
      </trkpt>
      <trkpt lat="48.40346" lon="2.52856">
        <ele>63.299</ele>
        <time>2013-11-17T07:39:39.538Z</time>
      </trkpt>
      <trkpt lat="48.40348" lon="2.5287">
        <ele>68.04</ele>
        <time>2013-11-17T07:39:41.789Z</time>
      </trkpt>
      <trkpt lat="48.40351" lon="2.52886">
        <ele>70.985</ele>
        <time>2013-11-17T07:39:44.565Z</time>
      </trkpt>
      <trkpt lat="48.40352" lon="2.52904">
        <ele>72.332</ele>
        <time>2013-11-17T07:39:47.670Z</time>
      </trkpt>
      <trkpt lat="48.40354" lon="2.52918">
        <ele>72.547</ele>
        <time>2013-11-17T07:39:50.486Z</time>
      </trkpt>
      <trkpt lat="48.40358" lon="2.52937">
        <ele>72.137</ele>
        <time>2013-11-17T07:39:54.030Z</time>
      </trkpt>
      <trkpt lat="48.40358" lon="2.52951">
        <ele>71.796</ele>
        <time>2013-11-17T07:39:56.544Z</time>
      </trkpt>
      <trkpt lat="48.4036" lon="2.52965">
        <ele>71.894</ele>
        <time>2013-11-17T07:39:59.164Z</time>
      </trkpt>
      <trkpt lat="48.4036" lon="2.52981">
        <ele>71.391</ele>
        <time>2013-11-17T07:40:02.124Z</time>
      </trkpt>
      <trkpt lat="48.40361" lon="2.52995">
        <ele>69.033</ele>
        <time>2013-11-17T07:40:04.891Z</time>
      </trkpt>
      <trkpt lat="48.40361" lon="2.53012">
        <ele>66.206</ele>
        <time>2013-11-17T07:40:08.341Z</time>
      </trkpt>
      <trkpt lat="48.40366" lon="2.53025">
        <ele>65.126</ele>
        <time>2013-11-17T07:40:11.398Z</time>
      </trkpt>
      <trkpt lat="48.40367" lon="2.5304">
        <ele>66.012</ele>
        <time>2013-11-17T07:40:14.082Z</time>
      </trkpt>
      <trkpt lat="48.40367" lon="2.53054">
        <ele>68.405</ele>
        <time>2013-11-17T07:40:16.715Z</time>
      </trkpt>
      <trkpt lat="48.40366" lon="2.5307">
        <ele>71.608</ele>
        <time>2013-11-17T07:40:20.386Z</time>
      </trkpt>
      <trkpt lat="48.40366" lon="2.53088">
        <ele>74.166</ele>
        <time>2013-11-17T07:40:24.498Z</time>
      </trkpt>
      <trkpt lat="48.40372" lon="2.53103">
        <ele>76.311</ele>
        <time>2013-11-17T07:40:28.732Z</time>
      </trkpt>
      <trkpt lat="48.40377" lon="2.53118">
        <ele>79.015</ele>
        <time>2013-11-17T07:40:32.423Z</time>
      </trkpt>
      <trkpt lat="48.4038" lon="2.53133">
        <ele>81.437</ele>
        <time>2013-11-17T07:40:35.746Z</time>
      </trkpt>
      <trkpt lat="48.4038" lon="2.53147">
        <ele>82.989</ele>
        <time>2013-11-17T07:40:38.718Z</time>
      </trkpt>
      <trkpt lat="48.4038" lon="2.53164">
        <ele>84.581</ele>
        <time>2013-11-17T07:40:42.472Z</time>
      </trkpt>
      <trkpt lat="48.4038" lon="2.53178">
        <ele>86.483</ele>
        <time>2013-11-17T07:40:46.161Z</time>
      </trkpt>
      <trkpt lat="48.40377" lon="2.53194">
        <ele>88.302</ele>
        <time>2013-11-17T07:40:50.862Z</time>
      </trkpt>
      <trkpt lat="48.40374" lon="2.53209">
        <ele>89.674</ele>
        <time>2013-11-17T07:40:55.713Z</time>
      </trkpt>
      <trkpt lat="48.40372" lon="2.53223">
        <ele>90.139</ele>
        <time>2013-11-17T07:40:59.521Z</time>
      </trkpt>
      <trkpt lat="48.40369" lon="2.53238">
        <ele>89.595</ele>
        <time>2013-11-17T07:41:03.412Z</time>
      </trkpt>
      <trkpt lat="48.40366" lon="2.53252">
        <ele>88.663</ele>
        <time>2013-11-17T07:41:06.827Z</time>
      </trkpt>
      <trkpt lat="48.40364" lon="2.53266">
        <ele>87.354</ele>
        <time>2013-11-17T07:41:09.963Z</time>
      </trkpt>
      <trkpt lat="48.40363" lon="2.53281">
        <ele>85.392</ele>
        <time>2013-11-17T07:41:13.042Z</time>
      </trkpt>
      <trkpt lat="48.40361" lon="2.53294">
        <ele>83.617</ele>
        <time>2013-11-17T07:41:15.937Z</time>
      </trkpt>
      <trkpt lat="48.40361" lon="2.53309">
        <ele>82.381</ele>
        <time>2013-11-17T07:41:19.087Z</time>
      </trkpt>
      <trkpt lat="48.40362" lon="2.53324">
        <ele>80.636</ele>
        <time>2013-11-17T07:41:22.332Z</time>
      </trkpt>
      <trkpt lat="48.40361" lon="2.53339">
        <ele>78.816</ele>
        <time>2013-11-17T07:41:25.458Z</time>
      </trkpt>
      <trkpt lat="48.40362" lon="2.53355">
        <ele>78.4</ele>
        <time>2013-11-17T07:41:28.714Z</time>
      </trkpt>
      <trkpt lat="48.4036" lon="2.53374">
        <ele>79.175</ele>
        <time>2013-11-17T07:41:32.516Z</time>
      </trkpt>
      <trkpt lat="48.40358" lon="2.53393">
        <ele>79.933</ele>
        <time>2013-11-17T07:41:36.142Z</time>
      </trkpt>
      <trkpt lat="48.40357" lon="2.53409">
        <ele>80.284</ele>
        <time>2013-11-17T07:41:39.065Z</time>
      </trkpt>
      <trkpt lat="48.40356" lon="2.53423">
        <ele>80.848</ele>
        <time>2013-11-17T07:41:41.745Z</time>
      </trkpt>
      <trkpt lat="48.40354" lon="2.53441">
        <ele>82.998</ele>
        <time>2013-11-17T07:41:44.898Z</time>
      </trkpt>
      <trkpt lat="48.40352" lon="2.53463">
        <ele>82.353</ele>
        <time>2013-11-17T07:41:48.564Z</time>
      </trkpt>
      <trkpt lat="48.40353" lon="2.53481">
        <ele>80.822</ele>
        <time>2013-11-17T07:41:51.753Z</time>
      </trkpt>
      <trkpt lat="48.40353" lon="2.535">
        <ele>79.514</ele>
        <time>2013-11-17T07:41:55.326Z</time>
      </trkpt>
      <trkpt lat="48.40351" lon="2.53515">
        <ele>79.106</ele>
        <time>2013-11-17T07:41:58.230Z</time>
      </trkpt>
      <trkpt lat="48.40349" lon="2.5353">
        <ele>79.952</ele>
        <time>2013-11-17T07:42:01.130Z</time>
      </trkpt>
      <trkpt lat="48.40349" lon="2.53548">
        <ele>82.303</ele>
        <time>2013-11-17T07:42:04.262Z</time>
      </trkpt>
      <trkpt lat="48.40351" lon="2.53563">
        <ele>85.613</ele>
        <time>2013-11-17T07:42:06.944Z</time>
      </trkpt>
      <trkpt lat="48.40352" lon="2.53582">
        <ele>88.337</ele>
        <time>2013-11-17T07:42:10.276Z</time>
      </trkpt>
      <trkpt lat="48.4035" lon="2.53599">
        <ele>89.577</ele>
        <time>2013-11-17T07:42:13.506Z</time>
      </trkpt>
      <trkpt lat="48.40349" lon="2.53617">
        <ele>88.227</ele>
        <time>2013-11-17T07:42:16.794Z</time>
      </trkpt>
      <trkpt lat="48.40346" lon="2.53634">
        <ele>83.977</ele>
        <time>2013-11-17T07:42:20.134Z</time>
      </trkpt>
      <trkpt lat="48.40342" lon="2.53655">
        <ele>79.903</ele>
        <time>2013-11-17T07:42:23.934Z</time>
      </trkpt>
      <trkpt lat="48.40341" lon="2.5367">
        <ele>81.728</ele>
        <time>2013-11-17T07:42:26.734Z</time>
      </trkpt>
      <trkpt lat="48.40341" lon="2.53685">
        <ele>82.68</ele>
        <time>2013-11-17T07:42:29.342Z</time>
      </trkpt>
      <trkpt lat="48.40339" lon="2.537">
        <ele>81.551</ele>
        <time>2013-11-17T07:42:31.826Z</time>
      </trkpt>
      <trkpt lat="48.40333" lon="2.53723">
        <ele>80.056</ele>
        <time>2013-11-17T07:42:35.957Z</time>
      </trkpt>
      <trkpt lat="48.40324" lon="2.53735">
        <ele>79.977</ele>
        <time>2013-11-17T07:42:38.831Z</time>
      </trkpt>
      <trkpt lat="48.4031" lon="2.53753">
        <ele>81.337</ele>
        <time>2013-11-17T07:42:42.844Z</time>
      </trkpt>
      <trkpt lat="48.40301" lon="2.53771">
        <ele>84.005</ele>
        <time>2013-11-17T07:42:45.870Z</time>
      </trkpt>
      <trkpt lat="48.40292" lon="2.53784">
        <ele>87.294</ele>
        <time>2013-11-17T07:42:48.364Z</time>
      </trkpt>
      <trkpt lat="48.40283" lon="2.53794">
        <ele>89.65</ele>
        <time>2013-11-17T07:42:50.386Z</time>
      </trkpt>
      <trkpt lat="48.40276" lon="2.53803">
        <ele>91.145</ele>
        <time>2013-11-17T07:42:52.184Z</time>
      </trkpt>
      <trkpt lat="48.40269" lon="2.53814">
        <ele>92.819</ele>
        <time>2013-11-17T07:42:54.094Z</time>
      </trkpt>
      <trkpt lat="48.4026" lon="2.53824">
        <ele>93.42</ele>
        <time>2013-11-17T07:42:56.318Z</time>
      </trkpt>
      <trkpt lat="48.40251" lon="2.53837">
        <ele>91.507</ele>
        <time>2013-11-17T07:42:58.959Z</time>
      </trkpt>
      <trkpt lat="48.40241" lon="2.53851">
        <ele>88.566</ele>
        <time>2013-11-17T07:43:02.133Z</time>
      </trkpt>
      <trkpt lat="48.40231" lon="2.53868">
        <ele>86.919</ele>
        <time>2013-11-17T07:43:05.816Z</time>
      </trkpt>
      <trkpt lat="48.40222" lon="2.53885">
        <ele>86.99</ele>
        <time>2013-11-17T07:43:09.392Z</time>
      </trkpt>
      <trkpt lat="48.40213" lon="2.53899">
        <ele>87.767</ele>
        <time>2013-11-17T07:43:12.346Z</time>
      </trkpt>
      <trkpt lat="48.40207" lon="2.5391">
        <ele>88.012</ele>
        <time>2013-11-17T07:43:14.517Z</time>
      </trkpt>
      <trkpt lat="48.40199" lon="2.53922">
        <ele>87.533</ele>
        <time>2013-11-17T07:43:16.961Z</time>
      </trkpt>
      <trkpt lat="48.40192" lon="2.53936">
        <ele>86.91</ele>
        <time>2013-11-17T07:43:19.185Z</time>
      </trkpt>
      <trkpt lat="48.40186" lon="2.5395">
        <ele>86.417</ele>
        <time>2013-11-17T07:43:21.572Z</time>
      </trkpt>
      <trkpt lat="48.40179" lon="2.53967">
        <ele>85.844</ele>
        <time>2013-11-17T07:43:24.281Z</time>
      </trkpt>
      <trkpt lat="48.4017" lon="2.53982">
        <ele>85.192</ele>
        <time>2013-11-17T07:43:27.196Z</time>
      </trkpt>
      <trkpt lat="48.40161" lon="2.53994">
        <ele>84.587</ele>
        <time>2013-11-17T07:43:29.934Z</time>
      </trkpt>
      <trkpt lat="48.40153" lon="2.54009">
        <ele>84.233</ele>
        <time>2013-11-17T07:43:32.934Z</time>
      </trkpt>
      <trkpt lat="48.40145" lon="2.54024">
        <ele>84.088</ele>
        <time>2013-11-17T07:43:36.004Z</time>
      </trkpt>
      <trkpt lat="48.40137" lon="2.54037">
        <ele>84.061</ele>
        <time>2013-11-17T07:43:38.920Z</time>
      </trkpt>
      <trkpt lat="48.40131" lon="2.54048">
        <ele>84.006</ele>
        <time>2013-11-17T07:43:40.996Z</time>
      </trkpt>
      <trkpt lat="48.40127" lon="2.5406">
        <ele>84.176</ele>
        <time>2013-11-17T07:43:43.090Z</time>
      </trkpt>
      <trkpt lat="48.40118" lon="2.54073">
        <ele>84.772</ele>
        <time>2013-11-17T07:43:45.801Z</time>
      </trkpt>
      <trkpt lat="48.40108" lon="2.54086">
        <ele>85.322</ele>
        <time>2013-11-17T07:43:48.848Z</time>
      </trkpt>
      <trkpt lat="48.40099" lon="2.54091">
        <ele>84.705</ele>
        <time>2013-11-17T07:43:50.985Z</time>
      </trkpt>
      <trkpt lat="48.40085" lon="2.54099">
        <ele>82.758</ele>
        <time>2013-11-17T07:43:54.216Z</time>
      </trkpt>
      <trkpt lat="48.40076" lon="2.54104">
        <ele>81.248</ele>
        <time>2013-11-17T07:43:56.254Z</time>
      </trkpt>
      <trkpt lat="48.40064" lon="2.5411">
        <ele>81.717</ele>
        <time>2013-11-17T07:43:59.188Z</time>
      </trkpt>
      <trkpt lat="48.40052" lon="2.54113">
        <ele>83.387</ele>
        <time>2013-11-17T07:44:01.835Z</time>
      </trkpt>
      <trkpt lat="48.40041" lon="2.54113">
        <ele>85.45</ele>
        <time>2013-11-17T07:44:04.120Z</time>
      </trkpt>
      <trkpt lat="48.40032" lon="2.54109">
        <ele>88.08</ele>
        <time>2013-11-17T07:44:06.201Z</time>
      </trkpt>
      <trkpt lat="48.40021" lon="2.54104">
        <ele>90.767</ele>
        <time>2013-11-17T07:44:08.512Z</time>
      </trkpt>
      <trkpt lat="48.40012" lon="2.541">
        <ele>91.898</ele>
        <time>2013-11-17T07:44:10.525Z</time>
      </trkpt>
      <trkpt lat="48.40002" lon="2.54096">
        <ele>90.965</ele>
        <time>2013-11-17T07:44:12.680Z</time>
      </trkpt>
      <trkpt lat="48.39994" lon="2.5409">
        <ele>89.399</ele>
        <time>2013-11-17T07:44:14.638Z</time>
      </trkpt>
      <trkpt lat="48.39984" lon="2.54078">
        <ele>88.499</ele>
        <time>2013-11-17T07:44:17.278Z</time>
      </trkpt>
      <trkpt lat="48.39977" lon="2.5407">
        <ele>88.272</ele>
        <time>2013-11-17T07:44:19.499Z</time>
      </trkpt>
      <trkpt lat="48.39963" lon="2.54054">
        <ele>88.126</ele>
        <time>2013-11-17T07:44:23.837Z</time>
      </trkpt>
      <trkpt lat="48.39948" lon="2.54039">
        <ele>87.026</ele>
        <time>2013-11-17T07:44:28.606Z</time>
      </trkpt>
      <trkpt lat="48.39939" lon="2.54026">
        <ele>84.798</ele>
        <time>2013-11-17T07:44:32.187Z</time>
      </trkpt>
      <trkpt lat="48.39929" lon="2.54014">
        <ele>82.467</ele>
        <time>2013-11-17T07:44:35.794Z</time>
      </trkpt>
      <trkpt lat="48.39913" lon="2.53999">
        <ele>80.833</ele>
        <time>2013-11-17T07:44:40.334Z</time>
      </trkpt>
      <trkpt lat="48.39892" lon="2.53992">
        <ele>80.087</ele>
        <time>2013-11-17T07:44:44.547Z</time>
      </trkpt>
      <trkpt lat="48.39881" lon="2.53992">
        <ele>80.757</ele>
        <time>2013-11-17T07:44:46.539Z</time>
      </trkpt>
      <trkpt lat="48.39869" lon="2.53989">
        <ele>82.709</ele>
        <time>2013-11-17T07:44:48.368Z</time>
      </trkpt>
      <trkpt lat="48.39859" lon="2.53983">
        <ele>84.283</ele>
        <time>2013-11-17T07:44:50.166Z</time>
      </trkpt>
      <trkpt lat="48.39848" lon="2.53992">
        <ele>84.272</ele>
        <time>2013-11-17T07:44:51.967Z</time>
      </trkpt>
      <trkpt lat="48.39837" lon="2.54007">
        <ele>83.068</ele>
        <time>2013-11-17T07:44:54.272Z</time>
      </trkpt>
      <trkpt lat="48.39825" lon="2.54022">
        <ele>81.155</ele>
        <time>2013-11-17T07:44:56.593Z</time>
      </trkpt>
      <trkpt lat="48.39807" lon="2.54045">
        <ele>79.127</ele>
        <time>2013-11-17T07:45:00.450Z</time>
      </trkpt>
      <trkpt lat="48.3979" lon="2.54062">
        <ele>77.852</ele>
        <time>2013-11-17T07:45:04.733Z</time>
      </trkpt>
      <trkpt lat="48.3978" lon="2.5407">
        <ele>77.492</ele>
        <time>2013-11-17T07:45:07.346Z</time>
      </trkpt>
      <trkpt lat="48.39773" lon="2.54089">
        <ele>77.379</ele>
        <time>2013-11-17T07:45:10.465Z</time>
      </trkpt>
      <trkpt lat="48.39772" lon="2.5411">
        <ele>76.997</ele>
        <time>2013-11-17T07:45:13.076Z</time>
      </trkpt>
      <trkpt lat="48.39775" lon="2.54125">
        <ele>76.761</ele>
        <time>2013-11-17T07:45:14.674Z</time>
      </trkpt>
      <trkpt lat="48.39778" lon="2.54148">
        <ele>77.132</ele>
        <time>2013-11-17T07:45:16.907Z</time>
      </trkpt>
      <trkpt lat="48.39779" lon="2.54165">
        <ele>77.534</ele>
        <time>2013-11-17T07:45:18.858Z</time>
      </trkpt>
      <trkpt lat="48.39777" lon="2.5419">
        <ele>76.921</ele>
        <time>2013-11-17T07:45:22.198Z</time>
      </trkpt>
      <trkpt lat="48.39771" lon="2.54207">
        <ele>74.667</ele>
        <time>2013-11-17T07:45:24.976Z</time>
      </trkpt>
      <trkpt lat="48.39763" lon="2.54223">
        <ele>71.287</ele>
        <time>2013-11-17T07:45:27.867Z</time>
      </trkpt>
      <trkpt lat="48.39754" lon="2.54245">
        <ele>68.018</ele>
        <time>2013-11-17T07:45:31.739Z</time>
      </trkpt>
      <trkpt lat="48.3975" lon="2.5426">
        <ele>65.72</ele>
        <time>2013-11-17T07:45:33.863Z</time>
      </trkpt>
      <trkpt lat="48.39746" lon="2.54287">
        <ele>64.199</ele>
        <time>2013-11-17T07:45:36.922Z</time>
      </trkpt>
      <trkpt lat="48.3974" lon="2.54316">
        <ele>62.522</ele>
        <time>2013-11-17T07:45:40.260Z</time>
      </trkpt>
      <trkpt lat="48.39734" lon="2.54346">
        <ele>60.07</ele>
        <time>2013-11-17T07:45:43.799Z</time>
      </trkpt>
      <trkpt lat="48.39729" lon="2.54376">
        <ele>57.454</ele>
        <time>2013-11-17T07:45:47.254Z</time>
      </trkpt>
      <trkpt lat="48.39726" lon="2.54398">
        <ele>55.727</ele>
        <time>2013-11-17T07:45:49.588Z</time>
      </trkpt>
      <trkpt lat="48.39724" lon="2.54426">
        <ele>55.604</ele>
        <time>2013-11-17T07:45:52.447Z</time>
      </trkpt>
      <trkpt lat="48.39722" lon="2.54444">
        <ele>56.758</ele>
        <time>2013-11-17T07:45:54.207Z</time>
      </trkpt>
      <trkpt lat="48.3972" lon="2.54462">
        <ele>58.054</ele>
        <time>2013-11-17T07:45:55.932Z</time>
      </trkpt>
      <trkpt lat="48.39716" lon="2.54486">
        <ele>58.694</ele>
        <time>2013-11-17T07:45:58.362Z</time>
      </trkpt>
      <trkpt lat="48.39713" lon="2.54511">
        <ele>59.007</ele>
        <time>2013-11-17T07:46:00.942Z</time>
      </trkpt>
      <trkpt lat="48.39707" lon="2.54537">
        <ele>59.515</ele>
        <time>2013-11-17T07:46:03.892Z</time>
      </trkpt>
      <trkpt lat="48.39691" lon="2.54567">
        <ele>60.577</ele>
        <time>2013-11-17T07:46:08.755Z</time>
      </trkpt>
      <trkpt lat="48.3968" lon="2.54581">
        <ele>62.074</ele>
        <time>2013-11-17T07:46:11.683Z</time>
      </trkpt>
      <trkpt lat="48.39664" lon="2.546">
        <ele>63.273</ele>
        <time>2013-11-17T07:46:15.305Z</time>
      </trkpt>
      <trkpt lat="48.39655" lon="2.54621">
        <ele>63.657</ele>
        <time>2013-11-17T07:46:17.975Z</time>
      </trkpt>
      <trkpt lat="48.39651" lon="2.54635">
        <ele>63.961</ele>
        <time>2013-11-17T07:46:19.598Z</time>
      </trkpt>
      <trkpt lat="48.39645" lon="2.5465">
        <ele>65.032</ele>
        <time>2013-11-17T07:46:21.461Z</time>
      </trkpt>
      <trkpt lat="48.39639" lon="2.54675">
        <ele>66.675</ele>
        <time>2013-11-17T07:46:24.688Z</time>
      </trkpt>
      <trkpt lat="48.39633" lon="2.54702">
        <ele>68.079</ele>
        <time>2013-11-17T07:46:28.607Z</time>
      </trkpt>
      <trkpt lat="48.39629" lon="2.54718">
        <ele>69.158</ele>
        <time>2013-11-17T07:46:30.714Z</time>
      </trkpt>
      <trkpt lat="48.39624" lon="2.54736">
        <ele>70.299</ele>
        <time>2013-11-17T07:46:32.897Z</time>
      </trkpt>
      <trkpt lat="48.39618" lon="2.54764">
        <ele>71.362</ele>
        <time>2013-11-17T07:46:36.331Z</time>
      </trkpt>
      <trkpt lat="48.39613" lon="2.5479">
        <ele>71.725</ele>
        <time>2013-11-17T07:46:39.467Z</time>
      </trkpt>
      <trkpt lat="48.39611" lon="2.54804">
        <ele>71.271</ele>
        <time>2013-11-17T07:46:41.178Z</time>
      </trkpt>
      <trkpt lat="48.39605" lon="2.54826">
        <ele>70.167</ele>
        <time>2013-11-17T07:46:43.793Z</time>
      </trkpt>
      <trkpt lat="48.39601" lon="2.5484">
        <ele>68.737</ele>
        <time>2013-11-17T07:46:45.685Z</time>
      </trkpt>
      <trkpt lat="48.39592" lon="2.54869">
        <ele>67.476</ele>
        <time>2013-11-17T07:46:49.596Z</time>
      </trkpt>
      <trkpt lat="48.39585" lon="2.54888">
        <ele>65.902</ele>
        <time>2013-11-17T07:46:52.099Z</time>
      </trkpt>
      <trkpt lat="48.3958" lon="2.54909">
        <ele>63.489</ele>
        <time>2013-11-17T07:46:54.562Z</time>
      </trkpt>
      <trkpt lat="48.39572" lon="2.54936">
        <ele>61.491</ele>
        <time>2013-11-17T07:46:57.576Z</time>
      </trkpt>
      <trkpt lat="48.39565" lon="2.54951">
        <ele>61.288</ele>
        <time>2013-11-17T07:46:59.481Z</time>
      </trkpt>
      <trkpt lat="48.3956" lon="2.54967">
        <ele>61.989</ele>
        <time>2013-11-17T07:47:01.399Z</time>
      </trkpt>
      <trkpt lat="48.39552" lon="2.54989">
        <ele>62.988</ele>
        <time>2013-11-17T07:47:04.101Z</time>
      </trkpt>
      <trkpt lat="48.39546" lon="2.55004">
        <ele>64.337</ele>
        <time>2013-11-17T07:47:06.052Z</time>
      </trkpt>
      <trkpt lat="48.39536" lon="2.5503">
        <ele>65.98</ele>
        <time>2013-11-17T07:47:09.669Z</time>
      </trkpt>
      <trkpt lat="48.39529" lon="2.55047">
        <ele>67.324</ele>
        <time>2013-11-17T07:47:11.990Z</time>
      </trkpt>
      <trkpt lat="48.39519" lon="2.55071">
        <ele>67.536</ele>
        <time>2013-11-17T07:47:15.277Z</time>
      </trkpt>
      <trkpt lat="48.3951" lon="2.55084">
        <ele>66.701</ele>
        <time>2013-11-17T07:47:17.275Z</time>
      </trkpt>
      <trkpt lat="48.39505" lon="2.55099">
        <ele>65.39</ele>
        <time>2013-11-17T07:47:19.154Z</time>
      </trkpt>
      <trkpt lat="48.39496" lon="2.55123">
        <ele>64.26</ele>
        <time>2013-11-17T07:47:22.343Z</time>
      </trkpt>
      <trkpt lat="48.3949" lon="2.55145">
        <ele>63.271</ele>
        <time>2013-11-17T07:47:25.336Z</time>
      </trkpt>
      <trkpt lat="48.39483" lon="2.55168">
        <ele>62.055</ele>
        <time>2013-11-17T07:47:28.516Z</time>
      </trkpt>
      <trkpt lat="48.39475" lon="2.5519">
        <ele>60.87</ele>
        <time>2013-11-17T07:47:31.787Z</time>
      </trkpt>
      <trkpt lat="48.39464" lon="2.55213">
        <ele>60.193</ele>
        <time>2013-11-17T07:47:35.503Z</time>
      </trkpt>
      <trkpt lat="48.39453" lon="2.55233">
        <ele>59.932</ele>
        <time>2013-11-17T07:47:38.945Z</time>
      </trkpt>
      <trkpt lat="48.39442" lon="2.55256">
        <ele>60.154</ele>
        <time>2013-11-17T07:47:44.970Z</time>
      </trkpt>
      <trkpt lat="48.39442" lon="2.55256">
        <ele>60.777</ele>
        <time>2013-11-17T07:47:45.965Z</time>
      </trkpt>
      <trkpt lat="48.39442" lon="2.55256">
        <ele>61.241</ele>
        <time>2013-11-17T07:47:52.979Z</time>
      </trkpt>
      <trkpt lat="48.39442" lon="2.55256">
        <ele>61.202</ele>
        <time>2013-11-17T07:48:39.682Z</time>
      </trkpt>
      <trkpt lat="48.39419" lon="2.55246">
        <ele>60.991</ele>
        <time>2013-11-17T07:48:57.256Z</time>
      </trkpt>
      <trkpt lat="48.39411" lon="2.55239">
        <ele>61.601</ele>
        <time>2013-11-17T07:49:00.404Z</time>
      </trkpt>
      <trkpt lat="48.39402" lon="2.55233">
        <ele>63.45</ele>
        <time>2013-11-17T07:49:02.983Z</time>
      </trkpt>
      <trkpt lat="48.39391" lon="2.5523">
        <ele>65.376</ele>
        <time>2013-11-17T07:49:05.970Z</time>
      </trkpt>
      <trkpt lat="48.39391" lon="2.5523">
        <ele>66.159</ele>
        <time>2013-11-17T07:49:06.967Z</time>
      </trkpt>
      <trkpt lat="48.39391" lon="2.5523">
        <ele>65.992</ele>
        <time>2013-11-17T07:49:07.067Z</time>
      </trkpt>
      <trkpt lat="48.39377" lon="2.55217">
        <ele>65.576</ele>
        <time>2013-11-17T07:49:14.677Z</time>
      </trkpt>
      <trkpt lat="48.39368" lon="2.5521">
        <ele>65.419</ele>
        <time>2013-11-17T07:49:17.669Z</time>
      </trkpt>
      <trkpt lat="48.3936" lon="2.55199">
        <ele>65.485</ele>
        <time>2013-11-17T07:49:20.568Z</time>
      </trkpt>
      <trkpt lat="48.39353" lon="2.55185">
        <ele>64.395</ele>
        <time>2013-11-17T07:49:23.618Z</time>
      </trkpt>
      <trkpt lat="48.39347" lon="2.55173">
        <ele>61.211</ele>
        <time>2013-11-17T07:49:26.244Z</time>
      </trkpt>
      <trkpt lat="48.39337" lon="2.5516">
        <ele>57.541</ele>
        <time>2013-11-17T07:49:29.511Z</time>
      </trkpt>
      <trkpt lat="48.39327" lon="2.55149">
        <ele>55.357</ele>
        <time>2013-11-17T07:49:32.706Z</time>
      </trkpt>
      <trkpt lat="48.39317" lon="2.55139">
        <ele>54.758</ele>
        <time>2013-11-17T07:49:35.574Z</time>
      </trkpt>
      <trkpt lat="48.39307" lon="2.55127">
        <ele>54.979</ele>
        <time>2013-11-17T07:49:38.758Z</time>
      </trkpt>
      <trkpt lat="48.39301" lon="2.55116">
        <ele>55.023</ele>
        <time>2013-11-17T07:49:40.986Z</time>
      </trkpt>
      <trkpt lat="48.39298" lon="2.55101">
        <ele>54.403</ele>
        <time>2013-11-17T07:49:43.609Z</time>
      </trkpt>
      <trkpt lat="48.39295" lon="2.55083">
        <ele>54.65</ele>
        <time>2013-11-17T07:49:46.557Z</time>
      </trkpt>
      <trkpt lat="48.39295" lon="2.55061">
        <ele>56.961</ele>
        <time>2013-11-17T07:49:49.936Z</time>
      </trkpt>
      <trkpt lat="48.39296" lon="2.55043">
        <ele>60.078</ele>
        <time>2013-11-17T07:49:52.705Z</time>
      </trkpt>
      <trkpt lat="48.39295" lon="2.55025">
        <ele>62.957</ele>
        <time>2013-11-17T07:49:55.570Z</time>
      </trkpt>
      <trkpt lat="48.39294" lon="2.55008">
        <ele>65.741</ele>
        <time>2013-11-17T07:49:58.264Z</time>
      </trkpt>
      <trkpt lat="48.39296" lon="2.54992">
        <ele>68.036</ele>
        <time>2013-11-17T07:50:00.866Z</time>
      </trkpt>
      <trkpt lat="48.39298" lon="2.54976">
        <ele>69.765</ele>
        <time>2013-11-17T07:50:03.529Z</time>
      </trkpt>
      <trkpt lat="48.393" lon="2.54962">
        <ele>71.726</ele>
        <time>2013-11-17T07:50:05.977Z</time>
      </trkpt>
      <trkpt lat="48.39302" lon="2.54947">
        <ele>74.189</ele>
        <time>2013-11-17T07:50:08.587Z</time>
      </trkpt>
      <trkpt lat="48.39304" lon="2.54933">
        <ele>76.12</ele>
        <time>2013-11-17T07:50:11.098Z</time>
      </trkpt>
      <trkpt lat="48.39307" lon="2.54916">
        <ele>76.89</ele>
        <time>2013-11-17T07:50:14.004Z</time>
      </trkpt>
      <trkpt lat="48.39309" lon="2.54899">
        <ele>76.865</ele>
        <time>2013-11-17T07:50:16.969Z</time>
      </trkpt>
      <trkpt lat="48.39309" lon="2.54899">
        <ele>76.588</ele>
        <time>2013-11-17T07:50:24.969Z</time>
      </trkpt>
      <trkpt lat="48.39309" lon="2.54899">
        <ele>76.435</ele>
        <time>2013-11-17T07:50:25.069Z</time>
      </trkpt>
      <trkpt lat="48.39312" lon="2.54878">
        <ele>76.464</ele>
        <time>2013-11-17T07:50:36.138Z</time>
      </trkpt>
      <trkpt lat="48.39315" lon="2.54859">
        <ele>75.544</ele>
        <time>2013-11-17T07:50:40.282Z</time>
      </trkpt>
      <trkpt lat="48.39319" lon="2.54841">
        <ele>73.013</ele>
        <time>2013-11-17T07:50:44.130Z</time>
      </trkpt>
      <trkpt lat="48.3932" lon="2.54824">
        <ele>70.36</ele>
        <time>2013-11-17T07:50:47.632Z</time>
      </trkpt>
      <trkpt lat="48.3932" lon="2.5481">
        <ele>69.589</ele>
        <time>2013-11-17T07:50:50.394Z</time>
      </trkpt>
      <trkpt lat="48.39321" lon="2.54795">
        <ele>70.997</ele>
        <time>2013-11-17T07:50:53.337Z</time>
      </trkpt>
      <trkpt lat="48.39322" lon="2.5478">
        <ele>73.392</ele>
        <time>2013-11-17T07:50:56.354Z</time>
      </trkpt>
      <trkpt lat="48.39324" lon="2.54765">
        <ele>75.476</ele>
        <time>2013-11-17T07:50:59.587Z</time>
      </trkpt>
      <trkpt lat="48.39325" lon="2.54752">
        <ele>77.509</ele>
        <time>2013-11-17T07:51:02.798Z</time>
      </trkpt>
      <trkpt lat="48.39325" lon="2.54737">
        <ele>79.861</ele>
        <time>2013-11-17T07:51:06.369Z</time>
      </trkpt>
      <trkpt lat="48.39323" lon="2.54721">
        <ele>81.169</ele>
        <time>2013-11-17T07:51:10.105Z</time>
      </trkpt>
      <trkpt lat="48.39322" lon="2.54707">
        <ele>80.546</ele>
        <time>2013-11-17T07:51:13.379Z</time>
      </trkpt>
      <trkpt lat="48.39321" lon="2.54691">
        <ele>79.164</ele>
        <time>2013-11-17T07:51:16.747Z</time>
      </trkpt>
      <trkpt lat="48.3932" lon="2.54675">
        <ele>78.077</ele>
        <time>2013-11-17T07:51:20.434Z</time>
      </trkpt>
      <trkpt lat="48.39323" lon="2.54659">
        <ele>77.32</ele>
        <time>2013-11-17T07:51:24.017Z</time>
      </trkpt>
      <trkpt lat="48.39326" lon="2.54645">
        <ele>76.959</ele>
        <time>2013-11-17T07:51:27.451Z</time>
      </trkpt>
      <trkpt lat="48.39327" lon="2.5463">
        <ele>77.499</ele>
        <time>2013-11-17T07:51:31.023Z</time>
      </trkpt>
      <trkpt lat="48.39329" lon="2.54616">
        <ele>79.367</ele>
        <time>2013-11-17T07:51:34.973Z</time>
      </trkpt>
      <trkpt lat="48.39329" lon="2.54616">
        <ele>81.85</ele>
        <time>2013-11-17T07:51:36.974Z</time>
      </trkpt>
      <trkpt lat="48.39329" lon="2.54616">
        <ele>83.308</ele>
        <time>2013-11-17T07:51:37.074Z</time>
      </trkpt>
      <trkpt lat="48.39335" lon="2.54595">
        <ele>83.177</ele>
        <time>2013-11-17T07:51:44.066Z</time>
      </trkpt>
      <trkpt lat="48.39341" lon="2.5458">
        <ele>82.964</ele>
        <time>2013-11-17T07:51:46.975Z</time>
      </trkpt>
      <trkpt lat="48.39341" lon="2.5458">
        <ele>83.919</ele>
        <time>2013-11-17T07:51:53.977Z</time>
      </trkpt>
      <trkpt lat="48.39341" lon="2.5458">
        <ele>84.983</ele>
        <time>2013-11-17T07:58:04.809Z</time>
      </trkpt>
      <trkpt lat="48.39336" lon="2.54553">
        <ele>84.964</ele>
        <time>2013-11-17T07:58:36.482Z</time>
      </trkpt>
      <trkpt lat="48.39335" lon="2.54539">
        <ele>84.511</ele>
        <time>2013-11-17T07:58:41.397Z</time>
      </trkpt>
      <trkpt lat="48.39336" lon="2.54524">
        <ele>84.668</ele>
        <time>2013-11-17T07:58:46.795Z</time>
      </trkpt>
      <trkpt lat="48.39339" lon="2.54509">
        <ele>85.242</ele>
        <time>2013-11-17T07:58:52.256Z</time>
      </trkpt>
      <trkpt lat="48.39341" lon="2.54494">
        <ele>84.725</ele>
        <time>2013-11-17T07:58:57.664Z</time>
      </trkpt>
      <trkpt lat="48.39339" lon="2.5448">
        <ele>82.609</ele>
        <time>2013-11-17T07:59:02.590Z</time>
      </trkpt>
      <trkpt lat="48.39339" lon="2.54466">
        <ele>80.473</ele>
        <time>2013-11-17T07:59:07.887Z</time>
      </trkpt>
      <trkpt lat="48.39337" lon="2.54449">
        <ele>79.995</ele>
        <time>2013-11-17T07:59:13.646Z</time>
      </trkpt>
      <trkpt lat="48.39338" lon="2.54428">
        <ele>83.022</ele>
        <time>2013-11-17T07:59:20.602Z</time>
      </trkpt>
      <trkpt lat="48.39334" lon="2.54412">
        <ele>89.645</ele>
        <time>2013-11-17T07:59:25.941Z</time>
      </trkpt>
      <trkpt lat="48.39331" lon="2.54396">
        <ele>97.086</ele>
        <time>2013-11-17T07:59:30.867Z</time>
      </trkpt>
      <trkpt lat="48.39333" lon="2.54383">
        <ele>106.772</ele>
        <time>2013-11-17T07:59:35.462Z</time>
      </trkpt>
      <trkpt lat="48.39331" lon="2.54369">
        <ele>108.901</ele>
        <time>2013-11-17T07:59:41.367Z</time>
      </trkpt>
      <trkpt lat="48.39337" lon="2.54359">
        <ele>109.362</ele>
        <time>2013-11-17T07:59:47.849Z</time>
      </trkpt>
      <trkpt lat="48.39338" lon="2.54345">
        <ele>108.576</ele>
        <time>2013-11-17T07:59:55.069Z</time>
      </trkpt>
      <trkpt lat="48.3934" lon="2.54329">
        <ele>107.335</ele>
        <time>2013-11-17T08:00:03.566Z</time>
      </trkpt>
      <trkpt lat="48.39338" lon="2.54314">
        <ele>105.47</ele>
        <time>2013-11-17T08:00:12.218Z</time>
      </trkpt>
      <trkpt lat="48.39336" lon="2.54299">
        <ele>105.947</ele>
        <time>2013-11-17T08:00:19.151Z</time>
      </trkpt>
      <trkpt lat="48.39331" lon="2.54286">
        <ele>106.977</ele>
        <time>2013-11-17T08:00:24.323Z</time>
      </trkpt>
      <trkpt lat="48.39329" lon="2.54273">
        <ele>108.022</ele>
        <time>2013-11-17T08:00:28.441Z</time>
      </trkpt>
      <trkpt lat="48.39328" lon="2.54256">
        <ele>109.695</ele>
        <time>2013-11-17T08:00:34.027Z</time>
      </trkpt>
      <trkpt lat="48.39332" lon="2.54241">
        <ele>112.611</ele>
        <time>2013-11-17T08:00:39.869Z</time>
      </trkpt>
      <trkpt lat="48.39336" lon="2.54228">
        <ele>117.209</ele>
        <time>2013-11-17T08:00:44.925Z</time>
      </trkpt>
      <trkpt lat="48.39342" lon="2.54216">
        <ele>117.473</ele>
        <time>2013-11-17T08:00:49.789Z</time>
      </trkpt>
      <trkpt lat="48.39346" lon="2.54202">
        <ele>117.06</ele>
        <time>2013-11-17T08:00:55.223Z</time>
      </trkpt>
      <trkpt lat="48.39355" lon="2.54195">
        <ele>117.171</ele>
        <time>2013-11-17T08:01:00.775Z</time>
      </trkpt>
      <trkpt lat="48.39361" lon="2.54184">
        <ele>116.865</ele>
        <time>2013-11-17T08:01:06.240Z</time>
      </trkpt>
      <trkpt lat="48.39369" lon="2.54177">
        <ele>115.689</ele>
        <time>2013-11-17T08:01:11.983Z</time>
      </trkpt>
      <trkpt lat="48.39389" lon="2.54115">
        <ele>113.66</ele>
        <time>2013-11-17T08:01:35.580Z</time>
      </trkpt>
      <trkpt lat="48.39392" lon="2.541">
        <ele>115.097</ele>
        <time>2013-11-17T08:01:39.322Z</time>
      </trkpt>
      <trkpt lat="48.39398" lon="2.54084">
        <ele>118.303</ele>
        <time>2013-11-17T08:01:43.858Z</time>
      </trkpt>
      <trkpt lat="48.39409" lon="2.54067">
        <ele>121.208</ele>
        <time>2013-11-17T08:01:48.944Z</time>
      </trkpt>
      <trkpt lat="48.39415" lon="2.54056">
        <ele>123.138</ele>
        <time>2013-11-17T08:01:51.323Z</time>
      </trkpt>
      <trkpt lat="48.39423" lon="2.54041">
        <ele>124.964</ele>
        <time>2013-11-17T08:01:54.234Z</time>
      </trkpt>
      <trkpt lat="48.39433" lon="2.54029">
        <ele>126.432</ele>
        <time>2013-11-17T08:01:57.097Z</time>
      </trkpt>
      <trkpt lat="48.39439" lon="2.54018">
        <ele>127.089</ele>
        <time>2013-11-17T08:01:59.340Z</time>
      </trkpt>
      <trkpt lat="48.39446" lon="2.54002">
        <ele>127.304</ele>
        <time>2013-11-17T08:02:02.369Z</time>
      </trkpt>
      <trkpt lat="48.3945" lon="2.5399">
        <ele>127.094</ele>
        <time>2013-11-17T08:02:04.887Z</time>
      </trkpt>
      <trkpt lat="48.39454" lon="2.53977">
        <ele>126.366</ele>
        <time>2013-11-17T08:02:07.675Z</time>
      </trkpt>
      <trkpt lat="48.39453" lon="2.53961">
        <ele>124.797</ele>
        <time>2013-11-17T08:02:10.936Z</time>
      </trkpt>
      <trkpt lat="48.39453" lon="2.53947">
        <ele>122.137</ele>
        <time>2013-11-17T08:02:13.879Z</time>
      </trkpt>
      <trkpt lat="48.39456" lon="2.53932">
        <ele>119.375</ele>
        <time>2013-11-17T08:02:16.979Z</time>
      </trkpt>
      <trkpt lat="48.39456" lon="2.53932">
        <ele>117.874</ele>
        <time>2013-11-17T08:02:16.979Z</time>
      </trkpt>
      <trkpt lat="48.39456" lon="2.53932">
        <ele>117.64</ele>
        <time>2013-11-17T08:02:17.079Z</time>
      </trkpt>
      <trkpt lat="48.3946" lon="2.53904">
        <ele>118.023</ele>
        <time>2013-11-17T08:02:28.996Z</time>
      </trkpt>
      <trkpt lat="48.39463" lon="2.5389">
        <ele>118.516</ele>
        <time>2013-11-17T08:02:33.231Z</time>
      </trkpt>
      <trkpt lat="48.39465" lon="2.53872">
        <ele>118.852</ele>
        <time>2013-11-17T08:02:37.927Z</time>
      </trkpt>
      <trkpt lat="48.3947" lon="2.53853">
        <ele>118.698</ele>
        <time>2013-11-17T08:02:42.859Z</time>
      </trkpt>
      <trkpt lat="48.39474" lon="2.5384">
        <ele>117.979</ele>
        <time>2013-11-17T08:02:45.983Z</time>
      </trkpt>
      <trkpt lat="48.39475" lon="2.53823">
        <ele>116.925</ele>
        <time>2013-11-17T08:02:49.568Z</time>
      </trkpt>
      <trkpt lat="48.39476" lon="2.53807">
        <ele>115.596</ele>
        <time>2013-11-17T08:02:52.620Z</time>
      </trkpt>
      <trkpt lat="48.39479" lon="2.5379">
        <ele>114.195</ele>
        <time>2013-11-17T08:02:55.671Z</time>
      </trkpt>
      <trkpt lat="48.39479" lon="2.53775">
        <ele>113.277</ele>
        <time>2013-11-17T08:02:58.212Z</time>
      </trkpt>
      <trkpt lat="48.39481" lon="2.53759">
        <ele>112.94</ele>
        <time>2013-11-17T08:03:01.092Z</time>
      </trkpt>
      <trkpt lat="48.39486" lon="2.53748">
        <ele>112.876</ele>
        <time>2013-11-17T08:03:03.801Z</time>
      </trkpt>
      <trkpt lat="48.39492" lon="2.53733">
        <ele>112.89</ele>
        <time>2013-11-17T08:03:07.120Z</time>
      </trkpt>
      <trkpt lat="48.39497" lon="2.5372">
        <ele>112.702</ele>
        <time>2013-11-17T08:03:09.988Z</time>
      </trkpt>
      <trkpt lat="48.39501" lon="2.53707">
        <ele>111.968</ele>
        <time>2013-11-17T08:03:12.842Z</time>
      </trkpt>
      <trkpt lat="48.39503" lon="2.5369">
        <ele>110.904</ele>
        <time>2013-11-17T08:03:15.808Z</time>
      </trkpt>
      <trkpt lat="48.39505" lon="2.53673">
        <ele>110.308</ele>
        <time>2013-11-17T08:03:18.659Z</time>
      </trkpt>
      <trkpt lat="48.39508" lon="2.53653">
        <ele>110.502</ele>
        <time>2013-11-17T08:03:21.800Z</time>
      </trkpt>
      <trkpt lat="48.39508" lon="2.53634">
        <ele>110.573</ele>
        <time>2013-11-17T08:03:24.574Z</time>
      </trkpt>
      <trkpt lat="48.39509" lon="2.53614">
        <ele>109.741</ele>
        <time>2013-11-17T08:03:27.346Z</time>
      </trkpt>
      <trkpt lat="48.39511" lon="2.536">
        <ele>108.596</ele>
        <time>2013-11-17T08:03:29.332Z</time>
      </trkpt>
      <trkpt lat="48.39511" lon="2.53584">
        <ele>107.379</ele>
        <time>2013-11-17T08:03:31.381Z</time>
      </trkpt>
      <trkpt lat="48.39513" lon="2.5356">
        <ele>106.893</ele>
        <time>2013-11-17T08:03:34.314Z</time>
      </trkpt>
      <trkpt lat="48.39517" lon="2.53539">
        <ele>107.186</ele>
        <time>2013-11-17T08:03:37.095Z</time>
      </trkpt>
      <trkpt lat="48.39521" lon="2.53519">
        <ele>108.081</ele>
        <time>2013-11-17T08:03:39.715Z</time>
      </trkpt>
      <trkpt lat="48.39522" lon="2.535">
        <ele>108.717</ele>
        <time>2013-11-17T08:03:42.216Z</time>
      </trkpt>
      <trkpt lat="48.39522" lon="2.53483">
        <ele>107.94</ele>
        <time>2013-11-17T08:03:44.696Z</time>
      </trkpt>
      <trkpt lat="48.39519" lon="2.5347">
        <ele>102.427</ele>
        <time>2013-11-17T08:03:47.129Z</time>
      </trkpt>
      <trkpt lat="48.39511" lon="2.5346">
        <ele>100.21</ele>
        <time>2013-11-17T08:03:49.957Z</time>
      </trkpt>
      <trkpt lat="48.39502" lon="2.53453">
        <ele>98.207</ele>
        <time>2013-11-17T08:03:53.151Z</time>
      </trkpt>
      <trkpt lat="48.39492" lon="2.53449">
        <ele>96.387</ele>
        <time>2013-11-17T08:03:56.302Z</time>
      </trkpt>
      <trkpt lat="48.3948" lon="2.53445">
        <ele>94.642</ele>
        <time>2013-11-17T08:03:59.657Z</time>
      </trkpt>
      <trkpt lat="48.39471" lon="2.53441">
        <ele>92.961</ele>
        <time>2013-11-17T08:04:02.079Z</time>
      </trkpt>
      <trkpt lat="48.39455" lon="2.53436">
        <ele>92.149</ele>
        <time>2013-11-17T08:04:05.666Z</time>
      </trkpt>
      <trkpt lat="48.39443" lon="2.53433">
        <ele>92.763</ele>
        <time>2013-11-17T08:04:08.303Z</time>
      </trkpt>
      <trkpt lat="48.3943" lon="2.5343">
        <ele>94.23</ele>
        <time>2013-11-17T08:04:11.155Z</time>
      </trkpt>
      <trkpt lat="48.39417" lon="2.53427">
        <ele>95.509</ele>
        <time>2013-11-17T08:04:13.825Z</time>
      </trkpt>
      <trkpt lat="48.39404" lon="2.53423">
        <ele>95.744</ele>
        <time>2013-11-17T08:04:16.835Z</time>
      </trkpt>
      <trkpt lat="48.39395" lon="2.53421">
        <ele>94.651</ele>
        <time>2013-11-17T08:04:18.985Z</time>
      </trkpt>
      <trkpt lat="48.39378" lon="2.53416">
        <ele>92.974</ele>
        <time>2013-11-17T08:04:22.710Z</time>
      </trkpt>
      <trkpt lat="48.39365" lon="2.53412">
        <ele>91.647</ele>
        <time>2013-11-17T08:04:25.345Z</time>
      </trkpt>
      <trkpt lat="48.39345" lon="2.53402">
        <ele>90.864</ele>
        <time>2013-11-17T08:04:29.161Z</time>
      </trkpt>
      <trkpt lat="48.39326" lon="2.53397">
        <ele>90.462</ele>
        <time>2013-11-17T08:04:32.250Z</time>
      </trkpt>
      <trkpt lat="48.39305" lon="2.5339">
        <ele>89.812</ele>
        <time>2013-11-17T08:04:35.518Z</time>
      </trkpt>
      <trkpt lat="48.3929" lon="2.53384">
        <ele>88.439</ele>
        <time>2013-11-17T08:04:37.793Z</time>
      </trkpt>
      <trkpt lat="48.39275" lon="2.53378">
        <ele>87.058</ele>
        <time>2013-11-17T08:04:40.186Z</time>
      </trkpt>
      <trkpt lat="48.39258" lon="2.53364">
        <ele>86.468</ele>
        <time>2013-11-17T08:04:43.572Z</time>
      </trkpt>
      <trkpt lat="48.39247" lon="2.53356">
        <ele>86.476</ele>
        <time>2013-11-17T08:04:46.202Z</time>
      </trkpt>
      <trkpt lat="48.39235" lon="2.53356">
        <ele>86.633</ele>
        <time>2013-11-17T08:04:48.879Z</time>
      </trkpt>
      <trkpt lat="48.39228" lon="2.53366">
        <ele>86.083</ele>
        <time>2013-11-17T08:04:51.471Z</time>
      </trkpt>
      <trkpt lat="48.39219" lon="2.53376">
        <ele>84.391</ele>
        <time>2013-11-17T08:04:54.416Z</time>
      </trkpt>
      <trkpt lat="48.39209" lon="2.53386">
        <ele>84.37</ele>
        <time>2013-11-17T08:04:57.571Z</time>
      </trkpt>
      <trkpt lat="48.392" lon="2.53395">
        <ele>88.356</ele>
        <time>2013-11-17T08:05:00.683Z</time>
      </trkpt>
      <trkpt lat="48.39192" lon="2.53406">
        <ele>93.719</ele>
        <time>2013-11-17T08:05:03.769Z</time>
      </trkpt>
      <trkpt lat="48.39185" lon="2.5342">
        <ele>97.983</ele>
        <time>2013-11-17T08:05:07.202Z</time>
      </trkpt>
      <trkpt lat="48.39178" lon="2.53431">
        <ele>102.296</ele>
        <time>2013-11-17T08:05:10.741Z</time>
      </trkpt>
      <trkpt lat="48.39171" lon="2.5344">
        <ele>107.066</ele>
        <time>2013-11-17T08:05:14.389Z</time>
      </trkpt>
      <trkpt lat="48.39164" lon="2.5345">
        <ele>110.741</ele>
        <time>2013-11-17T08:05:18.714Z</time>
      </trkpt>
      <trkpt lat="48.39158" lon="2.5346">
        <ele>112.382</ele>
        <time>2013-11-17T08:05:23.233Z</time>
      </trkpt>
      <trkpt lat="48.3915" lon="2.5347">
        <ele>112.495</ele>
        <time>2013-11-17T08:05:28.262Z</time>
      </trkpt>
      <trkpt lat="48.39143" lon="2.53479">
        <ele>111.888</ele>
        <time>2013-11-17T08:05:33.343Z</time>
      </trkpt>
      <trkpt lat="48.39138" lon="2.53494">
        <ele>111.254</ele>
        <time>2013-11-17T08:05:39.128Z</time>
      </trkpt>
      <trkpt lat="48.39132" lon="2.53507">
        <ele>111.236</ele>
        <time>2013-11-17T08:05:44.871Z</time>
      </trkpt>
      <trkpt lat="48.39127" lon="2.53522">
        <ele>112.243</ele>
        <time>2013-11-17T08:05:50.968Z</time>
      </trkpt>
      <trkpt lat="48.39119" lon="2.53533">
        <ele>113.886</ele>
        <time>2013-11-17T08:05:57.270Z</time>
      </trkpt>
      <trkpt lat="48.39112" lon="2.53545">
        <ele>115.3</ele>
        <time>2013-11-17T08:06:03.745Z</time>
      </trkpt>
      <trkpt lat="48.39104" lon="2.53553">
        <ele>115.921</ele>
        <time>2013-11-17T08:06:09.396Z</time>
      </trkpt>
      <trkpt lat="48.39096" lon="2.53564">
        <ele>116.184</ele>
        <time>2013-11-17T08:06:16.152Z</time>
      </trkpt>
      <trkpt lat="48.3909" lon="2.53576">
        <ele>116.789</ele>
        <time>2013-11-17T08:06:22.980Z</time>
      </trkpt>
      <trkpt lat="48.39083" lon="2.53587">
        <ele>117.575</ele>
        <time>2013-11-17T08:06:28.895Z</time>
      </trkpt>
      <trkpt lat="48.39073" lon="2.5359">
        <ele>117.541</ele>
        <time>2013-11-17T08:06:34.873Z</time>
      </trkpt>
      <trkpt lat="48.39063" lon="2.53594">
        <ele>116.032</ele>
        <time>2013-11-17T08:06:43.222Z</time>
      </trkpt>
      <trkpt lat="48.39056" lon="2.53605">
        <ele>113.582</ele>
        <time>2013-11-17T08:06:52.241Z</time>
      </trkpt>
      <trkpt lat="48.3905" lon="2.53616">
        <ele>111.279</ele>
        <time>2013-11-17T08:07:00.993Z</time>
      </trkpt>
      <trkpt lat="48.3905" lon="2.53616">
        <ele>109.897</ele>
        <time>2013-11-17T08:07:02.986Z</time>
      </trkpt>
      <trkpt lat="48.3905" lon="2.53616">
        <ele>109.605</ele>
        <time>2013-11-17T08:09:12.650Z</time>
      </trkpt>
      <trkpt lat="48.39033" lon="2.53632">
        <ele>109.967</ele>
        <time>2013-11-17T08:09:38.173Z</time>
      </trkpt>
      <trkpt lat="48.39025" lon="2.53641">
        <ele>111.177</ele>
        <time>2013-11-17T08:09:42.797Z</time>
      </trkpt>
      <trkpt lat="48.39016" lon="2.53649">
        <ele>113.753</ele>
        <time>2013-11-17T08:09:46.386Z</time>
      </trkpt>
      <trkpt lat="48.39006" lon="2.53652">
        <ele>116.302</ele>
        <time>2013-11-17T08:09:49.774Z</time>
      </trkpt>
      <trkpt lat="48.38997" lon="2.5366">
        <ele>117.535</ele>
        <time>2013-11-17T08:09:52.810Z</time>
      </trkpt>
      <trkpt lat="48.38989" lon="2.53668">
        <ele>118.757</ele>
        <time>2013-11-17T08:09:55.994Z</time>
      </trkpt>
      <trkpt lat="48.38977" lon="2.53673">
        <ele>121.02</ele>
        <time>2013-11-17T08:09:59.487Z</time>
      </trkpt>
      <trkpt lat="48.38966" lon="2.53678">
        <ele>122.403</ele>
        <time>2013-11-17T08:10:02.479Z</time>
      </trkpt>
      <trkpt lat="48.38958" lon="2.53688">
        <ele>121.496</ele>
        <time>2013-11-17T08:10:05.117Z</time>
      </trkpt>
      <trkpt lat="48.38951" lon="2.537">
        <ele>119.341</ele>
        <time>2013-11-17T08:10:07.987Z</time>
      </trkpt>
      <trkpt lat="48.38941" lon="2.53708">
        <ele>117.308</ele>
        <time>2013-11-17T08:10:11.063Z</time>
      </trkpt>
      <trkpt lat="48.38933" lon="2.5372">
        <ele>115.933</ele>
        <time>2013-11-17T08:10:14.168Z</time>
      </trkpt>
      <trkpt lat="48.38924" lon="2.53727">
        <ele>115.107</ele>
        <time>2013-11-17T08:10:16.956Z</time>
      </trkpt>
      <trkpt lat="48.38917" lon="2.53735">
        <ele>114.325</ele>
        <time>2013-11-17T08:10:19.569Z</time>
      </trkpt>
      <trkpt lat="48.38909" lon="2.53744">
        <ele>113.563</ele>
        <time>2013-11-17T08:10:22.074Z</time>
      </trkpt>
      <trkpt lat="48.38897" lon="2.53753">
        <ele>112.889</ele>
        <time>2013-11-17T08:10:25.262Z</time>
      </trkpt>
      <trkpt lat="48.38894" lon="2.53774">
        <ele>112.19</ele>
        <time>2013-11-17T08:10:28.371Z</time>
      </trkpt>
      <trkpt lat="48.38894" lon="2.538">
        <ele>111.548</ele>
        <time>2013-11-17T08:10:32.100Z</time>
      </trkpt>
      <trkpt lat="48.38897" lon="2.5382">
        <ele>111.199</ele>
        <time>2013-11-17T08:10:34.629Z</time>
      </trkpt>
      <trkpt lat="48.38893" lon="2.53845">
        <ele>111.119</ele>
        <time>2013-11-17T08:10:37.540Z</time>
      </trkpt>
      <trkpt lat="48.38888" lon="2.53873">
        <ele>111.186</ele>
        <time>2013-11-17T08:10:40.688Z</time>
      </trkpt>
      <trkpt lat="48.38888" lon="2.5389">
        <ele>111.391</ele>
        <time>2013-11-17T08:10:42.645Z</time>
      </trkpt>
      <trkpt lat="48.38882" lon="2.53905">
        <ele>111.699</ele>
        <time>2013-11-17T08:10:44.812Z</time>
      </trkpt>
      <trkpt lat="48.38875" lon="2.53916">
        <ele>111.405</ele>
        <time>2013-11-17T08:10:46.976Z</time>
      </trkpt>
      <trkpt lat="48.38875" lon="2.53916">
        <ele>110.083</ele>
        <time>2013-11-17T08:10:46.976Z</time>
      </trkpt>
      <trkpt lat="48.38875" lon="2.53916">
        <ele>108.888</ele>
        <time>2013-11-17T08:10:47.146Z</time>
      </trkpt>
      <trkpt lat="48.38864" lon="2.53935">
        <ele>109.431</ele>
        <time>2013-11-17T08:10:54.606Z</time>
      </trkpt>
      <trkpt lat="48.38856" lon="2.53944">
        <ele>109.875</ele>
        <time>2013-11-17T08:10:57.479Z</time>
      </trkpt>
      <trkpt lat="48.38846" lon="2.53958">
        <ele>109.215</ele>
        <time>2013-11-17T08:11:00.844Z</time>
      </trkpt>
      <trkpt lat="48.38838" lon="2.53979">
        <ele>106.753</ele>
        <time>2013-11-17T08:11:04.502Z</time>
      </trkpt>
      <trkpt lat="48.38835" lon="2.53993">
        <ele>103.7</ele>
        <time>2013-11-17T08:11:06.415Z</time>
      </trkpt>
      <trkpt lat="48.38828" lon="2.54012">
        <ele>102.236</ele>
        <time>2013-11-17T08:11:09.306Z</time>
      </trkpt>
      <trkpt lat="48.38823" lon="2.54026">
        <ele>103.679</ele>
        <time>2013-11-17T08:11:11.304Z</time>
      </trkpt>
      <trkpt lat="48.38821" lon="2.54046">
        <ele>107.229</ele>
        <time>2013-11-17T08:11:13.749Z</time>
      </trkpt>
      <trkpt lat="48.38819" lon="2.54068">
        <ele>110.329</ele>
        <time>2013-11-17T08:11:16.480Z</time>
      </trkpt>
      <trkpt lat="48.38817" lon="2.54087">
        <ele>111.593</ele>
        <time>2013-11-17T08:11:18.984Z</time>
      </trkpt>
      <trkpt lat="48.38815" lon="2.54101">
        <ele>111.888</ele>
        <time>2013-11-17T08:11:20.750Z</time>
      </trkpt>
      <trkpt lat="48.38809" lon="2.54118">
        <ele>112.319</ele>
        <time>2013-11-17T08:11:23.326Z</time>
      </trkpt>
      <trkpt lat="48.38807" lon="2.54132">
        <ele>112.896</ele>
        <time>2013-11-17T08:11:25.234Z</time>
      </trkpt>
      <trkpt lat="48.38804" lon="2.54149">
        <ele>112.778</ele>
        <time>2013-11-17T08:11:27.882Z</time>
      </trkpt>
      <trkpt lat="48.38796" lon="2.54159">
        <ele>111.784</ele>
        <time>2013-11-17T08:11:30.258Z</time>
      </trkpt>
      <trkpt lat="48.38783" lon="2.5417">
        <ele>110.72</ele>
        <time>2013-11-17T08:11:33.906Z</time>
      </trkpt>
      <trkpt lat="48.38774" lon="2.54182">
        <ele>108.699</ele>
        <time>2013-11-17T08:11:36.997Z</time>
      </trkpt>
      <trkpt lat="48.38774" lon="2.54182">
        <ele>104.696</ele>
        <time>2013-11-17T08:11:37.981Z</time>
      </trkpt>
      <trkpt lat="48.38774" lon="2.54182">
        <ele>101.467</ele>
        <time>2013-11-17T08:11:38.081Z</time>
      </trkpt>
      <trkpt lat="48.38766" lon="2.54229">
        <ele>102.048</ele>
        <time>2013-11-17T08:11:46.122Z</time>
      </trkpt>
      <trkpt lat="48.38762" lon="2.54243">
        <ele>105.507</ele>
        <time>2013-11-17T08:11:47.663Z</time>
      </trkpt>
      <trkpt lat="48.38758" lon="2.54265">
        <ele>110.227</ele>
        <time>2013-11-17T08:11:49.723Z</time>
      </trkpt>
      <trkpt lat="48.38748" lon="2.54279">
        <ele>115.098</ele>
        <time>2013-11-17T08:11:51.632Z</time>
      </trkpt>
      <trkpt lat="48.38738" lon="2.54292">
        <ele>118.026</ele>
        <time>2013-11-17T08:11:53.275Z</time>
      </trkpt>
      <trkpt lat="48.38729" lon="2.54306">
        <ele>117.745</ele>
        <time>2013-11-17T08:11:54.999Z</time>
      </trkpt>
      <trkpt lat="48.38729" lon="2.54306">
        <ele>115.739</ele>
        <time>2013-11-17T08:11:55.980Z</time>
      </trkpt>
      <trkpt lat="48.38729" lon="2.54306">
        <ele>114.304</ele>
        <time>2013-11-17T08:11:56.080Z</time>
      </trkpt>
      <trkpt lat="48.38707" lon="2.54333">
        <ele>114.312</ele>
        <time>2013-11-17T08:12:03.482Z</time>
      </trkpt>
      <trkpt lat="48.38699" lon="2.54346">
        <ele>113.32</ele>
        <time>2013-11-17T08:12:05.543Z</time>
      </trkpt>
      <trkpt lat="48.38692" lon="2.54359">
        <ele>109.231</ele>
        <time>2013-11-17T08:12:07.761Z</time>
      </trkpt>
      <trkpt lat="48.38683" lon="2.54373">
        <ele>104.341</ele>
        <time>2013-11-17T08:12:10.548Z</time>
      </trkpt>
      <trkpt lat="48.38674" lon="2.54371">
        <ele>101.788</ele>
        <time>2013-11-17T08:12:13.371Z</time>
      </trkpt>
      <trkpt lat="48.38669" lon="2.54355">
        <ele>101.757</ele>
        <time>2013-11-17T08:12:17.371Z</time>
      </trkpt>
      <trkpt lat="48.38665" lon="2.54337">
        <ele>102.776</ele>
        <time>2013-11-17T08:12:20.634Z</time>
      </trkpt>
      <trkpt lat="48.38658" lon="2.54252">
        <ele>103.214</ele>
        <time>2013-11-17T08:12:33.288Z</time>
      </trkpt>
      <trkpt lat="48.38659" lon="2.54237">
        <ele>102.899</ele>
        <time>2013-11-17T08:12:35.139Z</time>
      </trkpt>
      <trkpt lat="48.38659" lon="2.54222">
        <ele>102.821</ele>
        <time>2013-11-17T08:12:36.974Z</time>
      </trkpt>
      <trkpt lat="48.38663" lon="2.54198">
        <ele>103.205</ele>
        <time>2013-11-17T08:12:39.841Z</time>
      </trkpt>
      <trkpt lat="48.38664" lon="2.54183">
        <ele>103.934</ele>
        <time>2013-11-17T08:12:41.715Z</time>
      </trkpt>
      <trkpt lat="48.38661" lon="2.5411">
        <ele>104.461</ele>
        <time>2013-11-17T08:12:50.362Z</time>
      </trkpt>
      <trkpt lat="48.38665" lon="2.54033">
        <ele>104.151</ele>
        <time>2013-11-17T08:12:59.281Z</time>
      </trkpt>
      <trkpt lat="48.38668" lon="2.54007">
        <ele>104.261</ele>
        <time>2013-11-17T08:13:02.136Z</time>
      </trkpt>
      <trkpt lat="48.38669" lon="2.53989">
        <ele>105.414</ele>
        <time>2013-11-17T08:13:04.040Z</time>
      </trkpt>
      <trkpt lat="48.38679" lon="2.53903">
        <ele>107.951</ele>
        <time>2013-11-17T08:13:12.250Z</time>
      </trkpt>
      <trkpt lat="48.38685" lon="2.53877">
        <ele>106.724</ele>
        <time>2013-11-17T08:13:14.343Z</time>
      </trkpt>
      <trkpt lat="48.38693" lon="2.53842">
        <ele>104.07</ele>
        <time>2013-11-17T08:13:17.155Z</time>
      </trkpt>
      <trkpt lat="48.38694" lon="2.53825">
        <ele>101.683</ele>
        <time>2013-11-17T08:13:18.644Z</time>
      </trkpt>
      <trkpt lat="48.38688" lon="2.53804">
        <ele>100.512</ele>
        <time>2013-11-17T08:13:20.753Z</time>
      </trkpt>
      <trkpt lat="48.38684" lon="2.53783">
        <ele>99.706</ele>
        <time>2013-11-17T08:13:23.224Z</time>
      </trkpt>
      <trkpt lat="48.38672" lon="2.53778">
        <ele>97.88</ele>
        <time>2013-11-17T08:13:25.629Z</time>
      </trkpt>
      <trkpt lat="48.38661" lon="2.53784">
        <ele>95.269</ele>
        <time>2013-11-17T08:13:28.312Z</time>
      </trkpt>
      <trkpt lat="48.3865" lon="2.53803">
        <ele>92.825</ele>
        <time>2013-11-17T08:13:32.339Z</time>
      </trkpt>
      <trkpt lat="48.38642" lon="2.53817">
        <ele>90.416</ele>
        <time>2013-11-17T08:13:35.183Z</time>
      </trkpt>
      <trkpt lat="48.38635" lon="2.53831">
        <ele>88.094</ele>
        <time>2013-11-17T08:13:38.254Z</time>
      </trkpt>
      <trkpt lat="48.38629" lon="2.53842">
        <ele>86.851</ele>
        <time>2013-11-17T08:13:41.994Z</time>
      </trkpt>
      <trkpt lat="48.38629" lon="2.53842">
        <ele>86.986</ele>
        <time>2013-11-17T08:13:42.988Z</time>
      </trkpt>
      <trkpt lat="48.38629" lon="2.53842">
        <ele>87.482</ele>
        <time>2013-11-17T08:13:43.088Z</time>
      </trkpt>
      <trkpt lat="48.38621" lon="2.53853">
        <ele>87.485</ele>
        <time>2013-11-17T08:13:52.299Z</time>
      </trkpt>
      <trkpt lat="48.38617" lon="2.53866">
        <ele>87.281</ele>
        <time>2013-11-17T08:13:55.604Z</time>
      </trkpt>
      <trkpt lat="48.38613" lon="2.53881">
        <ele>87.945</ele>
        <time>2013-11-17T08:13:59.170Z</time>
      </trkpt>
      <trkpt lat="48.38613" lon="2.53898">
        <ele>90.994</ele>
        <time>2013-11-17T08:14:02.713Z</time>
      </trkpt>
      <trkpt lat="48.38613" lon="2.53912">
        <ele>96.025</ele>
        <time>2013-11-17T08:14:05.654Z</time>
      </trkpt>
      <trkpt lat="48.38613" lon="2.53928">
        <ele>100.249</ele>
        <time>2013-11-17T08:14:08.966Z</time>
      </trkpt>
      <trkpt lat="48.3861" lon="2.53943">
        <ele>102.133</ele>
        <time>2013-11-17T08:14:12.068Z</time>
      </trkpt>
      <trkpt lat="48.38605" lon="2.53966">
        <ele>102.478</ele>
        <time>2013-11-17T08:14:17.311Z</time>
      </trkpt>
      <trkpt lat="48.38596" lon="2.53982">
        <ele>101.776</ele>
        <time>2013-11-17T08:14:22.495Z</time>
      </trkpt>
      <trkpt lat="48.38592" lon="2.53997">
        <ele>100.041</ele>
        <time>2013-11-17T08:14:26.668Z</time>
      </trkpt>
      <trkpt lat="48.38592" lon="2.54011">
        <ele>98.259</ele>
        <time>2013-11-17T08:14:30.435Z</time>
      </trkpt>
      <trkpt lat="48.38587" lon="2.54024">
        <ele>97.587</ele>
        <time>2013-11-17T08:14:34.139Z</time>
      </trkpt>
      <trkpt lat="48.38582" lon="2.54035">
        <ele>98.027</ele>
        <time>2013-11-17T08:14:37.243Z</time>
      </trkpt>
      <trkpt lat="48.38578" lon="2.54049">
        <ele>98.732</ele>
        <time>2013-11-17T08:14:40.821Z</time>
      </trkpt>
      <trkpt lat="48.38572" lon="2.54061">
        <ele>98.816</ele>
        <time>2013-11-17T08:14:44.383Z</time>
      </trkpt>
      <trkpt lat="48.38565" lon="2.54072">
        <ele>98.236</ele>
        <time>2013-11-17T08:14:48.569Z</time>
      </trkpt>
      <trkpt lat="48.38556" lon="2.54083">
        <ele>98.284</ele>
        <time>2013-11-17T08:14:52.391Z</time>
      </trkpt>
      <trkpt lat="48.3855" lon="2.54093">
        <ele>99.611</ele>
        <time>2013-11-17T08:14:55.446Z</time>
      </trkpt>
      <trkpt lat="48.38542" lon="2.54104">
        <ele>100.78</ele>
        <time>2013-11-17T08:14:58.819Z</time>
      </trkpt>
      <trkpt lat="48.38532" lon="2.54115">
        <ele>100.499</ele>
        <time>2013-11-17T08:15:02.509Z</time>
      </trkpt>
      <trkpt lat="48.38526" lon="2.54127">
        <ele>99.922</ele>
        <time>2013-11-17T08:15:05.687Z</time>
      </trkpt>
      <trkpt lat="48.38522" lon="2.54142">
        <ele>101.504</ele>
        <time>2013-11-17T08:15:08.984Z</time>
      </trkpt>
      <trkpt lat="48.38518" lon="2.54161">
        <ele>105.494</ele>
        <time>2013-11-17T08:15:13.536Z</time>
      </trkpt>
      <trkpt lat="48.38514" lon="2.54175">
        <ele>108.986</ele>
        <time>2013-11-17T08:15:17.217Z</time>
      </trkpt>
      <trkpt lat="48.38511" lon="2.54193">
        <ele>109.974</ele>
        <time>2013-11-17T08:15:21.214Z</time>
      </trkpt>
      <trkpt lat="48.38511" lon="2.5421">
        <ele>109.733</ele>
        <time>2013-11-17T08:15:24.696Z</time>
      </trkpt>
      <trkpt lat="48.38511" lon="2.54227">
        <ele>110.279</ele>
        <time>2013-11-17T08:15:27.936Z</time>
      </trkpt>
      <trkpt lat="48.38511" lon="2.54246">
        <ele>113.758</ele>
        <time>2013-11-17T08:15:31.688Z</time>
      </trkpt>
      <trkpt lat="48.3851" lon="2.5426">
        <ele>120.066</ele>
        <time>2013-11-17T08:15:34.466Z</time>
      </trkpt>
      <trkpt lat="48.38509" lon="2.54279">
        <ele>124.985</ele>
        <time>2013-11-17T08:15:38.372Z</time>
      </trkpt>
      <trkpt lat="48.38508" lon="2.54295">
        <ele>125.546</ele>
        <time>2013-11-17T08:15:41.869Z</time>
      </trkpt>
      <trkpt lat="48.38508" lon="2.54309">
        <ele>122.496</ele>
        <time>2013-11-17T08:15:45.579Z</time>
      </trkpt>
      <trkpt lat="48.38509" lon="2.54328">
        <ele>117.752</ele>
        <time>2013-11-17T08:15:51.014Z</time>
      </trkpt>
      <trkpt lat="48.38509" lon="2.54345">
        <ele>114.103</ele>
        <time>2013-11-17T08:15:56.150Z</time>
      </trkpt>
      <trkpt lat="48.38508" lon="2.54364">
        <ele>113.109</ele>
        <time>2013-11-17T08:16:01.174Z</time>
      </trkpt>
      <trkpt lat="48.38505" lon="2.54381">
        <ele>114.061</ele>
        <time>2013-11-17T08:16:04.831Z</time>
      </trkpt>
      <trkpt lat="48.38508" lon="2.54398">
        <ele>116.26</ele>
        <time>2013-11-17T08:16:08.517Z</time>
      </trkpt>
      <trkpt lat="48.38511" lon="2.54414">
        <ele>118.796</ele>
        <time>2013-11-17T08:16:12.002Z</time>
      </trkpt>
      <trkpt lat="48.3851" lon="2.54428">
        <ele>120.588</ele>
        <time>2013-11-17T08:16:14.725Z</time>
      </trkpt>
      <trkpt lat="48.38509" lon="2.54442">
        <ele>121.061</ele>
        <time>2013-11-17T08:16:17.616Z</time>
      </trkpt>
      <trkpt lat="48.38507" lon="2.54457">
        <ele>120.339</ele>
        <time>2013-11-17T08:16:20.744Z</time>
      </trkpt>
      <trkpt lat="48.38504" lon="2.54474">
        <ele>119.091</ele>
        <time>2013-11-17T08:16:24.473Z</time>
      </trkpt>
      <trkpt lat="48.38501" lon="2.54488">
        <ele>117.523</ele>
        <time>2013-11-17T08:16:27.756Z</time>
      </trkpt>
      <trkpt lat="48.38499" lon="2.54504">
        <ele>115.554</ele>
        <time>2013-11-17T08:16:31.624Z</time>
      </trkpt>
      <trkpt lat="48.38495" lon="2.54523">
        <ele>113.442</ele>
        <time>2013-11-17T08:16:36.282Z</time>
      </trkpt>
      <trkpt lat="48.3849" lon="2.54542">
        <ele>110.384</ele>
        <time>2013-11-17T08:16:40.462Z</time>
      </trkpt>
      <trkpt lat="48.38484" lon="2.54557">
        <ele>106.189</ele>
        <time>2013-11-17T08:16:44.003Z</time>
      </trkpt>
      <trkpt lat="48.38476" lon="2.54565">
        <ele>103.119</ele>
        <time>2013-11-17T08:16:46.994Z</time>
      </trkpt>
      <trkpt lat="48.38476" lon="2.54565">
        <ele>102.593</ele>
        <time>2013-11-17T08:16:56.002Z</time>
      </trkpt>
      <trkpt lat="48.38476" lon="2.54565">
        <ele>103.2</ele>
        <time>2013-11-17T08:16:56.102Z</time>
      </trkpt>
      <trkpt lat="48.38463" lon="2.5455">
        <ele>103.455</ele>
        <time>2013-11-17T08:17:00.992Z</time>
      </trkpt>
      <trkpt lat="48.38463" lon="2.5455">
        <ele>103.332</ele>
        <time>2013-11-17T08:17:08.996Z</time>
      </trkpt>
      <trkpt lat="48.38463" lon="2.5455">
        <ele>103.253</ele>
        <time>2013-11-17T08:17:22.092Z</time>
      </trkpt>
      <trkpt lat="48.38464" lon="2.5452">
        <ele>103.258</ele>
        <time>2013-11-17T08:17:34.566Z</time>
      </trkpt>
      <trkpt lat="48.3846" lon="2.54502">
        <ele>102.873</ele>
        <time>2013-11-17T08:17:38.986Z</time>
      </trkpt>
      <trkpt lat="48.38458" lon="2.54487">
        <ele>101.861</ele>
        <time>2013-11-17T08:17:42.172Z</time>
      </trkpt>
      <trkpt lat="48.38456" lon="2.54472">
        <ele>101.599</ele>
        <time>2013-11-17T08:17:44.794Z</time>
      </trkpt>
      <trkpt lat="48.38451" lon="2.54456">
        <ele>103.112</ele>
        <time>2013-11-17T08:17:47.416Z</time>
      </trkpt>
      <trkpt lat="48.38443" lon="2.54435">
        <ele>103.847</ele>
        <time>2013-11-17T08:17:50.707Z</time>
      </trkpt>
      <trkpt lat="48.38438" lon="2.54415">
        <ele>100.927</ele>
        <time>2013-11-17T08:17:53.488Z</time>
      </trkpt>
      <trkpt lat="48.38437" lon="2.544">
        <ele>95.531</ele>
        <time>2013-11-17T08:17:55.402Z</time>
      </trkpt>
      <trkpt lat="48.38438" lon="2.54384">
        <ele>90.746</ele>
        <time>2013-11-17T08:17:57.378Z</time>
      </trkpt>
      <trkpt lat="48.38438" lon="2.54366">
        <ele>86.928</ele>
        <time>2013-11-17T08:17:59.788Z</time>
      </trkpt>
      <trkpt lat="48.38438" lon="2.54347">
        <ele>86.483</ele>
        <time>2013-11-17T08:18:01.997Z</time>
      </trkpt>
      <trkpt lat="48.38438" lon="2.54347">
        <ele>86.627</ele>
        <time>2013-11-17T08:18:06.989Z</time>
      </trkpt>
      <trkpt lat="48.38438" lon="2.54347">
        <ele>86.831</ele>
        <time>2013-11-17T08:18:07.089Z</time>
      </trkpt>
      <trkpt lat="48.38431" lon="2.5428">
        <ele>86.576</ele>
        <time>2013-11-17T08:18:39.455Z</time>
      </trkpt>
      <trkpt lat="48.38407" lon="2.54206">
        <ele>86.541</ele>
        <time>2013-11-17T08:18:57.062Z</time>
      </trkpt>
      <trkpt lat="48.38399" lon="2.54195">
        <ele>86.48</ele>
        <time>2013-11-17T08:19:00.459Z</time>
      </trkpt>
      <trkpt lat="48.38392" lon="2.54181">
        <ele>86.441</ele>
        <time>2013-11-17T08:19:03.961Z</time>
      </trkpt>
      <trkpt lat="48.38389" lon="2.54155">
        <ele>86.473</ele>
        <time>2013-11-17T08:19:07.939Z</time>
      </trkpt>
      <trkpt lat="48.38385" lon="2.54138">
        <ele>84.855</ele>
        <time>2013-11-17T08:19:10.531Z</time>
      </trkpt>
      <trkpt lat="48.38378" lon="2.54122">
        <ele>80.196</ele>
        <time>2013-11-17T08:19:13.141Z</time>
      </trkpt>
      <trkpt lat="48.38369" lon="2.54107">
        <ele>74.333</ele>
        <time>2013-11-17T08:19:15.742Z</time>
      </trkpt>
      <trkpt lat="48.38359" lon="2.54098">
        <ele>68.683</ele>
        <time>2013-11-17T08:19:18.093Z</time>
      </trkpt>
      <trkpt lat="48.3834" lon="2.54083">
        <ele>62.795</ele>
        <time>2013-11-17T08:19:22.184Z</time>
      </trkpt>
      <trkpt lat="48.38327" lon="2.54072">
        <ele>57.539</ele>
        <time>2013-11-17T08:19:24.937Z</time>
      </trkpt>
      <trkpt lat="48.38313" lon="2.54059">
        <ele>53.549</ele>
        <time>2013-11-17T08:19:27.572Z</time>
      </trkpt>
      <trkpt lat="48.38297" lon="2.54047">
        <ele>49.944</ele>
        <time>2013-11-17T08:19:30.220Z</time>
      </trkpt>
      <trkpt lat="48.38289" lon="2.54039">
        <ele>46.827</ele>
        <time>2013-11-17T08:19:31.659Z</time>
      </trkpt>
      <trkpt lat="48.38281" lon="2.5402">
        <ele>45.123</ele>
        <time>2013-11-17T08:19:34.181Z</time>
      </trkpt>
      <trkpt lat="48.38275" lon="2.54007">
        <ele>45.089</ele>
        <time>2013-11-17T08:19:36.570Z</time>
      </trkpt>
      <trkpt lat="48.38265" lon="2.54017">
        <ele>45.849</ele>
        <time>2013-11-17T08:19:39.569Z</time>
      </trkpt>
      <trkpt lat="48.38257" lon="2.54031">
        <ele>44.629</ele>
        <time>2013-11-17T08:19:42.822Z</time>
      </trkpt>
      <trkpt lat="48.38245" lon="2.54041">
        <ele>40.137</ele>
        <time>2013-11-17T08:19:46.677Z</time>
      </trkpt>
      <trkpt lat="48.38233" lon="2.54049">
        <ele>34.185</ele>
        <time>2013-11-17T08:19:49.970Z</time>
      </trkpt>
      <trkpt lat="48.3822" lon="2.54061">
        <ele>28.363</ele>
        <time>2013-11-17T08:19:53.274Z</time>
      </trkpt>
      <trkpt lat="48.38211" lon="2.54069">
        <ele>23.162</ele>
        <time>2013-11-17T08:19:55.620Z</time>
      </trkpt>
      <trkpt lat="48.38197" lon="2.5408">
        <ele>19.341</ele>
        <time>2013-11-17T08:19:58.781Z</time>
      </trkpt>
      <trkpt lat="48.38182" lon="2.54092">
        <ele>16.833</ele>
        <time>2013-11-17T08:20:02.212Z</time>
      </trkpt>
      <trkpt lat="48.38163" lon="2.54105">
        <ele>14.348</ele>
        <time>2013-11-17T08:20:05.968Z</time>
      </trkpt>
      <trkpt lat="48.38151" lon="2.5411">
        <ele>10.721</ele>
        <time>2013-11-17T08:20:08.013Z</time>
      </trkpt>
      <trkpt lat="48.38134" lon="2.54117">
        <ele>6.738</ele>
        <time>2013-11-17T08:20:10.732Z</time>
      </trkpt>
      <trkpt lat="48.38125" lon="2.54122">
        <ele>4.108</ele>
        <time>2013-11-17T08:20:12.338Z</time>
      </trkpt>
      <trkpt lat="48.38115" lon="2.54128">
        <ele>3.679</ele>
        <time>2013-11-17T08:20:14.125Z</time>
      </trkpt>
      <trkpt lat="48.38098" lon="2.5413">
        <ele>4.931</ele>
        <time>2013-11-17T08:20:17.328Z</time>
      </trkpt>
      <trkpt lat="48.38088" lon="2.54133">
        <ele>6.421</ele>
        <time>2013-11-17T08:20:19.267Z</time>
      </trkpt>
      <trkpt lat="48.38072" lon="2.54138">
        <ele>6.894</ele>
        <time>2013-11-17T08:20:22.293Z</time>
      </trkpt>
      <trkpt lat="48.38063" lon="2.54142">
        <ele>6.349</ele>
        <time>2013-11-17T08:20:24.095Z</time>
      </trkpt>
      <trkpt lat="48.38049" lon="2.54159">
        <ele>5.712</ele>
        <time>2013-11-17T08:20:27.772Z</time>
      </trkpt>
      <trkpt lat="48.38038" lon="2.54172">
        <ele>6.019</ele>
        <time>2013-11-17T08:20:31.246Z</time>
      </trkpt>
      <trkpt lat="48.38028" lon="2.54185">
        <ele>7.114</ele>
        <time>2013-11-17T08:20:35.994Z</time>
      </trkpt>
      <trkpt lat="48.38028" lon="2.54185">
        <ele>7.854</ele>
        <time>2013-11-17T08:20:40.981Z</time>
      </trkpt>
      <trkpt lat="48.38028" lon="2.54185">
        <ele>7.865</ele>
        <time>2013-11-17T08:20:41.081Z</time>
      </trkpt>
      <trkpt lat="48.38015" lon="2.54203">
        <ele>7.712</ele>
        <time>2013-11-17T08:20:49.492Z</time>
      </trkpt>
      <trkpt lat="48.38013" lon="2.54223">
        <ele>8.63</ele>
        <time>2013-11-17T08:20:52.983Z</time>
      </trkpt>
      <trkpt lat="48.38013" lon="2.5425">
        <ele>11.305</ele>
        <time>2013-11-17T08:20:57.752Z</time>
      </trkpt>
      <trkpt lat="48.38008" lon="2.54263">
        <ele>17.527</ele>
        <time>2013-11-17T08:21:00.204Z</time>
      </trkpt>
      <trkpt lat="48.38002" lon="2.54281">
        <ele>28.842</ele>
        <time>2013-11-17T08:21:03.155Z</time>
      </trkpt>
      <trkpt lat="48.37995" lon="2.54289">
        <ele>41.765</ele>
        <time>2013-11-17T08:21:04.989Z</time>
      </trkpt>
      <trkpt lat="48.37995" lon="2.54289">
        <ele>50.73</ele>
        <time>2013-11-17T08:21:04.989Z</time>
      </trkpt>
      <trkpt lat="48.37995" lon="2.54289">
        <ele>54.152</ele>
        <time>2013-11-17T08:21:06.574Z</time>
      </trkpt>
      <trkpt lat="48.37992" lon="2.54316">
        <ele>53.587</ele>
        <time>2013-11-17T08:21:17.309Z</time>
      </trkpt>
      <trkpt lat="48.37991" lon="2.54332">
        <ele>53.69</ele>
        <time>2013-11-17T08:21:22.495Z</time>
      </trkpt>
      <trkpt lat="48.37991" lon="2.54347">
        <ele>57.514</ele>
        <time>2013-11-17T08:21:27.394Z</time>
      </trkpt>
      <trkpt lat="48.37989" lon="2.5436">
        <ele>62.584</ele>
        <time>2013-11-17T08:21:31.743Z</time>
      </trkpt>
      <trkpt lat="48.37985" lon="2.54374">
        <ele>66.815</ele>
        <time>2013-11-17T08:21:35.644Z</time>
      </trkpt>
      <trkpt lat="48.37978" lon="2.54385">
        <ele>70.942</ele>
        <time>2013-11-17T08:21:39.590Z</time>
      </trkpt>
      <trkpt lat="48.37968" lon="2.54382">
        <ele>73.418</ele>
        <time>2013-11-17T08:21:43.847Z</time>
      </trkpt>
      <trkpt lat="48.37958" lon="2.54376">
        <ele>72.78</ele>
        <time>2013-11-17T08:21:48.414Z</time>
      </trkpt>
      <trkpt lat="48.37904" lon="2.54369">
        <ele>68.673</ele>
        <time>2013-11-17T08:22:06.915Z</time>
      </trkpt>
      <trkpt lat="48.37894" lon="2.54372">
        <ele>64.266</ele>
        <time>2013-11-17T08:22:09.544Z</time>
      </trkpt>
      <trkpt lat="48.37882" lon="2.54372">
        <ele>57.81</ele>
        <time>2013-11-17T08:22:12.438Z</time>
      </trkpt>
      <trkpt lat="48.37871" lon="2.54369">
        <ele>52.819</ele>
        <time>2013-11-17T08:22:14.847Z</time>
      </trkpt>
      <trkpt lat="48.37859" lon="2.54366">
        <ele>51.41</ele>
        <time>2013-11-17T08:22:17.817Z</time>
      </trkpt>
      <trkpt lat="48.37849" lon="2.54365">
        <ele>52.407</ele>
        <time>2013-11-17T08:22:20.127Z</time>
      </trkpt>
      <trkpt lat="48.37833" lon="2.54364">
        <ele>53.321</ele>
        <time>2013-11-17T08:22:23.991Z</time>
      </trkpt>
      <trkpt lat="48.37833" lon="2.54364">
        <ele>52.774</ele>
        <time>2013-11-17T08:22:24.988Z</time>
      </trkpt>
      <trkpt lat="48.37833" lon="2.54364">
        <ele>51.849</ele>
        <time>2013-11-17T08:22:25.088Z</time>
      </trkpt>
      <trkpt lat="48.37802" lon="2.54371">
        <ele>51.787</ele>
        <time>2013-11-17T08:22:32.009Z</time>
      </trkpt>
      <trkpt lat="48.37791" lon="2.54376">
        <ele>51.769</ele>
        <time>2013-11-17T08:22:35.989Z</time>
      </trkpt>
      <trkpt lat="48.37791" lon="2.54376">
        <ele>50.856</ele>
        <time>2013-11-17T08:22:35.990Z</time>
      </trkpt>
      <trkpt lat="48.37791" lon="2.54376">
        <ele>49.68</ele>
        <time>2013-11-17T08:22:36.090Z</time>
      </trkpt>
      <trkpt lat="48.3778" lon="2.54384">
        <ele>49.056</ele>
        <time>2013-11-17T08:22:41.955Z</time>
      </trkpt>
      <trkpt lat="48.37771" lon="2.54389">
        <ele>48.765</ele>
        <time>2013-11-17T08:22:45.249Z</time>
      </trkpt>
      <trkpt lat="48.37761" lon="2.544">
        <ele>47.36</ele>
        <time>2013-11-17T08:22:48.957Z</time>
      </trkpt>
      <trkpt lat="48.37752" lon="2.54406">
        <ele>44.069</ele>
        <time>2013-11-17T08:22:52.304Z</time>
      </trkpt>
      <trkpt lat="48.37741" lon="2.54418">
        <ele>39.862</ele>
        <time>2013-11-17T08:22:56.810Z</time>
      </trkpt>
      <trkpt lat="48.37729" lon="2.54433">
        <ele>36.105</ele>
        <time>2013-11-17T08:23:02.080Z</time>
      </trkpt>
      <trkpt lat="48.3772" lon="2.54439">
        <ele>34.128</ele>
        <time>2013-11-17T08:23:05.019Z</time>
      </trkpt>
      <trkpt lat="48.37711" lon="2.54449">
        <ele>34.416</ele>
        <time>2013-11-17T08:23:08.405Z</time>
      </trkpt>
      <trkpt lat="48.37702" lon="2.54456">
        <ele>34.897</ele>
        <time>2013-11-17T08:23:11.338Z</time>
      </trkpt>
      <trkpt lat="48.37695" lon="2.54468">
        <ele>33.92</ele>
        <time>2013-11-17T08:23:14.994Z</time>
      </trkpt>
      <trkpt lat="48.37695" lon="2.54468">
        <ele>32.694</ele>
        <time>2013-11-17T08:23:22.988Z</time>
      </trkpt>
      <trkpt lat="48.37695" lon="2.54468">
        <ele>32.652</ele>
        <time>2013-11-17T08:23:35.010Z</time>
      </trkpt>
      <trkpt lat="48.37688" lon="2.54504">
        <ele>33.295</ele>
        <time>2013-11-17T08:24:07.996Z</time>
      </trkpt>
      <trkpt lat="48.37688" lon="2.54504">
        <ele>33.704</ele>
        <time>2013-11-17T08:24:16.997Z</time>
      </trkpt>
      <trkpt lat="48.37688" lon="2.54504">
        <ele>33.725</ele>
        <time>2013-11-17T08:26:20.255Z</time>
      </trkpt>
      <trkpt lat="48.3769" lon="2.54518">
        <ele>33.631</ele>
        <time>2013-11-17T08:26:38.947Z</time>
      </trkpt>
      <trkpt lat="48.37688" lon="2.54531">
        <ele>38.797</ele>
        <time>2013-11-17T08:26:48.714Z</time>
      </trkpt>
      <trkpt lat="48.37683" lon="2.54544">
        <ele>52.327</ele>
        <time>2013-11-17T08:26:57.218Z</time>
      </trkpt>
      <trkpt lat="48.37681" lon="2.5456">
        <ele>66.513</ele>
        <time>2013-11-17T08:27:05.554Z</time>
      </trkpt>
      <trkpt lat="48.37682" lon="2.54574">
        <ele>73.736</ele>
        <time>2013-11-17T08:27:12.218Z</time>
      </trkpt>
      <trkpt lat="48.37678" lon="2.5459">
        <ele>75.525</ele>
        <time>2013-11-17T08:27:18.279Z</time>
      </trkpt>
      <trkpt lat="48.37677" lon="2.54604">
        <ele>75.18</ele>
        <time>2013-11-17T08:27:22.949Z</time>
      </trkpt>
      <trkpt lat="48.37671" lon="2.54615">
        <ele>73.742</ele>
        <time>2013-11-17T08:27:27.402Z</time>
      </trkpt>
      <trkpt lat="48.37666" lon="2.54629">
        <ele>70.986</ele>
        <time>2013-11-17T08:27:32.726Z</time>
      </trkpt>
      <trkpt lat="48.37662" lon="2.54642">
        <ele>68.094</ele>
        <time>2013-11-17T08:27:37.775Z</time>
      </trkpt>
      <trkpt lat="48.3766" lon="2.54657">
        <ele>67.378</ele>
        <time>2013-11-17T08:27:43.756Z</time>
      </trkpt>
      <trkpt lat="48.37663" lon="2.54672">
        <ele>70.082</ele>
        <time>2013-11-17T08:27:50.202Z</time>
      </trkpt>
      <trkpt lat="48.3767" lon="2.54688">
        <ele>74.773</ele>
        <time>2013-11-17T08:27:56.662Z</time>
      </trkpt>
      <trkpt lat="48.37672" lon="2.54704">
        <ele>79.482</ele>
        <time>2013-11-17T08:28:01.654Z</time>
      </trkpt>
      <trkpt lat="48.37679" lon="2.54717">
        <ele>84.234</ele>
        <time>2013-11-17T08:28:07.370Z</time>
      </trkpt>
      <trkpt lat="48.37686" lon="2.54725">
        <ele>92.1</ele>
        <time>2013-11-17T08:28:13.175Z</time>
      </trkpt>
      <trkpt lat="48.37696" lon="2.5473">
        <ele>95.171</ele>
        <time>2013-11-17T08:28:20.947Z</time>
      </trkpt>
      <trkpt lat="48.37705" lon="2.54732">
        <ele>96.357</ele>
        <time>2013-11-17T08:28:27.979Z</time>
      </trkpt>
      <trkpt lat="48.37714" lon="2.5473">
        <ele>98.526</ele>
        <time>2013-11-17T08:28:33.934Z</time>
      </trkpt>
      <trkpt lat="48.37724" lon="2.54725">
        <ele>100.872</ele>
        <time>2013-11-17T08:28:41.104Z</time>
      </trkpt>
      <trkpt lat="48.37735" lon="2.5472">
        <ele>99.279</ele>
        <time>2013-11-17T08:28:50.399Z</time>
      </trkpt>
      <trkpt lat="48.37747" lon="2.5472">
        <ele>100.601</ele>
        <time>2013-11-17T08:29:01.333Z</time>
      </trkpt>
      <trkpt lat="48.37759" lon="2.54722">
        <ele>103.05</ele>
        <time>2013-11-17T08:29:10.938Z</time>
      </trkpt>
      <trkpt lat="48.37771" lon="2.54725">
        <ele>106.834</ele>
        <time>2013-11-17T08:29:18.998Z</time>
      </trkpt>
      <trkpt lat="48.37771" lon="2.54725">
        <ele>112.246</ele>
        <time>2013-11-17T08:29:24.991Z</time>
      </trkpt>
      <trkpt lat="48.37771" lon="2.54725">
        <ele>115.49</ele>
        <time>2013-11-17T08:29:25.091Z</time>
      </trkpt>
      <trkpt lat="48.37818" lon="2.54738">
        <ele>114.49</ele>
        <time>2013-11-17T08:29:59.398Z</time>
      </trkpt>
      <trkpt lat="48.37829" lon="2.54739">
        <ele>106.557</ele>
        <time>2013-11-17T08:30:03.428Z</time>
      </trkpt>
      <trkpt lat="48.3784" lon="2.54743">
        <ele>92.254</ele>
        <time>2013-11-17T08:30:07.541Z</time>
      </trkpt>
      <trkpt lat="48.37851" lon="2.54745">
        <ele>79.316</ele>
        <time>2013-11-17T08:30:12.482Z</time>
      </trkpt>
      <trkpt lat="48.37861" lon="2.54749">
        <ele>73.46</ele>
        <time>2013-11-17T08:30:16.429Z</time>
      </trkpt>
      <trkpt lat="48.3787" lon="2.54751">
        <ele>72.834</ele>
        <time>2013-11-17T08:30:19.999Z</time>
      </trkpt>
      <trkpt lat="48.3787" lon="2.54751">
        <ele>74.185</ele>
        <time>2013-11-17T08:30:26.997Z</time>
      </trkpt>
      <trkpt lat="48.3787" lon="2.54751">
        <ele>75.158</ele>
        <time>2013-11-17T08:30:27.097Z</time>
      </trkpt>
      <trkpt lat="48.37916" lon="2.54723">
        <ele>74.68</ele>
        <time>2013-11-17T08:31:08.492Z</time>
      </trkpt>
      <trkpt lat="48.37926" lon="2.54723">
        <ele>78.988</ele>
        <time>2013-11-17T08:31:13.783Z</time>
      </trkpt>
      <trkpt lat="48.3794" lon="2.54726">
        <ele>90.566</ele>
        <time>2013-11-17T08:31:21.300Z</time>
      </trkpt>
      <trkpt lat="48.37948" lon="2.54739">
        <ele>102.44</ele>
        <time>2013-11-17T08:31:28.339Z</time>
      </trkpt>
      <trkpt lat="48.37956" lon="2.54755">
        <ele>109.026</ele>
        <time>2013-11-17T08:31:32.702Z</time>
      </trkpt>
      <trkpt lat="48.37965" lon="2.54761">
        <ele>111.561</ele>
        <time>2013-11-17T08:31:35.226Z</time>
      </trkpt>
      <trkpt lat="48.37975" lon="2.54768">
        <ele>111.106</ele>
        <time>2013-11-17T08:31:38.001Z</time>
      </trkpt>
      <trkpt lat="48.37975" lon="2.54768">
        <ele>109.277</ele>
        <time>2013-11-17T08:31:38.001Z</time>
      </trkpt>
      <trkpt lat="48.37975" lon="2.54768">
        <ele>108.202</ele>
        <time>2013-11-17T08:31:38.101Z</time>
      </trkpt>
      <trkpt lat="48.37996" lon="2.54774">
        <ele>108.241</ele>
        <time>2013-11-17T08:31:47.302Z</time>
      </trkpt>
      <trkpt lat="48.38004" lon="2.54778">
        <ele>108.766</ele>
        <time>2013-11-17T08:31:49.421Z</time>
      </trkpt>
      <trkpt lat="48.38019" lon="2.54794">
        <ele>109.87</ele>
        <time>2013-11-17T08:31:52.693Z</time>
      </trkpt>
      <trkpt lat="48.38026" lon="2.54805">
        <ele>111.865</ele>
        <time>2013-11-17T08:31:54.536Z</time>
      </trkpt>
      <trkpt lat="48.38034" lon="2.54825">
        <ele>113.542</ele>
        <time>2013-11-17T08:31:57.248Z</time>
      </trkpt>
      <trkpt lat="48.38037" lon="2.54842">
        <ele>113.282</ele>
        <time>2013-11-17T08:31:59.482Z</time>
      </trkpt>
      <trkpt lat="48.38041" lon="2.54859">
        <ele>110.967</ele>
        <time>2013-11-17T08:32:02.004Z</time>
      </trkpt>
      <trkpt lat="48.38041" lon="2.54859">
        <ele>107.992</ele>
        <time>2013-11-17T08:32:02.004Z</time>
      </trkpt>
      <trkpt lat="48.38041" lon="2.54859">
        <ele>106.282</ele>
        <time>2013-11-17T08:32:02.104Z</time>
      </trkpt>
      <trkpt lat="48.38052" lon="2.54881">
        <ele>106.649</ele>
        <time>2013-11-17T08:32:13.777Z</time>
      </trkpt>
      <trkpt lat="48.38056" lon="2.54895">
        <ele>108.226</ele>
        <time>2013-11-17T08:32:17.769Z</time>
      </trkpt>
      <trkpt lat="48.38059" lon="2.54912">
        <ele>109.598</ele>
        <time>2013-11-17T08:32:21.841Z</time>
      </trkpt>
      <trkpt lat="48.38065" lon="2.54922">
        <ele>110.184</ele>
        <time>2013-11-17T08:32:24.850Z</time>
      </trkpt>
      <trkpt lat="48.38074" lon="2.54929">
        <ele>109.983</ele>
        <time>2013-11-17T08:32:27.850Z</time>
      </trkpt>
      <trkpt lat="48.38083" lon="2.54928">
        <ele>109.193</ele>
        <time>2013-11-17T08:32:30.995Z</time>
      </trkpt>
      <trkpt lat="48.38083" lon="2.54928">
        <ele>108.532</ele>
        <time>2013-11-17T08:32:51.004Z</time>
      </trkpt>
      <trkpt lat="48.38083" lon="2.54928">
        <ele>108.5</ele>
        <time>2013-11-17T08:32:51.104Z</time>
      </trkpt>
      <trkpt lat="48.38099" lon="2.5491">
        <ele>108.702</ele>
        <time>2013-11-17T08:33:16.357Z</time>
      </trkpt>
      <trkpt lat="48.381" lon="2.54896">
        <ele>107.604</ele>
        <time>2013-11-17T08:33:20.438Z</time>
      </trkpt>
      <trkpt lat="48.38104" lon="2.5488">
        <ele>104.408</ele>
        <time>2013-11-17T08:33:24.545Z</time>
      </trkpt>
      <trkpt lat="48.38109" lon="2.54865">
        <ele>100.653</ele>
        <time>2013-11-17T08:33:28.127Z</time>
      </trkpt>
      <trkpt lat="48.3811" lon="2.54849">
        <ele>98.165</ele>
        <time>2013-11-17T08:33:31.125Z</time>
      </trkpt>
      <trkpt lat="48.38115" lon="2.54834">
        <ele>97.33</ele>
        <time>2013-11-17T08:33:34.463Z</time>
      </trkpt>
      <trkpt lat="48.38122" lon="2.54823">
        <ele>97.719</ele>
        <time>2013-11-17T08:33:37.108Z</time>
      </trkpt>
      <trkpt lat="48.38127" lon="2.54805">
        <ele>98.334</ele>
        <time>2013-11-17T08:33:40.746Z</time>
      </trkpt>
      <trkpt lat="48.38156" lon="2.54745">
        <ele>98.421</ele>
        <time>2013-11-17T08:33:54.861Z</time>
      </trkpt>
      <trkpt lat="48.38164" lon="2.54731">
        <ele>98.283</ele>
        <time>2013-11-17T08:33:58.625Z</time>
      </trkpt>
      <trkpt lat="48.38173" lon="2.54722">
        <ele>97.607</ele>
        <time>2013-11-17T08:34:02.117Z</time>
      </trkpt>
      <trkpt lat="48.38179" lon="2.54711">
        <ele>95.409</ele>
        <time>2013-11-17T08:34:05.074Z</time>
      </trkpt>
      <trkpt lat="48.38223" lon="2.54678">
        <ele>90.631</ele>
        <time>2013-11-17T08:34:20.200Z</time>
      </trkpt>
      <trkpt lat="48.38233" lon="2.54676">
        <ele>93.407</ele>
        <time>2013-11-17T08:34:22.870Z</time>
      </trkpt>
      <trkpt lat="48.38243" lon="2.54669">
        <ele>99.652</ele>
        <time>2013-11-17T08:34:26.204Z</time>
      </trkpt>
      <trkpt lat="48.38253" lon="2.54661">
        <ele>105.16</ele>
        <time>2013-11-17T08:34:30.122Z</time>
      </trkpt>
      <trkpt lat="48.38262" lon="2.54657">
        <ele>109.015</ele>
        <time>2013-11-17T08:34:33.630Z</time>
      </trkpt>
      <trkpt lat="48.38272" lon="2.54652">
        <ele>113.175</ele>
        <time>2013-11-17T08:34:38.201Z</time>
      </trkpt>
      <trkpt lat="48.38285" lon="2.54646">
        <ele>117.551</ele>
        <time>2013-11-17T08:34:44.840Z</time>
      </trkpt>
      <trkpt lat="48.38294" lon="2.54643">
        <ele>121.062</ele>
        <time>2013-11-17T08:34:50.211Z</time>
      </trkpt>
      <trkpt lat="48.38304" lon="2.54641">
        <ele>123.232</ele>
        <time>2013-11-17T08:34:57.011Z</time>
      </trkpt>
      <trkpt lat="48.38304" lon="2.54641">
        <ele>123.889</ele>
        <time>2013-11-17T08:34:57.996Z</time>
      </trkpt>
      <trkpt lat="48.38304" lon="2.54641">
        <ele>123.691</ele>
        <time>2013-11-17T08:34:58.096Z</time>
      </trkpt>
      <trkpt lat="48.38319" lon="2.54634">
        <ele>123.314</ele>
        <time>2013-11-17T08:35:08.395Z</time>
      </trkpt>
      <trkpt lat="48.38328" lon="2.54628">
        <ele>121.096</ele>
        <time>2013-11-17T08:35:12.208Z</time>
      </trkpt>
      <trkpt lat="48.38339" lon="2.54617">
        <ele>115.758</ele>
        <time>2013-11-17T08:35:16.436Z</time>
      </trkpt>
      <trkpt lat="48.38348" lon="2.54617">
        <ele>109.361</ele>
        <time>2013-11-17T08:35:19.494Z</time>
      </trkpt>
      <trkpt lat="48.3836" lon="2.54617">
        <ele>104.188</ele>
        <time>2013-11-17T08:35:23.069Z</time>
      </trkpt>
      <trkpt lat="48.38371" lon="2.54617">
        <ele>100.877</ele>
        <time>2013-11-17T08:35:26.004Z</time>
      </trkpt>
      <trkpt lat="48.38371" lon="2.54617">
        <ele>99.65</ele>
        <time>2013-11-17T08:35:26.998Z</time>
      </trkpt>
      <trkpt lat="48.38371" lon="2.54617">
        <ele>99.669</ele>
        <time>2013-11-17T08:35:27.098Z</time>
      </trkpt>
      <trkpt lat="48.38393" lon="2.54608">
        <ele>100.085</ele>
        <time>2013-11-17T08:35:34.868Z</time>
      </trkpt>
      <trkpt lat="48.38406" lon="2.54599">
        <ele>103.054</ele>
        <time>2013-11-17T08:35:38.560Z</time>
      </trkpt>
      <trkpt lat="48.38419" lon="2.54593">
        <ele>110.314</ele>
        <time>2013-11-17T08:35:44.164Z</time>
      </trkpt>
      <trkpt lat="48.38425" lon="2.54582">
        <ele>118.129</ele>
        <time>2013-11-17T08:35:47.617Z</time>
      </trkpt>
      <trkpt lat="48.38434" lon="2.54577">
        <ele>121.503</ele>
        <time>2013-11-17T08:35:50.279Z</time>
      </trkpt>
      <trkpt lat="48.38443" lon="2.54575">
        <ele>120.199</ele>
        <time>2013-11-17T08:35:52.822Z</time>
      </trkpt>
      <trkpt lat="48.38454" lon="2.54576">
        <ele>116.969</ele>
        <time>2013-11-17T08:35:55.383Z</time>
      </trkpt>
      <trkpt lat="48.38464" lon="2.5458">
        <ele>114.263</ele>
        <time>2013-11-17T08:35:57.712Z</time>
      </trkpt>
      <trkpt lat="48.38475" lon="2.54588">
        <ele>112.725</ele>
        <time>2013-11-17T08:36:00.349Z</time>
      </trkpt>
      <trkpt lat="48.3848" lon="2.54599">
        <ele>112.214</ele>
        <time>2013-11-17T08:36:02.237Z</time>
      </trkpt>
      <trkpt lat="48.38482" lon="2.54617">
        <ele>112.267</ele>
        <time>2013-11-17T08:36:04.777Z</time>
      </trkpt>
      <trkpt lat="48.38478" lon="2.54629">
        <ele>111.913</ele>
        <time>2013-11-17T08:36:06.906Z</time>
      </trkpt>
      <trkpt lat="48.38471" lon="2.54652">
        <ele>110.457</ele>
        <time>2013-11-17T08:36:10.443Z</time>
      </trkpt>
      <trkpt lat="48.38466" lon="2.5467">
        <ele>107.655</ele>
        <time>2013-11-17T08:36:13.246Z</time>
      </trkpt>
      <trkpt lat="48.38458" lon="2.54682">
        <ele>103.365</ele>
        <time>2013-11-17T08:36:15.938Z</time>
      </trkpt>
      <trkpt lat="48.38447" lon="2.5469">
        <ele>98.198</ele>
        <time>2013-11-17T08:36:18.688Z</time>
      </trkpt>
      <trkpt lat="48.38438" lon="2.54698">
        <ele>92.945</ele>
        <time>2013-11-17T08:36:21.329Z</time>
      </trkpt>
      <trkpt lat="48.3843" lon="2.54707">
        <ele>88.253</ele>
        <time>2013-11-17T08:36:23.808Z</time>
      </trkpt>
      <trkpt lat="48.3842" lon="2.54713">
        <ele>85.175</ele>
        <time>2013-11-17T08:36:26.395Z</time>
      </trkpt>
      <trkpt lat="48.38407" lon="2.54719">
        <ele>83.748</ele>
        <time>2013-11-17T08:36:29.606Z</time>
      </trkpt>
      <trkpt lat="48.38397" lon="2.54726">
        <ele>83.084</ele>
        <time>2013-11-17T08:36:32.003Z</time>
      </trkpt>
      <trkpt lat="48.38397" lon="2.54726">
        <ele>82.826</ele>
        <time>2013-11-17T08:36:32.998Z</time>
      </trkpt>
      <trkpt lat="48.38397" lon="2.54726">
        <ele>82.832</ele>
        <time>2013-11-17T08:36:33.098Z</time>
      </trkpt>
      <trkpt lat="48.38375" lon="2.54758">
        <ele>82.882</ele>
        <time>2013-11-17T08:36:38.997Z</time>
      </trkpt>
      <trkpt lat="48.38368" lon="2.54766">
        <ele>82.308</ele>
        <time>2013-11-17T08:36:39.998Z</time>
      </trkpt>
      <trkpt lat="48.38368" lon="2.54766">
        <ele>80.823</ele>
        <time>2013-11-17T08:36:40.996Z</time>
      </trkpt>
      <trkpt lat="48.38368" lon="2.54766">
        <ele>79.593</ele>
        <time>2013-11-17T08:36:41.096Z</time>
      </trkpt>
      <trkpt lat="48.38351" lon="2.54786">
        <ele>79.583</ele>
        <time>2013-11-17T08:36:46.402Z</time>
      </trkpt>
      <trkpt lat="48.38336" lon="2.54808">
        <ele>79.007</ele>
        <time>2013-11-17T08:36:49.453Z</time>
      </trkpt>
      <trkpt lat="48.38326" lon="2.54823">
        <ele>76.269</ele>
        <time>2013-11-17T08:36:51.515Z</time>
      </trkpt>
      <trkpt lat="48.38319" lon="2.5485">
        <ele>72.214</ele>
        <time>2013-11-17T08:36:54.106Z</time>
      </trkpt>
      <trkpt lat="48.38318" lon="2.5488">
        <ele>67.563</ele>
        <time>2013-11-17T08:36:56.819Z</time>
      </trkpt>
      <trkpt lat="48.38315" lon="2.54908">
        <ele>62.25</ele>
        <time>2013-11-17T08:36:59.343Z</time>
      </trkpt>
      <trkpt lat="48.3831" lon="2.54938">
        <ele>57.126</ele>
        <time>2013-11-17T08:37:02.113Z</time>
      </trkpt>
      <trkpt lat="48.38305" lon="2.54963">
        <ele>52.738</ele>
        <time>2013-11-17T08:37:04.370Z</time>
      </trkpt>
      <trkpt lat="48.38297" lon="2.54996">
        <ele>47.991</ele>
        <time>2013-11-17T08:37:07.519Z</time>
      </trkpt>
      <trkpt lat="48.38291" lon="2.55022">
        <ele>42.207</ele>
        <time>2013-11-17T08:37:09.996Z</time>
      </trkpt>
      <trkpt lat="48.38291" lon="2.55022">
        <ele>37.185</ele>
        <time>2013-11-17T08:37:11.083Z</time>
      </trkpt>
      <trkpt lat="48.38291" lon="2.55022">
        <ele>34.959</ele>
        <time>2013-11-17T08:37:11.183Z</time>
      </trkpt>
      <trkpt lat="48.38294" lon="2.5505">
        <ele>35.699</ele>
        <time>2013-11-17T08:37:30.926Z</time>
      </trkpt>
      <trkpt lat="48.38291" lon="2.55035">
        <ele>38.838</ele>
        <time>2013-11-17T08:37:38.082Z</time>
      </trkpt>
      <trkpt lat="48.38335" lon="2.55051">
        <ele>44.681</ele>
        <time>2013-11-17T08:38:09.767Z</time>
      </trkpt>
      <trkpt lat="48.3834" lon="2.55063">
        <ele>63.451</ele>
        <time>2013-11-17T08:38:14.683Z</time>
      </trkpt>
      <trkpt lat="48.38346" lon="2.55073">
        <ele>91.679</ele>
        <time>2013-11-17T08:38:19.688Z</time>
      </trkpt>
      <trkpt lat="48.38356" lon="2.55077">
        <ele>113.167</ele>
        <time>2013-11-17T08:38:25.419Z</time>
      </trkpt>
      <trkpt lat="48.38365" lon="2.55078">
        <ele>120.686</ele>
        <time>2013-11-17T08:38:30.782Z</time>
      </trkpt>
      <trkpt lat="48.38375" lon="2.55081">
        <ele>119.17</ele>
        <time>2013-11-17T08:38:35.647Z</time>
      </trkpt>
      <trkpt lat="48.38385" lon="2.55084">
        <ele>116.126</ele>
        <time>2013-11-17T08:38:39.992Z</time>
      </trkpt>
      <trkpt lat="48.38385" lon="2.55084">
        <ele>115.738</ele>
        <time>2013-11-17T08:38:44.992Z</time>
      </trkpt>
      <trkpt lat="48.38385" lon="2.55084">
        <ele>116.757</ele>
        <time>2013-11-17T08:38:45.092Z</time>
      </trkpt>
      <trkpt lat="48.3841" lon="2.55102">
        <ele>116.935</ele>
        <time>2013-11-17T08:38:57.637Z</time>
      </trkpt>
      <trkpt lat="48.38424" lon="2.55114">
        <ele>115.31</ele>
        <time>2013-11-17T08:39:01.605Z</time>
      </trkpt>
      <trkpt lat="48.38438" lon="2.55122">
        <ele>111.904</ele>
        <time>2013-11-17T08:39:05.039Z</time>
      </trkpt>
      <trkpt lat="48.38449" lon="2.55131">
        <ele>108.624</ele>
        <time>2013-11-17T08:39:07.601Z</time>
      </trkpt>
      <trkpt lat="48.38464" lon="2.55138">
        <ele>106.771</ele>
        <time>2013-11-17T08:39:10.629Z</time>
      </trkpt>
      <trkpt lat="48.38473" lon="2.55144">
        <ele>105.542</ele>
        <time>2013-11-17T08:39:12.717Z</time>
      </trkpt>
      <trkpt lat="48.38492" lon="2.5516">
        <ele>104.626</ele>
        <time>2013-11-17T08:39:16.933Z</time>
      </trkpt>
      <trkpt lat="48.38499" lon="2.55174">
        <ele>103.966</ele>
        <time>2013-11-17T08:39:19.187Z</time>
      </trkpt>
      <trkpt lat="48.38503" lon="2.55187">
        <ele>103.652</ele>
        <time>2013-11-17T08:39:20.926Z</time>
      </trkpt>
      <trkpt lat="48.38507" lon="2.55202">
        <ele>104.24</ele>
        <time>2013-11-17T08:39:22.999Z</time>
      </trkpt>
      <trkpt lat="48.38512" lon="2.55215">
        <ele>105.628</ele>
        <time>2013-11-17T08:39:24.814Z</time>
      </trkpt>
      <trkpt lat="48.38516" lon="2.55233">
        <ele>107.132</ele>
        <time>2013-11-17T08:39:27.068Z</time>
      </trkpt>
      <trkpt lat="48.38517" lon="2.55251">
        <ele>107.113</ele>
        <time>2013-11-17T08:39:29.140Z</time>
      </trkpt>
      <trkpt lat="48.38518" lon="2.55267">
        <ele>104.146</ele>
        <time>2013-11-17T08:39:31.000Z</time>
      </trkpt>
      <trkpt lat="48.38518" lon="2.55267">
        <ele>99.905</ele>
        <time>2013-11-17T08:39:31.000Z</time>
      </trkpt>
      <trkpt lat="48.38518" lon="2.55267">
        <ele>97.472</ele>
        <time>2013-11-17T08:39:31.100Z</time>
      </trkpt>
      <trkpt lat="48.38519" lon="2.55295">
        <ele>97.606</ele>
        <time>2013-11-17T08:39:38.299Z</time>
      </trkpt>
      <trkpt lat="48.38518" lon="2.55315">
        <ele>97.827</ele>
        <time>2013-11-17T08:39:41.764Z</time>
      </trkpt>
      <trkpt lat="48.38518" lon="2.55335">
        <ele>95.312</ele>
        <time>2013-11-17T08:39:45.045Z</time>
      </trkpt>
      <trkpt lat="48.38516" lon="2.55354">
        <ele>90.776</ele>
        <time>2013-11-17T08:39:48.270Z</time>
      </trkpt>
      <trkpt lat="48.38515" lon="2.55373">
        <ele>87.122</ele>
        <time>2013-11-17T08:39:51.152Z</time>
      </trkpt>
      <trkpt lat="48.38509" lon="2.5539">
        <ele>84.686</ele>
        <time>2013-11-17T08:39:53.777Z</time>
      </trkpt>
      <trkpt lat="48.38506" lon="2.55405">
        <ele>81.868</ele>
        <time>2013-11-17T08:39:55.917Z</time>
      </trkpt>
      <trkpt lat="48.38505" lon="2.55424">
        <ele>78.659</ele>
        <time>2013-11-17T08:39:58.450Z</time>
      </trkpt>
      <trkpt lat="48.38504" lon="2.55443">
        <ele>76.018</ele>
        <time>2013-11-17T08:40:00.985Z</time>
      </trkpt>
      <trkpt lat="48.38502" lon="2.55458">
        <ele>73.844</ele>
        <time>2013-11-17T08:40:02.995Z</time>
      </trkpt>
      <trkpt lat="48.38502" lon="2.55458">
        <ele>72.365</ele>
        <time>2013-11-17T08:40:04.999Z</time>
      </trkpt>
      <trkpt lat="48.38502" lon="2.55458">
        <ele>72.035</ele>
        <time>2013-11-17T08:40:05.099Z</time>
      </trkpt>
      <trkpt lat="48.38487" lon="2.55503">
        <ele>72.268</ele>
        <time>2013-11-17T08:40:15.008Z</time>
      </trkpt>
      <trkpt lat="48.38485" lon="2.55529">
        <ele>71.317</ele>
        <time>2013-11-17T08:40:17.738Z</time>
      </trkpt>
      <trkpt lat="48.38479" lon="2.55563">
        <ele>67.986</ele>
        <time>2013-11-17T08:40:21.181Z</time>
      </trkpt>
      <trkpt lat="48.38476" lon="2.55587">
        <ele>63.506</ele>
        <time>2013-11-17T08:40:23.642Z</time>
      </trkpt>
      <trkpt lat="48.38472" lon="2.55618">
        <ele>60.416</ele>
        <time>2013-11-17T08:40:27.098Z</time>
      </trkpt>
      <trkpt lat="48.38469" lon="2.55637">
        <ele>59.323</ele>
        <time>2013-11-17T08:40:29.240Z</time>
      </trkpt>
      <trkpt lat="48.38464" lon="2.55662">
        <ele>59.314</ele>
        <time>2013-11-17T08:40:32.129Z</time>
      </trkpt>
      <trkpt lat="48.38459" lon="2.5568">
        <ele>59.206</ele>
        <time>2013-11-17T08:40:34.267Z</time>
      </trkpt>
      <trkpt lat="48.3845" lon="2.55708">
        <ele>58.301</ele>
        <time>2013-11-17T08:40:37.879Z</time>
      </trkpt>
      <trkpt lat="48.38442" lon="2.55731">
        <ele>57.165</ele>
        <time>2013-11-17T08:40:41.233Z</time>
      </trkpt>
      <trkpt lat="48.38436" lon="2.55741">
        <ele>56.61</ele>
        <time>2013-11-17T08:40:43.294Z</time>
      </trkpt>
      <trkpt lat="48.38424" lon="2.55763">
        <ele>56.518</ele>
        <time>2013-11-17T08:40:47.467Z</time>
      </trkpt>
      <trkpt lat="48.38421" lon="2.55782">
        <ele>56.538</ele>
        <time>2013-11-17T08:40:50.272Z</time>
      </trkpt>
      <trkpt lat="48.38421" lon="2.55782">
        <ele>56.538</ele>
        <time>2013-11-17T08:40:50.272Z</time>
      </trkpt>
      <trkpt lat="48.38425" lon="2.55883">
        <ele>58.094</ele>
        <time>2013-11-17T08:41:08.659Z</time>
      </trkpt>
      <trkpt lat="48.38422" lon="2.55898">
        <ele>58.067</ele>
        <time>2013-11-17T08:41:12.340Z</time>
      </trkpt>
      <trkpt lat="48.38418" lon="2.55915">
        <ele>58.014</ele>
        <time>2013-11-17T08:41:16.605Z</time>
      </trkpt>
      <trkpt lat="48.38414" lon="2.5593">
        <ele>57.903</ele>
        <time>2013-11-17T08:41:20.796Z</time>
      </trkpt>
      <trkpt lat="48.3841" lon="2.55946">
        <ele>58.005</ele>
        <time>2013-11-17T08:41:25.445Z</time>
      </trkpt>
      <trkpt lat="48.38407" lon="2.55962">
        <ele>58.828</ele>
        <time>2013-11-17T08:41:29.918Z</time>
      </trkpt>
      <trkpt lat="48.38405" lon="2.55977">
        <ele>61.132</ele>
        <time>2013-11-17T08:41:34.203Z</time>
      </trkpt>
      <trkpt lat="48.38404" lon="2.55994">
        <ele>64.634</ele>
        <time>2013-11-17T08:41:39.077Z</time>
      </trkpt>
      <trkpt lat="48.38402" lon="2.56008">
        <ele>67.521</ele>
        <time>2013-11-17T08:41:42.821Z</time>
      </trkpt>
      <trkpt lat="48.38397" lon="2.56021">
        <ele>68.658</ele>
        <time>2013-11-17T08:41:46.927Z</time>
      </trkpt>
      <trkpt lat="48.38396" lon="2.56035">
        <ele>68.086</ele>
        <time>2013-11-17T08:41:50.272Z</time>
      </trkpt>
      <trkpt lat="48.38392" lon="2.5605">
        <ele>66.3</ele>
        <time>2013-11-17T08:41:54.215Z</time>
      </trkpt>
      <trkpt lat="48.38387" lon="2.56066">
        <ele>64.944</ele>
        <time>2013-11-17T08:41:58.742Z</time>
      </trkpt>
      <trkpt lat="48.38387" lon="2.56081">
        <ele>65.346</ele>
        <time>2013-11-17T08:42:02.831Z</time>
      </trkpt>
      <trkpt lat="48.38385" lon="2.56095">
        <ele>67.663</ele>
        <time>2013-11-17T08:42:07.350Z</time>
      </trkpt>
      <trkpt lat="48.3838" lon="2.56106">
        <ele>71.689</ele>
        <time>2013-11-17T08:42:11.457Z</time>
      </trkpt>
      <trkpt lat="48.38373" lon="2.56118">
        <ele>76.514</ele>
        <time>2013-11-17T08:42:15.655Z</time>
      </trkpt>
      <trkpt lat="48.38366" lon="2.56129">
        <ele>80.748</ele>
        <time>2013-11-17T08:42:18.827Z</time>
      </trkpt>
      <trkpt lat="48.38359" lon="2.56136">
        <ele>83.244</ele>
        <time>2013-11-17T08:42:21.595Z</time>
      </trkpt>
      <trkpt lat="48.3835" lon="2.56143">
        <ele>83.101</ele>
        <time>2013-11-17T08:42:24.523Z</time>
      </trkpt>
      <trkpt lat="48.3834" lon="2.56152">
        <ele>80.209</ele>
        <time>2013-11-17T08:42:27.870Z</time>
      </trkpt>
      <trkpt lat="48.3833" lon="2.56157">
        <ele>76.153</ele>
        <time>2013-11-17T08:42:31.057Z</time>
      </trkpt>
      <trkpt lat="48.38319" lon="2.56163">
        <ele>73.784</ele>
        <time>2013-11-17T08:42:34.758Z</time>
      </trkpt>
      <trkpt lat="48.3831" lon="2.56173">
        <ele>74.843</ele>
        <time>2013-11-17T08:42:38.118Z</time>
      </trkpt>
      <trkpt lat="48.38305" lon="2.56187">
        <ele>78.23</ele>
        <time>2013-11-17T08:42:41.468Z</time>
      </trkpt>
      <trkpt lat="48.38302" lon="2.56203">
        <ele>81.649</ele>
        <time>2013-11-17T08:42:44.930Z</time>
      </trkpt>
      <trkpt lat="48.38299" lon="2.56219">
        <ele>83.785</ele>
        <time>2013-11-17T08:42:48.367Z</time>
      </trkpt>
      <trkpt lat="48.38295" lon="2.56235">
        <ele>83.927</ele>
        <time>2013-11-17T08:42:51.864Z</time>
      </trkpt>
      <trkpt lat="48.38288" lon="2.56246">
        <ele>81.464</ele>
        <time>2013-11-17T08:42:55.190Z</time>
      </trkpt>
      <trkpt lat="48.38278" lon="2.56253">
        <ele>77.549</ele>
        <time>2013-11-17T08:42:58.703Z</time>
      </trkpt>
      <trkpt lat="48.38268" lon="2.56259">
        <ele>74.677</ele>
        <time>2013-11-17T08:43:02.060Z</time>
      </trkpt>
      <trkpt lat="48.38258" lon="2.56266">
        <ele>74.27</ele>
        <time>2013-11-17T08:43:05.618Z</time>
      </trkpt>
      <trkpt lat="48.38249" lon="2.56273">
        <ele>75.139</ele>
        <time>2013-11-17T08:43:08.662Z</time>
      </trkpt>
      <trkpt lat="48.3824" lon="2.5628">
        <ele>76.531</ele>
        <time>2013-11-17T08:43:11.967Z</time>
      </trkpt>
      <trkpt lat="48.38233" lon="2.56289">
        <ele>78.637</ele>
        <time>2013-11-17T08:43:14.982Z</time>
      </trkpt>
      <trkpt lat="48.38227" lon="2.56306">
        <ele>80.44</ele>
        <time>2013-11-17T08:43:19.173Z</time>
      </trkpt>
      <trkpt lat="48.38221" lon="2.56321">
        <ele>81.032</ele>
        <time>2013-11-17T08:43:22.730Z</time>
      </trkpt>
      <trkpt lat="48.38218" lon="2.56334">
        <ele>81.157</ele>
        <time>2013-11-17T08:43:25.244Z</time>
      </trkpt>
      <trkpt lat="48.38215" lon="2.56348">
        <ele>81.608</ele>
        <time>2013-11-17T08:43:27.782Z</time>
      </trkpt>
      <trkpt lat="48.3821" lon="2.56362">
        <ele>82.196</ele>
        <time>2013-11-17T08:43:30.449Z</time>
      </trkpt>
      <trkpt lat="48.38205" lon="2.56375">
        <ele>82.618</ele>
        <time>2013-11-17T08:43:32.861Z</time>
      </trkpt>
      <trkpt lat="48.382" lon="2.56388">
        <ele>83.222</ele>
        <time>2013-11-17T08:43:35.259Z</time>
      </trkpt>
      <trkpt lat="48.38197" lon="2.56403">
        <ele>83.474</ele>
        <time>2013-11-17T08:43:37.969Z</time>
      </trkpt>
      <trkpt lat="48.38191" lon="2.5642">
        <ele>84.07</ele>
        <time>2013-11-17T08:43:41.192Z</time>
      </trkpt>
      <trkpt lat="48.38183" lon="2.56435">
        <ele>84.775</ele>
        <time>2013-11-17T08:43:44.622Z</time>
      </trkpt>
      <trkpt lat="48.38173" lon="2.56448">
        <ele>85.012</ele>
        <time>2013-11-17T08:43:47.873Z</time>
      </trkpt>
      <trkpt lat="48.3817" lon="2.56471">
        <ele>84.517</ele>
        <time>2013-11-17T08:43:51.476Z</time>
      </trkpt>
      <trkpt lat="48.38163" lon="2.56492">
        <ele>83.072</ele>
        <time>2013-11-17T08:43:55.000Z</time>
      </trkpt>
      <trkpt lat="48.38163" lon="2.56492">
        <ele>81.449</ele>
        <time>2013-11-17T08:43:55.000Z</time>
      </trkpt>
      <trkpt lat="48.38163" lon="2.56492">
        <ele>80.878</ele>
        <time>2013-11-17T08:43:57.175Z</time>
      </trkpt>
      <trkpt lat="48.38163" lon="2.56513">
        <ele>81.324</ele>
        <time>2013-11-17T08:44:01.998Z</time>
      </trkpt>
      <trkpt lat="48.38163" lon="2.56513">
        <ele>81.884</ele>
        <time>2013-11-17T08:44:18.000Z</time>
      </trkpt>
      <trkpt lat="48.38163" lon="2.56513">
        <ele>82.046</ele>
        <time>2013-11-17T08:44:18.100Z</time>
      </trkpt>
      <trkpt lat="48.38153" lon="2.56519">
        <ele>81.895</ele>
        <time>2013-11-17T08:44:22.999Z</time>
      </trkpt>
      <trkpt lat="48.38153" lon="2.56519">
        <ele>81.798</ele>
        <time>2013-11-17T08:44:29.995Z</time>
      </trkpt>
      <trkpt lat="48.38153" lon="2.56519">
        <ele>81.77</ele>
        <time>2013-11-17T08:46:02.437Z</time>
      </trkpt>
      <trkpt lat="48.38146" lon="2.56512">
        <ele>81.745</ele>
        <time>2013-11-17T08:49:14.003Z</time>
      </trkpt>
      <trkpt lat="48.38146" lon="2.56512">
        <ele>81.717</ele>
        <time>2013-11-17T08:49:21.001Z</time>
      </trkpt>
      <trkpt lat="48.38146" lon="2.56512">
        <ele>81.695</ele>
        <time>2013-11-17T08:49:21.101Z</time>
      </trkpt>
      <trkpt lat="48.38146" lon="2.56512">
        <ele>81.64</ele>
        <time>2013-11-17T08:49:39.000Z</time>
      </trkpt>
      <trkpt lat="48.38146" lon="2.56512">
        <ele>81.616</ele>
        <time>2013-11-17T08:49:39.100Z</time>
      </trkpt>
      <trkpt lat="48.38153" lon="2.56554">
        <ele>81.594</ele>
        <time>2013-11-17T08:50:11.006Z</time>
      </trkpt>
      <trkpt lat="48.38153" lon="2.56554">
        <ele>81.573</ele>
        <time>2013-11-17T08:50:21.005Z</time>
      </trkpt>
      <trkpt lat="48.38153" lon="2.56554">
        <ele>81.55</ele>
        <time>2013-11-17T08:50:21.105Z</time>
      </trkpt>
      <trkpt lat="48.38161" lon="2.56583">
        <ele>81.523</ele>
        <time>2013-11-17T08:50:56.821Z</time>
      </trkpt>
      <trkpt lat="48.38167" lon="2.56594">
        <ele>84.203</ele>
        <time>2013-11-17T08:51:02.185Z</time>
      </trkpt>
      <trkpt lat="48.38168" lon="2.56608">
        <ele>92.548</ele>
        <time>2013-11-17T08:51:06.370Z</time>
      </trkpt>
      <trkpt lat="48.38168" lon="2.56624">
        <ele>103.497</ele>
        <time>2013-11-17T08:51:10.215Z</time>
      </trkpt>
      <trkpt lat="48.38165" lon="2.56642">
        <ele>111.21</ele>
        <time>2013-11-17T08:51:14.124Z</time>
      </trkpt>
      <trkpt lat="48.38163" lon="2.56659">
        <ele>113.613</ele>
        <time>2013-11-17T08:51:17.944Z</time>
      </trkpt>
      <trkpt lat="48.38161" lon="2.56676">
        <ele>112.139</ele>
        <time>2013-11-17T08:51:21.567Z</time>
      </trkpt>
      <trkpt lat="48.38157" lon="2.56693">
        <ele>109.238</ele>
        <time>2013-11-17T08:51:25.047Z</time>
      </trkpt>
      <trkpt lat="48.38153" lon="2.5671">
        <ele>105.649</ele>
        <time>2013-11-17T08:51:28.581Z</time>
      </trkpt>
      <trkpt lat="48.3815" lon="2.56726">
        <ele>101.546</ele>
        <time>2013-11-17T08:51:31.849Z</time>
      </trkpt>
      <trkpt lat="48.38147" lon="2.56743">
        <ele>98.449</ele>
        <time>2013-11-17T08:51:35.225Z</time>
      </trkpt>
      <trkpt lat="48.38144" lon="2.56757">
        <ele>97.609</ele>
        <time>2013-11-17T08:51:37.922Z</time>
      </trkpt>
      <trkpt lat="48.3814" lon="2.56771">
        <ele>98.653</ele>
        <time>2013-11-17T08:51:41.173Z</time>
      </trkpt>
      <trkpt lat="48.38138" lon="2.56787">
        <ele>100.201</ele>
        <time>2013-11-17T08:51:44.714Z</time>
      </trkpt>
      <trkpt lat="48.3814" lon="2.56801">
        <ele>100.564</ele>
        <time>2013-11-17T08:51:48.129Z</time>
      </trkpt>
      <trkpt lat="48.38145" lon="2.56815">
        <ele>98.571</ele>
        <time>2013-11-17T08:51:51.801Z</time>
      </trkpt>
      <trkpt lat="48.3815" lon="2.56831">
        <ele>95</ele>
        <time>2013-11-17T08:51:55.494Z</time>
      </trkpt>
      <trkpt lat="48.38155" lon="2.56847">
        <ele>92.043</ele>
        <time>2013-11-17T08:51:58.728Z</time>
      </trkpt>
      <trkpt lat="48.38161" lon="2.56864">
        <ele>90.801</ele>
        <time>2013-11-17T08:52:01.610Z</time>
      </trkpt>
      <trkpt lat="48.38169" lon="2.56879">
        <ele>91.229</ele>
        <time>2013-11-17T08:52:04.391Z</time>
      </trkpt>
      <trkpt lat="48.38174" lon="2.56895">
        <ele>93.183</ele>
        <time>2013-11-17T08:52:06.910Z</time>
      </trkpt>
      <trkpt lat="48.38179" lon="2.56907">
        <ele>95.76</ele>
        <time>2013-11-17T08:52:08.916Z</time>
      </trkpt>
      <trkpt lat="48.38184" lon="2.56919">
        <ele>97.605</ele>
        <time>2013-11-17T08:52:11.138Z</time>
      </trkpt>
      <trkpt lat="48.38193" lon="2.56926">
        <ele>98.78</ele>
        <time>2013-11-17T08:52:13.627Z</time>
      </trkpt>
      <trkpt lat="48.38205" lon="2.5693">
        <ele>100.107</ele>
        <time>2013-11-17T08:52:17.056Z</time>
      </trkpt>
      <trkpt lat="48.38219" lon="2.56934">
        <ele>100.877</ele>
        <time>2013-11-17T08:52:21.039Z</time>
      </trkpt>
      <trkpt lat="48.3823" lon="2.5693">
        <ele>99.526</ele>
        <time>2013-11-17T08:52:24.145Z</time>
      </trkpt>
      <trkpt lat="48.38243" lon="2.56928">
        <ele>96.422</ele>
        <time>2013-11-17T08:52:27.598Z</time>
      </trkpt>
      <trkpt lat="48.38251" lon="2.56911">
        <ele>94.774</ele>
        <time>2013-11-17T08:52:31.915Z</time>
      </trkpt>
      <trkpt lat="48.38257" lon="2.56895">
        <ele>96.433</ele>
        <time>2013-11-17T08:52:35.220Z</time>
      </trkpt>
      <trkpt lat="48.38262" lon="2.56872">
        <ele>99.045</ele>
        <time>2013-11-17T08:52:39.175Z</time>
      </trkpt>
      <trkpt lat="48.38269" lon="2.56859">
        <ele>100.177</ele>
        <time>2013-11-17T08:52:41.523Z</time>
      </trkpt>
      <trkpt lat="48.38271" lon="2.56845">
        <ele>100.049</ele>
        <time>2013-11-17T08:52:43.369Z</time>
      </trkpt>
      <trkpt lat="48.38276" lon="2.56826">
        <ele>99.555</ele>
        <time>2013-11-17T08:52:46.044Z</time>
      </trkpt>
      <trkpt lat="48.38286" lon="2.56807">
        <ele>99.181</ele>
        <time>2013-11-17T08:52:49.060Z</time>
      </trkpt>
      <trkpt lat="48.38294" lon="2.56785">
        <ele>99.027</ele>
        <time>2013-11-17T08:52:52.045Z</time>
      </trkpt>
      <trkpt lat="48.38302" lon="2.56773">
        <ele>98.641</ele>
        <time>2013-11-17T08:52:54.140Z</time>
      </trkpt>
      <trkpt lat="48.3831" lon="2.56761">
        <ele>97.393</ele>
        <time>2013-11-17T08:52:56.083Z</time>
      </trkpt>
      <trkpt lat="48.38319" lon="2.56749">
        <ele>95.589</ele>
        <time>2013-11-17T08:52:58.130Z</time>
      </trkpt>
      <trkpt lat="48.38331" lon="2.56731">
        <ele>93.898</ele>
        <time>2013-11-17T08:53:00.949Z</time>
      </trkpt>
      <trkpt lat="48.3834" lon="2.56718">
        <ele>92.137</ele>
        <time>2013-11-17T08:53:03.086Z</time>
      </trkpt>
      <trkpt lat="48.38355" lon="2.56705">
        <ele>90.266</ele>
        <time>2013-11-17T08:53:05.665Z</time>
      </trkpt>
      <trkpt lat="48.38365" lon="2.5668">
        <ele>88.798</ele>
        <time>2013-11-17T08:53:08.686Z</time>
      </trkpt>
      <trkpt lat="48.38367" lon="2.5666">
        <ele>87.28</ele>
        <time>2013-11-17T08:53:10.580Z</time>
      </trkpt>
      <trkpt lat="48.38382" lon="2.56632">
        <ele>85.035</ele>
        <time>2013-11-17T08:53:13.960Z</time>
      </trkpt>
      <trkpt lat="48.38398" lon="2.56609">
        <ele>82.697</ele>
        <time>2013-11-17T08:53:17.110Z</time>
      </trkpt>
      <trkpt lat="48.38413" lon="2.5659">
        <ele>81.236</ele>
        <time>2013-11-17T08:53:19.886Z</time>
      </trkpt>
      <trkpt lat="48.38418" lon="2.56578">
        <ele>81.139</ele>
        <time>2013-11-17T08:53:21.305Z</time>
      </trkpt>
      <trkpt lat="48.38428" lon="2.56554">
        <ele>82.238</ele>
        <time>2013-11-17T08:53:24.207Z</time>
      </trkpt>
      <trkpt lat="48.38442" lon="2.56529">
        <ele>82.747</ele>
        <time>2013-11-17T08:53:27.495Z</time>
      </trkpt>
      <trkpt lat="48.38448" lon="2.56516">
        <ele>81.379</ele>
        <time>2013-11-17T08:53:29.180Z</time>
      </trkpt>
      <trkpt lat="48.38459" lon="2.56494">
        <ele>78.592</ele>
        <time>2013-11-17T08:53:32.005Z</time>
      </trkpt>
      <trkpt lat="48.38473" lon="2.5648">
        <ele>75.123</ele>
        <time>2013-11-17T08:53:34.943Z</time>
      </trkpt>
      <trkpt lat="48.38482" lon="2.56471">
        <ele>71.804</ele>
        <time>2013-11-17T08:53:36.822Z</time>
      </trkpt>
      <trkpt lat="48.38498" lon="2.56468">
        <ele>69.265</ele>
        <time>2013-11-17T08:53:39.663Z</time>
      </trkpt>
      <trkpt lat="48.38508" lon="2.56466">
        <ele>66.87</ele>
        <time>2013-11-17T08:53:41.571Z</time>
      </trkpt>
      <trkpt lat="48.38516" lon="2.56461">
        <ele>64.398</ele>
        <time>2013-11-17T08:53:43.274Z</time>
      </trkpt>
      <trkpt lat="48.38532" lon="2.56448">
        <ele>62.564</ele>
        <time>2013-11-17T08:53:46.736Z</time>
      </trkpt>
      <trkpt lat="48.38542" lon="2.5644">
        <ele>61.2</ele>
        <time>2013-11-17T08:53:48.940Z</time>
      </trkpt>
      <trkpt lat="48.38557" lon="2.56432">
        <ele>59.351</ele>
        <time>2013-11-17T08:53:51.986Z</time>
      </trkpt>
      <trkpt lat="48.38566" lon="2.56425">
        <ele>56.743</ele>
        <time>2013-11-17T08:53:54.075Z</time>
      </trkpt>
      <trkpt lat="48.38579" lon="2.56417">
        <ele>52.778</ele>
        <time>2013-11-17T08:53:56.786Z</time>
      </trkpt>
      <trkpt lat="48.38596" lon="2.56407">
        <ele>47.707</ele>
        <time>2013-11-17T08:54:00.112Z</time>
      </trkpt>
      <trkpt lat="48.38606" lon="2.564">
        <ele>44.584</ele>
        <time>2013-11-17T08:54:02.091Z</time>
      </trkpt>
      <trkpt lat="48.38615" lon="2.56389">
        <ele>45.187</ele>
        <time>2013-11-17T08:54:04.183Z</time>
      </trkpt>
      <trkpt lat="48.38628" lon="2.56374">
        <ele>47.35</ele>
        <time>2013-11-17T08:54:07.128Z</time>
      </trkpt>
      <trkpt lat="48.38649" lon="2.56362">
        <ele>49.432</ele>
        <time>2013-11-17T08:54:11.321Z</time>
      </trkpt>
      <trkpt lat="48.38668" lon="2.56348">
        <ele>52.117</ele>
        <time>2013-11-17T08:54:15.152Z</time>
      </trkpt>
      <trkpt lat="48.38686" lon="2.56335">
        <ele>56.065</ele>
        <time>2013-11-17T08:54:18.676Z</time>
      </trkpt>
      <trkpt lat="48.387" lon="2.56323">
        <ele>61.114</ele>
        <time>2013-11-17T08:54:22.058Z</time>
      </trkpt>
      <trkpt lat="48.38713" lon="2.56306">
        <ele>66.37</ele>
        <time>2013-11-17T08:54:25.688Z</time>
      </trkpt>
      <trkpt lat="48.3872" lon="2.56295">
        <ele>70.809</ele>
        <time>2013-11-17T08:54:27.740Z</time>
      </trkpt>
      <trkpt lat="48.38731" lon="2.5628">
        <ele>74.054</ele>
        <time>2013-11-17T08:54:30.581Z</time>
      </trkpt>
      <trkpt lat="48.3874" lon="2.56263">
        <ele>76.131</ele>
        <time>2013-11-17T08:54:33.328Z</time>
      </trkpt>
      <trkpt lat="48.3875" lon="2.56245">
        <ele>77.053</ele>
        <time>2013-11-17T08:54:36.331Z</time>
      </trkpt>
      <trkpt lat="48.38756" lon="2.56232">
        <ele>76.953</ele>
        <time>2013-11-17T08:54:38.253Z</time>
      </trkpt>
      <trkpt lat="48.38761" lon="2.5621">
        <ele>76.26</ele>
        <time>2013-11-17T08:54:41.234Z</time>
      </trkpt>
      <trkpt lat="48.38764" lon="2.56189">
        <ele>75.537</ele>
        <time>2013-11-17T08:54:44.271Z</time>
      </trkpt>
      <trkpt lat="48.38764" lon="2.56175">
        <ele>75.094</ele>
        <time>2013-11-17T08:54:46.249Z</time>
      </trkpt>
      <trkpt lat="48.38765" lon="2.56161">
        <ele>75.193</ele>
        <time>2013-11-17T08:54:48.239Z</time>
      </trkpt>
      <trkpt lat="48.38768" lon="2.56144">
        <ele>75.799</ele>
        <time>2013-11-17T08:54:50.803Z</time>
      </trkpt>
      <trkpt lat="48.38769" lon="2.56123">
        <ele>76.366</ele>
        <time>2013-11-17T08:54:54.209Z</time>
      </trkpt>
      <trkpt lat="48.38778" lon="2.56105">
        <ele>76.212</ele>
        <time>2013-11-17T08:54:58.775Z</time>
      </trkpt>
      <trkpt lat="48.38776" lon="2.56091">
        <ele>75.074</ele>
        <time>2013-11-17T08:55:01.719Z</time>
      </trkpt>
      <trkpt lat="48.38769" lon="2.56077">
        <ele>72.766</ele>
        <time>2013-11-17T08:55:04.879Z</time>
      </trkpt>
      <trkpt lat="48.3877" lon="2.56059">
        <ele>69.506</ele>
        <time>2013-11-17T08:55:08.248Z</time>
      </trkpt>
      <trkpt lat="48.38769" lon="2.5604">
        <ele>66.293</ele>
        <time>2013-11-17T08:55:11.959Z</time>
      </trkpt>
      <trkpt lat="48.38764" lon="2.56028">
        <ele>64.083</ele>
        <time>2013-11-17T08:55:14.921Z</time>
      </trkpt>
      <trkpt lat="48.38757" lon="2.56013">
        <ele>63.029</ele>
        <time>2013-11-17T08:55:18.584Z</time>
      </trkpt>
      <trkpt lat="48.38752" lon="2.56001">
        <ele>62.82</ele>
        <time>2013-11-17T08:55:21.506Z</time>
      </trkpt>
      <trkpt lat="48.38746" lon="2.55988">
        <ele>63.074</ele>
        <time>2013-11-17T08:55:24.471Z</time>
      </trkpt>
      <trkpt lat="48.38741" lon="2.55974">
        <ele>63.997</ele>
        <time>2013-11-17T08:55:27.138Z</time>
      </trkpt>
      <trkpt lat="48.3874" lon="2.55954">
        <ele>65.744</ele>
        <time>2013-11-17T08:55:30.386Z</time>
      </trkpt>
      <trkpt lat="48.38743" lon="2.55932">
        <ele>67.532</ele>
        <time>2013-11-17T08:55:33.673Z</time>
      </trkpt>
      <trkpt lat="48.38747" lon="2.55914">
        <ele>68.361</ele>
        <time>2013-11-17T08:55:36.073Z</time>
      </trkpt>
      <trkpt lat="48.3875" lon="2.55889">
        <ele>67.866</ele>
        <time>2013-11-17T08:55:39.211Z</time>
      </trkpt>
      <trkpt lat="48.38754" lon="2.55872">
        <ele>66.212</ele>
        <time>2013-11-17T08:55:41.446Z</time>
      </trkpt>
      <trkpt lat="48.38758" lon="2.55858">
        <ele>64.094</ele>
        <time>2013-11-17T08:55:43.253Z</time>
      </trkpt>
      <trkpt lat="48.38764" lon="2.55837">
        <ele>62.223</ele>
        <time>2013-11-17T08:55:46.089Z</time>
      </trkpt>
      <trkpt lat="48.38765" lon="2.55818">
        <ele>60.44</ele>
        <time>2013-11-17T08:55:48.641Z</time>
      </trkpt>
      <trkpt lat="48.38765" lon="2.55797">
        <ele>58.491</ele>
        <time>2013-11-17T08:55:51.592Z</time>
      </trkpt>
      <trkpt lat="48.3877" lon="2.55782">
        <ele>56.959</ele>
        <time>2013-11-17T08:55:54.043Z</time>
      </trkpt>
      <trkpt lat="48.38773" lon="2.55766">
        <ele>56.739</ele>
        <time>2013-11-17T08:55:56.715Z</time>
      </trkpt>
      <trkpt lat="48.38778" lon="2.55751">
        <ele>57.889</ele>
        <time>2013-11-17T08:55:59.577Z</time>
      </trkpt>
      <trkpt lat="48.38778" lon="2.5573">
        <ele>59.777</ele>
        <time>2013-11-17T08:56:03.226Z</time>
      </trkpt>
      <trkpt lat="48.38784" lon="2.55717">
        <ele>62.176</ele>
        <time>2013-11-17T08:56:05.938Z</time>
      </trkpt>
      <trkpt lat="48.38794" lon="2.55707">
        <ele>64.865</ele>
        <time>2013-11-17T08:56:09.155Z</time>
      </trkpt>
      <trkpt lat="48.38806" lon="2.55698">
        <ele>66.967</ele>
        <time>2013-11-17T08:56:12.690Z</time>
      </trkpt>
      <trkpt lat="48.38814" lon="2.55688">
        <ele>68.699</ele>
        <time>2013-11-17T08:56:15.474Z</time>
      </trkpt>
      <trkpt lat="48.38824" lon="2.55681">
        <ele>70.939</ele>
        <time>2013-11-17T08:56:18.590Z</time>
      </trkpt>
      <trkpt lat="48.38832" lon="2.55673">
        <ele>73.228</ele>
        <time>2013-11-17T08:56:21.638Z</time>
      </trkpt>
      <trkpt lat="48.38841" lon="2.55667">
        <ele>74.586</ele>
        <time>2013-11-17T08:56:24.748Z</time>
      </trkpt>
      <trkpt lat="48.38853" lon="2.55658">
        <ele>74.533</ele>
        <time>2013-11-17T08:56:28.763Z</time>
      </trkpt>
      <trkpt lat="48.38865" lon="2.5565">
        <ele>73.276</ele>
        <time>2013-11-17T08:56:32.063Z</time>
      </trkpt>
      <trkpt lat="48.38879" lon="2.55644">
        <ele>71.896</ele>
        <time>2013-11-17T08:56:35.137Z</time>
      </trkpt>
      <trkpt lat="48.38892" lon="2.55639">
        <ele>71.009</ele>
        <time>2013-11-17T08:56:37.672Z</time>
      </trkpt>
      <trkpt lat="48.38912" lon="2.55631">
        <ele>69.412</ele>
        <time>2013-11-17T08:56:41.321Z</time>
      </trkpt>
      <trkpt lat="48.3893" lon="2.55625">
        <ele>66.515</ele>
        <time>2013-11-17T08:56:44.950Z</time>
      </trkpt>
      <trkpt lat="48.38942" lon="2.55624">
        <ele>63.692</ele>
        <time>2013-11-17T08:56:47.540Z</time>
      </trkpt>
      <trkpt lat="48.38951" lon="2.55614">
        <ele>62.025</ele>
        <time>2013-11-17T08:56:49.984Z</time>
      </trkpt>
      <trkpt lat="48.3896" lon="2.55598">
        <ele>60.998</ele>
        <time>2013-11-17T08:56:53.072Z</time>
      </trkpt>
      <trkpt lat="48.38972" lon="2.55588">
        <ele>60.1</ele>
        <time>2013-11-17T08:56:56.447Z</time>
      </trkpt>
      <trkpt lat="48.38982" lon="2.55582">
        <ele>59.513</ele>
        <time>2013-11-17T08:56:59.076Z</time>
      </trkpt>
      <trkpt lat="48.38991" lon="2.55576">
        <ele>60.031</ele>
        <time>2013-11-17T08:57:01.615Z</time>
      </trkpt>
      <trkpt lat="48.38999" lon="2.55569">
        <ele>61.772</ele>
        <time>2013-11-17T08:57:04.150Z</time>
      </trkpt>
      <trkpt lat="48.39008" lon="2.55563">
        <ele>63.694</ele>
        <time>2013-11-17T08:57:06.524Z</time>
      </trkpt>
      <trkpt lat="48.39016" lon="2.55558">
        <ele>64.826</ele>
        <time>2013-11-17T08:57:08.985Z</time>
      </trkpt>
      <trkpt lat="48.39025" lon="2.55551">
        <ele>64.86</ele>
        <time>2013-11-17T08:57:11.443Z</time>
      </trkpt>
      <trkpt lat="48.39033" lon="2.55546">
        <ele>63.963</ele>
        <time>2013-11-17T08:57:13.956Z</time>
      </trkpt>
      <trkpt lat="48.39043" lon="2.5554">
        <ele>63.286</ele>
        <time>2013-11-17T08:57:16.944Z</time>
      </trkpt>
      <trkpt lat="48.39052" lon="2.55535">
        <ele>63.642</ele>
        <time>2013-11-17T08:57:19.679Z</time>
      </trkpt>
      <trkpt lat="48.39062" lon="2.5553">
        <ele>63.928</ele>
        <time>2013-11-17T08:57:22.692Z</time>
      </trkpt>
      <trkpt lat="48.39075" lon="2.55527">
        <ele>62.885</ele>
        <time>2013-11-17T08:57:26.307Z</time>
      </trkpt>
      <trkpt lat="48.39084" lon="2.55525">
        <ele>61.02</ele>
        <time>2013-11-17T08:57:28.756Z</time>
      </trkpt>
      <trkpt lat="48.39095" lon="2.55523">
        <ele>59.621</ele>
        <time>2013-11-17T08:57:31.523Z</time>
      </trkpt>
      <trkpt lat="48.39104" lon="2.55518">
        <ele>59.089</ele>
        <time>2013-11-17T08:57:34.007Z</time>
      </trkpt>
      <trkpt lat="48.39104" lon="2.55518">
        <ele>59.01</ele>
        <time>2013-11-17T08:57:34.007Z</time>
      </trkpt>
      <trkpt lat="48.39104" lon="2.55518">
        <ele>58.993</ele>
        <time>2013-11-17T08:57:34.107Z</time>
      </trkpt>
      <trkpt lat="48.39123" lon="2.55518">
        <ele>58.983</ele>
        <time>2013-11-17T08:57:44.011Z</time>
      </trkpt>
      <trkpt lat="48.39134" lon="2.55514">
        <ele>59.21</ele>
        <time>2013-11-17T08:57:47.359Z</time>
      </trkpt>
      <trkpt lat="48.39147" lon="2.55507">
        <ele>59.969</ele>
        <time>2013-11-17T08:57:51.009Z</time>
      </trkpt>
      <trkpt lat="48.39158" lon="2.55502">
        <ele>61.005</ele>
        <time>2013-11-17T08:57:53.708Z</time>
      </trkpt>
      <trkpt lat="48.39167" lon="2.55498">
        <ele>61.734</ele>
        <time>2013-11-17T08:57:55.909Z</time>
      </trkpt>
      <trkpt lat="48.39177" lon="2.55495">
        <ele>62.286</ele>
        <time>2013-11-17T08:57:58.326Z</time>
      </trkpt>
      <trkpt lat="48.39189" lon="2.55491">
        <ele>63.046</ele>
        <time>2013-11-17T08:58:01.390Z</time>
      </trkpt>
      <trkpt lat="48.392" lon="2.5549">
        <ele>64.515</ele>
        <time>2013-11-17T08:58:04.106Z</time>
      </trkpt>
      <trkpt lat="48.3921" lon="2.55489">
        <ele>65.979</ele>
        <time>2013-11-17T08:58:06.726Z</time>
      </trkpt>
      <trkpt lat="48.39221" lon="2.55487">
        <ele>66.014</ele>
        <time>2013-11-17T08:58:09.603Z</time>
      </trkpt>
      <trkpt lat="48.39232" lon="2.55486">
        <ele>65.025</ele>
        <time>2013-11-17T08:58:12.622Z</time>
      </trkpt>
      <trkpt lat="48.39243" lon="2.55487">
        <ele>64.663</ele>
        <time>2013-11-17T08:58:15.478Z</time>
      </trkpt>
      <trkpt lat="48.39252" lon="2.55492">
        <ele>65.171</ele>
        <time>2013-11-17T08:58:17.818Z</time>
      </trkpt>
      <trkpt lat="48.39261" lon="2.55496">
        <ele>65.484</ele>
        <time>2013-11-17T08:58:20.286Z</time>
      </trkpt>
      <trkpt lat="48.39269" lon="2.55504">
        <ele>64.214</ele>
        <time>2013-11-17T08:58:22.859Z</time>
      </trkpt>
      <trkpt lat="48.39277" lon="2.55509">
        <ele>61.992</ele>
        <time>2013-11-17T08:58:25.225Z</time>
      </trkpt>
      <trkpt lat="48.39289" lon="2.55512">
        <ele>60.637</ele>
        <time>2013-11-17T08:58:28.007Z</time>
      </trkpt>
      <trkpt lat="48.39289" lon="2.55512">
        <ele>60.518</ele>
        <time>2013-11-17T08:58:31.006Z</time>
      </trkpt>
      <trkpt lat="48.39289" lon="2.55512">
        <ele>60.736</ele>
        <time>2013-11-17T08:58:31.106Z</time>
      </trkpt>
      <trkpt lat="48.39316" lon="2.55508">
        <ele>60.787</ele>
        <time>2013-11-17T08:58:51.040Z</time>
      </trkpt>
      <trkpt lat="48.39326" lon="2.55507">
        <ele>62.132</ele>
        <time>2013-11-17T08:58:56.434Z</time>
      </trkpt>
      <trkpt lat="48.39337" lon="2.55506">
        <ele>65.811</ele>
        <time>2013-11-17T08:59:01.404Z</time>
      </trkpt>
      <trkpt lat="48.39346" lon="2.55511">
        <ele>69.641</ele>
        <time>2013-11-17T08:59:05.430Z</time>
      </trkpt>
      <trkpt lat="48.39356" lon="2.55514">
        <ele>71.461</ele>
        <time>2013-11-17T08:59:09.378Z</time>
      </trkpt>
      <trkpt lat="48.39367" lon="2.55518">
        <ele>71.717</ele>
        <time>2013-11-17T08:59:13.225Z</time>
      </trkpt>
      <trkpt lat="48.39376" lon="2.55522">
        <ele>71.135</ele>
        <time>2013-11-17T08:59:15.565Z</time>
      </trkpt>
      <trkpt lat="48.39388" lon="2.55516">
        <ele>69.824</ele>
        <time>2013-11-17T08:59:18.287Z</time>
      </trkpt>
      <trkpt lat="48.39396" lon="2.55502">
        <ele>68.074</ele>
        <time>2013-11-17T08:59:20.913Z</time>
      </trkpt>
      <trkpt lat="48.39405" lon="2.55495">
        <ele>66.311</ele>
        <time>2013-11-17T08:59:22.845Z</time>
      </trkpt>
      <trkpt lat="48.39419" lon="2.55482">
        <ele>64.1</ele>
        <time>2013-11-17T08:59:25.892Z</time>
      </trkpt>
      <trkpt lat="48.39433" lon="2.55467">
        <ele>61.422</ele>
        <time>2013-11-17T08:59:28.995Z</time>
      </trkpt>
      <trkpt lat="48.39442" lon="2.55464">
        <ele>59.798</ele>
        <time>2013-11-17T08:59:30.601Z</time>
      </trkpt>
      <trkpt lat="48.39459" lon="2.55458">
        <ele>60.029</ele>
        <time>2013-11-17T08:59:33.479Z</time>
      </trkpt>
      <trkpt lat="48.39469" lon="2.55458">
        <ele>61.06</ele>
        <time>2013-11-17T08:59:35.121Z</time>
      </trkpt>
      <trkpt lat="48.3949" lon="2.55459">
        <ele>61.646</ele>
        <time>2013-11-17T08:59:38.540Z</time>
      </trkpt>
      <trkpt lat="48.39502" lon="2.55458">
        <ele>61.531</ele>
        <time>2013-11-17T08:59:40.493Z</time>
      </trkpt>
      <trkpt lat="48.39519" lon="2.5546">
        <ele>61.684</ele>
        <time>2013-11-17T08:59:43.254Z</time>
      </trkpt>
      <trkpt lat="48.39536" lon="2.55461">
        <ele>62.845</ele>
        <time>2013-11-17T08:59:45.968Z</time>
      </trkpt>
      <trkpt lat="48.39547" lon="2.55462">
        <ele>64.343</ele>
        <time>2013-11-17T08:59:47.763Z</time>
      </trkpt>
      <trkpt lat="48.39559" lon="2.55463">
        <ele>65.136</ele>
        <time>2013-11-17T08:59:49.724Z</time>
      </trkpt>
      <trkpt lat="48.39578" lon="2.55465">
        <ele>65.006</ele>
        <time>2013-11-17T08:59:52.711Z</time>
      </trkpt>
      <trkpt lat="48.39596" lon="2.55468">
        <ele>64.358</ele>
        <time>2013-11-17T08:59:55.748Z</time>
      </trkpt>
      <trkpt lat="48.39612" lon="2.55471">
        <ele>63.479</ele>
        <time>2013-11-17T08:59:58.388Z</time>
      </trkpt>
      <trkpt lat="48.39623" lon="2.55473">
        <ele>62.612</ele>
        <time>2013-11-17T09:00:00.266Z</time>
      </trkpt>
      <trkpt lat="48.39639" lon="2.55476">
        <ele>62.153</ele>
        <time>2013-11-17T09:00:03.074Z</time>
      </trkpt>
      <trkpt lat="48.39657" lon="2.55479">
        <ele>62.12</ele>
        <time>2013-11-17T09:00:06.095Z</time>
      </trkpt>
      <trkpt lat="48.39672" lon="2.55482">
        <ele>62.208</ele>
        <time>2013-11-17T09:00:08.840Z</time>
      </trkpt>
      <trkpt lat="48.39683" lon="2.55483">
        <ele>62.229</ele>
        <time>2013-11-17T09:00:10.845Z</time>
      </trkpt>
      <trkpt lat="48.39699" lon="2.55488">
        <ele>62.187</ele>
        <time>2013-11-17T09:00:14.220Z</time>
      </trkpt>
      <trkpt lat="48.39709" lon="2.5549">
        <ele>62.255</ele>
        <time>2013-11-17T09:00:16.425Z</time>
      </trkpt>
      <trkpt lat="48.39722" lon="2.55492">
        <ele>62.702</ele>
        <time>2013-11-17T09:00:19.607Z</time>
      </trkpt>
      <trkpt lat="48.39734" lon="2.55494">
        <ele>63.635</ele>
        <time>2013-11-17T09:00:23.226Z</time>
      </trkpt>
      <trkpt lat="48.39745" lon="2.55495">
        <ele>64.561</ele>
        <time>2013-11-17T09:00:26.639Z</time>
      </trkpt>
      <trkpt lat="48.39755" lon="2.55496">
        <ele>65.028</ele>
        <time>2013-11-17T09:00:29.442Z</time>
      </trkpt>
      <trkpt lat="48.39765" lon="2.55497">
        <ele>65.08</ele>
        <time>2013-11-17T09:00:32.237Z</time>
      </trkpt>
      <trkpt lat="48.39776" lon="2.55501">
        <ele>64.73</ele>
        <time>2013-11-17T09:00:35.291Z</time>
      </trkpt>
      <trkpt lat="48.39788" lon="2.55504">
        <ele>64.019</ele>
        <time>2013-11-17T09:00:38.152Z</time>
      </trkpt>
      <trkpt lat="48.39802" lon="2.55508">
        <ele>63.045</ele>
        <time>2013-11-17T09:00:41.393Z</time>
      </trkpt>
      <trkpt lat="48.39814" lon="2.55511">
        <ele>61.984</ele>
        <time>2013-11-17T09:00:44.218Z</time>
      </trkpt>
      <trkpt lat="48.39825" lon="2.55515">
        <ele>61.399</ele>
        <time>2013-11-17T09:00:46.834Z</time>
      </trkpt>
      <trkpt lat="48.39835" lon="2.55517">
        <ele>61.627</ele>
        <time>2013-11-17T09:00:48.878Z</time>
      </trkpt>
      <trkpt lat="48.39844" lon="2.55519">
        <ele>61.92</ele>
        <time>2013-11-17T09:00:50.749Z</time>
      </trkpt>
      <trkpt lat="48.39858" lon="2.55524">
        <ele>61.623</ele>
        <time>2013-11-17T09:00:53.711Z</time>
      </trkpt>
      <trkpt lat="48.39868" lon="2.55526">
        <ele>61.073</ele>
        <time>2013-11-17T09:00:55.598Z</time>
      </trkpt>
      <trkpt lat="48.39884" lon="2.55531">
        <ele>60.609</ele>
        <time>2013-11-17T09:00:58.636Z</time>
      </trkpt>
      <trkpt lat="48.39894" lon="2.55534">
        <ele>60.165</ele>
        <time>2013-11-17T09:01:00.436Z</time>
      </trkpt>
      <trkpt lat="48.39909" lon="2.55538">
        <ele>60.093</ele>
        <time>2013-11-17T09:01:03.257Z</time>
      </trkpt>
      <trkpt lat="48.3992" lon="2.55539">
        <ele>60.83</ele>
        <time>2013-11-17T09:01:05.156Z</time>
      </trkpt>
      <trkpt lat="48.3993" lon="2.55541">
        <ele>62.692</ele>
        <time>2013-11-17T09:01:06.978Z</time>
      </trkpt>
      <trkpt lat="48.39941" lon="2.55545">
        <ele>65.375</ele>
        <time>2013-11-17T09:01:08.984Z</time>
      </trkpt>
      <trkpt lat="48.39957" lon="2.55549">
        <ele>67.584</ele>
        <time>2013-11-17T09:01:11.784Z</time>
      </trkpt>
      <trkpt lat="48.39967" lon="2.5555">
        <ele>67.777</ele>
        <time>2013-11-17T09:01:13.508Z</time>
      </trkpt>
      <trkpt lat="48.39983" lon="2.55552">
        <ele>66.006</ele>
        <time>2013-11-17T09:01:16.188Z</time>
      </trkpt>
      <trkpt lat="48.4" lon="2.55554">
        <ele>63.743</ele>
        <time>2013-11-17T09:01:19.231Z</time>
      </trkpt>
      <trkpt lat="48.40012" lon="2.55555">
        <ele>62.063</ele>
        <time>2013-11-17T09:01:21.417Z</time>
      </trkpt>
      <trkpt lat="48.40023" lon="2.55557">
        <ele>61.031</ele>
        <time>2013-11-17T09:01:23.689Z</time>
      </trkpt>
      <trkpt lat="48.40036" lon="2.55562">
        <ele>60.802</ele>
        <time>2013-11-17T09:01:26.416Z</time>
      </trkpt>
      <trkpt lat="48.40046" lon="2.55564">
        <ele>61.306</ele>
        <time>2013-11-17T09:01:28.463Z</time>
      </trkpt>
      <trkpt lat="48.40058" lon="2.55568">
        <ele>61.967</ele>
        <time>2013-11-17T09:01:31.275Z</time>
      </trkpt>
      <trkpt lat="48.4007" lon="2.55571">
        <ele>61.452</ele>
        <time>2013-11-17T09:01:34.187Z</time>
      </trkpt>
      <trkpt lat="48.40078" lon="2.55573">
        <ele>59.067</ele>
        <time>2013-11-17T09:01:36.692Z</time>
      </trkpt>
      <trkpt lat="48.40089" lon="2.55572">
        <ele>56.171</ele>
        <time>2013-11-17T09:01:39.800Z</time>
      </trkpt>
      <trkpt lat="48.40101" lon="2.5557">
        <ele>54.684</ele>
        <time>2013-11-17T09:01:43.493Z</time>
      </trkpt>
      <trkpt lat="48.40111" lon="2.55568">
        <ele>54.826</ele>
        <time>2013-11-17T09:01:46.723Z</time>
      </trkpt>
      <trkpt lat="48.4012" lon="2.55567">
        <ele>55.34</ele>
        <time>2013-11-17T09:01:49.614Z</time>
      </trkpt>
      <trkpt lat="48.4013" lon="2.55569">
        <ele>55.22</ele>
        <time>2013-11-17T09:01:52.614Z</time>
      </trkpt>
      <trkpt lat="48.40142" lon="2.55569">
        <ele>54.309</ele>
        <time>2013-11-17T09:01:56.110Z</time>
      </trkpt>
      <trkpt lat="48.40155" lon="2.55567">
        <ele>53.238</ele>
        <time>2013-11-17T09:01:59.636Z</time>
      </trkpt>
      <trkpt lat="48.40166" lon="2.55565">
        <ele>52.705</ele>
        <time>2013-11-17T09:02:02.541Z</time>
      </trkpt>
      <trkpt lat="48.40175" lon="2.55564">
        <ele>52.547</ele>
        <time>2013-11-17T09:02:05.077Z</time>
      </trkpt>
      <trkpt lat="48.40187" lon="2.55565">
        <ele>52.372</ele>
        <time>2013-11-17T09:02:08.346Z</time>
      </trkpt>
      <trkpt lat="48.40193" lon="2.55576">
        <ele>52.474</ele>
        <time>2013-11-17T09:02:11.455Z</time>
      </trkpt>
      <trkpt lat="48.40201" lon="2.55589">
        <ele>53.094</ele>
        <time>2013-11-17T09:02:15.666Z</time>
      </trkpt>
      <trkpt lat="48.4021" lon="2.55603">
        <ele>54.692</ele>
        <time>2013-11-17T09:02:20.155Z</time>
      </trkpt>
      <trkpt lat="48.40216" lon="2.55617">
        <ele>57.123</ele>
        <time>2013-11-17T09:02:23.272Z</time>
      </trkpt>
      <trkpt lat="48.40221" lon="2.55629">
        <ele>58.548</ele>
        <time>2013-11-17T09:02:25.670Z</time>
      </trkpt>
      <trkpt lat="48.40225" lon="2.55653">
        <ele>57.773</ele>
        <time>2013-11-17T09:02:29.212Z</time>
      </trkpt>
      <trkpt lat="48.40228" lon="2.5567">
        <ele>55.14</ele>
        <time>2013-11-17T09:02:31.648Z</time>
      </trkpt>
      <trkpt lat="48.40232" lon="2.55691">
        <ele>51.444</ele>
        <time>2013-11-17T09:02:34.674Z</time>
      </trkpt>
      <trkpt lat="48.40235" lon="2.55705">
        <ele>48.282</ele>
        <time>2013-11-17T09:02:36.876Z</time>
      </trkpt>
      <trkpt lat="48.40238" lon="2.55722">
        <ele>47.277</ele>
        <time>2013-11-17T09:02:39.504Z</time>
      </trkpt>
      <trkpt lat="48.40241" lon="2.5574">
        <ele>48.159</ele>
        <time>2013-11-17T09:02:42.308Z</time>
      </trkpt>
      <trkpt lat="48.40241" lon="2.55756">
        <ele>49.508</ele>
        <time>2013-11-17T09:02:44.675Z</time>
      </trkpt>
      <trkpt lat="48.40239" lon="2.55772">
        <ele>50.169</ele>
        <time>2013-11-17T09:02:47.203Z</time>
      </trkpt>
      <trkpt lat="48.40241" lon="2.55791">
        <ele>50.094</ele>
        <time>2013-11-17T09:02:50.012Z</time>
      </trkpt>
      <trkpt lat="48.40241" lon="2.55791">
        <ele>49.827</ele>
        <time>2013-11-17T09:02:53.011Z</time>
      </trkpt>
      <trkpt lat="48.40241" lon="2.55791">
        <ele>49.787</ele>
        <time>2013-11-17T09:02:58.566Z</time>
      </trkpt>
      <trkpt lat="48.40256" lon="2.55775">
        <ele>49.909</ele>
        <time>2013-11-17T09:03:13.332Z</time>
      </trkpt>
      <trkpt lat="48.40264" lon="2.55768">
        <ele>51.517</ele>
        <time>2013-11-17T09:03:17.927Z</time>
      </trkpt>
      <trkpt lat="48.40271" lon="2.55759">
        <ele>56.632</ele>
        <time>2013-11-17T09:03:23.398Z</time>
      </trkpt>
      <trkpt lat="48.40279" lon="2.5575">
        <ele>63.804</ele>
        <time>2013-11-17T09:03:28.012Z</time>
      </trkpt>
      <trkpt lat="48.40279" lon="2.5575">
        <ele>69.168</ele>
        <time>2013-11-17T09:03:36.015Z</time>
      </trkpt>
      <trkpt lat="48.40279" lon="2.5575">
        <ele>71.139</ele>
        <time>2013-11-17T09:04:24.919Z</time>
      </trkpt>
      <trkpt lat="48.40302" lon="2.55741">
        <ele>70.599</ele>
        <time>2013-11-17T09:05:24.338Z</time>
      </trkpt>
      <trkpt lat="48.40311" lon="2.55735">
        <ele>69.309</ele>
        <time>2013-11-17T09:05:30.779Z</time>
      </trkpt>
      <trkpt lat="48.40318" lon="2.55726">
        <ele>68.495</ele>
        <time>2013-11-17T09:05:35.015Z</time>
      </trkpt>
      <trkpt lat="48.40318" lon="2.55726">
        <ele>68.209</ele>
        <time>2013-11-17T09:05:36.010Z</time>
      </trkpt>
      <trkpt lat="48.40318" lon="2.55726">
        <ele>68.142</ele>
        <time>2013-11-17T09:05:36.110Z</time>
      </trkpt>
      <trkpt lat="48.40326" lon="2.55707">
        <ele>68.196</ele>
        <time>2013-11-17T09:05:46.045Z</time>
      </trkpt>
      <trkpt lat="48.40323" lon="2.55691">
        <ele>68.25</ele>
        <time>2013-11-17T09:05:49.941Z</time>
      </trkpt>
      <trkpt lat="48.40318" lon="2.55674">
        <ele>68.534</ele>
        <time>2013-11-17T09:05:53.206Z</time>
      </trkpt>
      <trkpt lat="48.40313" lon="2.55662">
        <ele>69.29</ele>
        <time>2013-11-17T09:05:55.439Z</time>
      </trkpt>
      <trkpt lat="48.40306" lon="2.55649">
        <ele>70.689</ele>
        <time>2013-11-17T09:05:58.053Z</time>
      </trkpt>
      <trkpt lat="48.40299" lon="2.55634">
        <ele>72.537</ele>
        <time>2013-11-17T09:06:00.595Z</time>
      </trkpt>
      <trkpt lat="48.40293" lon="2.55617">
        <ele>74.068</ele>
        <time>2013-11-17T09:06:03.370Z</time>
      </trkpt>
      <trkpt lat="48.40288" lon="2.55602">
        <ele>75.072</ele>
        <time>2013-11-17T09:06:05.756Z</time>
      </trkpt>
      <trkpt lat="48.40282" lon="2.55585">
        <ele>76.516</ele>
        <time>2013-11-17T09:06:08.265Z</time>
      </trkpt>
      <trkpt lat="48.40276" lon="2.55569">
        <ele>78.537</ele>
        <time>2013-11-17T09:06:10.516Z</time>
      </trkpt>
      <trkpt lat="48.40265" lon="2.55542">
        <ele>79.536</ele>
        <time>2013-11-17T09:06:13.940Z</time>
      </trkpt>
      <trkpt lat="48.40255" lon="2.55518">
        <ele>78.23</ele>
        <time>2013-11-17T09:06:16.802Z</time>
      </trkpt>
      <trkpt lat="48.40247" lon="2.55499">
        <ele>75.652</ele>
        <time>2013-11-17T09:06:19.045Z</time>
      </trkpt>
      <trkpt lat="48.40241" lon="2.55484">
        <ele>73.585</ele>
        <time>2013-11-17T09:06:20.826Z</time>
      </trkpt>
      <trkpt lat="48.40239" lon="2.55464">
        <ele>72.511</ele>
        <time>2013-11-17T09:06:23.016Z</time>
      </trkpt>
      <trkpt lat="48.40239" lon="2.55464">
        <ele>72.091</ele>
        <time>2013-11-17T09:06:24.016Z</time>
      </trkpt>
      <trkpt lat="48.40239" lon="2.55464">
        <ele>72.005</ele>
        <time>2013-11-17T09:06:24.116Z</time>
      </trkpt>
      <trkpt lat="48.4024" lon="2.55434">
        <ele>72.009</ele>
        <time>2013-11-17T09:06:34.407Z</time>
      </trkpt>
      <trkpt lat="48.4025" lon="2.55425">
        <ele>71.735</ele>
        <time>2013-11-17T09:06:38.644Z</time>
      </trkpt>
      <trkpt lat="48.40261" lon="2.55425">
        <ele>71.018</ele>
        <time>2013-11-17T09:06:42.989Z</time>
      </trkpt>
      <trkpt lat="48.40272" lon="2.55426">
        <ele>70.873</ele>
        <time>2013-11-17T09:06:48.159Z</time>
      </trkpt>
      <trkpt lat="48.40283" lon="2.55425">
        <ele>72.062</ele>
        <time>2013-11-17T09:06:53.842Z</time>
      </trkpt>
      <trkpt lat="48.40293" lon="2.5542">
        <ele>73.37</ele>
        <time>2013-11-17T09:06:58.488Z</time>
      </trkpt>
      <trkpt lat="48.40304" lon="2.55416">
        <ele>72.589</ele>
        <time>2013-11-17T09:07:01.632Z</time>
      </trkpt>
      <trkpt lat="48.40314" lon="2.55406">
        <ele>68.712</ele>
        <time>2013-11-17T09:07:04.076Z</time>
      </trkpt>
      <trkpt lat="48.40334" lon="2.55387">
        <ele>63.491</ele>
        <time>2013-11-17T09:07:08.210Z</time>
      </trkpt>
      <trkpt lat="48.40348" lon="2.55371">
        <ele>59.825</ele>
        <time>2013-11-17T09:07:11.062Z</time>
      </trkpt>
      <trkpt lat="48.40357" lon="2.5534">
        <ele>58.584</ele>
        <time>2013-11-17T09:07:14.602Z</time>
      </trkpt>
      <trkpt lat="48.40364" lon="2.55319">
        <ele>59.029</ele>
        <time>2013-11-17T09:07:17.330Z</time>
      </trkpt>
      <trkpt lat="48.40368" lon="2.55294">
        <ele>61.238</ele>
        <time>2013-11-17T09:07:20.208Z</time>
      </trkpt>
      <trkpt lat="48.40372" lon="2.5527">
        <ele>64.916</ele>
        <time>2013-11-17T09:07:22.796Z</time>
      </trkpt>
      <trkpt lat="48.40375" lon="2.55252">
        <ele>68.092</ele>
        <time>2013-11-17T09:07:24.648Z</time>
      </trkpt>
      <trkpt lat="48.40379" lon="2.55224">
        <ele>69.449</ele>
        <time>2013-11-17T09:07:27.455Z</time>
      </trkpt>
      <trkpt lat="48.40383" lon="2.55196">
        <ele>69.574</ele>
        <time>2013-11-17T09:07:30.248Z</time>
      </trkpt>
      <trkpt lat="48.40386" lon="2.55165">
        <ele>69.271</ele>
        <time>2013-11-17T09:07:33.268Z</time>
      </trkpt>
      <trkpt lat="48.40393" lon="2.55135">
        <ele>68.671</ele>
        <time>2013-11-17T09:07:36.222Z</time>
      </trkpt>
      <trkpt lat="48.40398" lon="2.55114">
        <ele>67.71</ele>
        <time>2013-11-17T09:07:38.276Z</time>
      </trkpt>
      <trkpt lat="48.40404" lon="2.55085">
        <ele>67.044</ele>
        <time>2013-11-17T09:07:41.225Z</time>
      </trkpt>
      <trkpt lat="48.40409" lon="2.55058">
        <ele>67.193</ele>
        <time>2013-11-17T09:07:44.063Z</time>
      </trkpt>
      <trkpt lat="48.40418" lon="2.55044">
        <ele>67.631</ele>
        <time>2013-11-17T09:07:46.004Z</time>
      </trkpt>
      <trkpt lat="48.40427" lon="2.55031">
        <ele>67.601</ele>
        <time>2013-11-17T09:07:47.921Z</time>
      </trkpt>
      <trkpt lat="48.40458" lon="2.54962">
        <ele>67.081</ele>
        <time>2013-11-17T09:07:56.991Z</time>
      </trkpt>
      <trkpt lat="48.40469" lon="2.54936">
        <ele>67.553</ele>
        <time>2013-11-17T09:08:00.744Z</time>
      </trkpt>
      <trkpt lat="48.40478" lon="2.54916">
        <ele>68.848</ele>
        <time>2013-11-17T09:08:03.622Z</time>
      </trkpt>
      <trkpt lat="48.40481" lon="2.549">
        <ele>71.452</ele>
        <time>2013-11-17T09:08:05.520Z</time>
      </trkpt>
      <trkpt lat="48.40495" lon="2.5488">
        <ele>74.844</ele>
        <time>2013-11-17T09:08:08.645Z</time>
      </trkpt>
      <trkpt lat="48.40515" lon="2.54861">
        <ele>76.922</ele>
        <time>2013-11-17T09:08:12.342Z</time>
      </trkpt>
      <trkpt lat="48.40527" lon="2.54851">
        <ele>76.255</ele>
        <time>2013-11-17T09:08:14.657Z</time>
      </trkpt>
      <trkpt lat="48.40545" lon="2.54837">
        <ele>73.939</ele>
        <time>2013-11-17T09:08:17.911Z</time>
      </trkpt>
      <trkpt lat="48.40561" lon="2.54827">
        <ele>71.878</ele>
        <time>2013-11-17T09:08:20.799Z</time>
      </trkpt>
      <trkpt lat="48.40574" lon="2.54816">
        <ele>70.871</ele>
        <time>2013-11-17T09:08:23.423Z</time>
      </trkpt>
      <trkpt lat="48.40583" lon="2.54809">
        <ele>70.675</ele>
        <time>2013-11-17T09:08:25.099Z</time>
      </trkpt>
      <trkpt lat="48.40591" lon="2.54802">
        <ele>70.292</ele>
        <time>2013-11-17T09:08:26.663Z</time>
      </trkpt>
      <trkpt lat="48.40603" lon="2.5479">
        <ele>69.095</ele>
        <time>2013-11-17T09:08:29.010Z</time>
      </trkpt>
      <trkpt lat="48.40618" lon="2.54775">
        <ele>67.551</ele>
        <time>2013-11-17T09:08:31.933Z</time>
      </trkpt>
      <trkpt lat="48.40635" lon="2.54763">
        <ele>65.49</ele>
        <time>2013-11-17T09:08:35.337Z</time>
      </trkpt>
      <trkpt lat="48.40643" lon="2.54756">
        <ele>62.641</ele>
        <time>2013-11-17T09:08:37.222Z</time>
      </trkpt>
      <trkpt lat="48.40646" lon="2.54739">
        <ele>60.273</ele>
        <time>2013-11-17T09:08:39.467Z</time>
      </trkpt>
      <trkpt lat="48.40646" lon="2.54719">
        <ele>59.372</ele>
        <time>2013-11-17T09:08:42.053Z</time>
      </trkpt>
      <trkpt lat="48.40645" lon="2.54705">
        <ele>59.306</ele>
        <time>2013-11-17T09:08:43.943Z</time>
      </trkpt>
      <trkpt lat="48.40646" lon="2.54689">
        <ele>59.441</ele>
        <time>2013-11-17T09:08:46.055Z</time>
      </trkpt>
      <trkpt lat="48.40651" lon="2.54664">
        <ele>60.066</ele>
        <time>2013-11-17T09:08:49.561Z</time>
      </trkpt>
      <trkpt lat="48.40657" lon="2.54644">
        <ele>62.596</ele>
        <time>2013-11-17T09:08:52.396Z</time>
      </trkpt>
      <trkpt lat="48.40664" lon="2.54617">
        <ele>67.362</ele>
        <time>2013-11-17T09:08:55.997Z</time>
      </trkpt>
      <trkpt lat="48.40668" lon="2.54597">
        <ele>72.08</ele>
        <time>2013-11-17T09:08:58.713Z</time>
      </trkpt>
      <trkpt lat="48.40673" lon="2.54574">
        <ele>74.302</ele>
        <time>2013-11-17T09:09:01.819Z</time>
      </trkpt>
      <trkpt lat="48.40673" lon="2.54558">
        <ele>73.505</ele>
        <time>2013-11-17T09:09:03.798Z</time>
      </trkpt>
      <trkpt lat="48.40674" lon="2.54536">
        <ele>70.511</ele>
        <time>2013-11-17T09:09:06.528Z</time>
      </trkpt>
      <trkpt lat="48.40675" lon="2.54517">
        <ele>67.28</ele>
        <time>2013-11-17T09:09:08.922Z</time>
      </trkpt>
      <trkpt lat="48.40674" lon="2.54499">
        <ele>65.826</ele>
        <time>2013-11-17T09:09:11.101Z</time>
      </trkpt>
      <trkpt lat="48.40673" lon="2.54475">
        <ele>66.667</ele>
        <time>2013-11-17T09:09:14.236Z</time>
      </trkpt>
      <trkpt lat="48.40673" lon="2.5446">
        <ele>68.57</ele>
        <time>2013-11-17T09:09:16.122Z</time>
      </trkpt>
      <trkpt lat="48.40674" lon="2.54441">
        <ele>70.268</ele>
        <time>2013-11-17T09:09:18.587Z</time>
      </trkpt>
      <trkpt lat="48.40671" lon="2.54419">
        <ele>71.124</ele>
        <time>2013-11-17T09:09:21.456Z</time>
      </trkpt>
      <trkpt lat="48.40668" lon="2.54402">
        <ele>70.401</ele>
        <time>2013-11-17T09:09:23.631Z</time>
      </trkpt>
      <trkpt lat="48.4066" lon="2.5438">
        <ele>68.238</ele>
        <time>2013-11-17T09:09:26.650Z</time>
      </trkpt>
      <trkpt lat="48.40653" lon="2.54358">
        <ele>66.073</ele>
        <time>2013-11-17T09:09:29.692Z</time>
      </trkpt>
      <trkpt lat="48.4065" lon="2.54343">
        <ele>64.898</ele>
        <time>2013-11-17T09:09:31.605Z</time>
      </trkpt>
      <trkpt lat="48.40648" lon="2.54321">
        <ele>64.837</ele>
        <time>2013-11-17T09:09:34.346Z</time>
      </trkpt>
      <trkpt lat="48.40645" lon="2.543">
        <ele>66.398</ele>
        <time>2013-11-17T09:09:37.186Z</time>
      </trkpt>
      <trkpt lat="48.40642" lon="2.5428">
        <ele>69.422</ele>
        <time>2013-11-17T09:09:40.146Z</time>
      </trkpt>
      <trkpt lat="48.40641" lon="2.54266">
        <ele>71.756</ele>
        <time>2013-11-17T09:09:42.158Z</time>
      </trkpt>
      <trkpt lat="48.40641" lon="2.54246">
        <ele>71.495</ele>
        <time>2013-11-17T09:09:45.192Z</time>
      </trkpt>
      <trkpt lat="48.40641" lon="2.54226">
        <ele>68.291</ele>
        <time>2013-11-17T09:09:48.041Z</time>
      </trkpt>
      <trkpt lat="48.40639" lon="2.54202">
        <ele>63.451</ele>
        <time>2013-11-17T09:09:51.405Z</time>
      </trkpt>
      <trkpt lat="48.40637" lon="2.54187">
        <ele>59.869</ele>
        <time>2013-11-17T09:09:53.765Z</time>
      </trkpt>
      <trkpt lat="48.4064" lon="2.54164">
        <ele>59.128</ele>
        <time>2013-11-17T09:09:57.635Z</time>
      </trkpt>
      <trkpt lat="48.40647" lon="2.54146">
        <ele>60.201</ele>
        <time>2013-11-17T09:10:01.443Z</time>
      </trkpt>
      <trkpt lat="48.40656" lon="2.54134">
        <ele>62.193</ele>
        <time>2013-11-17T09:10:05.465Z</time>
      </trkpt>
      <trkpt lat="48.40663" lon="2.54126">
        <ele>64.889</ele>
        <time>2013-11-17T09:10:09.089Z</time>
      </trkpt>
      <trkpt lat="48.40671" lon="2.54116">
        <ele>67.46</ele>
        <time>2013-11-17T09:10:13.546Z</time>
      </trkpt>
      <trkpt lat="48.40678" lon="2.54105">
        <ele>68.941</ele>
        <time>2013-11-17T09:10:18.126Z</time>
      </trkpt>
      <trkpt lat="48.40686" lon="2.54098">
        <ele>69.5</ele>
        <time>2013-11-17T09:10:22.019Z</time>
      </trkpt>
      <trkpt lat="48.40698" lon="2.54093">
        <ele>69.768</ele>
        <time>2013-11-17T09:10:26.399Z</time>
      </trkpt>
      <trkpt lat="48.40706" lon="2.54086">
        <ele>69.657</ele>
        <time>2013-11-17T09:10:29.597Z</time>
      </trkpt>
      <trkpt lat="48.40715" lon="2.54077">
        <ele>68.801</ele>
        <time>2013-11-17T09:10:33.150Z</time>
      </trkpt>
      <trkpt lat="48.40722" lon="2.54067">
        <ele>66.508</ele>
        <time>2013-11-17T09:10:35.843Z</time>
      </trkpt>
      <trkpt lat="48.40733" lon="2.54059">
        <ele>62.751</ele>
        <time>2013-11-17T09:10:39.048Z</time>
      </trkpt>
      <trkpt lat="48.40744" lon="2.5405">
        <ele>58.73</ele>
        <time>2013-11-17T09:10:42.057Z</time>
      </trkpt>
      <trkpt lat="48.40751" lon="2.54041">
        <ele>55.581</ele>
        <time>2013-11-17T09:10:44.271Z</time>
      </trkpt>
      <trkpt lat="48.4076" lon="2.54033">
        <ele>53.686</ele>
        <time>2013-11-17T09:10:46.471Z</time>
      </trkpt>
      <trkpt lat="48.40777" lon="2.54023">
        <ele>53.447</ele>
        <time>2013-11-17T09:10:50.191Z</time>
      </trkpt>
      <trkpt lat="48.40789" lon="2.54015">
        <ele>54.563</ele>
        <time>2013-11-17T09:10:52.882Z</time>
      </trkpt>
      <trkpt lat="48.40796" lon="2.54007">
        <ele>56.179</ele>
        <time>2013-11-17T09:10:54.735Z</time>
      </trkpt>
      <trkpt lat="48.40807" lon="2.54003">
        <ele>57.502</ele>
        <time>2013-11-17T09:10:56.906Z</time>
      </trkpt>
      <trkpt lat="48.40818" lon="2.53995">
        <ele>58.266</ele>
        <time>2013-11-17T09:10:59.408Z</time>
      </trkpt>
      <trkpt lat="48.40832" lon="2.53989">
        <ele>58.196</ele>
        <time>2013-11-17T09:11:02.065Z</time>
      </trkpt>
      <trkpt lat="48.40843" lon="2.53984">
        <ele>57.381</ele>
        <time>2013-11-17T09:11:04.333Z</time>
      </trkpt>
      <trkpt lat="48.40854" lon="2.53979">
        <ele>56.513</ele>
        <time>2013-11-17T09:11:06.527Z</time>
      </trkpt>
      <trkpt lat="48.40864" lon="2.53976">
        <ele>56.229</ele>
        <time>2013-11-17T09:11:08.551Z</time>
      </trkpt>
      <trkpt lat="48.40874" lon="2.53973">
        <ele>56.37</ele>
        <time>2013-11-17T09:11:10.394Z</time>
      </trkpt>
      <trkpt lat="48.40889" lon="2.53969">
        <ele>56.178</ele>
        <time>2013-11-17T09:11:13.090Z</time>
      </trkpt>
      <trkpt lat="48.40906" lon="2.53965">
        <ele>55.352</ele>
        <time>2013-11-17T09:11:16.162Z</time>
      </trkpt>
      <trkpt lat="48.40919" lon="2.53963">
        <ele>54.819</ele>
        <time>2013-11-17T09:11:18.396Z</time>
      </trkpt>
      <trkpt lat="48.40934" lon="2.5396">
        <ele>55.708</ele>
        <time>2013-11-17T09:11:21.021Z</time>
      </trkpt>
      <trkpt lat="48.40934" lon="2.5396">
        <ele>57.691</ele>
        <time>2013-11-17T09:11:22.015Z</time>
      </trkpt>
      <trkpt lat="48.40934" lon="2.5396">
        <ele>59.081</ele>
        <time>2013-11-17T09:11:22.115Z</time>
      </trkpt>
      <trkpt lat="48.4096" lon="2.53952">
        <ele>59.002</ele>
        <time>2013-11-17T09:11:34.206Z</time>
      </trkpt>
      <trkpt lat="48.40973" lon="2.53951">
        <ele>58.97</ele>
        <time>2013-11-17T09:11:38.609Z</time>
      </trkpt>
      <trkpt lat="48.40987" lon="2.5395">
        <ele>60.308</ele>
        <time>2013-11-17T09:11:42.979Z</time>
      </trkpt>
      <trkpt lat="48.41003" lon="2.5395">
        <ele>62.048</ele>
        <time>2013-11-17T09:11:47.200Z</time>
      </trkpt>
      <trkpt lat="48.41012" lon="2.53948">
        <ele>62.836</ele>
        <time>2013-11-17T09:11:49.867Z</time>
      </trkpt>
      <trkpt lat="48.41025" lon="2.53947">
        <ele>63.099</ele>
        <time>2013-11-17T09:11:53.136Z</time>
      </trkpt>
      <trkpt lat="48.41035" lon="2.53946">
        <ele>63.582</ele>
        <time>2013-11-17T09:11:55.940Z</time>
      </trkpt>
      <trkpt lat="48.41045" lon="2.53944">
        <ele>64.176</ele>
        <time>2013-11-17T09:11:58.568Z</time>
      </trkpt>
      <trkpt lat="48.41055" lon="2.53942">
        <ele>64.976</ele>
        <time>2013-11-17T09:12:01.216Z</time>
      </trkpt>
      <trkpt lat="48.41068" lon="2.53937">
        <ele>66.563</ele>
        <time>2013-11-17T09:12:04.479Z</time>
      </trkpt>
      <trkpt lat="48.4108" lon="2.5393">
        <ele>68.587</ele>
        <time>2013-11-17T09:12:07.766Z</time>
      </trkpt>
      <trkpt lat="48.41092" lon="2.53919">
        <ele>70.725</ele>
        <time>2013-11-17T09:12:11.322Z</time>
      </trkpt>
      <trkpt lat="48.41101" lon="2.53903">
        <ele>72.979</ele>
        <time>2013-11-17T09:12:14.930Z</time>
      </trkpt>
      <trkpt lat="48.41112" lon="2.53896">
        <ele>74.737</ele>
        <time>2013-11-17T09:12:18.138Z</time>
      </trkpt>
      <trkpt lat="48.41122" lon="2.53894">
        <ele>74.94</ele>
        <time>2013-11-17T09:12:20.694Z</time>
      </trkpt>
      <trkpt lat="48.41135" lon="2.53892">
        <ele>73.634</ele>
        <time>2013-11-17T09:12:24.178Z</time>
      </trkpt>
      <trkpt lat="48.41144" lon="2.5389">
        <ele>72.207</ele>
        <time>2013-11-17T09:12:27.081Z</time>
      </trkpt>
      <trkpt lat="48.41155" lon="2.53887">
        <ele>71.94</ele>
        <time>2013-11-17T09:12:31.409Z</time>
      </trkpt>
      <trkpt lat="48.41166" lon="2.53885">
        <ele>73.985</ele>
        <time>2013-11-17T09:12:36.106Z</time>
      </trkpt>
      <trkpt lat="48.41175" lon="2.53881">
        <ele>78.41</ele>
        <time>2013-11-17T09:12:39.983Z</time>
      </trkpt>
      <trkpt lat="48.41184" lon="2.53877">
        <ele>82.708</ele>
        <time>2013-11-17T09:12:43.930Z</time>
      </trkpt>
      <trkpt lat="48.41192" lon="2.53868">
        <ele>84.204</ele>
        <time>2013-11-17T09:12:47.449Z</time>
      </trkpt>
      <trkpt lat="48.41197" lon="2.53854">
        <ele>82.789</ele>
        <time>2013-11-17T09:12:51.091Z</time>
      </trkpt>
      <trkpt lat="48.41203" lon="2.53843">
        <ele>80.25</ele>
        <time>2013-11-17T09:12:53.970Z</time>
      </trkpt>
      <trkpt lat="48.41211" lon="2.53833">
        <ele>78.262</ele>
        <time>2013-11-17T09:12:56.968Z</time>
      </trkpt>
      <trkpt lat="48.41219" lon="2.53825">
        <ele>76.935</ele>
        <time>2013-11-17T09:12:59.691Z</time>
      </trkpt>
      <trkpt lat="48.41228" lon="2.53816">
        <ele>76.002</ele>
        <time>2013-11-17T09:13:02.633Z</time>
      </trkpt>
      <trkpt lat="48.41237" lon="2.53808">
        <ele>75.605</ele>
        <time>2013-11-17T09:13:05.248Z</time>
      </trkpt>
      <trkpt lat="48.41244" lon="2.538">
        <ele>76.227</ele>
        <time>2013-11-17T09:13:07.943Z</time>
      </trkpt>
      <trkpt lat="48.41252" lon="2.5379">
        <ele>77.799</ele>
        <time>2013-11-17T09:13:11.011Z</time>
      </trkpt>
      <trkpt lat="48.4126" lon="2.53783">
        <ele>79.575</ele>
        <time>2013-11-17T09:13:14.623Z</time>
      </trkpt>
      <trkpt lat="48.4127" lon="2.53776">
        <ele>80.605</ele>
        <time>2013-11-17T09:13:19.006Z</time>
      </trkpt>
      <trkpt lat="48.41279" lon="2.53771">
        <ele>80.499</ele>
        <time>2013-11-17T09:13:23.417Z</time>
      </trkpt>
      <trkpt lat="48.41289" lon="2.53765">
        <ele>79.837</ele>
        <time>2013-11-17T09:13:27.484Z</time>
      </trkpt>
      <trkpt lat="48.41297" lon="2.53758">
        <ele>79.577</ele>
        <time>2013-11-17T09:13:31.018Z</time>
      </trkpt>
      <trkpt lat="48.41297" lon="2.53758">
        <ele>79.857</ele>
        <time>2013-11-17T09:13:39.022Z</time>
      </trkpt>
      <trkpt lat="48.41297" lon="2.53758">
        <ele>80.191</ele>
        <time>2013-11-17T09:14:07.081Z</time>
      </trkpt>
      <trkpt lat="48.41317" lon="2.53727">
        <ele>80.166</ele>
        <time>2013-11-17T09:14:23.676Z</time>
      </trkpt>
      <trkpt lat="48.41328" lon="2.53713">
        <ele>80.629</ele>
        <time>2013-11-17T09:14:26.251Z</time>
      </trkpt>
      <trkpt lat="48.41349" lon="2.53696">
        <ele>82.252</ele>
        <time>2013-11-17T09:14:28.894Z</time>
      </trkpt>
      <trkpt lat="48.41375" lon="2.53687">
        <ele>83.601</ele>
        <time>2013-11-17T09:14:31.811Z</time>
      </trkpt>
      <trkpt lat="48.41392" lon="2.53675">
        <ele>82.463</ele>
        <time>2013-11-17T09:14:34.360Z</time>
      </trkpt>
      <trkpt lat="48.41407" lon="2.53659">
        <ele>78.95</ele>
        <time>2013-11-17T09:14:36.860Z</time>
      </trkpt>
      <trkpt lat="48.41424" lon="2.53645">
        <ele>75.231</ele>
        <time>2013-11-17T09:14:39.593Z</time>
      </trkpt>
      <trkpt lat="48.41436" lon="2.53647">
        <ele>72.806</ele>
        <time>2013-11-17T09:14:41.502Z</time>
      </trkpt>
      <trkpt lat="48.41449" lon="2.53649">
        <ele>71.077</ele>
        <time>2013-11-17T09:14:43.398Z</time>
      </trkpt>
      <trkpt lat="48.41467" lon="2.53647">
        <ele>69.037</ele>
        <time>2013-11-17T09:14:45.861Z</time>
      </trkpt>
      <trkpt lat="48.41486" lon="2.53651">
        <ele>66.898</ele>
        <time>2013-11-17T09:14:48.336Z</time>
      </trkpt>
      <trkpt lat="48.41499" lon="2.53647">
        <ele>65.07</ele>
        <time>2013-11-17T09:14:50.028Z</time>
      </trkpt>
      <trkpt lat="48.4151" lon="2.53637">
        <ele>63.389</ele>
        <time>2013-11-17T09:14:51.704Z</time>
      </trkpt>
      <trkpt lat="48.41517" lon="2.53613">
        <ele>62.147</ele>
        <time>2013-11-17T09:14:53.950Z</time>
      </trkpt>
      <trkpt lat="48.41526" lon="2.53601">
        <ele>61.688</ele>
        <time>2013-11-17T09:14:55.615Z</time>
      </trkpt>
      <trkpt lat="48.41542" lon="2.53583">
        <ele>61.712</ele>
        <time>2013-11-17T09:14:58.429Z</time>
      </trkpt>
      <trkpt lat="48.41552" lon="2.53574">
        <ele>60.852</ele>
        <time>2013-11-17T09:15:00.077Z</time>
      </trkpt>
      <trkpt lat="48.41565" lon="2.53561">
        <ele>58.314</ele>
        <time>2013-11-17T09:15:02.302Z</time>
      </trkpt>
      <trkpt lat="48.41573" lon="2.53548">
        <ele>55.805</ele>
        <time>2013-11-17T09:15:04.383Z</time>
      </trkpt>
      <trkpt lat="48.41587" lon="2.53532">
        <ele>54.956</ele>
        <time>2013-11-17T09:15:07.984Z</time>
      </trkpt>
      <trkpt lat="48.41599" lon="2.53522">
        <ele>55.688</ele>
        <time>2013-11-17T09:15:11.233Z</time>
      </trkpt>
      <trkpt lat="48.41613" lon="2.53503">
        <ele>57.55</ele>
        <time>2013-11-17T09:15:14.917Z</time>
      </trkpt>
      <trkpt lat="48.41619" lon="2.53489">
        <ele>59.853</ele>
        <time>2013-11-17T09:15:16.846Z</time>
      </trkpt>
      <trkpt lat="48.4163" lon="2.53466">
        <ele>61.985</ele>
        <time>2013-11-17T09:15:20.301Z</time>
      </trkpt>
      <trkpt lat="48.41642" lon="2.53452">
        <ele>63.63</ele>
        <time>2013-11-17T09:15:23.067Z</time>
      </trkpt>
      <trkpt lat="48.41651" lon="2.53441">
        <ele>64.526</ele>
        <time>2013-11-17T09:15:25.213Z</time>
      </trkpt>
      <trkpt lat="48.41661" lon="2.53426">
        <ele>64.773</ele>
        <time>2013-11-17T09:15:27.775Z</time>
      </trkpt>
      <trkpt lat="48.41671" lon="2.53414">
        <ele>64.212</ele>
        <time>2013-11-17T09:15:29.995Z</time>
      </trkpt>
      <trkpt lat="48.41691" lon="2.53395">
        <ele>62.808</ele>
        <time>2013-11-17T09:15:34.027Z</time>
      </trkpt>
      <trkpt lat="48.41705" lon="2.53382">
        <ele>61.6</ele>
        <time>2013-11-17T09:15:36.410Z</time>
      </trkpt>
      <trkpt lat="48.41717" lon="2.53367">
        <ele>61.635</ele>
        <time>2013-11-17T09:15:38.731Z</time>
      </trkpt>
      <trkpt lat="48.41736" lon="2.53344">
        <ele>62.964</ele>
        <time>2013-11-17T09:15:42.229Z</time>
      </trkpt>
      <trkpt lat="48.41746" lon="2.53328">
        <ele>64.9</ele>
        <time>2013-11-17T09:15:44.268Z</time>
      </trkpt>
      <trkpt lat="48.41751" lon="2.53313">
        <ele>66.864</ele>
        <time>2013-11-17T09:15:45.853Z</time>
      </trkpt>
      <trkpt lat="48.41757" lon="2.53297">
        <ele>68.672</ele>
        <time>2013-11-17T09:15:47.890Z</time>
      </trkpt>
      <trkpt lat="48.4177" lon="2.53286">
        <ele>69.839</ele>
        <time>2013-11-17T09:15:50.537Z</time>
      </trkpt>
      <trkpt lat="48.41781" lon="2.53272">
        <ele>70.014</ele>
        <time>2013-11-17T09:15:53.190Z</time>
      </trkpt>
      <trkpt lat="48.41786" lon="2.53255">
        <ele>69.367</ele>
        <time>2013-11-17T09:15:55.446Z</time>
      </trkpt>
      <trkpt lat="48.41786" lon="2.5324">
        <ele>67.896</ele>
        <time>2013-11-17T09:15:57.260Z</time>
      </trkpt>
      <trkpt lat="48.41785" lon="2.53218">
        <ele>65.786</ele>
        <time>2013-11-17T09:16:00.071Z</time>
      </trkpt>
      <trkpt lat="48.41785" lon="2.53204">
        <ele>63.772</ele>
        <time>2013-11-17T09:16:01.826Z</time>
      </trkpt>
      <trkpt lat="48.41787" lon="2.53185">
        <ele>62.562</ele>
        <time>2013-11-17T09:16:04.153Z</time>
      </trkpt>
      <trkpt lat="48.41795" lon="2.53165">
        <ele>61.198</ele>
        <time>2013-11-17T09:16:06.994Z</time>
      </trkpt>
      <trkpt lat="48.41801" lon="2.53149">
        <ele>58.225</ele>
        <time>2013-11-17T09:16:09.586Z</time>
      </trkpt>
      <trkpt lat="48.41805" lon="2.53133">
        <ele>54.628</ele>
        <time>2013-11-17T09:16:12.686Z</time>
      </trkpt>
      <trkpt lat="48.41809" lon="2.53116">
        <ele>52.837</ele>
        <time>2013-11-17T09:16:16.945Z</time>
      </trkpt>
      <trkpt lat="48.41812" lon="2.53099">
        <ele>53.609</ele>
        <time>2013-11-17T09:16:20.370Z</time>
      </trkpt>
      <trkpt lat="48.41813" lon="2.53078">
        <ele>56.215</ele>
        <time>2013-11-17T09:16:23.655Z</time>
      </trkpt>
      <trkpt lat="48.41816" lon="2.53063">
        <ele>59.928</ele>
        <time>2013-11-17T09:16:26.029Z</time>
      </trkpt>
      <trkpt lat="48.41816" lon="2.53063">
        <ele>63.719</ele>
        <time>2013-11-17T09:16:32.031Z</time>
      </trkpt>
      <trkpt lat="48.41816" lon="2.53063">
        <ele>65.776</ele>
        <time>2013-11-17T09:16:32.131Z</time>
      </trkpt>
      <trkpt lat="48.41814" lon="2.53037">
        <ele>65.582</ele>
        <time>2013-11-17T09:16:41.837Z</time>
      </trkpt>
      <trkpt lat="48.41808" lon="2.53022">
        <ele>65.292</ele>
        <time>2013-11-17T09:16:45.982Z</time>
      </trkpt>
      <trkpt lat="48.41803" lon="2.53011">
        <ele>66.815</ele>
        <time>2013-11-17T09:16:49.702Z</time>
      </trkpt>
      <trkpt lat="48.41795" lon="2.52998">
        <ele>69.228</ele>
        <time>2013-11-17T09:16:54.724Z</time>
      </trkpt>
      <trkpt lat="48.41785" lon="2.52986">
        <ele>71.964</ele>
        <time>2013-11-17T09:17:01.332Z</time>
      </trkpt>
      <trkpt lat="48.41775" lon="2.5298">
        <ele>76.675</ele>
        <time>2013-11-17T09:17:06.631Z</time>
      </trkpt>
      <trkpt lat="48.41765" lon="2.52974">
        <ele>82.842</ele>
        <time>2013-11-17T09:17:11.946Z</time>
      </trkpt>
      <trkpt lat="48.41757" lon="2.52965">
        <ele>87.375</ele>
        <time>2013-11-17T09:17:16.936Z</time>
      </trkpt>
      <trkpt lat="48.4175" lon="2.52954">
        <ele>89.282</ele>
        <time>2013-11-17T09:17:22.423Z</time>
      </trkpt>
      <trkpt lat="48.41738" lon="2.52945">
        <ele>89.851</ele>
        <time>2013-11-17T09:17:31.029Z</time>
      </trkpt>
      <trkpt lat="48.41725" lon="2.52942">
        <ele>88.714</ele>
        <time>2013-11-17T09:17:40.699Z</time>
      </trkpt>
      <trkpt lat="48.41713" lon="2.5294">
        <ele>85.396</ele>
        <time>2013-11-17T09:17:47.848Z</time>
      </trkpt>
      <trkpt lat="48.41704" lon="2.52939">
        <ele>81.804</ele>
        <time>2013-11-17T09:17:53.548Z</time>
      </trkpt>
      <trkpt lat="48.4169" lon="2.52934">
        <ele>79.96</ele>
        <time>2013-11-17T09:18:03.793Z</time>
      </trkpt>
      <trkpt lat="48.41674" lon="2.52931">
        <ele>80.435</ele>
        <time>2013-11-17T09:18:18.965Z</time>
      </trkpt>
      <trkpt lat="48.41667" lon="2.52919">
        <ele>83.186</ele>
        <time>2013-11-17T09:18:27.775Z</time>
      </trkpt>
      <trkpt lat="48.41668" lon="2.52902">
        <ele>87.151</ele>
        <time>2013-11-17T09:18:35.578Z</time>
      </trkpt>
      <trkpt lat="48.41665" lon="2.52887">
        <ele>90.444</ele>
        <time>2013-11-17T09:18:43.171Z</time>
      </trkpt>
      <trkpt lat="48.41661" lon="2.52874">
        <ele>92.027</ele>
        <time>2013-11-17T09:18:51.310Z</time>
      </trkpt>
      <trkpt lat="48.41661" lon="2.52858">
        <ele>92.269</ele>
        <time>2013-11-17T09:19:01.270Z</time>
      </trkpt>
      <trkpt lat="48.41661" lon="2.52841">
        <ele>92.304</ele>
        <time>2013-11-17T09:19:12.146Z</time>
      </trkpt>
      <trkpt lat="48.41661" lon="2.52823">
        <ele>92.965</ele>
        <time>2013-11-17T09:19:26.768Z</time>
      </trkpt>
      <trkpt lat="48.41658" lon="2.52809">
        <ele>94.927</ele>
        <time>2013-11-17T09:19:32.395Z</time>
      </trkpt>
      <trkpt lat="48.41654" lon="2.52796">
        <ele>98.145</ele>
        <time>2013-11-17T09:19:36.495Z</time>
      </trkpt>
      <trkpt lat="48.41647" lon="2.52783">
        <ele>101.235</ele>
        <time>2013-11-17T09:19:41.119Z</time>
      </trkpt>
      <trkpt lat="48.41639" lon="2.52773">
        <ele>102.288</ele>
        <time>2013-11-17T09:19:46.513Z</time>
      </trkpt>
      <trkpt lat="48.41629" lon="2.52754">
        <ele>101.201</ele>
        <time>2013-11-17T09:19:56.381Z</time>
      </trkpt>
      <trkpt lat="48.41624" lon="2.5274">
        <ele>99.122</ele>
        <time>2013-11-17T09:20:03.357Z</time>
      </trkpt>
      <trkpt lat="48.41617" lon="2.52726">
        <ele>97.2</ele>
        <time>2013-11-17T09:20:10.112Z</time>
      </trkpt>
      <trkpt lat="48.41616" lon="2.52711">
        <ele>96.033</ele>
        <time>2013-11-17T09:20:15.674Z</time>
      </trkpt>
      <trkpt lat="48.41612" lon="2.52698">
        <ele>96.457</ele>
        <time>2013-11-17T09:20:20.548Z</time>
      </trkpt>
      <trkpt lat="48.41605" lon="2.52686">
        <ele>99.295</ele>
        <time>2013-11-17T09:20:25.724Z</time>
      </trkpt>
      <trkpt lat="48.41598" lon="2.52676">
        <ele>103.548</ele>
        <time>2013-11-17T09:20:30.847Z</time>
      </trkpt>
      <trkpt lat="48.41589" lon="2.52662">
        <ele>108.125</ele>
        <time>2013-11-17T09:20:38.548Z</time>
      </trkpt>
      <trkpt lat="48.41586" lon="2.52649">
        <ele>109.523</ele>
        <time>2013-11-17T09:20:45.406Z</time>
      </trkpt>
      <trkpt lat="48.41585" lon="2.52634">
        <ele>112.452</ele>
        <time>2013-11-17T09:20:52.802Z</time>
      </trkpt>
      <trkpt lat="48.41583" lon="2.52619">
        <ele>115.841</ele>
        <time>2013-11-17T09:20:59.543Z</time>
      </trkpt>
      <trkpt lat="48.41586" lon="2.52605">
        <ele>117.402</ele>
        <time>2013-11-17T09:21:05.471Z</time>
      </trkpt>
      <trkpt lat="48.41589" lon="2.5259">
        <ele>116.977</ele>
        <time>2013-11-17T09:21:11.591Z</time>
      </trkpt>
      <trkpt lat="48.41594" lon="2.52575">
        <ele>117.706</ele>
        <time>2013-11-17T09:21:17.023Z</time>
      </trkpt>
      <trkpt lat="48.41594" lon="2.52575">
        <ele>118.785</ele>
        <time>2013-11-17T09:21:20.034Z</time>
      </trkpt>
      <trkpt lat="48.41594" lon="2.52575">
        <ele>119.152</ele>
        <time>2013-11-17T09:21:20.134Z</time>
      </trkpt>
      <trkpt lat="48.41603" lon="2.52543">
        <ele>118.99</ele>
        <time>2013-11-17T09:21:41.540Z</time>
      </trkpt>
      <trkpt lat="48.41608" lon="2.52531">
        <ele>118.841</ele>
        <time>2013-11-17T09:21:45.652Z</time>
      </trkpt>
      <trkpt lat="48.41614" lon="2.52518">
        <ele>118.922</ele>
        <time>2013-11-17T09:21:49.845Z</time>
      </trkpt>
      <trkpt lat="48.4162" lon="2.52504">
        <ele>118.861</ele>
        <time>2013-11-17T09:21:53.886Z</time>
      </trkpt>
      <trkpt lat="48.4162" lon="2.5249">
        <ele>118.342</ele>
        <time>2013-11-17T09:21:57.242Z</time>
      </trkpt>
      <trkpt lat="48.41614" lon="2.52479">
        <ele>117.686</ele>
        <time>2013-11-17T09:22:00.299Z</time>
      </trkpt>
      <trkpt lat="48.41611" lon="2.52466">
        <ele>117.448</ele>
        <time>2013-11-17T09:22:03.278Z</time>
      </trkpt>
      <trkpt lat="48.41613" lon="2.5245">
        <ele>117.672</ele>
        <time>2013-11-17T09:22:06.503Z</time>
      </trkpt>
      <trkpt lat="48.41619" lon="2.52439">
        <ele>118.02</ele>
        <time>2013-11-17T09:22:09.239Z</time>
      </trkpt>
      <trkpt lat="48.41628" lon="2.52432">
        <ele>118.383</ele>
        <time>2013-11-17T09:22:12.021Z</time>
      </trkpt>
      <trkpt lat="48.41628" lon="2.52432">
        <ele>118.817</ele>
        <time>2013-11-17T09:22:25.297Z</time>
      </trkpt>
      <trkpt lat="48.41628" lon="2.52432">
        <ele>119.068</ele>
        <time>2013-11-17T09:23:17.969Z</time>
      </trkpt>
      <trkpt lat="48.41636" lon="2.52413">
        <ele>118.943</ele>
        <time>2013-11-17T09:23:39.365Z</time>
      </trkpt>
      <trkpt lat="48.4164" lon="2.52397">
        <ele>117.891</ele>
        <time>2013-11-17T09:23:43.780Z</time>
      </trkpt>
      <trkpt lat="48.41643" lon="2.52384">
        <ele>115.77</ele>
        <time>2013-11-17T09:23:46.181Z</time>
      </trkpt>
      <trkpt lat="48.4165" lon="2.52362">
        <ele>113.916</ele>
        <time>2013-11-17T09:23:49.339Z</time>
      </trkpt>
      <trkpt lat="48.41655" lon="2.52344">
        <ele>113.519</ele>
        <time>2013-11-17T09:23:51.761Z</time>
      </trkpt>
      <trkpt lat="48.41661" lon="2.52323">
        <ele>114.119</ele>
        <time>2013-11-17T09:23:54.115Z</time>
      </trkpt>
      <trkpt lat="48.41665" lon="2.52307">
        <ele>114.466</ele>
        <time>2013-11-17T09:23:55.807Z</time>
      </trkpt>
      <trkpt lat="48.4167" lon="2.52288">
        <ele>113.931</ele>
        <time>2013-11-17T09:23:57.636Z</time>
      </trkpt>
      <trkpt lat="48.4168" lon="2.5226">
        <ele>113.229</ele>
        <time>2013-11-17T09:24:00.387Z</time>
      </trkpt>
      <trkpt lat="48.41684" lon="2.52241">
        <ele>113.349</ele>
        <time>2013-11-17T09:24:02.469Z</time>
      </trkpt>
      <trkpt lat="48.41689" lon="2.52215">
        <ele>114.224</ele>
        <time>2013-11-17T09:24:06.671Z</time>
      </trkpt>
      <trkpt lat="48.41696" lon="2.52206">
        <ele>114.962</ele>
        <time>2013-11-17T09:24:08.517Z</time>
      </trkpt>
      <trkpt lat="48.41708" lon="2.52198">
        <ele>115.024</ele>
        <time>2013-11-17T09:24:10.287Z</time>
      </trkpt>
      <trkpt lat="48.41728" lon="2.52197">
        <ele>114.677</ele>
        <time>2013-11-17T09:24:12.849Z</time>
      </trkpt>
      <trkpt lat="48.41751" lon="2.52189">
        <ele>113.44</ele>
        <time>2013-11-17T09:24:15.757Z</time>
      </trkpt>
      <trkpt lat="48.41768" lon="2.52165">
        <ele>110.954</ele>
        <time>2013-11-17T09:24:18.924Z</time>
      </trkpt>
      <trkpt lat="48.41776" lon="2.52138">
        <ele>108.686</ele>
        <time>2013-11-17T09:24:22.016Z</time>
      </trkpt>
      <trkpt lat="48.41778" lon="2.52123">
        <ele>107.907</ele>
        <time>2013-11-17T09:24:23.686Z</time>
      </trkpt>
      <trkpt lat="48.41779" lon="2.52104">
        <ele>107.822</ele>
        <time>2013-11-17T09:24:25.641Z</time>
      </trkpt>
      <trkpt lat="48.41779" lon="2.5208">
        <ele>107.489</ele>
        <time>2013-11-17T09:24:28.253Z</time>
      </trkpt>
      <trkpt lat="48.41776" lon="2.52067">
        <ele>107.1</ele>
        <time>2013-11-17T09:24:29.792Z</time>
      </trkpt>
      <trkpt lat="48.41772" lon="2.52046">
        <ele>107.319</ele>
        <time>2013-11-17T09:24:31.977Z</time>
      </trkpt>
      <trkpt lat="48.41773" lon="2.52018">
        <ele>108.597</ele>
        <time>2013-11-17T09:24:34.598Z</time>
      </trkpt>
      <trkpt lat="48.41775" lon="2.51998">
        <ele>110.733</ele>
        <time>2013-11-17T09:24:36.462Z</time>
      </trkpt>
      <trkpt lat="48.41775" lon="2.51966">
        <ele>112.68</ele>
        <time>2013-11-17T09:24:39.524Z</time>
      </trkpt>
      <trkpt lat="48.41774" lon="2.51952">
        <ele>113.659</ele>
        <time>2013-11-17T09:24:41.278Z</time>
      </trkpt>
      <trkpt lat="48.41776" lon="2.5193">
        <ele>113.719</ele>
        <time>2013-11-17T09:24:44.225Z</time>
      </trkpt>
      <trkpt lat="48.41778" lon="2.51913">
        <ele>112.897</ele>
        <time>2013-11-17T09:24:47.090Z</time>
      </trkpt>
      <trkpt lat="48.41776" lon="2.51889">
        <ele>111.218</ele>
        <time>2013-11-17T09:24:51.276Z</time>
      </trkpt>
      <trkpt lat="48.41772" lon="2.51871">
        <ele>109.375</ele>
        <time>2013-11-17T09:24:55.465Z</time>
      </trkpt>
      <trkpt lat="48.41776" lon="2.51859">
        <ele>108.226</ele>
        <time>2013-11-17T09:24:59.033Z</time>
      </trkpt>
      <trkpt lat="48.41776" lon="2.51859">
        <ele>107.889</ele>
        <time>2013-11-17T09:25:03.044Z</time>
      </trkpt>
      <trkpt lat="48.41776" lon="2.51859">
        <ele>107.948</ele>
        <time>2013-11-17T09:25:03.144Z</time>
      </trkpt>
      <trkpt lat="48.41789" lon="2.51843">
        <ele>108.061</ele>
        <time>2013-11-17T09:25:09.456Z</time>
      </trkpt>
      <trkpt lat="48.41795" lon="2.51831">
        <ele>108.357</ele>
        <time>2013-11-17T09:25:11.316Z</time>
      </trkpt>
      <trkpt lat="48.418" lon="2.51814">
        <ele>108.997</ele>
        <time>2013-11-17T09:25:13.302Z</time>
      </trkpt>
      <trkpt lat="48.41806" lon="2.51785">
        <ele>109.234</ele>
        <time>2013-11-17T09:25:16.139Z</time>
      </trkpt>
      <trkpt lat="48.41817" lon="2.51751">
        <ele>107.903</ele>
        <time>2013-11-17T09:25:19.232Z</time>
      </trkpt>
      <trkpt lat="48.41827" lon="2.51735">
        <ele>105.176</ele>
        <time>2013-11-17T09:25:21.288Z</time>
      </trkpt>
      <trkpt lat="48.41828" lon="2.51718">
        <ele>102.445</ele>
        <time>2013-11-17T09:25:23.191Z</time>
      </trkpt>
      <trkpt lat="48.41821" lon="2.517">
        <ele>100.207</ele>
        <time>2013-11-17T09:25:25.748Z</time>
      </trkpt>
      <trkpt lat="48.41814" lon="2.51686">
        <ele>98.096</ele>
        <time>2013-11-17T09:25:28.219Z</time>
      </trkpt>
      <trkpt lat="48.41826" lon="2.51682">
        <ele>95.428</ele>
        <time>2013-11-17T09:25:31.101Z</time>
      </trkpt>
      <trkpt lat="48.41837" lon="2.51692">
        <ele>91.412</ele>
        <time>2013-11-17T09:25:33.662Z</time>
      </trkpt>
      <trkpt lat="48.41846" lon="2.51707">
        <ele>86.934</ele>
        <time>2013-11-17T09:25:35.685Z</time>
      </trkpt>
      <trkpt lat="48.41866" lon="2.51724">
        <ele>83.657</ele>
        <time>2013-11-17T09:25:38.406Z</time>
      </trkpt>
      <trkpt lat="48.41879" lon="2.51728">
        <ele>81.644</ele>
        <time>2013-11-17T09:25:39.864Z</time>
      </trkpt>
      <trkpt lat="48.41897" lon="2.51738">
        <ele>79.644</ele>
        <time>2013-11-17T09:25:41.936Z</time>
      </trkpt>
      <trkpt lat="48.41915" lon="2.51753">
        <ele>76.446</ele>
        <time>2013-11-17T09:25:44.226Z</time>
      </trkpt>
      <trkpt lat="48.41938" lon="2.51768">
        <ele>72.65</ele>
        <time>2013-11-17T09:25:46.684Z</time>
      </trkpt>
      <trkpt lat="48.41958" lon="2.51787">
        <ele>70.293</ele>
        <time>2013-11-17T09:25:49.190Z</time>
      </trkpt>
      <trkpt lat="48.41978" lon="2.51805">
        <ele>69.961</ele>
        <time>2013-11-17T09:25:52.138Z</time>
      </trkpt>
      <trkpt lat="48.41998" lon="2.51825">
        <ele>70.507</ele>
        <time>2013-11-17T09:25:55.460Z</time>
      </trkpt>
      <trkpt lat="48.42012" lon="2.51852">
        <ele>70.589</ele>
        <time>2013-11-17T09:25:58.598Z</time>
      </trkpt>
      <trkpt lat="48.42018" lon="2.51865">
        <ele>69.694</ele>
        <time>2013-11-17T09:26:00.104Z</time>
      </trkpt>
      <trkpt lat="48.42027" lon="2.51881">
        <ele>68.347</ele>
        <time>2013-11-17T09:26:02.212Z</time>
      </trkpt>
      <trkpt lat="48.42039" lon="2.51897">
        <ele>67.184</ele>
        <time>2013-11-17T09:26:04.851Z</time>
      </trkpt>
      <trkpt lat="48.42047" lon="2.51915">
        <ele>65.768</ele>
        <time>2013-11-17T09:26:07.816Z</time>
      </trkpt>
      <trkpt lat="48.42058" lon="2.51936">
        <ele>63.109</ele>
        <time>2013-11-17T09:26:11.285Z</time>
      </trkpt>
      <trkpt lat="48.4207" lon="2.51943">
        <ele>59.177</ele>
        <time>2013-11-17T09:26:13.813Z</time>
      </trkpt>
      <trkpt lat="48.42084" lon="2.5195">
        <ele>55.012</ele>
        <time>2013-11-17T09:26:16.358Z</time>
      </trkpt>
      <trkpt lat="48.42094" lon="2.51956">
        <ele>51.815</ele>
        <time>2013-11-17T09:26:18.561Z</time>
      </trkpt>
      <trkpt lat="48.42106" lon="2.51962">
        <ele>50.594</ele>
        <time>2013-11-17T09:26:20.992Z</time>
      </trkpt>
      <trkpt lat="48.42125" lon="2.51967">
        <ele>51.3</ele>
        <time>2013-11-17T09:26:24.017Z</time>
      </trkpt>
      <trkpt lat="48.42135" lon="2.51966">
        <ele>52.564</ele>
        <time>2013-11-17T09:26:25.490Z</time>
      </trkpt>
      <trkpt lat="48.42144" lon="2.51957">
        <ele>53.617</ele>
        <time>2013-11-17T09:26:27.215Z</time>
      </trkpt>
      <trkpt lat="48.4215" lon="2.51942">
        <ele>54.653</ele>
        <time>2013-11-17T09:26:29.174Z</time>
      </trkpt>
      <trkpt lat="48.42157" lon="2.51923">
        <ele>55.819</ele>
        <time>2013-11-17T09:26:32.091Z</time>
      </trkpt>
      <trkpt lat="48.42161" lon="2.51909">
        <ele>57.008</ele>
        <time>2013-11-17T09:26:34.553Z</time>
      </trkpt>
      <trkpt lat="48.42168" lon="2.51888">
        <ele>57.875</ele>
        <time>2013-11-17T09:26:38.102Z</time>
      </trkpt>
      <trkpt lat="48.42174" lon="2.51873">
        <ele>58.222</ele>
        <time>2013-11-17T09:26:40.395Z</time>
      </trkpt>
      <trkpt lat="48.42189" lon="2.5185">
        <ele>58.723</ele>
        <time>2013-11-17T09:26:44.591Z</time>
      </trkpt>
      <trkpt lat="48.422" lon="2.51835">
        <ele>60.716</ele>
        <time>2013-11-17T09:26:48.610Z</time>
      </trkpt>
      <trkpt lat="48.42205" lon="2.51823">
        <ele>64.158</ele>
        <time>2013-11-17T09:26:55.029Z</time>
      </trkpt>
      <trkpt lat="48.42205" lon="2.51823">
        <ele>66.904</ele>
        <time>2013-11-17T09:26:58.033Z</time>
      </trkpt>
      <trkpt lat="48.42205" lon="2.51823">
        <ele>67.669</ele>
        <time>2013-11-17T09:26:58.033Z</time>
      </trkpt>
      <trkpt lat="48.42205" lon="2.51823">
        <ele>67.328</ele>
        <time>2013-11-17T09:26:58.133Z</time>
      </trkpt>
      <trkpt lat="48.42213" lon="2.518">
        <ele>67.031</ele>
        <time>2013-11-17T09:27:06.303Z</time>
      </trkpt>
      <trkpt lat="48.42215" lon="2.51785">
        <ele>67.809</ele>
        <time>2013-11-17T09:27:09.335Z</time>
      </trkpt>
      <trkpt lat="48.42218" lon="2.51772">
        <ele>69.824</ele>
        <time>2013-11-17T09:27:12.274Z</time>
      </trkpt>
      <trkpt lat="48.42219" lon="2.51759">
        <ele>71.703</ele>
        <time>2013-11-17T09:27:15.361Z</time>
      </trkpt>
      <trkpt lat="48.42222" lon="2.51744">
        <ele>71.378</ele>
        <time>2013-11-17T09:27:18.926Z</time>
      </trkpt>
      <trkpt lat="48.42224" lon="2.51718">
        <ele>68.65</ele>
        <time>2013-11-17T09:27:24.826Z</time>
      </trkpt>
      <trkpt lat="48.42227" lon="2.51704">
        <ele>65.711</ele>
        <time>2013-11-17T09:27:27.651Z</time>
      </trkpt>
      <trkpt lat="48.42235" lon="2.51689">
        <ele>64.328</ele>
        <time>2013-11-17T09:27:31.928Z</time>
      </trkpt>
      <trkpt lat="48.42242" lon="2.51682">
        <ele>64.123</ele>
        <time>2013-11-17T09:27:35.034Z</time>
      </trkpt>
      <trkpt lat="48.42242" lon="2.51682">
        <ele>64.241</ele>
        <time>2013-11-17T09:27:36.036Z</time>
      </trkpt>
      <trkpt lat="48.42242" lon="2.51682">
        <ele>64.237</ele>
        <time>2013-11-17T09:27:42.794Z</time>
      </trkpt>
      <trkpt lat="48.4226" lon="2.51671">
        <ele>64.152</ele>
        <time>2013-11-17T09:27:55.070Z</time>
      </trkpt>
      <trkpt lat="48.4227" lon="2.51661">
        <ele>65.062</ele>
        <time>2013-11-17T09:27:58.966Z</time>
      </trkpt>
      <trkpt lat="48.42278" lon="2.51653">
        <ele>67.532</ele>
        <time>2013-11-17T09:28:01.560Z</time>
      </trkpt>
      <trkpt lat="48.42286" lon="2.51638">
        <ele>69.61</ele>
        <time>2013-11-17T09:28:04.741Z</time>
      </trkpt>
      <trkpt lat="48.42291" lon="2.51624">
        <ele>69.509</ele>
        <time>2013-11-17T09:28:07.210Z</time>
      </trkpt>
      <trkpt lat="48.42292" lon="2.51607">
        <ele>68.187</ele>
        <time>2013-11-17T09:28:09.502Z</time>
      </trkpt>
      <trkpt lat="48.4229" lon="2.51584">
        <ele>67.626</ele>
        <time>2013-11-17T09:28:12.426Z</time>
      </trkpt>
      <trkpt lat="48.42292" lon="2.51569">
        <ele>69.309</ele>
        <time>2013-11-17T09:28:14.349Z</time>
      </trkpt>
      <trkpt lat="48.42298" lon="2.51552">
        <ele>72.702</ele>
        <time>2013-11-17T09:28:16.715Z</time>
      </trkpt>
      <trkpt lat="48.42302" lon="2.51539">
        <ele>75.318</ele>
        <time>2013-11-17T09:28:18.455Z</time>
      </trkpt>
      <trkpt lat="48.42308" lon="2.51521">
        <ele>75.756</ele>
        <time>2013-11-17T09:28:21.008Z</time>
      </trkpt>
      <trkpt lat="48.42312" lon="2.51502">
        <ele>74.39</ele>
        <time>2013-11-17T09:28:23.638Z</time>
      </trkpt>
      <trkpt lat="48.42315" lon="2.51488">
        <ele>72.195</ele>
        <time>2013-11-17T09:28:25.736Z</time>
      </trkpt>
      <trkpt lat="48.42323" lon="2.51477">
        <ele>70.343</ele>
        <time>2013-11-17T09:28:28.070Z</time>
      </trkpt>
      <trkpt lat="48.42328" lon="2.51466">
        <ele>69.6</ele>
        <time>2013-11-17T09:28:30.285Z</time>
      </trkpt>
      <trkpt lat="48.42334" lon="2.51449">
        <ele>69.642</ele>
        <time>2013-11-17T09:28:33.565Z</time>
      </trkpt>
      <trkpt lat="48.42337" lon="2.51433">
        <ele>69.217</ele>
        <time>2013-11-17T09:28:36.362Z</time>
      </trkpt>
      <trkpt lat="48.42346" lon="2.51408">
        <ele>67.59</ele>
        <time>2013-11-17T09:28:40.065Z</time>
      </trkpt>
      <trkpt lat="48.42351" lon="2.51388">
        <ele>65.667</ele>
        <time>2013-11-17T09:28:42.332Z</time>
      </trkpt>
      <trkpt lat="48.42352" lon="2.51367">
        <ele>64.526</ele>
        <time>2013-11-17T09:28:44.403Z</time>
      </trkpt>
      <trkpt lat="48.42357" lon="2.5134">
        <ele>64.586</ele>
        <time>2013-11-17T09:28:47.041Z</time>
      </trkpt>
      <trkpt lat="48.42357" lon="2.5134">
        <ele>65.618</ele>
        <time>2013-11-17T09:28:49.032Z</time>
      </trkpt>
      <trkpt lat="48.42357" lon="2.5134">
        <ele>66.505</ele>
        <time>2013-11-17T09:28:49.132Z</time>
      </trkpt>
      <trkpt lat="48.42369" lon="2.51291">
        <ele>66.467</ele>
        <time>2013-11-17T09:29:02.419Z</time>
      </trkpt>
      <trkpt lat="48.4237" lon="2.51277">
        <ele>66.227</ele>
        <time>2013-11-17T09:29:05.468Z</time>
      </trkpt>
      <trkpt lat="48.42378" lon="2.51266">
        <ele>66.994</ele>
        <time>2013-11-17T09:29:08.267Z</time>
      </trkpt>
      <trkpt lat="48.42391" lon="2.51264">
        <ele>68.731</ele>
        <time>2013-11-17T09:29:11.467Z</time>
      </trkpt>
      <trkpt lat="48.42404" lon="2.51265">
        <ele>69.232</ele>
        <time>2013-11-17T09:29:15.032Z</time>
      </trkpt>
      <trkpt lat="48.42415" lon="2.51267">
        <ele>67.037</ele>
        <time>2013-11-17T09:29:18.139Z</time>
      </trkpt>
      <trkpt lat="48.42424" lon="2.51268">
        <ele>63.453</ele>
        <time>2013-11-17T09:29:21.063Z</time>
      </trkpt>
      <trkpt lat="48.42434" lon="2.51268">
        <ele>60.202</ele>
        <time>2013-11-17T09:29:23.823Z</time>
      </trkpt>
      <trkpt lat="48.42445" lon="2.51269">
        <ele>57.99</ele>
        <time>2013-11-17T09:29:27.609Z</time>
      </trkpt>
      <trkpt lat="48.42457" lon="2.51271">
        <ele>56.423</ele>
        <time>2013-11-17T09:29:33.162Z</time>
      </trkpt>
      <trkpt lat="48.42468" lon="2.51268">
        <ele>54.682</ele>
        <time>2013-11-17T09:29:38.857Z</time>
      </trkpt>
      <trkpt lat="48.42477" lon="2.51268">
        <ele>53.782</ele>
        <time>2013-11-17T09:29:43.207Z</time>
      </trkpt>
      <trkpt lat="48.42487" lon="2.51272">
        <ele>56.327</ele>
        <time>2013-11-17T09:29:46.404Z</time>
      </trkpt>
      <trkpt lat="48.42497" lon="2.51278">
        <ele>62.126</ele>
        <time>2013-11-17T09:29:49.075Z</time>
      </trkpt>
      <trkpt lat="48.42508" lon="2.51284">
        <ele>67.408</ele>
        <time>2013-11-17T09:29:51.485Z</time>
      </trkpt>
      <trkpt lat="48.42517" lon="2.5129">
        <ele>69.021</ele>
        <time>2013-11-17T09:29:53.584Z</time>
      </trkpt>
      <trkpt lat="48.4253" lon="2.51297">
        <ele>67.238</ele>
        <time>2013-11-17T09:29:56.332Z</time>
      </trkpt>
      <trkpt lat="48.42543" lon="2.51298">
        <ele>63.902</ele>
        <time>2013-11-17T09:29:58.961Z</time>
      </trkpt>
      <trkpt lat="48.42552" lon="2.51296">
        <ele>60.715</ele>
        <time>2013-11-17T09:30:00.708Z</time>
      </trkpt>
      <trkpt lat="48.4256" lon="2.51288">
        <ele>58.711</ele>
        <time>2013-11-17T09:30:02.344Z</time>
      </trkpt>
      <trkpt lat="48.42564" lon="2.51275">
        <ele>58.891</ele>
        <time>2013-11-17T09:30:04.005Z</time>
      </trkpt>
      <trkpt lat="48.42574" lon="2.51259">
        <ele>61.498</ele>
        <time>2013-11-17T09:30:06.642Z</time>
      </trkpt>
      <trkpt lat="48.42589" lon="2.51251">
        <ele>65.053</ele>
        <time>2013-11-17T09:30:09.368Z</time>
      </trkpt>
      <trkpt lat="48.42599" lon="2.51248">
        <ele>67.351</ele>
        <time>2013-11-17T09:30:11.004Z</time>
      </trkpt>
      <trkpt lat="48.4261" lon="2.51243">
        <ele>67.635</ele>
        <time>2013-11-17T09:30:13.047Z</time>
      </trkpt>
      <trkpt lat="48.42626" lon="2.51233">
        <ele>66.42</ele>
        <time>2013-11-17T09:30:16.008Z</time>
      </trkpt>
      <trkpt lat="48.42639" lon="2.51225">
        <ele>64.672</ele>
        <time>2013-11-17T09:30:18.351Z</time>
      </trkpt>
      <trkpt lat="48.42649" lon="2.51211">
        <ele>63.676</ele>
        <time>2013-11-17T09:30:20.673Z</time>
      </trkpt>
      <trkpt lat="48.42661" lon="2.51188">
        <ele>64.189</ele>
        <time>2013-11-17T09:30:24.043Z</time>
      </trkpt>
      <trkpt lat="48.42664" lon="2.51175">
        <ele>65.825</ele>
        <time>2013-11-17T09:30:25.687Z</time>
      </trkpt>
      <trkpt lat="48.42675" lon="2.51153">
        <ele>67.6</ele>
        <time>2013-11-17T09:30:29.186Z</time>
      </trkpt>
      <trkpt lat="48.42675" lon="2.5114">
        <ele>68.658</ele>
        <time>2013-11-17T09:30:31.032Z</time>
      </trkpt>
      <trkpt lat="48.42675" lon="2.5114">
        <ele>68.844</ele>
        <time>2013-11-17T09:30:34.041Z</time>
      </trkpt>
      <trkpt lat="48.42675" lon="2.5114">
        <ele>68.66</ele>
        <time>2013-11-17T09:30:34.141Z</time>
      </trkpt>
      <trkpt lat="48.42647" lon="2.51131">
        <ele>68.53</ele>
        <time>2013-11-17T09:30:46.696Z</time>
      </trkpt>
      <trkpt lat="48.42635" lon="2.51128">
        <ele>68.545</ele>
        <time>2013-11-17T09:30:49.601Z</time>
      </trkpt>
      <trkpt lat="48.42625" lon="2.51123">
        <ele>69.067</ele>
        <time>2013-11-17T09:30:52.583Z</time>
      </trkpt>
      <trkpt lat="48.42618" lon="2.51112">
        <ele>70.272</ele>
        <time>2013-11-17T09:30:55.661Z</time>
      </trkpt>
      <trkpt lat="48.4262" lon="2.51097">
        <ele>70.085</ele>
        <time>2013-11-17T09:30:59.418Z</time>
      </trkpt>
      <trkpt lat="48.42615" lon="2.51083">
        <ele>67.061</ele>
        <time>2013-11-17T09:31:03.495Z</time>
      </trkpt>
      <trkpt lat="48.42612" lon="2.51069">
        <ele>63.449</ele>
        <time>2013-11-17T09:31:07.065Z</time>
      </trkpt>
      <trkpt lat="48.42609" lon="2.51055">
        <ele>61.559</ele>
        <time>2013-11-17T09:31:10.338Z</time>
      </trkpt>
      <trkpt lat="48.42606" lon="2.5104">
        <ele>61.147</ele>
        <time>2013-11-17T09:31:13.424Z</time>
      </trkpt>
      <trkpt lat="48.42599" lon="2.51024">
        <ele>60.948</ele>
        <time>2013-11-17T09:31:16.829Z</time>
      </trkpt>
      <trkpt lat="48.42595" lon="2.5101">
        <ele>60.631</ele>
        <time>2013-11-17T09:31:19.016Z</time>
      </trkpt>
      <trkpt lat="48.42589" lon="2.50976">
        <ele>60.718</ele>
        <time>2013-11-17T09:31:23.300Z</time>
      </trkpt>
      <trkpt lat="48.42589" lon="2.50957">
        <ele>60.921</ele>
        <time>2013-11-17T09:31:25.506Z</time>
      </trkpt>
      <trkpt lat="48.4259" lon="2.50942">
        <ele>60.746</ele>
        <time>2013-11-17T09:31:27.250Z</time>
      </trkpt>
      <trkpt lat="48.42592" lon="2.50923">
        <ele>60.436</ele>
        <time>2013-11-17T09:31:29.506Z</time>
      </trkpt>
      <trkpt lat="48.42592" lon="2.50897">
        <ele>60.159</ele>
        <time>2013-11-17T09:31:32.357Z</time>
      </trkpt>
      <trkpt lat="48.4259" lon="2.50874">
        <ele>60.015</ele>
        <time>2013-11-17T09:31:35.048Z</time>
      </trkpt>
      <trkpt lat="48.42592" lon="2.50855">
        <ele>59.988</ele>
        <time>2013-11-17T09:31:37.367Z</time>
      </trkpt>
      <trkpt lat="48.42591" lon="2.50841">
        <ele>60.013</ele>
        <time>2013-11-17T09:31:39.041Z</time>
      </trkpt>
      <trkpt lat="48.42591" lon="2.50841">
        <ele>60.027</ele>
        <time>2013-11-17T09:31:41.036Z</time>
      </trkpt>
      <trkpt lat="48.42591" lon="2.50841">
        <ele>60.002</ele>
        <time>2013-11-17T09:31:41.136Z</time>
      </trkpt>
      <trkpt lat="48.4258" lon="2.50812">
        <ele>59.966</ele>
        <time>2013-11-17T09:31:49.629Z</time>
      </trkpt>
      <trkpt lat="48.42571" lon="2.50802">
        <ele>62.212</ele>
        <time>2013-11-17T09:31:52.037Z</time>
      </trkpt>
      <trkpt lat="48.42571" lon="2.50802">
        <ele>68.104</ele>
        <time>2013-11-17T09:31:57.040Z</time>
      </trkpt>
      <trkpt lat="48.42571" lon="2.50802">
        <ele>73.011</ele>
        <time>2013-11-17T09:32:09.039Z</time>
      </trkpt>
      <trkpt lat="48.42571" lon="2.50802">
        <ele>72.899</ele>
        <time>2013-11-17T09:32:09.139Z</time>
      </trkpt>
      <trkpt lat="48.42558" lon="2.50786">
        <ele>70.27</ele>
        <time>2013-11-17T09:33:59.029Z</time>
      </trkpt>
      <trkpt lat="48.42558" lon="2.50786">
        <ele>68.624</ele>
        <time>2013-11-17T09:34:13.046Z</time>
      </trkpt>
      <trkpt lat="48.42558" lon="2.50786">
        <ele>68.462</ele>
        <time>2013-11-17T09:34:13.146Z</time>
      </trkpt>
      <trkpt lat="48.42557" lon="2.50764">
        <ele>68.915</ele>
        <time>2013-11-17T09:34:44.038Z</time>
      </trkpt>
      <trkpt lat="48.42557" lon="2.50764">
        <ele>69.308</ele>
        <time>2013-11-17T09:34:54.049Z</time>
      </trkpt>
      <trkpt lat="48.42557" lon="2.50764">
        <ele>69.41</ele>
        <time>2013-11-17T09:35:50.661Z</time>
      </trkpt>
      <trkpt lat="48.4254" lon="2.50752">
        <ele>69.288</ele>
        <time>2013-11-17T09:36:15.465Z</time>
      </trkpt>
      <trkpt lat="48.42536" lon="2.50738">
        <ele>70.032</ele>
        <time>2013-11-17T09:36:19.162Z</time>
      </trkpt>
      <trkpt lat="48.42531" lon="2.50721">
        <ele>72.126</ele>
        <time>2013-11-17T09:36:22.011Z</time>
      </trkpt>
      <trkpt lat="48.42527" lon="2.50701">
        <ele>74.011</ele>
        <time>2013-11-17T09:36:24.779Z</time>
      </trkpt>
      <trkpt lat="48.42524" lon="2.50686">
        <ele>74.051</ele>
        <time>2013-11-17T09:36:26.726Z</time>
      </trkpt>
      <trkpt lat="48.42524" lon="2.50671">
        <ele>72.402</ele>
        <time>2013-11-17T09:36:28.658Z</time>
      </trkpt>
      <trkpt lat="48.42523" lon="2.50655">
        <ele>69.626</ele>
        <time>2013-11-17T09:36:30.912Z</time>
      </trkpt>
      <trkpt lat="48.42518" lon="2.50635">
        <ele>66.4</ele>
        <time>2013-11-17T09:36:33.934Z</time>
      </trkpt>
      <trkpt lat="48.42513" lon="2.50619">
        <ele>63.833</ele>
        <time>2013-11-17T09:36:36.758Z</time>
      </trkpt>
      <trkpt lat="48.42507" lon="2.50602">
        <ele>62.823</ele>
        <time>2013-11-17T09:36:39.875Z</time>
      </trkpt>
      <trkpt lat="48.42501" lon="2.50588">
        <ele>63.206</ele>
        <time>2013-11-17T09:36:42.688Z</time>
      </trkpt>
      <trkpt lat="48.42489" lon="2.50575">
        <ele>64.399</ele>
        <time>2013-11-17T09:36:46.193Z</time>
      </trkpt>
      <trkpt lat="48.42479" lon="2.50566">
        <ele>65.89</ele>
        <time>2013-11-17T09:36:49.145Z</time>
      </trkpt>
      <trkpt lat="48.42472" lon="2.50551">
        <ele>67.042</ele>
        <time>2013-11-17T09:36:52.271Z</time>
      </trkpt>
      <trkpt lat="48.42473" lon="2.50536">
        <ele>66.999</ele>
        <time>2013-11-17T09:36:55.284Z</time>
      </trkpt>
      <trkpt lat="48.4248" lon="2.50524">
        <ele>65.763</ele>
        <time>2013-11-17T09:36:58.256Z</time>
      </trkpt>
      <trkpt lat="48.42487" lon="2.50512">
        <ele>64.38</ele>
        <time>2013-11-17T09:37:01.402Z</time>
      </trkpt>
      <trkpt lat="48.4249" lon="2.50496">
        <ele>63.697</ele>
        <time>2013-11-17T09:37:04.468Z</time>
      </trkpt>
      <trkpt lat="48.42497" lon="2.50483">
        <ele>63.524</ele>
        <time>2013-11-17T09:37:07.345Z</time>
      </trkpt>
      <trkpt lat="48.42504" lon="2.50468">
        <ele>63.477</ele>
        <time>2013-11-17T09:37:10.307Z</time>
      </trkpt>
      <trkpt lat="48.42513" lon="2.50451">
        <ele>61.968</ele>
        <time>2013-11-17T09:37:13.680Z</time>
      </trkpt>
      <trkpt lat="48.4252" lon="2.5044">
        <ele>58.159</ele>
        <time>2013-11-17T09:37:15.996Z</time>
      </trkpt>
      <trkpt lat="48.42528" lon="2.50426">
        <ele>54.275</ele>
        <time>2013-11-17T09:37:18.901Z</time>
      </trkpt>
      <trkpt lat="48.42536" lon="2.50408">
        <ele>52.663</ele>
        <time>2013-11-17T09:37:22.437Z</time>
      </trkpt>
      <trkpt lat="48.42541" lon="2.50395">
        <ele>52.973</ele>
        <time>2013-11-17T09:37:25.259Z</time>
      </trkpt>
      <trkpt lat="48.42544" lon="2.50382">
        <ele>54.075</ele>
        <time>2013-11-17T09:37:27.886Z</time>
      </trkpt>
      <trkpt lat="48.42547" lon="2.50365">
        <ele>55.468</ele>
        <time>2013-11-17T09:37:31.350Z</time>
      </trkpt>
      <trkpt lat="48.42554" lon="2.5035">
        <ele>57.785</ele>
        <time>2013-11-17T09:37:34.804Z</time>
      </trkpt>
      <trkpt lat="48.42562" lon="2.5034">
        <ele>61.329</ele>
        <time>2013-11-17T09:37:37.635Z</time>
      </trkpt>
      <trkpt lat="48.42572" lon="2.50334">
        <ele>65.002</ele>
        <time>2013-11-17T09:37:40.024Z</time>
      </trkpt>
      <trkpt lat="48.42582" lon="2.50329">
        <ele>67.439</ele>
        <time>2013-11-17T09:37:42.169Z</time>
      </trkpt>
      <trkpt lat="48.42593" lon="2.50324">
        <ele>69.026</ele>
        <time>2013-11-17T09:37:44.571Z</time>
      </trkpt>
      <trkpt lat="48.42606" lon="2.50317">
        <ele>70.879</ele>
        <time>2013-11-17T09:37:47.079Z</time>
      </trkpt>
      <trkpt lat="48.42622" lon="2.5031">
        <ele>72.807</ele>
        <time>2013-11-17T09:37:50.256Z</time>
      </trkpt>
      <trkpt lat="48.42637" lon="2.50303">
        <ele>73.712</ele>
        <time>2013-11-17T09:37:53.280Z</time>
      </trkpt>
      <trkpt lat="48.42647" lon="2.50298">
        <ele>73.391</ele>
        <time>2013-11-17T09:37:55.444Z</time>
      </trkpt>
      <trkpt lat="48.42659" lon="2.50291">
        <ele>71.827</ele>
        <time>2013-11-17T09:37:58.398Z</time>
      </trkpt>
      <trkpt lat="48.42673" lon="2.50285">
        <ele>69.309</ele>
        <time>2013-11-17T09:38:02.254Z</time>
      </trkpt>
      <trkpt lat="48.42681" lon="2.50277">
        <ele>68.877</ele>
        <time>2013-11-17T09:38:04.982Z</time>
      </trkpt>
      <trkpt lat="48.42682" lon="2.50259">
        <ele>72.519</ele>
        <time>2013-11-17T09:38:08.541Z</time>
      </trkpt>
      <trkpt lat="48.42683" lon="2.50243">
        <ele>77.392</ele>
        <time>2013-11-17T09:38:11.336Z</time>
      </trkpt>
      <trkpt lat="48.42683" lon="2.50227">
        <ele>80.178</ele>
        <time>2013-11-17T09:38:13.921Z</time>
      </trkpt>
      <trkpt lat="48.4268" lon="2.50204">
        <ele>80.251</ele>
        <time>2013-11-17T09:38:17.269Z</time>
      </trkpt>
      <trkpt lat="48.42681" lon="2.50181">
        <ele>78.415</ele>
        <time>2013-11-17T09:38:20.373Z</time>
      </trkpt>
      <trkpt lat="48.42682" lon="2.50168">
        <ele>75.927</ele>
        <time>2013-11-17T09:38:22.164Z</time>
      </trkpt>
      <trkpt lat="48.42682" lon="2.5014">
        <ele>73.621</ele>
        <time>2013-11-17T09:38:25.743Z</time>
      </trkpt>
      <trkpt lat="48.4268" lon="2.50118">
        <ele>71.147</ele>
        <time>2013-11-17T09:38:28.588Z</time>
      </trkpt>
      <trkpt lat="48.42681" lon="2.50093">
        <ele>70.106</ele>
        <time>2013-11-17T09:38:31.732Z</time>
      </trkpt>
      <trkpt lat="48.42681" lon="2.50079">
        <ele>69.582</ele>
        <time>2013-11-17T09:38:33.604Z</time>
      </trkpt>
      <trkpt lat="48.4268" lon="2.50064">
        <ele>69.752</ele>
        <time>2013-11-17T09:38:35.758Z</time>
      </trkpt>
      <trkpt lat="48.4268" lon="2.50045">
        <ele>69.835</ele>
        <time>2013-11-17T09:38:38.613Z</time>
      </trkpt>
      <trkpt lat="48.42682" lon="2.50027">
        <ele>69.182</ele>
        <time>2013-11-17T09:38:41.571Z</time>
      </trkpt>
      <trkpt lat="48.42685" lon="2.50011">
        <ele>67.334</ele>
        <time>2013-11-17T09:38:44.525Z</time>
      </trkpt>
      <trkpt lat="48.42686" lon="2.49996">
        <ele>64.562</ele>
        <time>2013-11-17T09:38:47.668Z</time>
      </trkpt>
      <trkpt lat="48.42687" lon="2.49981">
        <ele>61.974</ele>
        <time>2013-11-17T09:38:50.680Z</time>
      </trkpt>
      <trkpt lat="48.42687" lon="2.49965">
        <ele>60.364</ele>
        <time>2013-11-17T09:38:53.914Z</time>
      </trkpt>
      <trkpt lat="48.4269" lon="2.49951">
        <ele>59.708</ele>
        <time>2013-11-17T09:38:56.689Z</time>
      </trkpt>
      <trkpt lat="48.42692" lon="2.49937">
        <ele>59.901</ele>
        <time>2013-11-17T09:38:59.347Z</time>
      </trkpt>
      <trkpt lat="48.42695" lon="2.49925">
        <ele>59.161</ele>
        <time>2013-11-17T09:39:02.052Z</time>
      </trkpt>
      <trkpt lat="48.42699" lon="2.49909">
        <ele>56.982</ele>
        <time>2013-11-17T09:39:05.158Z</time>
      </trkpt>
      <trkpt lat="48.427" lon="2.49895">
        <ele>54.686</ele>
        <time>2013-11-17T09:39:07.636Z</time>
      </trkpt>
      <trkpt lat="48.427" lon="2.49881">
        <ele>53.636</ele>
        <time>2013-11-17T09:39:09.856Z</time>
      </trkpt>
      <trkpt lat="48.42701" lon="2.49862">
        <ele>54.812</ele>
        <time>2013-11-17T09:39:12.728Z</time>
      </trkpt>
      <trkpt lat="48.42699" lon="2.49844">
        <ele>58.482</ele>
        <time>2013-11-17T09:39:15.365Z</time>
      </trkpt>
      <trkpt lat="48.427" lon="2.49823">
        <ele>62.835</ele>
        <time>2013-11-17T09:39:18.320Z</time>
      </trkpt>
      <trkpt lat="48.42702" lon="2.49807">
        <ele>66.556</ele>
        <time>2013-11-17T09:39:20.744Z</time>
      </trkpt>
      <trkpt lat="48.42701" lon="2.49792">
        <ele>70.245</ele>
        <time>2013-11-17T09:39:23.073Z</time>
      </trkpt>
      <trkpt lat="48.42703" lon="2.49776">
        <ele>74.614</ele>
        <time>2013-11-17T09:39:25.807Z</time>
      </trkpt>
      <trkpt lat="48.42704" lon="2.49761">
        <ele>79.109</ele>
        <time>2013-11-17T09:39:28.690Z</time>
      </trkpt>
      <trkpt lat="48.42704" lon="2.49747">
        <ele>82.203</ele>
        <time>2013-11-17T09:39:32.202Z</time>
      </trkpt>
      <trkpt lat="48.42705" lon="2.49733">
        <ele>83.186</ele>
        <time>2013-11-17T09:39:36.036Z</time>
      </trkpt>
      <trkpt lat="48.42704" lon="2.49717">
        <ele>82.032</ele>
        <time>2013-11-17T09:39:42.002Z</time>
      </trkpt>
      <trkpt lat="48.42706" lon="2.49699">
        <ele>78.571</ele>
        <time>2013-11-17T09:39:47.882Z</time>
      </trkpt>
      <trkpt lat="48.42705" lon="2.49682">
        <ele>74.184</ele>
        <time>2013-11-17T09:39:52.469Z</time>
      </trkpt>
      <trkpt lat="48.42705" lon="2.49662">
        <ele>71.943</ele>
        <time>2013-11-17T09:39:56.250Z</time>
      </trkpt>
      <trkpt lat="48.42706" lon="2.49645">
        <ele>73.007</ele>
        <time>2013-11-17T09:39:59.271Z</time>
      </trkpt>
      <trkpt lat="48.42704" lon="2.49631">
        <ele>75.489</ele>
        <time>2013-11-17T09:40:01.709Z</time>
      </trkpt>
      <trkpt lat="48.42704" lon="2.49616">
        <ele>77.257</ele>
        <time>2013-11-17T09:40:04.282Z</time>
      </trkpt>
      <trkpt lat="48.42706" lon="2.496">
        <ele>78.036</ele>
        <time>2013-11-17T09:40:06.900Z</time>
      </trkpt>
      <trkpt lat="48.42707" lon="2.49584">
        <ele>78.192</ele>
        <time>2013-11-17T09:40:09.582Z</time>
      </trkpt>
      <trkpt lat="48.42703" lon="2.49567">
        <ele>77.42</ele>
        <time>2013-11-17T09:40:12.747Z</time>
      </trkpt>
      <trkpt lat="48.42695" lon="2.4956">
        <ele>74.733</ele>
        <time>2013-11-17T09:40:15.348Z</time>
      </trkpt>
      <trkpt lat="48.42686" lon="2.49555">
        <ele>70.663</ele>
        <time>2013-11-17T09:40:18.098Z</time>
      </trkpt>
      <trkpt lat="48.42669" lon="2.49549">
        <ele>67.428</ele>
        <time>2013-11-17T09:40:23.611Z</time>
      </trkpt>
      <trkpt lat="48.42657" lon="2.49543">
        <ele>66.276</ele>
        <time>2013-11-17T09:40:27.051Z</time>
      </trkpt>
      <trkpt lat="48.42647" lon="2.49539">
        <ele>66.295</ele>
        <time>2013-11-17T09:40:29.332Z</time>
      </trkpt>
      <trkpt lat="48.42633" lon="2.49536">
        <ele>66.37</ele>
        <time>2013-11-17T09:40:32.315Z</time>
      </trkpt>
      <trkpt lat="48.42624" lon="2.49533">
        <ele>66.173</ele>
        <time>2013-11-17T09:40:34.278Z</time>
      </trkpt>
      <trkpt lat="48.4261" lon="2.49527">
        <ele>65.837</ele>
        <time>2013-11-17T09:40:37.208Z</time>
      </trkpt>
      <trkpt lat="48.42597" lon="2.49524">
        <ele>65.465</ele>
        <time>2013-11-17T09:40:39.981Z</time>
      </trkpt>
      <trkpt lat="48.42588" lon="2.4952">
        <ele>64.461</ele>
        <time>2013-11-17T09:40:42.046Z</time>
      </trkpt>
      <trkpt lat="48.42588" lon="2.4952">
        <ele>62.488</ele>
        <time>2013-11-17T09:40:42.046Z</time>
      </trkpt>
      <trkpt lat="48.42588" lon="2.4952">
        <ele>60.921</ele>
        <time>2013-11-17T09:40:42.146Z</time>
      </trkpt>
      <trkpt lat="48.4257" lon="2.49514">
        <ele>60.933</ele>
        <time>2013-11-17T09:40:49.909Z</time>
      </trkpt>
      <trkpt lat="48.4256" lon="2.49512">
        <ele>61.638</ele>
        <time>2013-11-17T09:40:53.358Z</time>
      </trkpt>
      <trkpt lat="48.42549" lon="2.49508">
        <ele>61.726</ele>
        <time>2013-11-17T09:40:56.995Z</time>
      </trkpt>
      <trkpt lat="48.42537" lon="2.49505">
        <ele>61.038</ele>
        <time>2013-11-17T09:41:00.949Z</time>
      </trkpt>
      <trkpt lat="48.42526" lon="2.49503">
        <ele>60.304</ele>
        <time>2013-11-17T09:41:04.950Z</time>
      </trkpt>
      <trkpt lat="48.42517" lon="2.49496">
        <ele>60.865</ele>
        <time>2013-11-17T09:41:09.865Z</time>
      </trkpt>
      <trkpt lat="48.42517" lon="2.49482">
        <ele>63.115</ele>
        <time>2013-11-17T09:41:13.972Z</time>
      </trkpt>
      <trkpt lat="48.42522" lon="2.4947">
        <ele>64.609</ele>
        <time>2013-11-17T09:41:18.459Z</time>
      </trkpt>
      <trkpt lat="48.42526" lon="2.49455">
        <ele>63.402</ele>
        <time>2013-11-17T09:41:24.030Z</time>
      </trkpt>
      <trkpt lat="48.42529" lon="2.49439">
        <ele>61.489</ele>
        <time>2013-11-17T09:41:30.014Z</time>
      </trkpt>
      <trkpt lat="48.42532" lon="2.49424">
        <ele>61.773</ele>
        <time>2013-11-17T09:41:35.490Z</time>
      </trkpt>
      <trkpt lat="48.42535" lon="2.49409">
        <ele>64.28</ele>
        <time>2013-11-17T09:41:40.684Z</time>
      </trkpt>
      <trkpt lat="48.42539" lon="2.49396">
        <ele>66.671</ele>
        <time>2013-11-17T09:41:45.035Z</time>
      </trkpt>
      <trkpt lat="48.42543" lon="2.49378">
        <ele>67.428</ele>
        <time>2013-11-17T09:41:49.099Z</time>
      </trkpt>
      <trkpt lat="48.42542" lon="2.49362">
        <ele>67.421</ele>
        <time>2013-11-17T09:41:52.042Z</time>
      </trkpt>
      <trkpt lat="48.4254" lon="2.49346">
        <ele>68.672</ele>
        <time>2013-11-17T09:41:54.622Z</time>
      </trkpt>
      <trkpt lat="48.4254" lon="2.49326">
        <ele>71.779</ele>
        <time>2013-11-17T09:41:57.810Z</time>
      </trkpt>
      <trkpt lat="48.42541" lon="2.49309">
        <ele>75.26</ele>
        <time>2013-11-17T09:42:00.700Z</time>
      </trkpt>
      <trkpt lat="48.42541" lon="2.49296">
        <ele>77.536</ele>
        <time>2013-11-17T09:42:03.047Z</time>
      </trkpt>
      <trkpt lat="48.42543" lon="2.49281">
        <ele>78.454</ele>
        <time>2013-11-17T09:42:05.573Z</time>
      </trkpt>
      <trkpt lat="48.42546" lon="2.49265">
        <ele>78.702</ele>
        <time>2013-11-17T09:42:08.305Z</time>
      </trkpt>
      <trkpt lat="48.42549" lon="2.49251">
        <ele>78.836</ele>
        <time>2013-11-17T09:42:10.580Z</time>
      </trkpt>
      <trkpt lat="48.42551" lon="2.49232">
        <ele>78.888</ele>
        <time>2013-11-17T09:42:13.291Z</time>
      </trkpt>
      <trkpt lat="48.42553" lon="2.49215">
        <ele>78.83</ele>
        <time>2013-11-17T09:42:15.819Z</time>
      </trkpt>
      <trkpt lat="48.42554" lon="2.49193">
        <ele>78.61</ele>
        <time>2013-11-17T09:42:18.878Z</time>
      </trkpt>
      <trkpt lat="48.42554" lon="2.49179">
        <ele>77.497</ele>
        <time>2013-11-17T09:42:20.813Z</time>
      </trkpt>
      <trkpt lat="48.42555" lon="2.4916">
        <ele>75.122</ele>
        <time>2013-11-17T09:42:23.448Z</time>
      </trkpt>
      <trkpt lat="48.42558" lon="2.49147">
        <ele>73.46</ele>
        <time>2013-11-17T09:42:25.323Z</time>
      </trkpt>
      <trkpt lat="48.42561" lon="2.49127">
        <ele>74.32</ele>
        <time>2013-11-17T09:42:28.171Z</time>
      </trkpt>
      <trkpt lat="48.42563" lon="2.49113">
        <ele>76.526</ele>
        <time>2013-11-17T09:42:30.068Z</time>
      </trkpt>
      <trkpt lat="48.42567" lon="2.49094">
        <ele>78.245</ele>
        <time>2013-11-17T09:42:33.291Z</time>
      </trkpt>
      <trkpt lat="48.42568" lon="2.49074">
        <ele>78.678</ele>
        <time>2013-11-17T09:42:36.585Z</time>
      </trkpt>
      <trkpt lat="48.4257" lon="2.49059">
        <ele>77.154</ele>
        <time>2013-11-17T09:42:39.685Z</time>
      </trkpt>
      <trkpt lat="48.42572" lon="2.49044">
        <ele>74.048</ele>
        <time>2013-11-17T09:42:42.756Z</time>
      </trkpt>
      <trkpt lat="48.42573" lon="2.49028">
        <ele>71.274</ele>
        <time>2013-11-17T09:42:45.935Z</time>
      </trkpt>
      <trkpt lat="48.42574" lon="2.49012">
        <ele>69.973</ele>
        <time>2013-11-17T09:42:49.125Z</time>
      </trkpt>
      <trkpt lat="48.42574" lon="2.48993">
        <ele>69.49</ele>
        <time>2013-11-17T09:42:52.516Z</time>
      </trkpt>
      <trkpt lat="48.42574" lon="2.48978">
        <ele>68.367</ele>
        <time>2013-11-17T09:42:55.177Z</time>
      </trkpt>
      <trkpt lat="48.42575" lon="2.4896">
        <ele>66.05</ele>
        <time>2013-11-17T09:42:58.020Z</time>
      </trkpt>
      <trkpt lat="48.42575" lon="2.48944">
        <ele>62.703</ele>
        <time>2013-11-17T09:43:00.633Z</time>
      </trkpt>
      <trkpt lat="48.42575" lon="2.48924">
        <ele>61.993</ele>
        <time>2013-11-17T09:43:03.507Z</time>
      </trkpt>
      <trkpt lat="48.42576" lon="2.48904">
        <ele>60.625</ele>
        <time>2013-11-17T09:43:06.557Z</time>
      </trkpt>
      <trkpt lat="48.42579" lon="2.48888">
        <ele>59.136</ele>
        <time>2013-11-17T09:43:09.172Z</time>
      </trkpt>
      <trkpt lat="48.42581" lon="2.48872">
        <ele>59.678</ele>
        <time>2013-11-17T09:43:11.598Z</time>
      </trkpt>
      <trkpt lat="48.4258" lon="2.4885">
        <ele>62.78</ele>
        <time>2013-11-17T09:43:14.724Z</time>
      </trkpt>
      <trkpt lat="48.42579" lon="2.48827">
        <ele>66.152</ele>
        <time>2013-11-17T09:43:17.896Z</time>
      </trkpt>
      <trkpt lat="48.42578" lon="2.48802">
        <ele>68.147</ele>
        <time>2013-11-17T09:43:21.431Z</time>
      </trkpt>
      <trkpt lat="48.42578" lon="2.48787">
        <ele>68.708</ele>
        <time>2013-11-17T09:43:23.557Z</time>
      </trkpt>
      <trkpt lat="48.4258" lon="2.4877">
        <ele>68.288</ele>
        <time>2013-11-17T09:43:26.385Z</time>
      </trkpt>
      <trkpt lat="48.42582" lon="2.48754">
        <ele>67.924</ele>
        <time>2013-11-17T09:43:29.143Z</time>
      </trkpt>
      <trkpt lat="48.42583" lon="2.48738">
        <ele>68.201</ele>
        <time>2013-11-17T09:43:31.818Z</time>
      </trkpt>
      <trkpt lat="48.42584" lon="2.48724">
        <ele>70.687</ele>
        <time>2013-11-17T09:43:34.543Z</time>
      </trkpt>
      <trkpt lat="48.42585" lon="2.48708">
        <ele>71.493</ele>
        <time>2013-11-17T09:43:37.493Z</time>
      </trkpt>
      <trkpt lat="48.42588" lon="2.48693">
        <ele>72.051</ele>
        <time>2013-11-17T09:43:40.310Z</time>
      </trkpt>
      <trkpt lat="48.4259" lon="2.48679">
        <ele>71.833</ele>
        <time>2013-11-17T09:43:43.056Z</time>
      </trkpt>
      <trkpt lat="48.4259" lon="2.48679">
        <ele>70.434</ele>
        <time>2013-11-17T09:43:50.052Z</time>
      </trkpt>
      <trkpt lat="48.4259" lon="2.48679">
        <ele>69.157</ele>
        <time>2013-11-17T09:43:50.152Z</time>
      </trkpt>
      <trkpt lat="48.4259" lon="2.48645">
        <ele>69.138</ele>
        <time>2013-11-17T09:44:10.666Z</time>
      </trkpt>
      <trkpt lat="48.4259" lon="2.48624">
        <ele>69.388</ele>
        <time>2013-11-17T09:44:15.648Z</time>
      </trkpt>
      <trkpt lat="48.42589" lon="2.4861">
        <ele>68.856</ele>
        <time>2013-11-17T09:44:18.604Z</time>
      </trkpt>
      <trkpt lat="48.42584" lon="2.48594">
        <ele>68.073</ele>
        <time>2013-11-17T09:44:21.865Z</time>
      </trkpt>
      <trkpt lat="48.42582" lon="2.4858">
        <ele>67.859</ele>
        <time>2013-11-17T09:44:24.283Z</time>
      </trkpt>
      <trkpt lat="48.42579" lon="2.48563">
        <ele>68.14</ele>
        <time>2013-11-17T09:44:26.976Z</time>
      </trkpt>
      <trkpt lat="48.42576" lon="2.48549">
        <ele>68.743</ele>
        <time>2013-11-17T09:44:29.220Z</time>
      </trkpt>
      <trkpt lat="48.42573" lon="2.48535">
        <ele>69.588</ele>
        <time>2013-11-17T09:44:31.153Z</time>
      </trkpt>
      <trkpt lat="48.42569" lon="2.48516">
        <ele>70.086</ele>
        <time>2013-11-17T09:44:33.779Z</time>
      </trkpt>
      <trkpt lat="48.42565" lon="2.48494">
        <ele>69.29</ele>
        <time>2013-11-17T09:44:36.579Z</time>
      </trkpt>
      <trkpt lat="48.42564" lon="2.48472">
        <ele>67.271</ele>
        <time>2013-11-17T09:44:39.107Z</time>
      </trkpt>
      <trkpt lat="48.42562" lon="2.48444">
        <ele>65.377</ele>
        <time>2013-11-17T09:44:42.050Z</time>
      </trkpt>
      <trkpt lat="48.42559" lon="2.48425">
        <ele>64.515</ele>
        <time>2013-11-17T09:44:44.008Z</time>
      </trkpt>
      <trkpt lat="48.42555" lon="2.48406">
        <ele>64.782</ele>
        <time>2013-11-17T09:44:45.995Z</time>
      </trkpt>
      <trkpt lat="48.4255" lon="2.4838">
        <ele>65.984</ele>
        <time>2013-11-17T09:44:48.589Z</time>
      </trkpt>
      <trkpt lat="48.42547" lon="2.48354">
        <ele>67.271</ele>
        <time>2013-11-17T09:44:51.065Z</time>
      </trkpt>
      <trkpt lat="48.42546" lon="2.48334">
        <ele>67.548</ele>
        <time>2013-11-17T09:44:52.867Z</time>
      </trkpt>
      <trkpt lat="48.42544" lon="2.48301">
        <ele>66.693</ele>
        <time>2013-11-17T09:44:55.824Z</time>
      </trkpt>
      <trkpt lat="48.42543" lon="2.4827">
        <ele>65.351</ele>
        <time>2013-11-17T09:44:58.674Z</time>
      </trkpt>
      <trkpt lat="48.42544" lon="2.48236">
        <ele>64.202</ele>
        <time>2013-11-17T09:45:01.922Z</time>
      </trkpt>
      <trkpt lat="48.42545" lon="2.48214">
        <ele>63.807</ele>
        <time>2013-11-17T09:45:04.053Z</time>
      </trkpt>
      <trkpt lat="48.42547" lon="2.48183">
        <ele>64.405</ele>
        <time>2013-11-17T09:45:07.023Z</time>
      </trkpt>
      <trkpt lat="48.42549" lon="2.48165">
        <ele>65.445</ele>
        <time>2013-11-17T09:45:08.766Z</time>
      </trkpt>
      <trkpt lat="48.4255" lon="2.48146">
        <ele>66.27</ele>
        <time>2013-11-17T09:45:10.629Z</time>
      </trkpt>
      <trkpt lat="48.42551" lon="2.48115">
        <ele>66.607</ele>
        <time>2013-11-17T09:45:13.547Z</time>
      </trkpt>
      <trkpt lat="48.42549" lon="2.48089">
        <ele>66.44</ele>
        <time>2013-11-17T09:45:16.141Z</time>
      </trkpt>
      <trkpt lat="48.42547" lon="2.48072">
        <ele>66.027</ele>
        <time>2013-11-17T09:45:17.812Z</time>
      </trkpt>
      <trkpt lat="48.42546" lon="2.48045">
        <ele>65.667</ele>
        <time>2013-11-17T09:45:20.368Z</time>
      </trkpt>
      <trkpt lat="48.42545" lon="2.48024">
        <ele>65.211</ele>
        <time>2013-11-17T09:45:22.382Z</time>
      </trkpt>
      <trkpt lat="48.42542" lon="2.47994">
        <ele>64.468</ele>
        <time>2013-11-17T09:45:25.274Z</time>
      </trkpt>
      <trkpt lat="48.42541" lon="2.47975">
        <ele>63.936</ele>
        <time>2013-11-17T09:45:27.097Z</time>
      </trkpt>
      <trkpt lat="48.4254" lon="2.47947">
        <ele>64.18</ele>
        <time>2013-11-17T09:45:29.673Z</time>
      </trkpt>
      <trkpt lat="48.42539" lon="2.47922">
        <ele>64.793</ele>
        <time>2013-11-17T09:45:32.149Z</time>
      </trkpt>
      <trkpt lat="48.42543" lon="2.479">
        <ele>64.867</ele>
        <time>2013-11-17T09:45:34.453Z</time>
      </trkpt>
      <trkpt lat="48.42544" lon="2.47874">
        <ele>63.818</ele>
        <time>2013-11-17T09:45:37.390Z</time>
      </trkpt>
      <trkpt lat="48.42543" lon="2.47854">
        <ele>62.022</ele>
        <time>2013-11-17T09:45:39.668Z</time>
      </trkpt>
      <trkpt lat="48.4254" lon="2.47835">
        <ele>60.594</ele>
        <time>2013-11-17T09:45:42.035Z</time>
      </trkpt>
      <trkpt lat="48.4254" lon="2.47818">
        <ele>60.42</ele>
        <time>2013-11-17T09:45:44.102Z</time>
      </trkpt>
      <trkpt lat="48.4254" lon="2.47801">
        <ele>61.788</ele>
        <time>2013-11-17T09:45:46.440Z</time>
      </trkpt>
      <trkpt lat="48.42538" lon="2.47784">
        <ele>63.924</ele>
        <time>2013-11-17T09:45:48.935Z</time>
      </trkpt>
      <trkpt lat="48.42538" lon="2.47768">
        <ele>65.354</ele>
        <time>2013-11-17T09:45:51.364Z</time>
      </trkpt>
      <trkpt lat="48.42536" lon="2.4775">
        <ele>65.567</ele>
        <time>2013-11-17T09:45:54.242Z</time>
      </trkpt>
      <trkpt lat="48.42535" lon="2.47727">
        <ele>64.675</ele>
        <time>2013-11-17T09:45:57.659Z</time>
      </trkpt>
      <trkpt lat="48.42535" lon="2.47713">
        <ele>62.957</ele>
        <time>2013-11-17T09:45:59.856Z</time>
      </trkpt>
      <trkpt lat="48.42536" lon="2.4768">
        <ele>60.894</ele>
        <time>2013-11-17T09:46:04.458Z</time>
      </trkpt>
      <trkpt lat="48.42542" lon="2.47645">
        <ele>61.477</ele>
        <time>2013-11-17T09:46:08.931Z</time>
      </trkpt>
      <trkpt lat="48.42539" lon="2.47621">
        <ele>62.821</ele>
        <time>2013-11-17T09:46:12.215Z</time>
      </trkpt>
      <trkpt lat="48.42535" lon="2.47598">
        <ele>64.57</ele>
        <time>2013-11-17T09:46:15.580Z</time>
      </trkpt>
      <trkpt lat="48.42529" lon="2.47575">
        <ele>66.314</ele>
        <time>2013-11-17T09:46:19.501Z</time>
      </trkpt>
      <trkpt lat="48.42524" lon="2.47557">
        <ele>68.143</ele>
        <time>2013-11-17T09:46:23.108Z</time>
      </trkpt>
      <trkpt lat="48.42524" lon="2.47541">
        <ele>70.111</ele>
        <time>2013-11-17T09:46:26.211Z</time>
      </trkpt>
      <trkpt lat="48.42524" lon="2.47526">
        <ele>70.355</ele>
        <time>2013-11-17T09:46:29.206Z</time>
      </trkpt>
      <trkpt lat="48.42522" lon="2.47509">
        <ele>67.87</ele>
        <time>2013-11-17T09:46:32.217Z</time>
      </trkpt>
      <trkpt lat="48.4252" lon="2.47483">
        <ele>65.557</ele>
        <time>2013-11-17T09:46:36.143Z</time>
      </trkpt>
      <trkpt lat="48.42518" lon="2.47465">
        <ele>67.561</ele>
        <time>2013-11-17T09:46:39.004Z</time>
      </trkpt>
      <trkpt lat="48.42517" lon="2.47447">
        <ele>70.303</ele>
        <time>2013-11-17T09:46:41.644Z</time>
      </trkpt>
      <trkpt lat="48.42518" lon="2.47424">
        <ele>73.273</ele>
        <time>2013-11-17T09:46:45.336Z</time>
      </trkpt>
      <trkpt lat="48.42519" lon="2.47404">
        <ele>75.478</ele>
        <time>2013-11-17T09:46:48.753Z</time>
      </trkpt>
      <trkpt lat="48.42519" lon="2.47388">
        <ele>76.707</ele>
        <time>2013-11-17T09:46:52.074Z</time>
      </trkpt>
      <trkpt lat="48.42521" lon="2.47372">
        <ele>77.597</ele>
        <time>2013-11-17T09:46:55.738Z</time>
      </trkpt>
      <trkpt lat="48.42523" lon="2.47358">
        <ele>77.927</ele>
        <time>2013-11-17T09:46:59.225Z</time>
      </trkpt>
      <trkpt lat="48.42526" lon="2.47342">
        <ele>76.728</ele>
        <time>2013-11-17T09:47:03.170Z</time>
      </trkpt>
      <trkpt lat="48.42532" lon="2.47327">
        <ele>74.187</ele>
        <time>2013-11-17T09:47:06.699Z</time>
      </trkpt>
      <trkpt lat="48.42533" lon="2.4731">
        <ele>72.064</ele>
        <time>2013-11-17T09:47:09.601Z</time>
      </trkpt>
      <trkpt lat="48.42534" lon="2.47296">
        <ele>72.02</ele>
        <time>2013-11-17T09:47:12.099Z</time>
      </trkpt>
      <trkpt lat="48.42535" lon="2.47281">
        <ele>73.811</ele>
        <time>2013-11-17T09:47:14.741Z</time>
      </trkpt>
      <trkpt lat="48.42535" lon="2.47264">
        <ele>76.045</ele>
        <time>2013-11-17T09:47:17.830Z</time>
      </trkpt>
      <trkpt lat="48.4253" lon="2.47247">
        <ele>77.731</ele>
        <time>2013-11-17T09:47:21.212Z</time>
      </trkpt>
      <trkpt lat="48.42524" lon="2.47234">
        <ele>78.19</ele>
        <time>2013-11-17T09:47:24.056Z</time>
      </trkpt>
      <trkpt lat="48.42524" lon="2.47234">
        <ele>77.23</ele>
        <time>2013-11-17T09:47:31.059Z</time>
      </trkpt>
      <trkpt lat="48.42524" lon="2.47234">
        <ele>76.186</ele>
        <time>2013-11-17T09:47:31.159Z</time>
      </trkpt>
      <trkpt lat="48.42512" lon="2.47197">
        <ele>76.277</ele>
        <time>2013-11-17T09:47:41.434Z</time>
      </trkpt>
      <trkpt lat="48.42508" lon="2.47184">
        <ele>77.589</ele>
        <time>2013-11-17T09:47:43.579Z</time>
      </trkpt>
      <trkpt lat="48.42505" lon="2.4717">
        <ele>79.511</ele>
        <time>2013-11-17T09:47:46.372Z</time>
      </trkpt>
      <trkpt lat="48.42501" lon="2.47157">
        <ele>81.029</ele>
        <time>2013-11-17T09:47:49.790Z</time>
      </trkpt>
      <trkpt lat="48.42496" lon="2.47142">
        <ele>81.427</ele>
        <time>2013-11-17T09:47:53.195Z</time>
      </trkpt>
      <trkpt lat="48.42488" lon="2.47127">
        <ele>80.835</ele>
        <time>2013-11-17T09:47:56.058Z</time>
      </trkpt>
      <trkpt lat="48.42488" lon="2.47127">
        <ele>79.908</ele>
        <time>2013-11-17T09:47:58.050Z</time>
      </trkpt>
      <trkpt lat="48.42488" lon="2.47127">
        <ele>79.367</ele>
        <time>2013-11-17T09:47:58.150Z</time>
      </trkpt>
      <trkpt lat="48.42476" lon="2.47085">
        <ele>79.372</ele>
        <time>2013-11-17T09:48:08.310Z</time>
      </trkpt>
      <trkpt lat="48.42469" lon="2.47066">
        <ele>77.74</ele>
        <time>2013-11-17T09:48:11.709Z</time>
      </trkpt>
      <trkpt lat="48.4246" lon="2.47051">
        <ele>72.907</ele>
        <time>2013-11-17T09:48:14.944Z</time>
      </trkpt>
      <trkpt lat="48.42451" lon="2.47036">
        <ele>67.589</ele>
        <time>2013-11-17T09:48:17.964Z</time>
      </trkpt>
      <trkpt lat="48.42441" lon="2.47018">
        <ele>64.472</ele>
        <time>2013-11-17T09:48:21.368Z</time>
      </trkpt>
      <trkpt lat="48.42433" lon="2.47006">
        <ele>62.959</ele>
        <time>2013-11-17T09:48:23.595Z</time>
      </trkpt>
      <trkpt lat="48.42416" lon="2.46985">
        <ele>62.255</ele>
        <time>2013-11-17T09:48:27.917Z</time>
      </trkpt>
      <trkpt lat="48.42403" lon="2.46963">
        <ele>62.081</ele>
        <time>2013-11-17T09:48:31.543Z</time>
      </trkpt>
      <trkpt lat="48.42393" lon="2.46946">
        <ele>61.971</ele>
        <time>2013-11-17T09:48:34.368Z</time>
      </trkpt>
      <trkpt lat="48.42381" lon="2.46929">
        <ele>61.537</ele>
        <time>2013-11-17T09:48:37.336Z</time>
      </trkpt>
      <trkpt lat="48.42363" lon="2.46906">
        <ele>61.006</ele>
        <time>2013-11-17T09:48:43.200Z</time>
      </trkpt>
      <trkpt lat="48.42348" lon="2.46883">
        <ele>60.733</ele>
        <time>2013-11-17T09:48:49.304Z</time>
      </trkpt>
      <trkpt lat="48.42338" lon="2.46869">
        <ele>61.136</ele>
        <time>2013-11-17T09:48:52.791Z</time>
      </trkpt>
      <trkpt lat="48.42335" lon="2.46856">
        <ele>62.386</ele>
        <time>2013-11-17T09:48:54.978Z</time>
      </trkpt>
      <trkpt lat="48.42324" lon="2.4685">
        <ele>64.62</ele>
        <time>2013-11-17T09:48:57.425Z</time>
      </trkpt>
      <trkpt lat="48.42315" lon="2.46844">
        <ele>67.621</ele>
        <time>2013-11-17T09:48:59.506Z</time>
      </trkpt>
      <trkpt lat="48.42303" lon="2.4684">
        <ele>70.151</ele>
        <time>2013-11-17T09:49:01.860Z</time>
      </trkpt>
      <trkpt lat="48.42293" lon="2.46837">
        <ele>71.212</ele>
        <time>2013-11-17T09:49:03.596Z</time>
      </trkpt>
      <trkpt lat="48.4228" lon="2.46834">
        <ele>71.301</ele>
        <time>2013-11-17T09:49:05.857Z</time>
      </trkpt>
      <trkpt lat="48.42271" lon="2.46831">
        <ele>70.756</ele>
        <time>2013-11-17T09:49:07.413Z</time>
      </trkpt>
      <trkpt lat="48.42255" lon="2.46827">
        <ele>69.734</ele>
        <time>2013-11-17T09:49:09.939Z</time>
      </trkpt>
      <trkpt lat="48.42244" lon="2.46824">
        <ele>68.822</ele>
        <time>2013-11-17T09:49:11.671Z</time>
      </trkpt>
      <trkpt lat="48.42234" lon="2.46822">
        <ele>68.501</ele>
        <time>2013-11-17T09:49:13.248Z</time>
      </trkpt>
      <trkpt lat="48.42218" lon="2.46818">
        <ele>68.639</ele>
        <time>2013-11-17T09:49:15.827Z</time>
      </trkpt>
      <trkpt lat="48.42208" lon="2.46815">
        <ele>68.413</ele>
        <time>2013-11-17T09:49:17.499Z</time>
      </trkpt>
      <trkpt lat="48.42193" lon="2.4681">
        <ele>67.326</ele>
        <time>2013-11-17T09:49:19.996Z</time>
      </trkpt>
      <trkpt lat="48.42178" lon="2.46806">
        <ele>65.728</ele>
        <time>2013-11-17T09:49:22.402Z</time>
      </trkpt>
      <trkpt lat="48.42168" lon="2.46803">
        <ele>64.667</ele>
        <time>2013-11-17T09:49:24.039Z</time>
      </trkpt>
      <trkpt lat="48.42155" lon="2.46799">
        <ele>64.729</ele>
        <time>2013-11-17T09:49:26.278Z</time>
      </trkpt>
      <trkpt lat="48.42139" lon="2.46791">
        <ele>65.357</ele>
        <time>2013-11-17T09:49:28.926Z</time>
      </trkpt>
      <trkpt lat="48.42126" lon="2.46783">
        <ele>65.471</ele>
        <time>2013-11-17T09:49:31.365Z</time>
      </trkpt>
      <trkpt lat="48.42117" lon="2.46778">
        <ele>64.858</ele>
        <time>2013-11-17T09:49:32.945Z</time>
      </trkpt>
      <trkpt lat="48.42105" lon="2.4677">
        <ele>64.247</ele>
        <time>2013-11-17T09:49:35.200Z</time>
      </trkpt>
      <trkpt lat="48.42093" lon="2.46762">
        <ele>64.165</ele>
        <time>2013-11-17T09:49:37.441Z</time>
      </trkpt>
      <trkpt lat="48.42081" lon="2.46753">
        <ele>64.974</ele>
        <time>2013-11-17T09:49:39.712Z</time>
      </trkpt>
      <trkpt lat="48.42069" lon="2.46745">
        <ele>66.621</ele>
        <time>2013-11-17T09:49:42.144Z</time>
      </trkpt>
      <trkpt lat="48.4206" lon="2.4674">
        <ele>68.25</ele>
        <time>2013-11-17T09:49:44.041Z</time>
      </trkpt>
      <trkpt lat="48.4206" lon="2.4674">
        <ele>69.141</ele>
        <time>2013-11-17T09:49:51.043Z</time>
      </trkpt>
      <trkpt lat="48.4206" lon="2.4674">
        <ele>69.377</ele>
        <time>2013-11-17T09:49:52.125Z</time>
      </trkpt>
      <trkpt lat="48.4206" lon="2.4674">
        <ele>69.284</ele>
        <time>2013-11-17T09:49:52.225Z</time>
      </trkpt>
      <trkpt lat="48.42051" lon="2.46723">
        <ele>69.139</ele>
        <time>2013-11-17T09:50:02.650Z</time>
      </trkpt>
      <trkpt lat="48.42039" lon="2.46717">
        <ele>68.389</ele>
        <time>2013-11-17T09:50:05.275Z</time>
      </trkpt>
      <trkpt lat="48.42024" lon="2.46709">
        <ele>65.901</ele>
        <time>2013-11-17T09:50:07.620Z</time>
      </trkpt>
      <trkpt lat="48.42007" lon="2.467">
        <ele>62.229</ele>
        <time>2013-11-17T09:50:10.072Z</time>
      </trkpt>
      <trkpt lat="48.41996" lon="2.46693">
        <ele>59.524</ele>
        <time>2013-11-17T09:50:11.616Z</time>
      </trkpt>
      <trkpt lat="48.41984" lon="2.46685">
        <ele>58.681</ele>
        <time>2013-11-17T09:50:13.124Z</time>
      </trkpt>
      <trkpt lat="48.41969" lon="2.46675">
        <ele>58.902</ele>
        <time>2013-11-17T09:50:15.057Z</time>
      </trkpt>
      <trkpt lat="48.41969" lon="2.46675">
        <ele>59.212</ele>
        <time>2013-11-17T09:50:16.045Z</time>
      </trkpt>
      <trkpt lat="48.41969" lon="2.46675">
        <ele>59.198</ele>
        <time>2013-11-17T09:50:16.145Z</time>
      </trkpt>
      <trkpt lat="48.41938" lon="2.46658">
        <ele>59.043</ele>
        <time>2013-11-17T09:50:24.585Z</time>
      </trkpt>
      <trkpt lat="48.41925" lon="2.46651">
        <ele>59.01</ele>
        <time>2013-11-17T09:50:27.122Z</time>
      </trkpt>
      <trkpt lat="48.41915" lon="2.46647">
        <ele>59.175</ele>
        <time>2013-11-17T09:50:28.951Z</time>
      </trkpt>
      <trkpt lat="48.41899" lon="2.46638">
        <ele>59.495</ele>
        <time>2013-11-17T09:50:31.961Z</time>
      </trkpt>
      <trkpt lat="48.41891" lon="2.4663">
        <ele>59.781</ele>
        <time>2013-11-17T09:50:33.699Z</time>
      </trkpt>
      <trkpt lat="48.41882" lon="2.46626">
        <ele>59.732</ele>
        <time>2013-11-17T09:50:35.395Z</time>
      </trkpt>
      <trkpt lat="48.41872" lon="2.46619">
        <ele>59.304</ele>
        <time>2013-11-17T09:50:37.316Z</time>
      </trkpt>
      <trkpt lat="48.41856" lon="2.46611">
        <ele>58.834</ele>
        <time>2013-11-17T09:50:40.531Z</time>
      </trkpt>
      <trkpt lat="48.41847" lon="2.46605">
        <ele>58.68</ele>
        <time>2013-11-17T09:50:42.571Z</time>
      </trkpt>
      <trkpt lat="48.4185" lon="2.46587">
        <ele>58.951</ele>
        <time>2013-11-17T09:50:45.243Z</time>
      </trkpt>
      <trkpt lat="48.41862" lon="2.4657">
        <ele>59.494</ele>
        <time>2013-11-17T09:50:49.337Z</time>
      </trkpt>
      <trkpt lat="48.41868" lon="2.46554">
        <ele>60.357</ele>
        <time>2013-11-17T09:50:52.367Z</time>
      </trkpt>
      <trkpt lat="48.41875" lon="2.46544">
        <ele>61.642</ele>
        <time>2013-11-17T09:50:54.799Z</time>
      </trkpt>
      <trkpt lat="48.41886" lon="2.46544">
        <ele>62.859</ele>
        <time>2013-11-17T09:50:57.852Z</time>
      </trkpt>
      <trkpt lat="48.41896" lon="2.46546">
        <ele>63.465</ele>
        <time>2013-11-17T09:51:00.716Z</time>
      </trkpt>
      <trkpt lat="48.41908" lon="2.46547">
        <ele>63.459</ele>
        <time>2013-11-17T09:51:04.262Z</time>
      </trkpt>
      <trkpt lat="48.4192" lon="2.46546">
        <ele>62.572</ele>
        <time>2013-11-17T09:51:07.707Z</time>
      </trkpt>
      <trkpt lat="48.41932" lon="2.46544">
        <ele>60.7</ele>
        <time>2013-11-17T09:51:11.076Z</time>
      </trkpt>
      <trkpt lat="48.41947" lon="2.46543">
        <ele>58.893</ele>
        <time>2013-11-17T09:51:14.823Z</time>
      </trkpt>
      <trkpt lat="48.4196" lon="2.46541">
        <ele>58.045</ele>
        <time>2013-11-17T09:51:18.100Z</time>
      </trkpt>
      <trkpt lat="48.41972" lon="2.46539">
        <ele>58.023</ele>
        <time>2013-11-17T09:51:21.270Z</time>
      </trkpt>
      <trkpt lat="48.41982" lon="2.46538">
        <ele>58.579</ele>
        <time>2013-11-17T09:51:24.096Z</time>
      </trkpt>
      <trkpt lat="48.41992" lon="2.46534">
        <ele>59.335</ele>
        <time>2013-11-17T09:51:26.759Z</time>
      </trkpt>
      <trkpt lat="48.42005" lon="2.46531">
        <ele>59.88</ele>
        <time>2013-11-17T09:51:30.357Z</time>
      </trkpt>
      <trkpt lat="48.42015" lon="2.46527">
        <ele>60.142</ele>
        <time>2013-11-17T09:51:32.734Z</time>
      </trkpt>
      <trkpt lat="48.42031" lon="2.46521">
        <ele>60.101</ele>
        <time>2013-11-17T09:51:36.228Z</time>
      </trkpt>
      <trkpt lat="48.4204" lon="2.46519">
        <ele>59.902</ele>
        <time>2013-11-17T09:51:38.318Z</time>
      </trkpt>
      <trkpt lat="48.42049" lon="2.46511">
        <ele>59.855</ele>
        <time>2013-11-17T09:51:40.885Z</time>
      </trkpt>
      <trkpt lat="48.42058" lon="2.4651">
        <ele>60.095</ele>
        <time>2013-11-17T09:51:43.168Z</time>
      </trkpt>
      <trkpt lat="48.42069" lon="2.4651">
        <ele>60.421</ele>
        <time>2013-11-17T09:51:45.937Z</time>
      </trkpt>
      <trkpt lat="48.42082" lon="2.46513">
        <ele>60.185</ele>
        <time>2013-11-17T09:51:49.324Z</time>
      </trkpt>
      <trkpt lat="48.42094" lon="2.46512">
        <ele>59.011</ele>
        <time>2013-11-17T09:51:52.229Z</time>
      </trkpt>
      <trkpt lat="48.42107" lon="2.46511">
        <ele>57.516</ele>
        <time>2013-11-17T09:51:55.170Z</time>
      </trkpt>
      <trkpt lat="48.42123" lon="2.4651">
        <ele>56.756</ele>
        <time>2013-11-17T09:51:58.393Z</time>
      </trkpt>
      <trkpt lat="48.42136" lon="2.4651">
        <ele>57.11</ele>
        <time>2013-11-17T09:52:01.087Z</time>
      </trkpt>
      <trkpt lat="48.42146" lon="2.4651">
        <ele>57.967</ele>
        <time>2013-11-17T09:52:03.024Z</time>
      </trkpt>
      <trkpt lat="48.42159" lon="2.4651">
        <ele>58.506</ele>
        <time>2013-11-17T09:52:05.472Z</time>
      </trkpt>
      <trkpt lat="48.4217" lon="2.46509">
        <ele>58.327</ele>
        <time>2013-11-17T09:52:07.451Z</time>
      </trkpt>
      <trkpt lat="48.42185" lon="2.46507">
        <ele>57.553</ele>
        <time>2013-11-17T09:52:10.054Z</time>
      </trkpt>
      <trkpt lat="48.42185" lon="2.46507">
        <ele>56.898</ele>
        <time>2013-11-17T09:52:11.055Z</time>
      </trkpt>
      <trkpt lat="48.42185" lon="2.46507">
        <ele>56.886</ele>
        <time>2013-11-17T09:52:11.155Z</time>
      </trkpt>
      <trkpt lat="48.42208" lon="2.46485">
        <ele>57.202</ele>
        <time>2013-11-17T09:52:16.067Z</time>
      </trkpt>
    </trkseg>
  </trk>
</gpx>